<?xml version="1.0" encoding="UTF-8" standalone="no" ?>
<gpx xmlns="http://www.topografix.com/GPX/1/1" xmlns:xsi="http://www.w3.org/2001/XMLSchema-instance" xsi:schemaLocation="http://www.topografix.com/GPX/1/1 http://www.topografix.com/GPX/1/1/gpx.xsd" version="1.1" creator="VisuGPX - https://www.visugpx.com">
  <metadata>
    <name>rando st girons 6 km</name>
  </metadata>
  <trk>
    <name><![CDATA[rando st girons 6 km_1]]></name>
    <trkseg>
      <trkpt lat="45.13359" lon="-0.56116">
        <ele>43.2</ele>
        <time>2020-09-05T09:01:03Z</time>
      </trkpt>
      <trkpt lat="45.13359" lon="-0.56116">
        <ele>43.2</ele>
        <time>2020-09-05T09:01:05Z</time>
      </trkpt>
      <trkpt lat="45.13359" lon="-0.56115">
        <ele>43.2</ele>
        <time>2020-09-05T09:01:07Z</time>
      </trkpt>
      <trkpt lat="45.13359" lon="-0.56114">
        <ele>43.2</ele>
        <time>2020-09-05T09:01:08Z</time>
      </trkpt>
      <trkpt lat="45.1336" lon="-0.56113">
        <ele>43.2</ele>
        <time>2020-09-05T09:01:09Z</time>
      </trkpt>
      <trkpt lat="45.1336" lon="-0.56111">
        <ele>43.2</ele>
        <time>2020-09-05T09:01:11Z</time>
      </trkpt>
      <trkpt lat="45.1336" lon="-0.56111">
        <ele>43.2</ele>
        <time>2020-09-05T09:01:12Z</time>
      </trkpt>
      <trkpt lat="45.13361" lon="-0.56111">
        <ele>43.2</ele>
        <time>2020-09-05T09:01:13Z</time>
      </trkpt>
      <trkpt lat="45.13361" lon="-0.5611">
        <ele>43.2</ele>
        <time>2020-09-05T09:01:15Z</time>
      </trkpt>
      <trkpt lat="45.13361" lon="-0.5611">
        <ele>43.2</ele>
        <time>2020-09-05T09:01:17Z</time>
      </trkpt>
      <trkpt lat="45.13362" lon="-0.56111">
        <ele>43.2</ele>
        <time>2020-09-05T09:01:18Z</time>
      </trkpt>
      <trkpt lat="45.13362" lon="-0.56113">
        <ele>43.1</ele>
        <time>2020-09-05T09:01:19Z</time>
      </trkpt>
      <trkpt lat="45.13362" lon="-0.56114">
        <ele>43.1</ele>
        <time>2020-09-05T09:01:20Z</time>
      </trkpt>
      <trkpt lat="45.13362" lon="-0.56116">
        <ele>43.1</ele>
        <time>2020-09-05T09:01:21Z</time>
      </trkpt>
      <trkpt lat="45.13362" lon="-0.56119">
        <ele>43.1</ele>
        <time>2020-09-05T09:01:22Z</time>
      </trkpt>
      <trkpt lat="45.13363" lon="-0.5612">
        <ele>43.1</ele>
        <time>2020-09-05T09:01:23Z</time>
      </trkpt>
      <trkpt lat="45.13364" lon="-0.56123">
        <ele>43.1</ele>
        <time>2020-09-05T09:01:25Z</time>
      </trkpt>
      <trkpt lat="45.13365" lon="-0.56125">
        <ele>43.1</ele>
        <time>2020-09-05T09:01:27Z</time>
      </trkpt>
      <trkpt lat="45.13367" lon="-0.56125">
        <ele>43</ele>
        <time>2020-09-05T09:01:28Z</time>
      </trkpt>
      <trkpt lat="45.13367" lon="-0.56126">
        <ele>43</ele>
        <time>2020-09-05T09:01:29Z</time>
      </trkpt>
      <trkpt lat="45.13368" lon="-0.56126">
        <ele>43</ele>
        <time>2020-09-05T09:01:31Z</time>
      </trkpt>
      <trkpt lat="45.1337" lon="-0.56127">
        <ele>43</ele>
        <time>2020-09-05T09:01:32Z</time>
      </trkpt>
      <trkpt lat="45.13371" lon="-0.56127">
        <ele>43</ele>
        <time>2020-09-05T09:01:33Z</time>
      </trkpt>
      <trkpt lat="45.13373" lon="-0.56127">
        <ele>43</ele>
        <time>2020-09-05T09:01:35Z</time>
      </trkpt>
      <trkpt lat="45.13374" lon="-0.56127">
        <ele>43</ele>
        <time>2020-09-05T09:01:36Z</time>
      </trkpt>
      <trkpt lat="45.13376" lon="-0.56128">
        <ele>43</ele>
        <time>2020-09-05T09:01:37Z</time>
      </trkpt>
      <trkpt lat="45.13379" lon="-0.56128">
        <ele>42.9</ele>
        <time>2020-09-05T09:01:38Z</time>
      </trkpt>
      <trkpt lat="45.13381" lon="-0.56128">
        <ele>42.9</ele>
        <time>2020-09-05T09:01:40Z</time>
      </trkpt>
      <trkpt lat="45.13383" lon="-0.56131">
        <ele>42.9</ele>
        <time>2020-09-05T09:01:42Z</time>
      </trkpt>
      <trkpt lat="45.13384" lon="-0.56132">
        <ele>42.9</ele>
        <time>2020-09-05T09:01:44Z</time>
      </trkpt>
      <trkpt lat="45.13384" lon="-0.56132">
        <ele>42.9</ele>
        <time>2020-09-05T09:01:45Z</time>
      </trkpt>
      <trkpt lat="45.13385" lon="-0.56133">
        <ele>42.9</ele>
        <time>2020-09-05T09:01:46Z</time>
      </trkpt>
      <trkpt lat="45.13385" lon="-0.56133">
        <ele>42.9</ele>
        <time>2020-09-05T09:01:48Z</time>
      </trkpt>
      <trkpt lat="45.13385" lon="-0.56134">
        <ele>42.9</ele>
        <time>2020-09-05T09:01:49Z</time>
      </trkpt>
      <trkpt lat="45.13386" lon="-0.56133">
        <ele>42.9</ele>
        <time>2020-09-05T09:01:50Z</time>
      </trkpt>
      <trkpt lat="45.13387" lon="-0.56133">
        <ele>42.9</ele>
        <time>2020-09-05T09:01:51Z</time>
      </trkpt>
      <trkpt lat="45.13391" lon="-0.5613">
        <ele>42.8</ele>
        <time>2020-09-05T09:01:53Z</time>
      </trkpt>
      <trkpt lat="45.13392" lon="-0.56129">
        <ele>42.8</ele>
        <time>2020-09-05T09:01:54Z</time>
      </trkpt>
      <trkpt lat="45.13394" lon="-0.56127">
        <ele>42.8</ele>
        <time>2020-09-05T09:01:56Z</time>
      </trkpt>
      <trkpt lat="45.13396" lon="-0.56125">
        <ele>42.8</ele>
        <time>2020-09-05T09:01:57Z</time>
      </trkpt>
      <trkpt lat="45.13399" lon="-0.56123">
        <ele>42.8</ele>
        <time>2020-09-05T09:01:59Z</time>
      </trkpt>
      <trkpt lat="45.134" lon="-0.56122">
        <ele>42.8</ele>
        <time>2020-09-05T09:02:00Z</time>
      </trkpt>
      <trkpt lat="45.13402" lon="-0.5612">
        <ele>42.8</ele>
        <time>2020-09-05T09:02:01Z</time>
      </trkpt>
      <trkpt lat="45.13404" lon="-0.56118">
        <ele>42.8</ele>
        <time>2020-09-05T09:02:03Z</time>
      </trkpt>
      <trkpt lat="45.13405" lon="-0.56117">
        <ele>42.8</ele>
        <time>2020-09-05T09:02:04Z</time>
      </trkpt>
      <trkpt lat="45.13407" lon="-0.56116">
        <ele>42.8</ele>
        <time>2020-09-05T09:02:06Z</time>
      </trkpt>
      <trkpt lat="45.13408" lon="-0.56114">
        <ele>42.8</ele>
        <time>2020-09-05T09:02:07Z</time>
      </trkpt>
      <trkpt lat="45.1341" lon="-0.56112">
        <ele>42.8</ele>
        <time>2020-09-05T09:02:08Z</time>
      </trkpt>
      <trkpt lat="45.13411" lon="-0.56111">
        <ele>42.8</ele>
        <time>2020-09-05T09:02:09Z</time>
      </trkpt>
      <trkpt lat="45.13412" lon="-0.56111">
        <ele>42.8</ele>
        <time>2020-09-05T09:02:10Z</time>
      </trkpt>
      <trkpt lat="45.13413" lon="-0.56109">
        <ele>42.8</ele>
        <time>2020-09-05T09:02:11Z</time>
      </trkpt>
      <trkpt lat="45.13414" lon="-0.56108">
        <ele>42.8</ele>
        <time>2020-09-05T09:02:12Z</time>
      </trkpt>
      <trkpt lat="45.13415" lon="-0.56107">
        <ele>42.8</ele>
        <time>2020-09-05T09:02:13Z</time>
      </trkpt>
      <trkpt lat="45.13416" lon="-0.56106">
        <ele>42.8</ele>
        <time>2020-09-05T09:02:14Z</time>
      </trkpt>
      <trkpt lat="45.13416" lon="-0.56105">
        <ele>42.8</ele>
        <time>2020-09-05T09:02:15Z</time>
      </trkpt>
      <trkpt lat="45.13417" lon="-0.56104">
        <ele>42.8</ele>
        <time>2020-09-05T09:02:17Z</time>
      </trkpt>
      <trkpt lat="45.13418" lon="-0.56104">
        <ele>42.8</ele>
        <time>2020-09-05T09:02:18Z</time>
      </trkpt>
      <trkpt lat="45.13419" lon="-0.56103">
        <ele>42.8</ele>
        <time>2020-09-05T09:02:19Z</time>
      </trkpt>
      <trkpt lat="45.1342" lon="-0.56101">
        <ele>42.8</ele>
        <time>2020-09-05T09:02:20Z</time>
      </trkpt>
      <trkpt lat="45.13421" lon="-0.561">
        <ele>42.8</ele>
        <time>2020-09-05T09:02:21Z</time>
      </trkpt>
      <trkpt lat="45.13421" lon="-0.56099">
        <ele>42.8</ele>
        <time>2020-09-05T09:02:22Z</time>
      </trkpt>
      <trkpt lat="45.13423" lon="-0.56097">
        <ele>42.8</ele>
        <time>2020-09-05T09:02:23Z</time>
      </trkpt>
      <trkpt lat="45.13423" lon="-0.56096">
        <ele>42.8</ele>
        <time>2020-09-05T09:02:24Z</time>
      </trkpt>
      <trkpt lat="45.13424" lon="-0.56095">
        <ele>42.8</ele>
        <time>2020-09-05T09:02:25Z</time>
      </trkpt>
      <trkpt lat="45.13425" lon="-0.56093">
        <ele>42.8</ele>
        <time>2020-09-05T09:02:26Z</time>
      </trkpt>
      <trkpt lat="45.13426" lon="-0.56092">
        <ele>42.8</ele>
        <time>2020-09-05T09:02:27Z</time>
      </trkpt>
      <trkpt lat="45.13426" lon="-0.56091">
        <ele>42.8</ele>
        <time>2020-09-05T09:02:28Z</time>
      </trkpt>
      <trkpt lat="45.13428" lon="-0.56089">
        <ele>42.8</ele>
        <time>2020-09-05T09:02:29Z</time>
      </trkpt>
      <trkpt lat="45.13428" lon="-0.56088">
        <ele>42.8</ele>
        <time>2020-09-05T09:02:30Z</time>
      </trkpt>
      <trkpt lat="45.13429" lon="-0.56087">
        <ele>42.8</ele>
        <time>2020-09-05T09:02:31Z</time>
      </trkpt>
      <trkpt lat="45.1343" lon="-0.56085">
        <ele>42.8</ele>
        <time>2020-09-05T09:02:32Z</time>
      </trkpt>
      <trkpt lat="45.13432" lon="-0.56084">
        <ele>42.8</ele>
        <time>2020-09-05T09:02:33Z</time>
      </trkpt>
      <trkpt lat="45.13433" lon="-0.56083">
        <ele>42.8</ele>
        <time>2020-09-05T09:02:34Z</time>
      </trkpt>
      <trkpt lat="45.13435" lon="-0.5608">
        <ele>42.8</ele>
        <time>2020-09-05T09:02:36Z</time>
      </trkpt>
      <trkpt lat="45.13436" lon="-0.56079">
        <ele>42.8</ele>
        <time>2020-09-05T09:02:37Z</time>
      </trkpt>
      <trkpt lat="45.13437" lon="-0.56078">
        <ele>42.8</ele>
        <time>2020-09-05T09:02:38Z</time>
      </trkpt>
      <trkpt lat="45.13437" lon="-0.56077">
        <ele>42.8</ele>
        <time>2020-09-05T09:02:39Z</time>
      </trkpt>
      <trkpt lat="45.13439" lon="-0.56076">
        <ele>42.8</ele>
        <time>2020-09-05T09:02:41Z</time>
      </trkpt>
      <trkpt lat="45.13439" lon="-0.56075">
        <ele>42.8</ele>
        <time>2020-09-05T09:02:42Z</time>
      </trkpt>
      <trkpt lat="45.13442" lon="-0.56072">
        <ele>42.8</ele>
        <time>2020-09-05T09:02:44Z</time>
      </trkpt>
      <trkpt lat="45.13442" lon="-0.56071">
        <ele>42.8</ele>
        <time>2020-09-05T09:02:45Z</time>
      </trkpt>
      <trkpt lat="45.13443" lon="-0.5607">
        <ele>42.8</ele>
        <time>2020-09-05T09:02:46Z</time>
      </trkpt>
      <trkpt lat="45.13444" lon="-0.56069">
        <ele>42.8</ele>
        <time>2020-09-05T09:02:47Z</time>
      </trkpt>
      <trkpt lat="45.13446" lon="-0.56067">
        <ele>42.8</ele>
        <time>2020-09-05T09:02:49Z</time>
      </trkpt>
      <trkpt lat="45.13447" lon="-0.56066">
        <ele>42.8</ele>
        <time>2020-09-05T09:02:50Z</time>
      </trkpt>
      <trkpt lat="45.13448" lon="-0.56065">
        <ele>42.8</ele>
        <time>2020-09-05T09:02:51Z</time>
      </trkpt>
      <trkpt lat="45.1345" lon="-0.56063">
        <ele>42.8</ele>
        <time>2020-09-05T09:02:52Z</time>
      </trkpt>
      <trkpt lat="45.13452" lon="-0.56062">
        <ele>42.8</ele>
        <time>2020-09-05T09:02:54Z</time>
      </trkpt>
      <trkpt lat="45.13453" lon="-0.56061">
        <ele>42.8</ele>
        <time>2020-09-05T09:02:55Z</time>
      </trkpt>
      <trkpt lat="45.13455" lon="-0.56059">
        <ele>42.8</ele>
        <time>2020-09-05T09:02:56Z</time>
      </trkpt>
      <trkpt lat="45.13457" lon="-0.56057">
        <ele>42.8</ele>
        <time>2020-09-05T09:02:58Z</time>
      </trkpt>
      <trkpt lat="45.13458" lon="-0.56057">
        <ele>42.8</ele>
        <time>2020-09-05T09:02:59Z</time>
      </trkpt>
      <trkpt lat="45.13459" lon="-0.56056">
        <ele>42.8</ele>
        <time>2020-09-05T09:03:00Z</time>
      </trkpt>
      <trkpt lat="45.1346" lon="-0.56055">
        <ele>42.8</ele>
        <time>2020-09-05T09:03:02Z</time>
      </trkpt>
      <trkpt lat="45.13461" lon="-0.56054">
        <ele>42.8</ele>
        <time>2020-09-05T09:03:03Z</time>
      </trkpt>
      <trkpt lat="45.13463" lon="-0.56053">
        <ele>42.9</ele>
        <time>2020-09-05T09:03:05Z</time>
      </trkpt>
      <trkpt lat="45.13465" lon="-0.56052">
        <ele>42.9</ele>
        <time>2020-09-05T09:03:06Z</time>
      </trkpt>
      <trkpt lat="45.13466" lon="-0.56052">
        <ele>42.9</ele>
        <time>2020-09-05T09:03:08Z</time>
      </trkpt>
      <trkpt lat="45.13467" lon="-0.56051">
        <ele>42.9</ele>
        <time>2020-09-05T09:03:09Z</time>
      </trkpt>
      <trkpt lat="45.13469" lon="-0.5605">
        <ele>42.9</ele>
        <time>2020-09-05T09:03:11Z</time>
      </trkpt>
      <trkpt lat="45.1347" lon="-0.5605">
        <ele>42.9</ele>
        <time>2020-09-05T09:03:12Z</time>
      </trkpt>
      <trkpt lat="45.13472" lon="-0.56049">
        <ele>42.9</ele>
        <time>2020-09-05T09:03:13Z</time>
      </trkpt>
      <trkpt lat="45.13473" lon="-0.56049">
        <ele>43</ele>
        <time>2020-09-05T09:03:14Z</time>
      </trkpt>
      <trkpt lat="45.13474" lon="-0.56048">
        <ele>43</ele>
        <time>2020-09-05T09:03:15Z</time>
      </trkpt>
      <trkpt lat="45.13475" lon="-0.56048">
        <ele>43</ele>
        <time>2020-09-05T09:03:16Z</time>
      </trkpt>
      <trkpt lat="45.13477" lon="-0.56047">
        <ele>43</ele>
        <time>2020-09-05T09:03:17Z</time>
      </trkpt>
      <trkpt lat="45.13478" lon="-0.56046">
        <ele>43</ele>
        <time>2020-09-05T09:03:18Z</time>
      </trkpt>
      <trkpt lat="45.13478" lon="-0.56046">
        <ele>43</ele>
        <time>2020-09-05T09:03:19Z</time>
      </trkpt>
      <trkpt lat="45.13479" lon="-0.56045">
        <ele>43.1</ele>
        <time>2020-09-05T09:03:20Z</time>
      </trkpt>
      <trkpt lat="45.1348" lon="-0.56045">
        <ele>43.1</ele>
        <time>2020-09-05T09:03:21Z</time>
      </trkpt>
      <trkpt lat="45.13483" lon="-0.56043">
        <ele>43.1</ele>
        <time>2020-09-05T09:03:23Z</time>
      </trkpt>
      <trkpt lat="45.13486" lon="-0.56042">
        <ele>43.2</ele>
        <time>2020-09-05T09:03:25Z</time>
      </trkpt>
      <trkpt lat="45.13489" lon="-0.56042">
        <ele>43.2</ele>
        <time>2020-09-05T09:03:27Z</time>
      </trkpt>
      <trkpt lat="45.13491" lon="-0.56041">
        <ele>43.3</ele>
        <time>2020-09-05T09:03:28Z</time>
      </trkpt>
      <trkpt lat="45.13492" lon="-0.5604">
        <ele>43.3</ele>
        <time>2020-09-05T09:03:29Z</time>
      </trkpt>
      <trkpt lat="45.13494" lon="-0.56039">
        <ele>43.3</ele>
        <time>2020-09-05T09:03:30Z</time>
      </trkpt>
      <trkpt lat="45.13497" lon="-0.56038">
        <ele>43.4</ele>
        <time>2020-09-05T09:03:32Z</time>
      </trkpt>
      <trkpt lat="45.13499" lon="-0.56035">
        <ele>43.4</ele>
        <time>2020-09-05T09:03:33Z</time>
      </trkpt>
      <trkpt lat="45.135" lon="-0.56033">
        <ele>43.4</ele>
        <time>2020-09-05T09:03:34Z</time>
      </trkpt>
      <trkpt lat="45.13502" lon="-0.56031">
        <ele>43.4</ele>
        <time>2020-09-05T09:03:36Z</time>
      </trkpt>
      <trkpt lat="45.13503" lon="-0.56027">
        <ele>43.4</ele>
        <time>2020-09-05T09:03:37Z</time>
      </trkpt>
      <trkpt lat="45.13504" lon="-0.56026">
        <ele>43.4</ele>
        <time>2020-09-05T09:03:38Z</time>
      </trkpt>
      <trkpt lat="45.13505" lon="-0.56024">
        <ele>43.4</ele>
        <time>2020-09-05T09:03:40Z</time>
      </trkpt>
      <trkpt lat="45.13505" lon="-0.56021">
        <ele>43.4</ele>
        <time>2020-09-05T09:03:41Z</time>
      </trkpt>
      <trkpt lat="45.13505" lon="-0.56019">
        <ele>43.4</ele>
        <time>2020-09-05T09:03:42Z</time>
      </trkpt>
      <trkpt lat="45.13503" lon="-0.56016">
        <ele>43.4</ele>
        <time>2020-09-05T09:03:44Z</time>
      </trkpt>
      <trkpt lat="45.13503" lon="-0.56012">
        <ele>43.4</ele>
        <time>2020-09-05T09:03:45Z</time>
      </trkpt>
      <trkpt lat="45.13503" lon="-0.56011">
        <ele>43.4</ele>
        <time>2020-09-05T09:03:46Z</time>
      </trkpt>
      <trkpt lat="45.13502" lon="-0.56007">
        <ele>43.4</ele>
        <time>2020-09-05T09:03:48Z</time>
      </trkpt>
      <trkpt lat="45.13502" lon="-0.56006">
        <ele>43.4</ele>
        <time>2020-09-05T09:03:49Z</time>
      </trkpt>
      <trkpt lat="45.13501" lon="-0.56003">
        <ele>43.4</ele>
        <time>2020-09-05T09:03:50Z</time>
      </trkpt>
      <trkpt lat="45.13501" lon="-0.56001">
        <ele>43.5</ele>
        <time>2020-09-05T09:03:52Z</time>
      </trkpt>
      <trkpt lat="45.13501" lon="-0.55999">
        <ele>43.5</ele>
        <time>2020-09-05T09:03:53Z</time>
      </trkpt>
      <trkpt lat="45.135" lon="-0.55997">
        <ele>43.5</ele>
        <time>2020-09-05T09:03:54Z</time>
      </trkpt>
      <trkpt lat="45.135" lon="-0.55994">
        <ele>43.5</ele>
        <time>2020-09-05T09:03:56Z</time>
      </trkpt>
      <trkpt lat="45.135" lon="-0.55992">
        <ele>43.5</ele>
        <time>2020-09-05T09:03:57Z</time>
      </trkpt>
      <trkpt lat="45.135" lon="-0.5599">
        <ele>43.5</ele>
        <time>2020-09-05T09:03:58Z</time>
      </trkpt>
      <trkpt lat="45.135" lon="-0.55988">
        <ele>43.5</ele>
        <time>2020-09-05T09:04:00Z</time>
      </trkpt>
      <trkpt lat="45.135" lon="-0.55985">
        <ele>43.5</ele>
        <time>2020-09-05T09:04:01Z</time>
      </trkpt>
      <trkpt lat="45.135" lon="-0.55984">
        <ele>43.5</ele>
        <time>2020-09-05T09:04:02Z</time>
      </trkpt>
      <trkpt lat="45.135" lon="-0.5598">
        <ele>43.6</ele>
        <time>2020-09-05T09:04:03Z</time>
      </trkpt>
      <trkpt lat="45.13499" lon="-0.55978">
        <ele>43.6</ele>
        <time>2020-09-05T09:04:05Z</time>
      </trkpt>
      <trkpt lat="45.135" lon="-0.55976">
        <ele>43.6</ele>
        <time>2020-09-05T09:04:06Z</time>
      </trkpt>
      <trkpt lat="45.135" lon="-0.55975">
        <ele>43.6</ele>
        <time>2020-09-05T09:04:07Z</time>
      </trkpt>
      <trkpt lat="45.135" lon="-0.55972">
        <ele>43.6</ele>
        <time>2020-09-05T09:04:08Z</time>
      </trkpt>
      <trkpt lat="45.135" lon="-0.55971">
        <ele>43.6</ele>
        <time>2020-09-05T09:04:09Z</time>
      </trkpt>
      <trkpt lat="45.13501" lon="-0.55968">
        <ele>43.6</ele>
        <time>2020-09-05T09:04:11Z</time>
      </trkpt>
      <trkpt lat="45.13501" lon="-0.55966">
        <ele>43.7</ele>
        <time>2020-09-05T09:04:12Z</time>
      </trkpt>
      <trkpt lat="45.13501" lon="-0.55965">
        <ele>43.7</ele>
        <time>2020-09-05T09:04:13Z</time>
      </trkpt>
      <trkpt lat="45.13501" lon="-0.55963">
        <ele>43.7</ele>
        <time>2020-09-05T09:04:15Z</time>
      </trkpt>
      <trkpt lat="45.13501" lon="-0.55961">
        <ele>43.7</ele>
        <time>2020-09-05T09:04:16Z</time>
      </trkpt>
      <trkpt lat="45.13501" lon="-0.5596">
        <ele>43.7</ele>
        <time>2020-09-05T09:04:17Z</time>
      </trkpt>
      <trkpt lat="45.13502" lon="-0.55958">
        <ele>43.7</ele>
        <time>2020-09-05T09:04:18Z</time>
      </trkpt>
      <trkpt lat="45.13502" lon="-0.55955">
        <ele>43.7</ele>
        <time>2020-09-05T09:04:19Z</time>
      </trkpt>
      <trkpt lat="45.13502" lon="-0.55954">
        <ele>43.7</ele>
        <time>2020-09-05T09:04:20Z</time>
      </trkpt>
      <trkpt lat="45.13502" lon="-0.55951">
        <ele>43.7</ele>
        <time>2020-09-05T09:04:21Z</time>
      </trkpt>
      <trkpt lat="45.13502" lon="-0.55949">
        <ele>43.7</ele>
        <time>2020-09-05T09:04:22Z</time>
      </trkpt>
      <trkpt lat="45.13502" lon="-0.55948">
        <ele>43.7</ele>
        <time>2020-09-05T09:04:23Z</time>
      </trkpt>
      <trkpt lat="45.13502" lon="-0.55945">
        <ele>43.8</ele>
        <time>2020-09-05T09:04:24Z</time>
      </trkpt>
      <trkpt lat="45.13502" lon="-0.55943">
        <ele>43.8</ele>
        <time>2020-09-05T09:04:25Z</time>
      </trkpt>
      <trkpt lat="45.13502" lon="-0.55941">
        <ele>43.8</ele>
        <time>2020-09-05T09:04:26Z</time>
      </trkpt>
      <trkpt lat="45.13502" lon="-0.55939">
        <ele>43.8</ele>
        <time>2020-09-05T09:04:27Z</time>
      </trkpt>
      <trkpt lat="45.13502" lon="-0.55938">
        <ele>43.8</ele>
        <time>2020-09-05T09:04:28Z</time>
      </trkpt>
      <trkpt lat="45.13502" lon="-0.55935">
        <ele>43.8</ele>
        <time>2020-09-05T09:04:29Z</time>
      </trkpt>
      <trkpt lat="45.13502" lon="-0.55934">
        <ele>43.8</ele>
        <time>2020-09-05T09:04:31Z</time>
      </trkpt>
      <trkpt lat="45.13502" lon="-0.55933">
        <ele>43.8</ele>
        <time>2020-09-05T09:04:32Z</time>
      </trkpt>
      <trkpt lat="45.13501" lon="-0.55929">
        <ele>43.8</ele>
        <time>2020-09-05T09:04:34Z</time>
      </trkpt>
      <trkpt lat="45.13501" lon="-0.55927">
        <ele>43.8</ele>
        <time>2020-09-05T09:04:36Z</time>
      </trkpt>
      <trkpt lat="45.13501" lon="-0.55923">
        <ele>43.9</ele>
        <time>2020-09-05T09:04:37Z</time>
      </trkpt>
      <trkpt lat="45.13501" lon="-0.55921">
        <ele>43.9</ele>
        <time>2020-09-05T09:04:38Z</time>
      </trkpt>
      <trkpt lat="45.13501" lon="-0.5592">
        <ele>43.9</ele>
        <time>2020-09-05T09:04:39Z</time>
      </trkpt>
      <trkpt lat="45.13501" lon="-0.55917">
        <ele>43.9</ele>
        <time>2020-09-05T09:04:41Z</time>
      </trkpt>
      <trkpt lat="45.13502" lon="-0.55916">
        <ele>43.9</ele>
        <time>2020-09-05T09:04:42Z</time>
      </trkpt>
      <trkpt lat="45.13502" lon="-0.55914">
        <ele>43.9</ele>
        <time>2020-09-05T09:04:43Z</time>
      </trkpt>
      <trkpt lat="45.13502" lon="-0.55912">
        <ele>43.9</ele>
        <time>2020-09-05T09:04:45Z</time>
      </trkpt>
      <trkpt lat="45.13502" lon="-0.55909">
        <ele>44</ele>
        <time>2020-09-05T09:04:46Z</time>
      </trkpt>
      <trkpt lat="45.13503" lon="-0.55906">
        <ele>44</ele>
        <time>2020-09-05T09:04:48Z</time>
      </trkpt>
      <trkpt lat="45.13503" lon="-0.55901">
        <ele>44</ele>
        <time>2020-09-05T09:04:49Z</time>
      </trkpt>
      <trkpt lat="45.13503" lon="-0.559">
        <ele>44</ele>
        <time>2020-09-05T09:04:51Z</time>
      </trkpt>
      <trkpt lat="45.13503" lon="-0.55898">
        <ele>44</ele>
        <time>2020-09-05T09:04:52Z</time>
      </trkpt>
      <trkpt lat="45.13504" lon="-0.55896">
        <ele>44.1</ele>
        <time>2020-09-05T09:04:53Z</time>
      </trkpt>
      <trkpt lat="45.13504" lon="-0.55894">
        <ele>44.1</ele>
        <time>2020-09-05T09:04:55Z</time>
      </trkpt>
      <trkpt lat="45.13505" lon="-0.55893">
        <ele>44.1</ele>
        <time>2020-09-05T09:04:56Z</time>
      </trkpt>
      <trkpt lat="45.13505" lon="-0.55892">
        <ele>44.1</ele>
        <time>2020-09-05T09:04:57Z</time>
      </trkpt>
      <trkpt lat="45.13506" lon="-0.55889">
        <ele>44.1</ele>
        <time>2020-09-05T09:04:59Z</time>
      </trkpt>
      <trkpt lat="45.13507" lon="-0.55889">
        <ele>44.1</ele>
        <time>2020-09-05T09:05:00Z</time>
      </trkpt>
      <trkpt lat="45.13508" lon="-0.55889">
        <ele>44.1</ele>
        <time>2020-09-05T09:05:01Z</time>
      </trkpt>
      <trkpt lat="45.1351" lon="-0.55888">
        <ele>44.1</ele>
        <time>2020-09-05T09:05:03Z</time>
      </trkpt>
      <trkpt lat="45.13514" lon="-0.55889">
        <ele>44.1</ele>
        <time>2020-09-05T09:05:05Z</time>
      </trkpt>
      <trkpt lat="45.13515" lon="-0.55889">
        <ele>44.1</ele>
        <time>2020-09-05T09:05:06Z</time>
      </trkpt>
      <trkpt lat="45.13517" lon="-0.55889">
        <ele>44.1</ele>
        <time>2020-09-05T09:05:07Z</time>
      </trkpt>
      <trkpt lat="45.13518" lon="-0.5589">
        <ele>44.1</ele>
        <time>2020-09-05T09:05:08Z</time>
      </trkpt>
      <trkpt lat="45.1352" lon="-0.55891">
        <ele>44.1</ele>
        <time>2020-09-05T09:05:09Z</time>
      </trkpt>
      <trkpt lat="45.13521" lon="-0.55892">
        <ele>44.1</ele>
        <time>2020-09-05T09:05:11Z</time>
      </trkpt>
      <trkpt lat="45.13522" lon="-0.55892">
        <ele>44.1</ele>
        <time>2020-09-05T09:05:12Z</time>
      </trkpt>
      <trkpt lat="45.13523" lon="-0.55893">
        <ele>44.1</ele>
        <time>2020-09-05T09:05:13Z</time>
      </trkpt>
      <trkpt lat="45.13525" lon="-0.55893">
        <ele>44.1</ele>
        <time>2020-09-05T09:05:14Z</time>
      </trkpt>
      <trkpt lat="45.13527" lon="-0.55894">
        <ele>44.1</ele>
        <time>2020-09-05T09:05:16Z</time>
      </trkpt>
      <trkpt lat="45.13528" lon="-0.55894">
        <ele>44.1</ele>
        <time>2020-09-05T09:05:17Z</time>
      </trkpt>
      <trkpt lat="45.1353" lon="-0.55894">
        <ele>44.1</ele>
        <time>2020-09-05T09:05:19Z</time>
      </trkpt>
      <trkpt lat="45.13532" lon="-0.55894">
        <ele>44.1</ele>
        <time>2020-09-05T09:05:20Z</time>
      </trkpt>
      <trkpt lat="45.13533" lon="-0.55894">
        <ele>44.1</ele>
        <time>2020-09-05T09:05:22Z</time>
      </trkpt>
      <trkpt lat="45.13536" lon="-0.55894">
        <ele>44.1</ele>
        <time>2020-09-05T09:05:23Z</time>
      </trkpt>
      <trkpt lat="45.13537" lon="-0.55895">
        <ele>44.1</ele>
        <time>2020-09-05T09:05:25Z</time>
      </trkpt>
      <trkpt lat="45.13538" lon="-0.55895">
        <ele>44.1</ele>
        <time>2020-09-05T09:05:26Z</time>
      </trkpt>
      <trkpt lat="45.1354" lon="-0.55895">
        <ele>44.1</ele>
        <time>2020-09-05T09:05:27Z</time>
      </trkpt>
      <trkpt lat="45.13543" lon="-0.55895">
        <ele>44.1</ele>
        <time>2020-09-05T09:05:29Z</time>
      </trkpt>
      <trkpt lat="45.13543" lon="-0.55895">
        <ele>44.1</ele>
        <time>2020-09-05T09:05:30Z</time>
      </trkpt>
      <trkpt lat="45.13544" lon="-0.55895">
        <ele>44.1</ele>
        <time>2020-09-05T09:05:31Z</time>
      </trkpt>
      <trkpt lat="45.13545" lon="-0.55895">
        <ele>44.1</ele>
        <time>2020-09-05T09:05:32Z</time>
      </trkpt>
      <trkpt lat="45.13546" lon="-0.55895">
        <ele>44.1</ele>
        <time>2020-09-05T09:05:33Z</time>
      </trkpt>
      <trkpt lat="45.13547" lon="-0.55895">
        <ele>44.1</ele>
        <time>2020-09-05T09:05:34Z</time>
      </trkpt>
      <trkpt lat="45.13548" lon="-0.55895">
        <ele>44.1</ele>
        <time>2020-09-05T09:05:36Z</time>
      </trkpt>
      <trkpt lat="45.13549" lon="-0.55895">
        <ele>44.1</ele>
        <time>2020-09-05T09:05:37Z</time>
      </trkpt>
      <trkpt lat="45.13552" lon="-0.55895">
        <ele>44.1</ele>
        <time>2020-09-05T09:05:38Z</time>
      </trkpt>
      <trkpt lat="45.13553" lon="-0.55894">
        <ele>44.1</ele>
        <time>2020-09-05T09:05:39Z</time>
      </trkpt>
      <trkpt lat="45.13554" lon="-0.55894">
        <ele>44.1</ele>
        <time>2020-09-05T09:05:40Z</time>
      </trkpt>
      <trkpt lat="45.13555" lon="-0.55894">
        <ele>44.1</ele>
        <time>2020-09-05T09:05:41Z</time>
      </trkpt>
      <trkpt lat="45.13557" lon="-0.55894">
        <ele>44.1</ele>
        <time>2020-09-05T09:05:42Z</time>
      </trkpt>
      <trkpt lat="45.1356" lon="-0.55894">
        <ele>44.1</ele>
        <time>2020-09-05T09:05:44Z</time>
      </trkpt>
      <trkpt lat="45.13561" lon="-0.55894">
        <ele>44.1</ele>
        <time>2020-09-05T09:05:45Z</time>
      </trkpt>
      <trkpt lat="45.13562" lon="-0.55894">
        <ele>44.1</ele>
        <time>2020-09-05T09:05:46Z</time>
      </trkpt>
      <trkpt lat="45.13563" lon="-0.55894">
        <ele>44.1</ele>
        <time>2020-09-05T09:05:47Z</time>
      </trkpt>
      <trkpt lat="45.13564" lon="-0.55894">
        <ele>44.1</ele>
        <time>2020-09-05T09:05:48Z</time>
      </trkpt>
      <trkpt lat="45.13567" lon="-0.55895">
        <ele>44.1</ele>
        <time>2020-09-05T09:05:50Z</time>
      </trkpt>
      <trkpt lat="45.13568" lon="-0.55895">
        <ele>44.1</ele>
        <time>2020-09-05T09:05:51Z</time>
      </trkpt>
      <trkpt lat="45.13569" lon="-0.55895">
        <ele>44.1</ele>
        <time>2020-09-05T09:05:52Z</time>
      </trkpt>
      <trkpt lat="45.13573" lon="-0.55895">
        <ele>44.1</ele>
        <time>2020-09-05T09:05:54Z</time>
      </trkpt>
      <trkpt lat="45.13575" lon="-0.55894">
        <ele>44</ele>
        <time>2020-09-05T09:05:55Z</time>
      </trkpt>
      <trkpt lat="45.13576" lon="-0.55894">
        <ele>44</ele>
        <time>2020-09-05T09:05:56Z</time>
      </trkpt>
      <trkpt lat="45.13576" lon="-0.55894">
        <ele>44</ele>
        <time>2020-09-05T09:05:57Z</time>
      </trkpt>
      <trkpt lat="45.1358" lon="-0.55894">
        <ele>44</ele>
        <time>2020-09-05T09:05:58Z</time>
      </trkpt>
      <trkpt lat="45.13581" lon="-0.55894">
        <ele>44</ele>
        <time>2020-09-05T09:06:00Z</time>
      </trkpt>
      <trkpt lat="45.13583" lon="-0.55893">
        <ele>44</ele>
        <time>2020-09-05T09:06:01Z</time>
      </trkpt>
      <trkpt lat="45.13585" lon="-0.55893">
        <ele>44</ele>
        <time>2020-09-05T09:06:02Z</time>
      </trkpt>
      <trkpt lat="45.13587" lon="-0.55893">
        <ele>44</ele>
        <time>2020-09-05T09:06:04Z</time>
      </trkpt>
      <trkpt lat="45.13588" lon="-0.55893">
        <ele>44</ele>
        <time>2020-09-05T09:06:05Z</time>
      </trkpt>
      <trkpt lat="45.13589" lon="-0.55893">
        <ele>44</ele>
        <time>2020-09-05T09:06:07Z</time>
      </trkpt>
      <trkpt lat="45.1359" lon="-0.55893">
        <ele>44</ele>
        <time>2020-09-05T09:06:08Z</time>
      </trkpt>
      <trkpt lat="45.13593" lon="-0.55893">
        <ele>44</ele>
        <time>2020-09-05T09:06:09Z</time>
      </trkpt>
      <trkpt lat="45.13594" lon="-0.55893">
        <ele>44</ele>
        <time>2020-09-05T09:06:10Z</time>
      </trkpt>
      <trkpt lat="45.13595" lon="-0.55893">
        <ele>44</ele>
        <time>2020-09-05T09:06:11Z</time>
      </trkpt>
      <trkpt lat="45.13596" lon="-0.55893">
        <ele>44</ele>
        <time>2020-09-05T09:06:13Z</time>
      </trkpt>
      <trkpt lat="45.13597" lon="-0.55892">
        <ele>44</ele>
        <time>2020-09-05T09:06:14Z</time>
      </trkpt>
      <trkpt lat="45.13598" lon="-0.55892">
        <ele>44</ele>
        <time>2020-09-05T09:06:15Z</time>
      </trkpt>
      <trkpt lat="45.13599" lon="-0.55891">
        <ele>44</ele>
        <time>2020-09-05T09:06:16Z</time>
      </trkpt>
      <trkpt lat="45.136" lon="-0.55891">
        <ele>44</ele>
        <time>2020-09-05T09:06:17Z</time>
      </trkpt>
      <trkpt lat="45.13602" lon="-0.5589">
        <ele>44</ele>
        <time>2020-09-05T09:06:18Z</time>
      </trkpt>
      <trkpt lat="45.13602" lon="-0.5589">
        <ele>44</ele>
        <time>2020-09-05T09:06:19Z</time>
      </trkpt>
      <trkpt lat="45.13603" lon="-0.55889">
        <ele>44</ele>
        <time>2020-09-05T09:06:20Z</time>
      </trkpt>
      <trkpt lat="45.13604" lon="-0.55889">
        <ele>44</ele>
        <time>2020-09-05T09:06:21Z</time>
      </trkpt>
      <trkpt lat="45.13605" lon="-0.55888">
        <ele>44</ele>
        <time>2020-09-05T09:06:22Z</time>
      </trkpt>
      <trkpt lat="45.13607" lon="-0.55887">
        <ele>44</ele>
        <time>2020-09-05T09:06:24Z</time>
      </trkpt>
      <trkpt lat="45.13608" lon="-0.55886">
        <ele>44</ele>
        <time>2020-09-05T09:06:25Z</time>
      </trkpt>
      <trkpt lat="45.13609" lon="-0.55885">
        <ele>44</ele>
        <time>2020-09-05T09:06:26Z</time>
      </trkpt>
      <trkpt lat="45.13611" lon="-0.55885">
        <ele>44</ele>
        <time>2020-09-05T09:06:28Z</time>
      </trkpt>
      <trkpt lat="45.13612" lon="-0.55884">
        <ele>44</ele>
        <time>2020-09-05T09:06:29Z</time>
      </trkpt>
      <trkpt lat="45.13613" lon="-0.55884">
        <ele>44</ele>
        <time>2020-09-05T09:06:30Z</time>
      </trkpt>
      <trkpt lat="45.13614" lon="-0.55884">
        <ele>44</ele>
        <time>2020-09-05T09:06:31Z</time>
      </trkpt>
      <trkpt lat="45.13617" lon="-0.55882">
        <ele>44</ele>
        <time>2020-09-05T09:06:33Z</time>
      </trkpt>
      <trkpt lat="45.13617" lon="-0.55882">
        <ele>44</ele>
        <time>2020-09-05T09:06:34Z</time>
      </trkpt>
      <trkpt lat="45.13618" lon="-0.55881">
        <ele>44</ele>
        <time>2020-09-05T09:06:35Z</time>
      </trkpt>
      <trkpt lat="45.1362" lon="-0.5588">
        <ele>44</ele>
        <time>2020-09-05T09:06:37Z</time>
      </trkpt>
      <trkpt lat="45.13621" lon="-0.5588">
        <ele>44</ele>
        <time>2020-09-05T09:06:38Z</time>
      </trkpt>
      <trkpt lat="45.13624" lon="-0.55878">
        <ele>44</ele>
        <time>2020-09-05T09:06:40Z</time>
      </trkpt>
      <trkpt lat="45.13625" lon="-0.55878">
        <ele>44</ele>
        <time>2020-09-05T09:06:41Z</time>
      </trkpt>
      <trkpt lat="45.13628" lon="-0.55877">
        <ele>44</ele>
        <time>2020-09-05T09:06:43Z</time>
      </trkpt>
      <trkpt lat="45.13629" lon="-0.55877">
        <ele>44</ele>
        <time>2020-09-05T09:06:44Z</time>
      </trkpt>
      <trkpt lat="45.1363" lon="-0.55877">
        <ele>44</ele>
        <time>2020-09-05T09:06:45Z</time>
      </trkpt>
      <trkpt lat="45.13632" lon="-0.55876">
        <ele>44</ele>
        <time>2020-09-05T09:06:47Z</time>
      </trkpt>
      <trkpt lat="45.13633" lon="-0.55875">
        <ele>44</ele>
        <time>2020-09-05T09:06:48Z</time>
      </trkpt>
      <trkpt lat="45.13636" lon="-0.55873">
        <ele>44</ele>
        <time>2020-09-05T09:06:50Z</time>
      </trkpt>
      <trkpt lat="45.13638" lon="-0.55871">
        <ele>44</ele>
        <time>2020-09-05T09:06:51Z</time>
      </trkpt>
      <trkpt lat="45.13639" lon="-0.5587">
        <ele>44</ele>
        <time>2020-09-05T09:06:52Z</time>
      </trkpt>
      <trkpt lat="45.13641" lon="-0.55867">
        <ele>44</ele>
        <time>2020-09-05T09:06:54Z</time>
      </trkpt>
      <trkpt lat="45.13642" lon="-0.55867">
        <ele>44</ele>
        <time>2020-09-05T09:06:55Z</time>
      </trkpt>
      <trkpt lat="45.13643" lon="-0.55865">
        <ele>44</ele>
        <time>2020-09-05T09:06:56Z</time>
      </trkpt>
      <trkpt lat="45.13644" lon="-0.55864">
        <ele>43.9</ele>
        <time>2020-09-05T09:06:57Z</time>
      </trkpt>
      <trkpt lat="45.13646" lon="-0.55862">
        <ele>43.9</ele>
        <time>2020-09-05T09:06:58Z</time>
      </trkpt>
      <trkpt lat="45.13647" lon="-0.55862">
        <ele>43.9</ele>
        <time>2020-09-05T09:06:59Z</time>
      </trkpt>
      <trkpt lat="45.13648" lon="-0.55861">
        <ele>43.9</ele>
        <time>2020-09-05T09:07:00Z</time>
      </trkpt>
      <trkpt lat="45.1365" lon="-0.5586">
        <ele>43.9</ele>
        <time>2020-09-05T09:07:01Z</time>
      </trkpt>
      <trkpt lat="45.13651" lon="-0.55859">
        <ele>43.9</ele>
        <time>2020-09-05T09:07:02Z</time>
      </trkpt>
      <trkpt lat="45.13652" lon="-0.55858">
        <ele>43.9</ele>
        <time>2020-09-05T09:07:03Z</time>
      </trkpt>
      <trkpt lat="45.13652" lon="-0.55857">
        <ele>43.9</ele>
        <time>2020-09-05T09:07:04Z</time>
      </trkpt>
      <trkpt lat="45.13653" lon="-0.55856">
        <ele>43.9</ele>
        <time>2020-09-05T09:07:06Z</time>
      </trkpt>
      <trkpt lat="45.13654" lon="-0.55855">
        <ele>43.9</ele>
        <time>2020-09-05T09:07:07Z</time>
      </trkpt>
      <trkpt lat="45.13655" lon="-0.55854">
        <ele>43.9</ele>
        <time>2020-09-05T09:07:08Z</time>
      </trkpt>
      <trkpt lat="45.13657" lon="-0.55853">
        <ele>43.9</ele>
        <time>2020-09-05T09:07:09Z</time>
      </trkpt>
      <trkpt lat="45.13658" lon="-0.55852">
        <ele>43.9</ele>
        <time>2020-09-05T09:07:10Z</time>
      </trkpt>
      <trkpt lat="45.13659" lon="-0.55852">
        <ele>43.9</ele>
        <time>2020-09-05T09:07:11Z</time>
      </trkpt>
      <trkpt lat="45.1366" lon="-0.55851">
        <ele>43.9</ele>
        <time>2020-09-05T09:07:12Z</time>
      </trkpt>
      <trkpt lat="45.13661" lon="-0.5585">
        <ele>43.9</ele>
        <time>2020-09-05T09:07:13Z</time>
      </trkpt>
      <trkpt lat="45.13662" lon="-0.55848">
        <ele>43.9</ele>
        <time>2020-09-05T09:07:14Z</time>
      </trkpt>
      <trkpt lat="45.13663" lon="-0.55847">
        <ele>43.8</ele>
        <time>2020-09-05T09:07:15Z</time>
      </trkpt>
      <trkpt lat="45.13664" lon="-0.55846">
        <ele>43.8</ele>
        <time>2020-09-05T09:07:16Z</time>
      </trkpt>
      <trkpt lat="45.13665" lon="-0.55845">
        <ele>43.8</ele>
        <time>2020-09-05T09:07:18Z</time>
      </trkpt>
      <trkpt lat="45.13667" lon="-0.55844">
        <ele>43.8</ele>
        <time>2020-09-05T09:07:19Z</time>
      </trkpt>
      <trkpt lat="45.13668" lon="-0.55843">
        <ele>43.8</ele>
        <time>2020-09-05T09:07:20Z</time>
      </trkpt>
      <trkpt lat="45.13669" lon="-0.55842">
        <ele>43.8</ele>
        <time>2020-09-05T09:07:21Z</time>
      </trkpt>
      <trkpt lat="45.13669" lon="-0.55841">
        <ele>43.8</ele>
        <time>2020-09-05T09:07:22Z</time>
      </trkpt>
      <trkpt lat="45.13671" lon="-0.55841">
        <ele>43.8</ele>
        <time>2020-09-05T09:07:23Z</time>
      </trkpt>
      <trkpt lat="45.13671" lon="-0.5584">
        <ele>43.8</ele>
        <time>2020-09-05T09:07:24Z</time>
      </trkpt>
      <trkpt lat="45.13673" lon="-0.55838">
        <ele>43.8</ele>
        <time>2020-09-05T09:07:26Z</time>
      </trkpt>
      <trkpt lat="45.13674" lon="-0.55837">
        <ele>43.8</ele>
        <time>2020-09-05T09:07:27Z</time>
      </trkpt>
      <trkpt lat="45.13675" lon="-0.55836">
        <ele>43.8</ele>
        <time>2020-09-05T09:07:28Z</time>
      </trkpt>
      <trkpt lat="45.13676" lon="-0.55834">
        <ele>43.8</ele>
        <time>2020-09-05T09:07:29Z</time>
      </trkpt>
      <trkpt lat="45.13678" lon="-0.55833">
        <ele>43.8</ele>
        <time>2020-09-05T09:07:30Z</time>
      </trkpt>
      <trkpt lat="45.13679" lon="-0.55832">
        <ele>43.8</ele>
        <time>2020-09-05T09:07:32Z</time>
      </trkpt>
      <trkpt lat="45.1368" lon="-0.55832">
        <ele>43.8</ele>
        <time>2020-09-05T09:07:33Z</time>
      </trkpt>
      <trkpt lat="45.13681" lon="-0.55831">
        <ele>43.8</ele>
        <time>2020-09-05T09:07:34Z</time>
      </trkpt>
      <trkpt lat="45.13682" lon="-0.5583">
        <ele>43.7</ele>
        <time>2020-09-05T09:07:35Z</time>
      </trkpt>
      <trkpt lat="45.13684" lon="-0.5583">
        <ele>43.7</ele>
        <time>2020-09-05T09:07:37Z</time>
      </trkpt>
      <trkpt lat="45.13685" lon="-0.55829">
        <ele>43.7</ele>
        <time>2020-09-05T09:07:38Z</time>
      </trkpt>
      <trkpt lat="45.13688" lon="-0.55827">
        <ele>43.7</ele>
        <time>2020-09-05T09:07:40Z</time>
      </trkpt>
      <trkpt lat="45.1369" lon="-0.55826">
        <ele>43.7</ele>
        <time>2020-09-05T09:07:41Z</time>
      </trkpt>
      <trkpt lat="45.13692" lon="-0.55825">
        <ele>43.7</ele>
        <time>2020-09-05T09:07:43Z</time>
      </trkpt>
      <trkpt lat="45.13693" lon="-0.55823">
        <ele>43.7</ele>
        <time>2020-09-05T09:07:44Z</time>
      </trkpt>
      <trkpt lat="45.13695" lon="-0.55822">
        <ele>43.7</ele>
        <time>2020-09-05T09:07:46Z</time>
      </trkpt>
      <trkpt lat="45.13697" lon="-0.55821">
        <ele>43.7</ele>
        <time>2020-09-05T09:07:47Z</time>
      </trkpt>
      <trkpt lat="45.13698" lon="-0.5582">
        <ele>43.7</ele>
        <time>2020-09-05T09:07:48Z</time>
      </trkpt>
      <trkpt lat="45.13701" lon="-0.55818">
        <ele>43.7</ele>
        <time>2020-09-05T09:07:50Z</time>
      </trkpt>
      <trkpt lat="45.13701" lon="-0.55818">
        <ele>43.7</ele>
        <time>2020-09-05T09:07:51Z</time>
      </trkpt>
      <trkpt lat="45.13703" lon="-0.55816">
        <ele>43.6</ele>
        <time>2020-09-05T09:07:53Z</time>
      </trkpt>
      <trkpt lat="45.13705" lon="-0.55815">
        <ele>43.6</ele>
        <time>2020-09-05T09:07:54Z</time>
      </trkpt>
      <trkpt lat="45.13706" lon="-0.55814">
        <ele>43.6</ele>
        <time>2020-09-05T09:07:56Z</time>
      </trkpt>
      <trkpt lat="45.13707" lon="-0.55813">
        <ele>43.6</ele>
        <time>2020-09-05T09:07:57Z</time>
      </trkpt>
      <trkpt lat="45.13709" lon="-0.55812">
        <ele>43.6</ele>
        <time>2020-09-05T09:07:58Z</time>
      </trkpt>
      <trkpt lat="45.1371" lon="-0.55811">
        <ele>43.6</ele>
        <time>2020-09-05T09:08:00Z</time>
      </trkpt>
      <trkpt lat="45.13711" lon="-0.55811">
        <ele>43.6</ele>
        <time>2020-09-05T09:08:01Z</time>
      </trkpt>
      <trkpt lat="45.13712" lon="-0.55809">
        <ele>43.6</ele>
        <time>2020-09-05T09:08:02Z</time>
      </trkpt>
      <trkpt lat="45.13714" lon="-0.55808">
        <ele>43.6</ele>
        <time>2020-09-05T09:08:03Z</time>
      </trkpt>
      <trkpt lat="45.13714" lon="-0.55807">
        <ele>43.6</ele>
        <time>2020-09-05T09:08:05Z</time>
      </trkpt>
      <trkpt lat="45.13715" lon="-0.55806">
        <ele>43.6</ele>
        <time>2020-09-05T09:08:06Z</time>
      </trkpt>
      <trkpt lat="45.13718" lon="-0.55804">
        <ele>43.6</ele>
        <time>2020-09-05T09:08:08Z</time>
      </trkpt>
      <trkpt lat="45.13719" lon="-0.55804">
        <ele>43.6</ele>
        <time>2020-09-05T09:08:09Z</time>
      </trkpt>
      <trkpt lat="45.13719" lon="-0.55803">
        <ele>43.6</ele>
        <time>2020-09-05T09:08:11Z</time>
      </trkpt>
      <trkpt lat="45.13721" lon="-0.55802">
        <ele>43.6</ele>
        <time>2020-09-05T09:08:12Z</time>
      </trkpt>
      <trkpt lat="45.13723" lon="-0.558">
        <ele>43.5</ele>
        <time>2020-09-05T09:08:14Z</time>
      </trkpt>
      <trkpt lat="45.13724" lon="-0.558">
        <ele>43.5</ele>
        <time>2020-09-05T09:08:15Z</time>
      </trkpt>
      <trkpt lat="45.13725" lon="-0.55798">
        <ele>43.5</ele>
        <time>2020-09-05T09:08:16Z</time>
      </trkpt>
      <trkpt lat="45.13726" lon="-0.55798">
        <ele>43.5</ele>
        <time>2020-09-05T09:08:17Z</time>
      </trkpt>
      <trkpt lat="45.13728" lon="-0.55795">
        <ele>43.5</ele>
        <time>2020-09-05T09:08:19Z</time>
      </trkpt>
      <trkpt lat="45.13729" lon="-0.55795">
        <ele>43.5</ele>
        <time>2020-09-05T09:08:20Z</time>
      </trkpt>
      <trkpt lat="45.1373" lon="-0.55794">
        <ele>43.5</ele>
        <time>2020-09-05T09:08:21Z</time>
      </trkpt>
      <trkpt lat="45.13731" lon="-0.55794">
        <ele>43.5</ele>
        <time>2020-09-05T09:08:22Z</time>
      </trkpt>
      <trkpt lat="45.13732" lon="-0.55793">
        <ele>43.5</ele>
        <time>2020-09-05T09:08:23Z</time>
      </trkpt>
      <trkpt lat="45.13734" lon="-0.55791">
        <ele>43.5</ele>
        <time>2020-09-05T09:08:25Z</time>
      </trkpt>
      <trkpt lat="45.13735" lon="-0.55791">
        <ele>43.5</ele>
        <time>2020-09-05T09:08:27Z</time>
      </trkpt>
      <trkpt lat="45.13737" lon="-0.55791">
        <ele>43.5</ele>
        <time>2020-09-05T09:08:29Z</time>
      </trkpt>
      <trkpt lat="45.13737" lon="-0.55791">
        <ele>43.5</ele>
        <time>2020-09-05T09:08:30Z</time>
      </trkpt>
      <trkpt lat="45.13737" lon="-0.55791">
        <ele>43.5</ele>
        <time>2020-09-05T09:08:31Z</time>
      </trkpt>
      <trkpt lat="45.13736" lon="-0.55792">
        <ele>43.5</ele>
        <time>2020-09-05T09:08:33Z</time>
      </trkpt>
      <trkpt lat="45.13737" lon="-0.55791">
        <ele>43.5</ele>
        <time>2020-09-05T09:08:34Z</time>
      </trkpt>
      <trkpt lat="45.13737" lon="-0.5579">
        <ele>43.5</ele>
        <time>2020-09-05T09:08:35Z</time>
      </trkpt>
      <trkpt lat="45.13738" lon="-0.55789">
        <ele>43.5</ele>
        <time>2020-09-05T09:08:37Z</time>
      </trkpt>
      <trkpt lat="45.13739" lon="-0.55788">
        <ele>43.5</ele>
        <time>2020-09-05T09:08:38Z</time>
      </trkpt>
      <trkpt lat="45.13742" lon="-0.55784">
        <ele>43.4</ele>
        <time>2020-09-05T09:08:40Z</time>
      </trkpt>
      <trkpt lat="45.13743" lon="-0.55782">
        <ele>43.4</ele>
        <time>2020-09-05T09:08:42Z</time>
      </trkpt>
      <trkpt lat="45.13743" lon="-0.55781">
        <ele>43.4</ele>
        <time>2020-09-05T09:08:43Z</time>
      </trkpt>
      <trkpt lat="45.13744" lon="-0.55779">
        <ele>43.4</ele>
        <time>2020-09-05T09:08:44Z</time>
      </trkpt>
      <trkpt lat="45.13745" lon="-0.55777">
        <ele>43.4</ele>
        <time>2020-09-05T09:08:45Z</time>
      </trkpt>
      <trkpt lat="45.13745" lon="-0.55774">
        <ele>43.4</ele>
        <time>2020-09-05T09:08:46Z</time>
      </trkpt>
      <trkpt lat="45.13745" lon="-0.55773">
        <ele>43.4</ele>
        <time>2020-09-05T09:08:47Z</time>
      </trkpt>
      <trkpt lat="45.13746" lon="-0.55772">
        <ele>43.4</ele>
        <time>2020-09-05T09:08:48Z</time>
      </trkpt>
      <trkpt lat="45.13746" lon="-0.55769">
        <ele>43.4</ele>
        <time>2020-09-05T09:08:49Z</time>
      </trkpt>
      <trkpt lat="45.13746" lon="-0.55767">
        <ele>43.4</ele>
        <time>2020-09-05T09:08:50Z</time>
      </trkpt>
      <trkpt lat="45.13746" lon="-0.55763">
        <ele>43.4</ele>
        <time>2020-09-05T09:08:52Z</time>
      </trkpt>
      <trkpt lat="45.13746" lon="-0.55762">
        <ele>43.4</ele>
        <time>2020-09-05T09:08:53Z</time>
      </trkpt>
      <trkpt lat="45.13745" lon="-0.55758">
        <ele>43.4</ele>
        <time>2020-09-05T09:08:55Z</time>
      </trkpt>
      <trkpt lat="45.13745" lon="-0.55757">
        <ele>43.4</ele>
        <time>2020-09-05T09:08:56Z</time>
      </trkpt>
      <trkpt lat="45.13745" lon="-0.55752">
        <ele>43.3</ele>
        <time>2020-09-05T09:08:58Z</time>
      </trkpt>
      <trkpt lat="45.13745" lon="-0.55751">
        <ele>43.3</ele>
        <time>2020-09-05T09:08:59Z</time>
      </trkpt>
      <trkpt lat="45.13745" lon="-0.5575">
        <ele>43.3</ele>
        <time>2020-09-05T09:09:00Z</time>
      </trkpt>
      <trkpt lat="45.13745" lon="-0.55748">
        <ele>43.3</ele>
        <time>2020-09-05T09:09:01Z</time>
      </trkpt>
      <trkpt lat="45.13744" lon="-0.55747">
        <ele>43.3</ele>
        <time>2020-09-05T09:09:02Z</time>
      </trkpt>
      <trkpt lat="45.13744" lon="-0.55745">
        <ele>43.3</ele>
        <time>2020-09-05T09:09:03Z</time>
      </trkpt>
      <trkpt lat="45.13744" lon="-0.55743">
        <ele>43.3</ele>
        <time>2020-09-05T09:09:04Z</time>
      </trkpt>
      <trkpt lat="45.13744" lon="-0.5574">
        <ele>43.3</ele>
        <time>2020-09-05T09:09:05Z</time>
      </trkpt>
      <trkpt lat="45.13744" lon="-0.55739">
        <ele>43.3</ele>
        <time>2020-09-05T09:09:06Z</time>
      </trkpt>
      <trkpt lat="45.13744" lon="-0.55738">
        <ele>43.3</ele>
        <time>2020-09-05T09:09:07Z</time>
      </trkpt>
      <trkpt lat="45.13744" lon="-0.55735">
        <ele>43.3</ele>
        <time>2020-09-05T09:09:08Z</time>
      </trkpt>
      <trkpt lat="45.13744" lon="-0.55733">
        <ele>43.3</ele>
        <time>2020-09-05T09:09:09Z</time>
      </trkpt>
      <trkpt lat="45.13744" lon="-0.5573">
        <ele>43.3</ele>
        <time>2020-09-05T09:09:11Z</time>
      </trkpt>
      <trkpt lat="45.13744" lon="-0.55726">
        <ele>43.3</ele>
        <time>2020-09-05T09:09:13Z</time>
      </trkpt>
      <trkpt lat="45.13744" lon="-0.55723">
        <ele>43.2</ele>
        <time>2020-09-05T09:09:14Z</time>
      </trkpt>
      <trkpt lat="45.13743" lon="-0.5572">
        <ele>43.2</ele>
        <time>2020-09-05T09:09:16Z</time>
      </trkpt>
      <trkpt lat="45.13743" lon="-0.55718">
        <ele>43.2</ele>
        <time>2020-09-05T09:09:17Z</time>
      </trkpt>
      <trkpt lat="45.13744" lon="-0.55714">
        <ele>43.2</ele>
        <time>2020-09-05T09:09:19Z</time>
      </trkpt>
      <trkpt lat="45.13745" lon="-0.55712">
        <ele>43.8</ele>
        <time>2020-09-05T09:09:20Z</time>
      </trkpt>
      <trkpt lat="45.13746" lon="-0.5571">
        <ele>44.1</ele>
        <time>2020-09-05T09:09:21Z</time>
      </trkpt>
      <trkpt lat="45.13747" lon="-0.55709">
        <ele>44.4</ele>
        <time>2020-09-05T09:09:23Z</time>
      </trkpt>
      <trkpt lat="45.13749" lon="-0.55707">
        <ele>44.7</ele>
        <time>2020-09-05T09:09:24Z</time>
      </trkpt>
      <trkpt lat="45.1375" lon="-0.55707">
        <ele>44.8</ele>
        <time>2020-09-05T09:09:25Z</time>
      </trkpt>
      <trkpt lat="45.13751" lon="-0.55707">
        <ele>45</ele>
        <time>2020-09-05T09:09:26Z</time>
      </trkpt>
      <trkpt lat="45.13752" lon="-0.55707">
        <ele>45.1</ele>
        <time>2020-09-05T09:09:27Z</time>
      </trkpt>
      <trkpt lat="45.13754" lon="-0.55707">
        <ele>45.2</ele>
        <time>2020-09-05T09:09:29Z</time>
      </trkpt>
      <trkpt lat="45.13755" lon="-0.55708">
        <ele>45.3</ele>
        <time>2020-09-05T09:09:30Z</time>
      </trkpt>
      <trkpt lat="45.13756" lon="-0.55708">
        <ele>45.3</ele>
        <time>2020-09-05T09:09:31Z</time>
      </trkpt>
      <trkpt lat="45.13758" lon="-0.55709">
        <ele>45.3</ele>
        <time>2020-09-05T09:09:33Z</time>
      </trkpt>
      <trkpt lat="45.13761" lon="-0.5571">
        <ele>45.3</ele>
        <time>2020-09-05T09:09:35Z</time>
      </trkpt>
      <trkpt lat="45.13762" lon="-0.5571">
        <ele>45.2</ele>
        <time>2020-09-05T09:09:36Z</time>
      </trkpt>
      <trkpt lat="45.13764" lon="-0.55711">
        <ele>45.1</ele>
        <time>2020-09-05T09:09:37Z</time>
      </trkpt>
      <trkpt lat="45.13765" lon="-0.55711">
        <ele>45.1</ele>
        <time>2020-09-05T09:09:38Z</time>
      </trkpt>
      <trkpt lat="45.13768" lon="-0.55711">
        <ele>44.9</ele>
        <time>2020-09-05T09:09:40Z</time>
      </trkpt>
      <trkpt lat="45.13769" lon="-0.5571">
        <ele>44.8</ele>
        <time>2020-09-05T09:09:41Z</time>
      </trkpt>
      <trkpt lat="45.13771" lon="-0.5571">
        <ele>44.6</ele>
        <time>2020-09-05T09:09:43Z</time>
      </trkpt>
      <trkpt lat="45.13773" lon="-0.5571">
        <ele>44.5</ele>
        <time>2020-09-05T09:09:44Z</time>
      </trkpt>
      <trkpt lat="45.13774" lon="-0.55709">
        <ele>44.3</ele>
        <time>2020-09-05T09:09:45Z</time>
      </trkpt>
      <trkpt lat="45.13777" lon="-0.55709">
        <ele>44.1</ele>
        <time>2020-09-05T09:09:47Z</time>
      </trkpt>
      <trkpt lat="45.13778" lon="-0.55709">
        <ele>44</ele>
        <time>2020-09-05T09:09:48Z</time>
      </trkpt>
      <trkpt lat="45.13781" lon="-0.55709">
        <ele>43.7</ele>
        <time>2020-09-05T09:09:50Z</time>
      </trkpt>
      <trkpt lat="45.13782" lon="-0.55709">
        <ele>43.7</ele>
        <time>2020-09-05T09:09:51Z</time>
      </trkpt>
      <trkpt lat="45.13783" lon="-0.55709">
        <ele>43.5</ele>
        <time>2020-09-05T09:09:52Z</time>
      </trkpt>
      <trkpt lat="45.13786" lon="-0.55709">
        <ele>43.3</ele>
        <time>2020-09-05T09:09:54Z</time>
      </trkpt>
      <trkpt lat="45.13787" lon="-0.55709">
        <ele>43.2</ele>
        <time>2020-09-05T09:09:55Z</time>
      </trkpt>
      <trkpt lat="45.13789" lon="-0.55709">
        <ele>43.1</ele>
        <time>2020-09-05T09:09:57Z</time>
      </trkpt>
      <trkpt lat="45.13791" lon="-0.55709">
        <ele>43</ele>
        <time>2020-09-05T09:09:58Z</time>
      </trkpt>
      <trkpt lat="45.13792" lon="-0.55709">
        <ele>42.9</ele>
        <time>2020-09-05T09:09:59Z</time>
      </trkpt>
      <trkpt lat="45.13793" lon="-0.55709">
        <ele>42.8</ele>
        <time>2020-09-05T09:10:00Z</time>
      </trkpt>
      <trkpt lat="45.13794" lon="-0.55709">
        <ele>42.8</ele>
        <time>2020-09-05T09:10:01Z</time>
      </trkpt>
      <trkpt lat="45.13796" lon="-0.55708">
        <ele>42.7</ele>
        <time>2020-09-05T09:10:02Z</time>
      </trkpt>
      <trkpt lat="45.13797" lon="-0.55708">
        <ele>42.7</ele>
        <time>2020-09-05T09:10:04Z</time>
      </trkpt>
      <trkpt lat="45.13799" lon="-0.55708">
        <ele>42.8</ele>
        <time>2020-09-05T09:10:05Z</time>
      </trkpt>
      <trkpt lat="45.138" lon="-0.55707">
        <ele>42.9</ele>
        <time>2020-09-05T09:10:06Z</time>
      </trkpt>
      <trkpt lat="45.13801" lon="-0.55707">
        <ele>43</ele>
        <time>2020-09-05T09:10:07Z</time>
      </trkpt>
      <trkpt lat="45.13802" lon="-0.55707">
        <ele>43</ele>
        <time>2020-09-05T09:10:08Z</time>
      </trkpt>
      <trkpt lat="45.13803" lon="-0.55707">
        <ele>43.1</ele>
        <time>2020-09-05T09:10:09Z</time>
      </trkpt>
      <trkpt lat="45.13805" lon="-0.55707">
        <ele>43.1</ele>
        <time>2020-09-05T09:10:10Z</time>
      </trkpt>
      <trkpt lat="45.13807" lon="-0.55707">
        <ele>43.1</ele>
        <time>2020-09-05T09:10:12Z</time>
      </trkpt>
      <trkpt lat="45.13808" lon="-0.55706">
        <ele>43.1</ele>
        <time>2020-09-05T09:10:13Z</time>
      </trkpt>
      <trkpt lat="45.1381" lon="-0.55705">
        <ele>43</ele>
        <time>2020-09-05T09:10:14Z</time>
      </trkpt>
      <trkpt lat="45.13811" lon="-0.55705">
        <ele>42.9</ele>
        <time>2020-09-05T09:10:16Z</time>
      </trkpt>
      <trkpt lat="45.13813" lon="-0.55705">
        <ele>42.8</ele>
        <time>2020-09-05T09:10:17Z</time>
      </trkpt>
      <trkpt lat="45.13814" lon="-0.55705">
        <ele>42.8</ele>
        <time>2020-09-05T09:10:18Z</time>
      </trkpt>
      <trkpt lat="45.13817" lon="-0.55703">
        <ele>42.6</ele>
        <time>2020-09-05T09:10:19Z</time>
      </trkpt>
      <trkpt lat="45.13818" lon="-0.55701">
        <ele>42.5</ele>
        <time>2020-09-05T09:10:22Z</time>
      </trkpt>
      <trkpt lat="45.13819" lon="-0.557">
        <ele>42.5</ele>
        <time>2020-09-05T09:10:23Z</time>
      </trkpt>
      <trkpt lat="45.13819" lon="-0.55698">
        <ele>42.5</ele>
        <time>2020-09-05T09:10:24Z</time>
      </trkpt>
      <trkpt lat="45.1382" lon="-0.55697">
        <ele>42.5</ele>
        <time>2020-09-05T09:10:25Z</time>
      </trkpt>
      <trkpt lat="45.1382" lon="-0.55695">
        <ele>42.5</ele>
        <time>2020-09-05T09:10:26Z</time>
      </trkpt>
      <trkpt lat="45.1382" lon="-0.55691">
        <ele>42.5</ele>
        <time>2020-09-05T09:10:28Z</time>
      </trkpt>
      <trkpt lat="45.1382" lon="-0.55689">
        <ele>42.4</ele>
        <time>2020-09-05T09:10:29Z</time>
      </trkpt>
      <trkpt lat="45.1382" lon="-0.55686">
        <ele>42.4</ele>
        <time>2020-09-05T09:10:30Z</time>
      </trkpt>
      <trkpt lat="45.13819" lon="-0.55685">
        <ele>42.4</ele>
        <time>2020-09-05T09:10:31Z</time>
      </trkpt>
      <trkpt lat="45.13819" lon="-0.55683">
        <ele>42.4</ele>
        <time>2020-09-05T09:10:32Z</time>
      </trkpt>
      <trkpt lat="45.13818" lon="-0.55682">
        <ele>42.4</ele>
        <time>2020-09-05T09:10:33Z</time>
      </trkpt>
      <trkpt lat="45.13818" lon="-0.5568">
        <ele>42.3</ele>
        <time>2020-09-05T09:10:34Z</time>
      </trkpt>
      <trkpt lat="45.13817" lon="-0.55677">
        <ele>42.3</ele>
        <time>2020-09-05T09:10:35Z</time>
      </trkpt>
      <trkpt lat="45.13817" lon="-0.55674">
        <ele>42.3</ele>
        <time>2020-09-05T09:10:36Z</time>
      </trkpt>
      <trkpt lat="45.13817" lon="-0.55672">
        <ele>42.2</ele>
        <time>2020-09-05T09:10:38Z</time>
      </trkpt>
      <trkpt lat="45.13816" lon="-0.55671">
        <ele>42.2</ele>
        <time>2020-09-05T09:10:39Z</time>
      </trkpt>
      <trkpt lat="45.13816" lon="-0.55669">
        <ele>42.2</ele>
        <time>2020-09-05T09:10:41Z</time>
      </trkpt>
      <trkpt lat="45.13816" lon="-0.55667">
        <ele>42.2</ele>
        <time>2020-09-05T09:10:42Z</time>
      </trkpt>
      <trkpt lat="45.13816" lon="-0.55665">
        <ele>42.2</ele>
        <time>2020-09-05T09:10:43Z</time>
      </trkpt>
      <trkpt lat="45.13817" lon="-0.55663">
        <ele>42.1</ele>
        <time>2020-09-05T09:10:45Z</time>
      </trkpt>
      <trkpt lat="45.13817" lon="-0.55661">
        <ele>42.1</ele>
        <time>2020-09-05T09:10:46Z</time>
      </trkpt>
      <trkpt lat="45.13817" lon="-0.5566">
        <ele>42.1</ele>
        <time>2020-09-05T09:10:47Z</time>
      </trkpt>
      <trkpt lat="45.13817" lon="-0.55659">
        <ele>42.1</ele>
        <time>2020-09-05T09:10:48Z</time>
      </trkpt>
      <trkpt lat="45.13818" lon="-0.55657">
        <ele>42.1</ele>
        <time>2020-09-05T09:10:49Z</time>
      </trkpt>
      <trkpt lat="45.13818" lon="-0.55653">
        <ele>42.1</ele>
        <time>2020-09-05T09:10:51Z</time>
      </trkpt>
      <trkpt lat="45.13818" lon="-0.55652">
        <ele>42</ele>
        <time>2020-09-05T09:10:52Z</time>
      </trkpt>
      <trkpt lat="45.13818" lon="-0.5565">
        <ele>42</ele>
        <time>2020-09-05T09:10:53Z</time>
      </trkpt>
      <trkpt lat="45.13818" lon="-0.55648">
        <ele>42</ele>
        <time>2020-09-05T09:10:54Z</time>
      </trkpt>
      <trkpt lat="45.13818" lon="-0.55645">
        <ele>42</ele>
        <time>2020-09-05T09:10:55Z</time>
      </trkpt>
      <trkpt lat="45.13818" lon="-0.55644">
        <ele>42</ele>
        <time>2020-09-05T09:10:56Z</time>
      </trkpt>
      <trkpt lat="45.13818" lon="-0.55642">
        <ele>42</ele>
        <time>2020-09-05T09:10:57Z</time>
      </trkpt>
      <trkpt lat="45.13818" lon="-0.5564">
        <ele>42</ele>
        <time>2020-09-05T09:10:58Z</time>
      </trkpt>
      <trkpt lat="45.13818" lon="-0.55639">
        <ele>42</ele>
        <time>2020-09-05T09:10:59Z</time>
      </trkpt>
      <trkpt lat="45.13818" lon="-0.55635">
        <ele>42</ele>
        <time>2020-09-05T09:11:01Z</time>
      </trkpt>
      <trkpt lat="45.13819" lon="-0.55634">
        <ele>41.9</ele>
        <time>2020-09-05T09:11:02Z</time>
      </trkpt>
      <trkpt lat="45.13819" lon="-0.55632">
        <ele>41.9</ele>
        <time>2020-09-05T09:11:03Z</time>
      </trkpt>
      <trkpt lat="45.13819" lon="-0.55628">
        <ele>41.9</ele>
        <time>2020-09-05T09:11:05Z</time>
      </trkpt>
      <trkpt lat="45.13819" lon="-0.55626">
        <ele>41.9</ele>
        <time>2020-09-05T09:11:06Z</time>
      </trkpt>
      <trkpt lat="45.13819" lon="-0.55625">
        <ele>41.9</ele>
        <time>2020-09-05T09:11:07Z</time>
      </trkpt>
      <trkpt lat="45.13819" lon="-0.55623">
        <ele>41.9</ele>
        <time>2020-09-05T09:11:08Z</time>
      </trkpt>
      <trkpt lat="45.13819" lon="-0.55622">
        <ele>41.8</ele>
        <time>2020-09-05T09:11:09Z</time>
      </trkpt>
      <trkpt lat="45.13819" lon="-0.55619">
        <ele>41.8</ele>
        <time>2020-09-05T09:11:10Z</time>
      </trkpt>
      <trkpt lat="45.1382" lon="-0.55617">
        <ele>41.8</ele>
        <time>2020-09-05T09:11:11Z</time>
      </trkpt>
      <trkpt lat="45.1382" lon="-0.55616">
        <ele>41.7</ele>
        <time>2020-09-05T09:11:12Z</time>
      </trkpt>
      <trkpt lat="45.1382" lon="-0.55614">
        <ele>41.7</ele>
        <time>2020-09-05T09:11:13Z</time>
      </trkpt>
      <trkpt lat="45.1382" lon="-0.55613">
        <ele>41.7</ele>
        <time>2020-09-05T09:11:14Z</time>
      </trkpt>
      <trkpt lat="45.1382" lon="-0.5561">
        <ele>41.6</ele>
        <time>2020-09-05T09:11:15Z</time>
      </trkpt>
      <trkpt lat="45.13821" lon="-0.55609">
        <ele>41.6</ele>
        <time>2020-09-05T09:11:16Z</time>
      </trkpt>
      <trkpt lat="45.13821" lon="-0.55607">
        <ele>41.5</ele>
        <time>2020-09-05T09:11:17Z</time>
      </trkpt>
      <trkpt lat="45.13821" lon="-0.55606">
        <ele>41.5</ele>
        <time>2020-09-05T09:11:18Z</time>
      </trkpt>
      <trkpt lat="45.13821" lon="-0.55604">
        <ele>41.5</ele>
        <time>2020-09-05T09:11:19Z</time>
      </trkpt>
      <trkpt lat="45.13821" lon="-0.55601">
        <ele>41.4</ele>
        <time>2020-09-05T09:11:20Z</time>
      </trkpt>
      <trkpt lat="45.13821" lon="-0.556">
        <ele>41.4</ele>
        <time>2020-09-05T09:11:21Z</time>
      </trkpt>
      <trkpt lat="45.13821" lon="-0.55599">
        <ele>41.3</ele>
        <time>2020-09-05T09:11:22Z</time>
      </trkpt>
      <trkpt lat="45.13822" lon="-0.55597">
        <ele>41.3</ele>
        <time>2020-09-05T09:11:23Z</time>
      </trkpt>
      <trkpt lat="45.13822" lon="-0.55596">
        <ele>41.3</ele>
        <time>2020-09-05T09:11:24Z</time>
      </trkpt>
      <trkpt lat="45.13822" lon="-0.55592">
        <ele>41.2</ele>
        <time>2020-09-05T09:11:26Z</time>
      </trkpt>
      <trkpt lat="45.13822" lon="-0.55589">
        <ele>41.2</ele>
        <time>2020-09-05T09:11:28Z</time>
      </trkpt>
      <trkpt lat="45.13822" lon="-0.55588">
        <ele>41.1</ele>
        <time>2020-09-05T09:11:29Z</time>
      </trkpt>
      <trkpt lat="45.13822" lon="-0.55585">
        <ele>41.1</ele>
        <time>2020-09-05T09:11:30Z</time>
      </trkpt>
      <trkpt lat="45.13822" lon="-0.55584">
        <ele>41.1</ele>
        <time>2020-09-05T09:11:31Z</time>
      </trkpt>
      <trkpt lat="45.13822" lon="-0.55579">
        <ele>41</ele>
        <time>2020-09-05T09:11:33Z</time>
      </trkpt>
      <trkpt lat="45.13822" lon="-0.55578">
        <ele>41</ele>
        <time>2020-09-05T09:11:34Z</time>
      </trkpt>
      <trkpt lat="45.13823" lon="-0.55574">
        <ele>40.9</ele>
        <time>2020-09-05T09:11:36Z</time>
      </trkpt>
      <trkpt lat="45.13823" lon="-0.55572">
        <ele>40.9</ele>
        <time>2020-09-05T09:11:37Z</time>
      </trkpt>
      <trkpt lat="45.13823" lon="-0.55569">
        <ele>40.8</ele>
        <time>2020-09-05T09:11:39Z</time>
      </trkpt>
      <trkpt lat="45.13823" lon="-0.55565">
        <ele>40.8</ele>
        <time>2020-09-05T09:11:41Z</time>
      </trkpt>
      <trkpt lat="45.13823" lon="-0.55562">
        <ele>40.8</ele>
        <time>2020-09-05T09:11:43Z</time>
      </trkpt>
      <trkpt lat="45.13823" lon="-0.55561">
        <ele>40.8</ele>
        <time>2020-09-05T09:11:44Z</time>
      </trkpt>
      <trkpt lat="45.13823" lon="-0.55556">
        <ele>40.7</ele>
        <time>2020-09-05T09:11:46Z</time>
      </trkpt>
      <trkpt lat="45.13823" lon="-0.55555">
        <ele>40.7</ele>
        <time>2020-09-05T09:11:47Z</time>
      </trkpt>
      <trkpt lat="45.13823" lon="-0.55552">
        <ele>40.7</ele>
        <time>2020-09-05T09:11:48Z</time>
      </trkpt>
      <trkpt lat="45.13824" lon="-0.55547">
        <ele>40.6</ele>
        <time>2020-09-05T09:11:50Z</time>
      </trkpt>
      <trkpt lat="45.13824" lon="-0.55545">
        <ele>40.6</ele>
        <time>2020-09-05T09:11:51Z</time>
      </trkpt>
      <trkpt lat="45.13824" lon="-0.55543">
        <ele>40.6</ele>
        <time>2020-09-05T09:11:52Z</time>
      </trkpt>
      <trkpt lat="45.13824" lon="-0.55539">
        <ele>40.5</ele>
        <time>2020-09-05T09:11:54Z</time>
      </trkpt>
      <trkpt lat="45.13824" lon="-0.55537">
        <ele>40.5</ele>
        <time>2020-09-05T09:11:55Z</time>
      </trkpt>
      <trkpt lat="45.13824" lon="-0.55534">
        <ele>40.4</ele>
        <time>2020-09-05T09:11:56Z</time>
      </trkpt>
      <trkpt lat="45.13824" lon="-0.55533">
        <ele>40.4</ele>
        <time>2020-09-05T09:11:58Z</time>
      </trkpt>
      <trkpt lat="45.13824" lon="-0.55532">
        <ele>40.4</ele>
        <time>2020-09-05T09:11:59Z</time>
      </trkpt>
      <trkpt lat="45.13824" lon="-0.55529">
        <ele>40.3</ele>
        <time>2020-09-05T09:12:00Z</time>
      </trkpt>
      <trkpt lat="45.13825" lon="-0.55527">
        <ele>40.3</ele>
        <time>2020-09-05T09:12:02Z</time>
      </trkpt>
      <trkpt lat="45.13825" lon="-0.55525">
        <ele>40.3</ele>
        <time>2020-09-05T09:12:03Z</time>
      </trkpt>
      <trkpt lat="45.13825" lon="-0.5552">
        <ele>40.2</ele>
        <time>2020-09-05T09:12:05Z</time>
      </trkpt>
      <trkpt lat="45.13826" lon="-0.55519">
        <ele>40.2</ele>
        <time>2020-09-05T09:12:06Z</time>
      </trkpt>
      <trkpt lat="45.13826" lon="-0.55516">
        <ele>40.2</ele>
        <time>2020-09-05T09:12:07Z</time>
      </trkpt>
      <trkpt lat="45.13827" lon="-0.55512">
        <ele>40.1</ele>
        <time>2020-09-05T09:12:09Z</time>
      </trkpt>
      <trkpt lat="45.13827" lon="-0.5551">
        <ele>40.1</ele>
        <time>2020-09-05T09:12:10Z</time>
      </trkpt>
      <trkpt lat="45.13828" lon="-0.55508">
        <ele>40.1</ele>
        <time>2020-09-05T09:12:11Z</time>
      </trkpt>
      <trkpt lat="45.13828" lon="-0.55506">
        <ele>40</ele>
        <time>2020-09-05T09:12:12Z</time>
      </trkpt>
      <trkpt lat="45.13828" lon="-0.55505">
        <ele>40</ele>
        <time>2020-09-05T09:12:14Z</time>
      </trkpt>
      <trkpt lat="45.13829" lon="-0.55503">
        <ele>40</ele>
        <time>2020-09-05T09:12:15Z</time>
      </trkpt>
      <trkpt lat="45.13829" lon="-0.55501">
        <ele>40</ele>
        <time>2020-09-05T09:12:16Z</time>
      </trkpt>
      <trkpt lat="45.1383" lon="-0.55498">
        <ele>39.9</ele>
        <time>2020-09-05T09:12:17Z</time>
      </trkpt>
      <trkpt lat="45.1383" lon="-0.55497">
        <ele>39.9</ele>
        <time>2020-09-05T09:12:18Z</time>
      </trkpt>
      <trkpt lat="45.1383" lon="-0.55495">
        <ele>39.8</ele>
        <time>2020-09-05T09:12:19Z</time>
      </trkpt>
      <trkpt lat="45.1383" lon="-0.55494">
        <ele>39.8</ele>
        <time>2020-09-05T09:12:20Z</time>
      </trkpt>
      <trkpt lat="45.1383" lon="-0.55492">
        <ele>39.8</ele>
        <time>2020-09-05T09:12:21Z</time>
      </trkpt>
      <trkpt lat="45.1383" lon="-0.55491">
        <ele>39.7</ele>
        <time>2020-09-05T09:12:22Z</time>
      </trkpt>
      <trkpt lat="45.1383" lon="-0.55489">
        <ele>39.7</ele>
        <time>2020-09-05T09:12:23Z</time>
      </trkpt>
      <trkpt lat="45.1383" lon="-0.55485">
        <ele>39.6</ele>
        <time>2020-09-05T09:12:25Z</time>
      </trkpt>
      <trkpt lat="45.1383" lon="-0.55482">
        <ele>39.5</ele>
        <time>2020-09-05T09:12:27Z</time>
      </trkpt>
      <trkpt lat="45.1383" lon="-0.55479">
        <ele>39.5</ele>
        <time>2020-09-05T09:12:29Z</time>
      </trkpt>
      <trkpt lat="45.1383" lon="-0.55477">
        <ele>39.4</ele>
        <time>2020-09-05T09:12:30Z</time>
      </trkpt>
      <trkpt lat="45.1383" lon="-0.55476">
        <ele>39.4</ele>
        <time>2020-09-05T09:12:31Z</time>
      </trkpt>
      <trkpt lat="45.13831" lon="-0.55474">
        <ele>39.4</ele>
        <time>2020-09-05T09:12:32Z</time>
      </trkpt>
      <trkpt lat="45.13831" lon="-0.55473">
        <ele>39.4</ele>
        <time>2020-09-05T09:12:33Z</time>
      </trkpt>
      <trkpt lat="45.13831" lon="-0.55471">
        <ele>39.4</ele>
        <time>2020-09-05T09:12:34Z</time>
      </trkpt>
      <trkpt lat="45.13831" lon="-0.5547">
        <ele>39.4</ele>
        <time>2020-09-05T09:12:35Z</time>
      </trkpt>
      <trkpt lat="45.13831" lon="-0.55469">
        <ele>39.4</ele>
        <time>2020-09-05T09:12:36Z</time>
      </trkpt>
      <trkpt lat="45.13832" lon="-0.55466">
        <ele>39.4</ele>
        <time>2020-09-05T09:12:38Z</time>
      </trkpt>
      <trkpt lat="45.13832" lon="-0.55464">
        <ele>39.4</ele>
        <time>2020-09-05T09:12:39Z</time>
      </trkpt>
      <trkpt lat="45.13832" lon="-0.55463">
        <ele>39.4</ele>
        <time>2020-09-05T09:12:40Z</time>
      </trkpt>
      <trkpt lat="45.13832" lon="-0.5546">
        <ele>39.4</ele>
        <time>2020-09-05T09:12:41Z</time>
      </trkpt>
      <trkpt lat="45.13832" lon="-0.55458">
        <ele>39.4</ele>
        <time>2020-09-05T09:12:42Z</time>
      </trkpt>
      <trkpt lat="45.13832" lon="-0.55457">
        <ele>39.4</ele>
        <time>2020-09-05T09:12:43Z</time>
      </trkpt>
      <trkpt lat="45.13832" lon="-0.55455">
        <ele>39.4</ele>
        <time>2020-09-05T09:12:44Z</time>
      </trkpt>
      <trkpt lat="45.13832" lon="-0.55452">
        <ele>39.5</ele>
        <time>2020-09-05T09:12:45Z</time>
      </trkpt>
      <trkpt lat="45.13832" lon="-0.55451">
        <ele>39.5</ele>
        <time>2020-09-05T09:12:46Z</time>
      </trkpt>
      <trkpt lat="45.13832" lon="-0.55449">
        <ele>39.5</ele>
        <time>2020-09-05T09:12:47Z</time>
      </trkpt>
      <trkpt lat="45.13833" lon="-0.55447">
        <ele>39.5</ele>
        <time>2020-09-05T09:12:48Z</time>
      </trkpt>
      <trkpt lat="45.13833" lon="-0.55446">
        <ele>39.5</ele>
        <time>2020-09-05T09:12:49Z</time>
      </trkpt>
      <trkpt lat="45.13833" lon="-0.55443">
        <ele>39.5</ele>
        <time>2020-09-05T09:12:50Z</time>
      </trkpt>
      <trkpt lat="45.13833" lon="-0.55442">
        <ele>39.6</ele>
        <time>2020-09-05T09:12:51Z</time>
      </trkpt>
      <trkpt lat="45.13833" lon="-0.5544">
        <ele>39.6</ele>
        <time>2020-09-05T09:12:52Z</time>
      </trkpt>
      <trkpt lat="45.13833" lon="-0.55438">
        <ele>39.6</ele>
        <time>2020-09-05T09:12:53Z</time>
      </trkpt>
      <trkpt lat="45.13833" lon="-0.55437">
        <ele>39.6</ele>
        <time>2020-09-05T09:12:54Z</time>
      </trkpt>
      <trkpt lat="45.13834" lon="-0.55435">
        <ele>39.6</ele>
        <time>2020-09-05T09:12:55Z</time>
      </trkpt>
      <trkpt lat="45.13834" lon="-0.55434">
        <ele>39.6</ele>
        <time>2020-09-05T09:12:56Z</time>
      </trkpt>
      <trkpt lat="45.13834" lon="-0.55431">
        <ele>39.6</ele>
        <time>2020-09-05T09:12:58Z</time>
      </trkpt>
      <trkpt lat="45.13834" lon="-0.5543">
        <ele>39.6</ele>
        <time>2020-09-05T09:12:59Z</time>
      </trkpt>
      <trkpt lat="45.13835" lon="-0.55426">
        <ele>39.6</ele>
        <time>2020-09-05T09:13:00Z</time>
      </trkpt>
      <trkpt lat="45.13835" lon="-0.55424">
        <ele>39.6</ele>
        <time>2020-09-05T09:13:02Z</time>
      </trkpt>
      <trkpt lat="45.13835" lon="-0.55422">
        <ele>39.7</ele>
        <time>2020-09-05T09:13:03Z</time>
      </trkpt>
      <trkpt lat="45.13835" lon="-0.55421">
        <ele>39.7</ele>
        <time>2020-09-05T09:13:04Z</time>
      </trkpt>
      <trkpt lat="45.13836" lon="-0.55419">
        <ele>39.7</ele>
        <time>2020-09-05T09:13:05Z</time>
      </trkpt>
      <trkpt lat="45.13836" lon="-0.55415">
        <ele>39.7</ele>
        <time>2020-09-05T09:13:06Z</time>
      </trkpt>
      <trkpt lat="45.13836" lon="-0.55413">
        <ele>39.7</ele>
        <time>2020-09-05T09:13:08Z</time>
      </trkpt>
      <trkpt lat="45.13836" lon="-0.55411">
        <ele>39.7</ele>
        <time>2020-09-05T09:13:09Z</time>
      </trkpt>
      <trkpt lat="45.13837" lon="-0.55409">
        <ele>39.7</ele>
        <time>2020-09-05T09:13:10Z</time>
      </trkpt>
      <trkpt lat="45.13837" lon="-0.55406">
        <ele>39.7</ele>
        <time>2020-09-05T09:13:12Z</time>
      </trkpt>
      <trkpt lat="45.13837" lon="-0.55405">
        <ele>39.7</ele>
        <time>2020-09-05T09:13:13Z</time>
      </trkpt>
      <trkpt lat="45.13837" lon="-0.55404">
        <ele>39.8</ele>
        <time>2020-09-05T09:13:14Z</time>
      </trkpt>
      <trkpt lat="45.13838" lon="-0.55399">
        <ele>39.8</ele>
        <time>2020-09-05T09:13:16Z</time>
      </trkpt>
      <trkpt lat="45.13838" lon="-0.55398">
        <ele>39.8</ele>
        <time>2020-09-05T09:13:17Z</time>
      </trkpt>
      <trkpt lat="45.13838" lon="-0.55396">
        <ele>39.8</ele>
        <time>2020-09-05T09:13:18Z</time>
      </trkpt>
      <trkpt lat="45.13838" lon="-0.55393">
        <ele>39.9</ele>
        <time>2020-09-05T09:13:20Z</time>
      </trkpt>
      <trkpt lat="45.13838" lon="-0.55391">
        <ele>39.9</ele>
        <time>2020-09-05T09:13:21Z</time>
      </trkpt>
      <trkpt lat="45.13838" lon="-0.55388">
        <ele>39.9</ele>
        <time>2020-09-05T09:13:23Z</time>
      </trkpt>
      <trkpt lat="45.13838" lon="-0.55386">
        <ele>39.9</ele>
        <time>2020-09-05T09:13:24Z</time>
      </trkpt>
      <trkpt lat="45.13838" lon="-0.55384">
        <ele>39.9</ele>
        <time>2020-09-05T09:13:25Z</time>
      </trkpt>
      <trkpt lat="45.13838" lon="-0.55383">
        <ele>39.9</ele>
        <time>2020-09-05T09:13:26Z</time>
      </trkpt>
      <trkpt lat="45.13838" lon="-0.55381">
        <ele>39.9</ele>
        <time>2020-09-05T09:13:27Z</time>
      </trkpt>
      <trkpt lat="45.13838" lon="-0.55379">
        <ele>39.9</ele>
        <time>2020-09-05T09:13:28Z</time>
      </trkpt>
      <trkpt lat="45.13838" lon="-0.55378">
        <ele>39.9</ele>
        <time>2020-09-05T09:13:29Z</time>
      </trkpt>
      <trkpt lat="45.13838" lon="-0.55375">
        <ele>39.8</ele>
        <time>2020-09-05T09:13:30Z</time>
      </trkpt>
      <trkpt lat="45.13837" lon="-0.55374">
        <ele>39.8</ele>
        <time>2020-09-05T09:13:31Z</time>
      </trkpt>
      <trkpt lat="45.13838" lon="-0.55372">
        <ele>39.8</ele>
        <time>2020-09-05T09:13:32Z</time>
      </trkpt>
      <trkpt lat="45.13838" lon="-0.55371">
        <ele>39.8</ele>
        <time>2020-09-05T09:13:33Z</time>
      </trkpt>
      <trkpt lat="45.13838" lon="-0.55369">
        <ele>39.8</ele>
        <time>2020-09-05T09:13:34Z</time>
      </trkpt>
      <trkpt lat="45.13838" lon="-0.55367">
        <ele>39.8</ele>
        <time>2020-09-05T09:13:35Z</time>
      </trkpt>
      <trkpt lat="45.13838" lon="-0.55366">
        <ele>39.8</ele>
        <time>2020-09-05T09:13:36Z</time>
      </trkpt>
      <trkpt lat="45.13839" lon="-0.55364">
        <ele>39.8</ele>
        <time>2020-09-05T09:13:38Z</time>
      </trkpt>
      <trkpt lat="45.13839" lon="-0.55363">
        <ele>39.8</ele>
        <time>2020-09-05T09:13:39Z</time>
      </trkpt>
      <trkpt lat="45.13839" lon="-0.55361">
        <ele>39.8</ele>
        <time>2020-09-05T09:13:40Z</time>
      </trkpt>
      <trkpt lat="45.13839" lon="-0.5536">
        <ele>39.8</ele>
        <time>2020-09-05T09:13:41Z</time>
      </trkpt>
      <trkpt lat="45.1384" lon="-0.55359">
        <ele>39.8</ele>
        <time>2020-09-05T09:13:42Z</time>
      </trkpt>
      <trkpt lat="45.1384" lon="-0.55357">
        <ele>39.8</ele>
        <time>2020-09-05T09:13:43Z</time>
      </trkpt>
      <trkpt lat="45.1384" lon="-0.55356">
        <ele>39.8</ele>
        <time>2020-09-05T09:13:44Z</time>
      </trkpt>
      <trkpt lat="45.13841" lon="-0.55353">
        <ele>39.9</ele>
        <time>2020-09-05T09:13:46Z</time>
      </trkpt>
      <trkpt lat="45.13841" lon="-0.5535">
        <ele>39.9</ele>
        <time>2020-09-05T09:13:47Z</time>
      </trkpt>
      <trkpt lat="45.13842" lon="-0.55349">
        <ele>40</ele>
        <time>2020-09-05T09:13:48Z</time>
      </trkpt>
      <trkpt lat="45.13842" lon="-0.55347">
        <ele>40</ele>
        <time>2020-09-05T09:13:49Z</time>
      </trkpt>
      <trkpt lat="45.13843" lon="-0.55344">
        <ele>40.1</ele>
        <time>2020-09-05T09:13:51Z</time>
      </trkpt>
      <trkpt lat="45.13843" lon="-0.55343">
        <ele>40.1</ele>
        <time>2020-09-05T09:13:52Z</time>
      </trkpt>
      <trkpt lat="45.13843" lon="-0.55341">
        <ele>40.2</ele>
        <time>2020-09-05T09:13:53Z</time>
      </trkpt>
      <trkpt lat="45.13844" lon="-0.55339">
        <ele>40.2</ele>
        <time>2020-09-05T09:13:54Z</time>
      </trkpt>
      <trkpt lat="45.13844" lon="-0.55336">
        <ele>40.3</ele>
        <time>2020-09-05T09:13:56Z</time>
      </trkpt>
      <trkpt lat="45.13844" lon="-0.55335">
        <ele>40.4</ele>
        <time>2020-09-05T09:13:57Z</time>
      </trkpt>
      <trkpt lat="45.13843" lon="-0.55332">
        <ele>40.5</ele>
        <time>2020-09-05T09:13:59Z</time>
      </trkpt>
      <trkpt lat="45.13843" lon="-0.55331">
        <ele>40.5</ele>
        <time>2020-09-05T09:14:00Z</time>
      </trkpt>
      <trkpt lat="45.13843" lon="-0.55331">
        <ele>40.5</ele>
        <time>2020-09-05T09:14:02Z</time>
      </trkpt>
      <trkpt lat="45.13842" lon="-0.55331">
        <ele>40.5</ele>
        <time>2020-09-05T09:14:04Z</time>
      </trkpt>
      <trkpt lat="45.13839" lon="-0.55329">
        <ele>40.7</ele>
        <time>2020-09-05T09:14:06Z</time>
      </trkpt>
      <trkpt lat="45.13838" lon="-0.55329">
        <ele>40.7</ele>
        <time>2020-09-05T09:14:07Z</time>
      </trkpt>
      <trkpt lat="45.13835" lon="-0.55328">
        <ele>40.7</ele>
        <time>2020-09-05T09:14:09Z</time>
      </trkpt>
      <trkpt lat="45.13832" lon="-0.55326">
        <ele>40.8</ele>
        <time>2020-09-05T09:14:11Z</time>
      </trkpt>
      <trkpt lat="45.13832" lon="-0.55326">
        <ele>40.8</ele>
        <time>2020-09-05T09:14:12Z</time>
      </trkpt>
      <trkpt lat="45.1383" lon="-0.55324">
        <ele>40.9</ele>
        <time>2020-09-05T09:14:13Z</time>
      </trkpt>
      <trkpt lat="45.13827" lon="-0.55322">
        <ele>41</ele>
        <time>2020-09-05T09:14:15Z</time>
      </trkpt>
      <trkpt lat="45.13826" lon="-0.55321">
        <ele>41</ele>
        <time>2020-09-05T09:14:16Z</time>
      </trkpt>
      <trkpt lat="45.13824" lon="-0.55319">
        <ele>41</ele>
        <time>2020-09-05T09:14:17Z</time>
      </trkpt>
      <trkpt lat="45.13823" lon="-0.55318">
        <ele>41.1</ele>
        <time>2020-09-05T09:14:19Z</time>
      </trkpt>
      <trkpt lat="45.13822" lon="-0.55317">
        <ele>41.1</ele>
        <time>2020-09-05T09:14:20Z</time>
      </trkpt>
      <trkpt lat="45.1382" lon="-0.55316">
        <ele>41.1</ele>
        <time>2020-09-05T09:14:21Z</time>
      </trkpt>
      <trkpt lat="45.13819" lon="-0.55315">
        <ele>41.2</ele>
        <time>2020-09-05T09:14:23Z</time>
      </trkpt>
      <trkpt lat="45.13817" lon="-0.55314">
        <ele>41.2</ele>
        <time>2020-09-05T09:14:24Z</time>
      </trkpt>
      <trkpt lat="45.13815" lon="-0.55313">
        <ele>41.3</ele>
        <time>2020-09-05T09:14:26Z</time>
      </trkpt>
      <trkpt lat="45.13814" lon="-0.55313">
        <ele>41.3</ele>
        <time>2020-09-05T09:14:27Z</time>
      </trkpt>
      <trkpt lat="45.13814" lon="-0.55312">
        <ele>41.3</ele>
        <time>2020-09-05T09:14:28Z</time>
      </trkpt>
      <trkpt lat="45.13812" lon="-0.55311">
        <ele>41.4</ele>
        <time>2020-09-05T09:14:29Z</time>
      </trkpt>
      <trkpt lat="45.13811" lon="-0.5531">
        <ele>41.4</ele>
        <time>2020-09-05T09:14:31Z</time>
      </trkpt>
      <trkpt lat="45.13809" lon="-0.55309">
        <ele>41.5</ele>
        <time>2020-09-05T09:14:32Z</time>
      </trkpt>
      <trkpt lat="45.13809" lon="-0.55308">
        <ele>41.5</ele>
        <time>2020-09-05T09:14:34Z</time>
      </trkpt>
      <trkpt lat="45.13808" lon="-0.55307">
        <ele>41.5</ele>
        <time>2020-09-05T09:14:35Z</time>
      </trkpt>
      <trkpt lat="45.13806" lon="-0.55305">
        <ele>41.6</ele>
        <time>2020-09-05T09:14:36Z</time>
      </trkpt>
      <trkpt lat="45.13805" lon="-0.55304">
        <ele>41.6</ele>
        <time>2020-09-05T09:14:37Z</time>
      </trkpt>
      <trkpt lat="45.13805" lon="-0.55304">
        <ele>41.6</ele>
        <time>2020-09-05T09:14:38Z</time>
      </trkpt>
      <trkpt lat="45.13804" lon="-0.55303">
        <ele>41.7</ele>
        <time>2020-09-05T09:14:39Z</time>
      </trkpt>
      <trkpt lat="45.13802" lon="-0.55302">
        <ele>41.7</ele>
        <time>2020-09-05T09:14:40Z</time>
      </trkpt>
      <trkpt lat="45.13801" lon="-0.55301">
        <ele>41.7</ele>
        <time>2020-09-05T09:14:42Z</time>
      </trkpt>
      <trkpt lat="45.13799" lon="-0.553">
        <ele>41.8</ele>
        <time>2020-09-05T09:14:43Z</time>
      </trkpt>
      <trkpt lat="45.13798" lon="-0.55299">
        <ele>41.8</ele>
        <time>2020-09-05T09:14:44Z</time>
      </trkpt>
      <trkpt lat="45.13796" lon="-0.55298">
        <ele>41.8</ele>
        <time>2020-09-05T09:14:45Z</time>
      </trkpt>
      <trkpt lat="45.13795" lon="-0.55298">
        <ele>41.8</ele>
        <time>2020-09-05T09:14:47Z</time>
      </trkpt>
      <trkpt lat="45.13794" lon="-0.55297">
        <ele>41.9</ele>
        <time>2020-09-05T09:14:48Z</time>
      </trkpt>
      <trkpt lat="45.13792" lon="-0.55296">
        <ele>42</ele>
        <time>2020-09-05T09:14:49Z</time>
      </trkpt>
      <trkpt lat="45.1379" lon="-0.55295">
        <ele>42</ele>
        <time>2020-09-05T09:14:51Z</time>
      </trkpt>
      <trkpt lat="45.13789" lon="-0.55294">
        <ele>42</ele>
        <time>2020-09-05T09:14:52Z</time>
      </trkpt>
      <trkpt lat="45.13787" lon="-0.55293">
        <ele>42</ele>
        <time>2020-09-05T09:14:54Z</time>
      </trkpt>
      <trkpt lat="45.13784" lon="-0.55292">
        <ele>42</ele>
        <time>2020-09-05T09:14:56Z</time>
      </trkpt>
      <trkpt lat="45.13783" lon="-0.55292">
        <ele>42.1</ele>
        <time>2020-09-05T09:14:58Z</time>
      </trkpt>
      <trkpt lat="45.13782" lon="-0.55291">
        <ele>42.1</ele>
        <time>2020-09-05T09:14:59Z</time>
      </trkpt>
      <trkpt lat="45.13781" lon="-0.5529">
        <ele>42.1</ele>
        <time>2020-09-05T09:15:00Z</time>
      </trkpt>
      <trkpt lat="45.1378" lon="-0.55289">
        <ele>42.1</ele>
        <time>2020-09-05T09:15:01Z</time>
      </trkpt>
      <trkpt lat="45.13779" lon="-0.55288">
        <ele>42.2</ele>
        <time>2020-09-05T09:15:02Z</time>
      </trkpt>
      <trkpt lat="45.13778" lon="-0.55287">
        <ele>42.2</ele>
        <time>2020-09-05T09:15:03Z</time>
      </trkpt>
      <trkpt lat="45.13776" lon="-0.55286">
        <ele>42.2</ele>
        <time>2020-09-05T09:15:05Z</time>
      </trkpt>
      <trkpt lat="45.13774" lon="-0.55285">
        <ele>42.2</ele>
        <time>2020-09-05T09:15:06Z</time>
      </trkpt>
      <trkpt lat="45.13773" lon="-0.55283">
        <ele>42.3</ele>
        <time>2020-09-05T09:15:08Z</time>
      </trkpt>
      <trkpt lat="45.13772" lon="-0.55282">
        <ele>42.3</ele>
        <time>2020-09-05T09:15:09Z</time>
      </trkpt>
      <trkpt lat="45.13772" lon="-0.55282">
        <ele>42.3</ele>
        <time>2020-09-05T09:15:10Z</time>
      </trkpt>
      <trkpt lat="45.13771" lon="-0.55281">
        <ele>42.3</ele>
        <time>2020-09-05T09:15:11Z</time>
      </trkpt>
      <trkpt lat="45.13771" lon="-0.5528">
        <ele>42.3</ele>
        <time>2020-09-05T09:15:13Z</time>
      </trkpt>
      <trkpt lat="45.13771" lon="-0.55279">
        <ele>42.4</ele>
        <time>2020-09-05T09:15:14Z</time>
      </trkpt>
      <trkpt lat="45.13771" lon="-0.55278">
        <ele>42.4</ele>
        <time>2020-09-05T09:15:15Z</time>
      </trkpt>
      <trkpt lat="45.13772" lon="-0.55278">
        <ele>42.4</ele>
        <time>2020-09-05T09:15:17Z</time>
      </trkpt>
      <trkpt lat="45.13772" lon="-0.55278">
        <ele>42.4</ele>
        <time>2020-09-05T09:15:19Z</time>
      </trkpt>
      <trkpt lat="45.13772" lon="-0.55278">
        <ele>42.4</ele>
        <time>2020-09-05T09:15:20Z</time>
      </trkpt>
      <trkpt lat="45.13772" lon="-0.55277">
        <ele>42.4</ele>
        <time>2020-09-05T09:15:21Z</time>
      </trkpt>
      <trkpt lat="45.13772" lon="-0.55275">
        <ele>42.4</ele>
        <time>2020-09-05T09:15:22Z</time>
      </trkpt>
      <trkpt lat="45.13773" lon="-0.55273">
        <ele>42.5</ele>
        <time>2020-09-05T09:15:24Z</time>
      </trkpt>
      <trkpt lat="45.13772" lon="-0.5527">
        <ele>42.5</ele>
        <time>2020-09-05T09:15:25Z</time>
      </trkpt>
      <trkpt lat="45.13771" lon="-0.55268">
        <ele>42.6</ele>
        <time>2020-09-05T09:15:27Z</time>
      </trkpt>
      <trkpt lat="45.13771" lon="-0.55267">
        <ele>42.6</ele>
        <time>2020-09-05T09:15:28Z</time>
      </trkpt>
      <trkpt lat="45.13771" lon="-0.55266">
        <ele>42.6</ele>
        <time>2020-09-05T09:15:29Z</time>
      </trkpt>
      <trkpt lat="45.13771" lon="-0.55264">
        <ele>42.6</ele>
        <time>2020-09-05T09:15:30Z</time>
      </trkpt>
      <trkpt lat="45.13771" lon="-0.55262">
        <ele>42.7</ele>
        <time>2020-09-05T09:15:31Z</time>
      </trkpt>
      <trkpt lat="45.13771" lon="-0.5526">
        <ele>42.7</ele>
        <time>2020-09-05T09:15:32Z</time>
      </trkpt>
      <trkpt lat="45.13771" lon="-0.55258">
        <ele>42.7</ele>
        <time>2020-09-05T09:15:34Z</time>
      </trkpt>
      <trkpt lat="45.13771" lon="-0.55254">
        <ele>42.7</ele>
        <time>2020-09-05T09:15:35Z</time>
      </trkpt>
      <trkpt lat="45.13771" lon="-0.55253">
        <ele>42.8</ele>
        <time>2020-09-05T09:15:36Z</time>
      </trkpt>
      <trkpt lat="45.13771" lon="-0.55251">
        <ele>42.8</ele>
        <time>2020-09-05T09:15:38Z</time>
      </trkpt>
      <trkpt lat="45.13771" lon="-0.55249">
        <ele>42.8</ele>
        <time>2020-09-05T09:15:39Z</time>
      </trkpt>
      <trkpt lat="45.13771" lon="-0.55247">
        <ele>42.8</ele>
        <time>2020-09-05T09:15:40Z</time>
      </trkpt>
      <trkpt lat="45.13771" lon="-0.55244">
        <ele>42.8</ele>
        <time>2020-09-05T09:15:41Z</time>
      </trkpt>
      <trkpt lat="45.13771" lon="-0.55243">
        <ele>42.8</ele>
        <time>2020-09-05T09:15:42Z</time>
      </trkpt>
      <trkpt lat="45.13771" lon="-0.55241">
        <ele>42.9</ele>
        <time>2020-09-05T09:15:44Z</time>
      </trkpt>
      <trkpt lat="45.13771" lon="-0.55238">
        <ele>42.9</ele>
        <time>2020-09-05T09:15:45Z</time>
      </trkpt>
      <trkpt lat="45.13771" lon="-0.55236">
        <ele>42.9</ele>
        <time>2020-09-05T09:15:47Z</time>
      </trkpt>
      <trkpt lat="45.13771" lon="-0.55234">
        <ele>42.9</ele>
        <time>2020-09-05T09:15:48Z</time>
      </trkpt>
      <trkpt lat="45.13771" lon="-0.55232">
        <ele>42.9</ele>
        <time>2020-09-05T09:15:49Z</time>
      </trkpt>
      <trkpt lat="45.1377" lon="-0.55228">
        <ele>42.9</ele>
        <time>2020-09-05T09:15:50Z</time>
      </trkpt>
      <trkpt lat="45.1377" lon="-0.55227">
        <ele>42.9</ele>
        <time>2020-09-05T09:15:52Z</time>
      </trkpt>
      <trkpt lat="45.13769" lon="-0.55225">
        <ele>42.9</ele>
        <time>2020-09-05T09:15:53Z</time>
      </trkpt>
      <trkpt lat="45.13769" lon="-0.55224">
        <ele>42.9</ele>
        <time>2020-09-05T09:15:55Z</time>
      </trkpt>
      <trkpt lat="45.13768" lon="-0.55223">
        <ele>42.9</ele>
        <time>2020-09-05T09:15:56Z</time>
      </trkpt>
      <trkpt lat="45.13768" lon="-0.55222">
        <ele>42.9</ele>
        <time>2020-09-05T09:15:57Z</time>
      </trkpt>
      <trkpt lat="45.13767" lon="-0.55221">
        <ele>42.9</ele>
        <time>2020-09-05T09:15:58Z</time>
      </trkpt>
      <trkpt lat="45.13767" lon="-0.5522">
        <ele>42.9</ele>
        <time>2020-09-05T09:15:59Z</time>
      </trkpt>
      <trkpt lat="45.13766" lon="-0.55217">
        <ele>42.9</ele>
        <time>2020-09-05T09:16:01Z</time>
      </trkpt>
      <trkpt lat="45.13766" lon="-0.55215">
        <ele>42.8</ele>
        <time>2020-09-05T09:16:02Z</time>
      </trkpt>
      <trkpt lat="45.13766" lon="-0.55212">
        <ele>42.9</ele>
        <time>2020-09-05T09:16:03Z</time>
      </trkpt>
      <trkpt lat="45.13766" lon="-0.55211">
        <ele>42.9</ele>
        <time>2020-09-05T09:16:04Z</time>
      </trkpt>
      <trkpt lat="45.13766" lon="-0.5521">
        <ele>42.8</ele>
        <time>2020-09-05T09:16:06Z</time>
      </trkpt>
      <trkpt lat="45.13766" lon="-0.55209">
        <ele>42.9</ele>
        <time>2020-09-05T09:16:07Z</time>
      </trkpt>
      <trkpt lat="45.13765" lon="-0.55207">
        <ele>42.9</ele>
        <time>2020-09-05T09:16:08Z</time>
      </trkpt>
      <trkpt lat="45.13765" lon="-0.55206">
        <ele>42.8</ele>
        <time>2020-09-05T09:16:09Z</time>
      </trkpt>
      <trkpt lat="45.13765" lon="-0.55205">
        <ele>42.8</ele>
        <time>2020-09-05T09:16:10Z</time>
      </trkpt>
      <trkpt lat="45.13765" lon="-0.55202">
        <ele>42.9</ele>
        <time>2020-09-05T09:16:11Z</time>
      </trkpt>
      <trkpt lat="45.13765" lon="-0.55201">
        <ele>42.8</ele>
        <time>2020-09-05T09:16:12Z</time>
      </trkpt>
      <trkpt lat="45.13765" lon="-0.55199">
        <ele>42.8</ele>
        <time>2020-09-05T09:16:13Z</time>
      </trkpt>
      <trkpt lat="45.13765" lon="-0.55196">
        <ele>42.8</ele>
        <time>2020-09-05T09:16:14Z</time>
      </trkpt>
      <trkpt lat="45.13765" lon="-0.55192">
        <ele>42.8</ele>
        <time>2020-09-05T09:16:16Z</time>
      </trkpt>
      <trkpt lat="45.13765" lon="-0.5519">
        <ele>42.8</ele>
        <time>2020-09-05T09:16:17Z</time>
      </trkpt>
      <trkpt lat="45.13765" lon="-0.55189">
        <ele>42.8</ele>
        <time>2020-09-05T09:16:19Z</time>
      </trkpt>
      <trkpt lat="45.13767" lon="-0.55189">
        <ele>42.8</ele>
        <time>2020-09-05T09:16:20Z</time>
      </trkpt>
      <trkpt lat="45.13768" lon="-0.55189">
        <ele>42.8</ele>
        <time>2020-09-05T09:16:21Z</time>
      </trkpt>
      <trkpt lat="45.13769" lon="-0.55189">
        <ele>42.8</ele>
        <time>2020-09-05T09:16:23Z</time>
      </trkpt>
      <trkpt lat="45.13769" lon="-0.55189">
        <ele>42.8</ele>
        <time>2020-09-05T09:16:24Z</time>
      </trkpt>
      <trkpt lat="45.1377" lon="-0.55189">
        <ele>42.8</ele>
        <time>2020-09-05T09:16:25Z</time>
      </trkpt>
      <trkpt lat="45.1377" lon="-0.55189">
        <ele>42.8</ele>
        <time>2020-09-05T09:16:27Z</time>
      </trkpt>
      <trkpt lat="45.1377" lon="-0.5519">
        <ele>42.9</ele>
        <time>2020-09-05T09:16:28Z</time>
      </trkpt>
      <trkpt lat="45.1377" lon="-0.5519">
        <ele>42.9</ele>
        <time>2020-09-05T09:16:29Z</time>
      </trkpt>
      <trkpt lat="45.13771" lon="-0.55189">
        <ele>42.8</ele>
        <time>2020-09-05T09:16:30Z</time>
      </trkpt>
      <trkpt lat="45.13771" lon="-0.55188">
        <ele>42.8</ele>
        <time>2020-09-05T09:16:32Z</time>
      </trkpt>
      <trkpt lat="45.13771" lon="-0.55187">
        <ele>42.8</ele>
        <time>2020-09-05T09:16:33Z</time>
      </trkpt>
      <trkpt lat="45.13772" lon="-0.55186">
        <ele>42.8</ele>
        <time>2020-09-05T09:16:35Z</time>
      </trkpt>
      <trkpt lat="45.13772" lon="-0.55185">
        <ele>42.9</ele>
        <time>2020-09-05T09:16:36Z</time>
      </trkpt>
      <trkpt lat="45.13773" lon="-0.55183">
        <ele>42.8</ele>
        <time>2020-09-05T09:16:37Z</time>
      </trkpt>
      <trkpt lat="45.13774" lon="-0.55181">
        <ele>42.8</ele>
        <time>2020-09-05T09:16:38Z</time>
      </trkpt>
      <trkpt lat="45.13774" lon="-0.5518">
        <ele>42.8</ele>
        <time>2020-09-05T09:16:39Z</time>
      </trkpt>
      <trkpt lat="45.13776" lon="-0.55175">
        <ele>42.7</ele>
        <time>2020-09-05T09:16:41Z</time>
      </trkpt>
      <trkpt lat="45.13777" lon="-0.55174">
        <ele>42.7</ele>
        <time>2020-09-05T09:16:42Z</time>
      </trkpt>
      <trkpt lat="45.13778" lon="-0.55173">
        <ele>42.7</ele>
        <time>2020-09-05T09:16:43Z</time>
      </trkpt>
      <trkpt lat="45.13778" lon="-0.55172">
        <ele>42.7</ele>
        <time>2020-09-05T09:16:44Z</time>
      </trkpt>
      <trkpt lat="45.13781" lon="-0.55171">
        <ele>42.7</ele>
        <time>2020-09-05T09:16:46Z</time>
      </trkpt>
      <trkpt lat="45.13782" lon="-0.55171">
        <ele>42.7</ele>
        <time>2020-09-05T09:16:47Z</time>
      </trkpt>
      <trkpt lat="45.13784" lon="-0.5517">
        <ele>42.7</ele>
        <time>2020-09-05T09:16:48Z</time>
      </trkpt>
      <trkpt lat="45.13785" lon="-0.5517">
        <ele>42.7</ele>
        <time>2020-09-05T09:16:49Z</time>
      </trkpt>
      <trkpt lat="45.13787" lon="-0.55171">
        <ele>42.7</ele>
        <time>2020-09-05T09:16:50Z</time>
      </trkpt>
      <trkpt lat="45.13788" lon="-0.55171">
        <ele>42.7</ele>
        <time>2020-09-05T09:16:51Z</time>
      </trkpt>
      <trkpt lat="45.13789" lon="-0.55172">
        <ele>42.7</ele>
        <time>2020-09-05T09:16:52Z</time>
      </trkpt>
      <trkpt lat="45.13791" lon="-0.55172">
        <ele>42.7</ele>
        <time>2020-09-05T09:16:54Z</time>
      </trkpt>
      <trkpt lat="45.13792" lon="-0.55173">
        <ele>42.7</ele>
        <time>2020-09-05T09:16:55Z</time>
      </trkpt>
      <trkpt lat="45.13794" lon="-0.55173">
        <ele>42.7</ele>
        <time>2020-09-05T09:16:56Z</time>
      </trkpt>
      <trkpt lat="45.13796" lon="-0.55174">
        <ele>42.7</ele>
        <time>2020-09-05T09:16:57Z</time>
      </trkpt>
      <trkpt lat="45.13797" lon="-0.55174">
        <ele>42.7</ele>
        <time>2020-09-05T09:16:58Z</time>
      </trkpt>
      <trkpt lat="45.13798" lon="-0.55174">
        <ele>42.7</ele>
        <time>2020-09-05T09:16:59Z</time>
      </trkpt>
      <trkpt lat="45.138" lon="-0.55174">
        <ele>42.7</ele>
        <time>2020-09-05T09:17:00Z</time>
      </trkpt>
      <trkpt lat="45.13802" lon="-0.55174">
        <ele>42.7</ele>
        <time>2020-09-05T09:17:01Z</time>
      </trkpt>
      <trkpt lat="45.13802" lon="-0.55174">
        <ele>42.7</ele>
        <time>2020-09-05T09:17:02Z</time>
      </trkpt>
      <trkpt lat="45.13804" lon="-0.55175">
        <ele>42.7</ele>
        <time>2020-09-05T09:17:04Z</time>
      </trkpt>
      <trkpt lat="45.13805" lon="-0.55175">
        <ele>42.7</ele>
        <time>2020-09-05T09:17:05Z</time>
      </trkpt>
      <trkpt lat="45.13808" lon="-0.55175">
        <ele>42.7</ele>
        <time>2020-09-05T09:17:06Z</time>
      </trkpt>
      <trkpt lat="45.13809" lon="-0.55176">
        <ele>42.7</ele>
        <time>2020-09-05T09:17:08Z</time>
      </trkpt>
      <trkpt lat="45.13811" lon="-0.55176">
        <ele>42.6</ele>
        <time>2020-09-05T09:17:09Z</time>
      </trkpt>
      <trkpt lat="45.13814" lon="-0.55177">
        <ele>42.7</ele>
        <time>2020-09-05T09:17:10Z</time>
      </trkpt>
      <trkpt lat="45.13814" lon="-0.55177">
        <ele>42.7</ele>
        <time>2020-09-05T09:17:12Z</time>
      </trkpt>
      <trkpt lat="45.13815" lon="-0.55177">
        <ele>42.7</ele>
        <time>2020-09-05T09:17:13Z</time>
      </trkpt>
      <trkpt lat="45.13816" lon="-0.55178">
        <ele>42.7</ele>
        <time>2020-09-05T09:17:14Z</time>
      </trkpt>
      <trkpt lat="45.13817" lon="-0.55179">
        <ele>42.7</ele>
        <time>2020-09-05T09:17:16Z</time>
      </trkpt>
      <trkpt lat="45.13818" lon="-0.5518">
        <ele>42.7</ele>
        <time>2020-09-05T09:17:17Z</time>
      </trkpt>
      <trkpt lat="45.13818" lon="-0.55181">
        <ele>42.8</ele>
        <time>2020-09-05T09:17:18Z</time>
      </trkpt>
      <trkpt lat="45.13819" lon="-0.55182">
        <ele>42.7</ele>
        <time>2020-09-05T09:17:19Z</time>
      </trkpt>
      <trkpt lat="45.13821" lon="-0.55185">
        <ele>42.8</ele>
        <time>2020-09-05T09:17:21Z</time>
      </trkpt>
      <trkpt lat="45.13822" lon="-0.55185">
        <ele>42.8</ele>
        <time>2020-09-05T09:17:22Z</time>
      </trkpt>
      <trkpt lat="45.13823" lon="-0.55186">
        <ele>42.8</ele>
        <time>2020-09-05T09:17:23Z</time>
      </trkpt>
      <trkpt lat="45.13824" lon="-0.55187">
        <ele>42.8</ele>
        <time>2020-09-05T09:17:24Z</time>
      </trkpt>
      <trkpt lat="45.13825" lon="-0.55187">
        <ele>42.8</ele>
        <time>2020-09-05T09:17:25Z</time>
      </trkpt>
      <trkpt lat="45.13827" lon="-0.55189">
        <ele>42.8</ele>
        <time>2020-09-05T09:17:27Z</time>
      </trkpt>
      <trkpt lat="45.13829" lon="-0.5519">
        <ele>42.8</ele>
        <time>2020-09-05T09:17:28Z</time>
      </trkpt>
      <trkpt lat="45.1383" lon="-0.55191">
        <ele>42.8</ele>
        <time>2020-09-05T09:17:30Z</time>
      </trkpt>
      <trkpt lat="45.13832" lon="-0.55193">
        <ele>42.8</ele>
        <time>2020-09-05T09:17:31Z</time>
      </trkpt>
      <trkpt lat="45.13834" lon="-0.55194">
        <ele>42.8</ele>
        <time>2020-09-05T09:17:32Z</time>
      </trkpt>
      <trkpt lat="45.13835" lon="-0.55195">
        <ele>42.8</ele>
        <time>2020-09-05T09:17:34Z</time>
      </trkpt>
      <trkpt lat="45.13837" lon="-0.55196">
        <ele>42.8</ele>
        <time>2020-09-05T09:17:35Z</time>
      </trkpt>
      <trkpt lat="45.13839" lon="-0.55197">
        <ele>42.7</ele>
        <time>2020-09-05T09:17:37Z</time>
      </trkpt>
      <trkpt lat="45.1384" lon="-0.55197">
        <ele>42.6</ele>
        <time>2020-09-05T09:17:38Z</time>
      </trkpt>
      <trkpt lat="45.13842" lon="-0.55197">
        <ele>42.6</ele>
        <time>2020-09-05T09:17:39Z</time>
      </trkpt>
      <trkpt lat="45.13844" lon="-0.55197">
        <ele>42.6</ele>
        <time>2020-09-05T09:17:40Z</time>
      </trkpt>
      <trkpt lat="45.13844" lon="-0.55197">
        <ele>42.6</ele>
        <time>2020-09-05T09:17:41Z</time>
      </trkpt>
      <trkpt lat="45.13846" lon="-0.55198">
        <ele>42.7</ele>
        <time>2020-09-05T09:17:42Z</time>
      </trkpt>
      <trkpt lat="45.13847" lon="-0.55199">
        <ele>42.6</ele>
        <time>2020-09-05T09:17:44Z</time>
      </trkpt>
      <trkpt lat="45.13848" lon="-0.552">
        <ele>42.6</ele>
        <time>2020-09-05T09:17:45Z</time>
      </trkpt>
      <trkpt lat="45.1385" lon="-0.55202">
        <ele>42.5</ele>
        <time>2020-09-05T09:17:46Z</time>
      </trkpt>
      <trkpt lat="45.13852" lon="-0.55203">
        <ele>42.6</ele>
        <time>2020-09-05T09:17:48Z</time>
      </trkpt>
      <trkpt lat="45.13853" lon="-0.55204">
        <ele>42.5</ele>
        <time>2020-09-05T09:17:49Z</time>
      </trkpt>
      <trkpt lat="45.13854" lon="-0.55204">
        <ele>42.5</ele>
        <time>2020-09-05T09:17:50Z</time>
      </trkpt>
      <trkpt lat="45.13856" lon="-0.55206">
        <ele>42.5</ele>
        <time>2020-09-05T09:17:51Z</time>
      </trkpt>
      <trkpt lat="45.13857" lon="-0.55207">
        <ele>42.5</ele>
        <time>2020-09-05T09:17:53Z</time>
      </trkpt>
      <trkpt lat="45.13858" lon="-0.55207">
        <ele>42.6</ele>
        <time>2020-09-05T09:17:54Z</time>
      </trkpt>
      <trkpt lat="45.13859" lon="-0.55208">
        <ele>42.5</ele>
        <time>2020-09-05T09:17:55Z</time>
      </trkpt>
      <trkpt lat="45.13861" lon="-0.55209">
        <ele>42.5</ele>
        <time>2020-09-05T09:17:56Z</time>
      </trkpt>
      <trkpt lat="45.13862" lon="-0.5521">
        <ele>42.4</ele>
        <time>2020-09-05T09:17:57Z</time>
      </trkpt>
      <trkpt lat="45.13863" lon="-0.55211">
        <ele>42.5</ele>
        <time>2020-09-05T09:17:58Z</time>
      </trkpt>
      <trkpt lat="45.13865" lon="-0.55211">
        <ele>42.4</ele>
        <time>2020-09-05T09:18:00Z</time>
      </trkpt>
      <trkpt lat="45.13867" lon="-0.55211">
        <ele>42.4</ele>
        <time>2020-09-05T09:18:01Z</time>
      </trkpt>
      <trkpt lat="45.13868" lon="-0.55212">
        <ele>42.3</ele>
        <time>2020-09-05T09:18:03Z</time>
      </trkpt>
      <trkpt lat="45.1387" lon="-0.55212">
        <ele>42.3</ele>
        <time>2020-09-05T09:18:04Z</time>
      </trkpt>
      <trkpt lat="45.13872" lon="-0.55212">
        <ele>42.3</ele>
        <time>2020-09-05T09:18:06Z</time>
      </trkpt>
      <trkpt lat="45.13873" lon="-0.55212">
        <ele>42.3</ele>
        <time>2020-09-05T09:18:07Z</time>
      </trkpt>
      <trkpt lat="45.13875" lon="-0.55212">
        <ele>42.2</ele>
        <time>2020-09-05T09:18:08Z</time>
      </trkpt>
      <trkpt lat="45.13877" lon="-0.55212">
        <ele>42.1</ele>
        <time>2020-09-05T09:18:09Z</time>
      </trkpt>
      <trkpt lat="45.13878" lon="-0.55211">
        <ele>42.1</ele>
        <time>2020-09-05T09:18:10Z</time>
      </trkpt>
      <trkpt lat="45.13879" lon="-0.55211">
        <ele>42</ele>
        <time>2020-09-05T09:18:11Z</time>
      </trkpt>
      <trkpt lat="45.13879" lon="-0.5521">
        <ele>42</ele>
        <time>2020-09-05T09:18:12Z</time>
      </trkpt>
      <trkpt lat="45.1388" lon="-0.55209">
        <ele>42</ele>
        <time>2020-09-05T09:18:13Z</time>
      </trkpt>
      <trkpt lat="45.1388" lon="-0.55208">
        <ele>41.9</ele>
        <time>2020-09-05T09:18:14Z</time>
      </trkpt>
      <trkpt lat="45.13882" lon="-0.55205">
        <ele>41.8</ele>
        <time>2020-09-05T09:18:16Z</time>
      </trkpt>
      <trkpt lat="45.13882" lon="-0.55203">
        <ele>41.8</ele>
        <time>2020-09-05T09:18:17Z</time>
      </trkpt>
      <trkpt lat="45.13883" lon="-0.55202">
        <ele>41.7</ele>
        <time>2020-09-05T09:18:18Z</time>
      </trkpt>
      <trkpt lat="45.13883" lon="-0.552">
        <ele>41.7</ele>
        <time>2020-09-05T09:18:19Z</time>
      </trkpt>
      <trkpt lat="45.13884" lon="-0.55198">
        <ele>41.6</ele>
        <time>2020-09-05T09:18:21Z</time>
      </trkpt>
      <trkpt lat="45.13884" lon="-0.55197">
        <ele>41.6</ele>
        <time>2020-09-05T09:18:22Z</time>
      </trkpt>
      <trkpt lat="45.13884" lon="-0.55196">
        <ele>41.6</ele>
        <time>2020-09-05T09:18:23Z</time>
      </trkpt>
      <trkpt lat="45.13885" lon="-0.55194">
        <ele>41.5</ele>
        <time>2020-09-05T09:18:24Z</time>
      </trkpt>
      <trkpt lat="45.13885" lon="-0.55193">
        <ele>41.5</ele>
        <time>2020-09-05T09:18:25Z</time>
      </trkpt>
      <trkpt lat="45.13886" lon="-0.55191">
        <ele>41.4</ele>
        <time>2020-09-05T09:18:26Z</time>
      </trkpt>
      <trkpt lat="45.13887" lon="-0.55188">
        <ele>41.4</ele>
        <time>2020-09-05T09:18:27Z</time>
      </trkpt>
      <trkpt lat="45.13888" lon="-0.55187">
        <ele>41.3</ele>
        <time>2020-09-05T09:18:28Z</time>
      </trkpt>
      <trkpt lat="45.13888" lon="-0.55186">
        <ele>41.3</ele>
        <time>2020-09-05T09:18:29Z</time>
      </trkpt>
      <trkpt lat="45.13889" lon="-0.55185">
        <ele>41.3</ele>
        <time>2020-09-05T09:18:30Z</time>
      </trkpt>
      <trkpt lat="45.1389" lon="-0.55183">
        <ele>41.2</ele>
        <time>2020-09-05T09:18:31Z</time>
      </trkpt>
      <trkpt lat="45.13891" lon="-0.5518">
        <ele>41.2</ele>
        <time>2020-09-05T09:18:33Z</time>
      </trkpt>
      <trkpt lat="45.13892" lon="-0.55179">
        <ele>41.2</ele>
        <time>2020-09-05T09:18:34Z</time>
      </trkpt>
      <trkpt lat="45.13892" lon="-0.55177">
        <ele>41.1</ele>
        <time>2020-09-05T09:18:35Z</time>
      </trkpt>
      <trkpt lat="45.13894" lon="-0.55174">
        <ele>41.1</ele>
        <time>2020-09-05T09:18:37Z</time>
      </trkpt>
      <trkpt lat="45.13894" lon="-0.55173">
        <ele>41.1</ele>
        <time>2020-09-05T09:18:38Z</time>
      </trkpt>
      <trkpt lat="45.13895" lon="-0.55171">
        <ele>41</ele>
        <time>2020-09-05T09:18:39Z</time>
      </trkpt>
      <trkpt lat="45.13897" lon="-0.55168">
        <ele>41</ele>
        <time>2020-09-05T09:18:41Z</time>
      </trkpt>
      <trkpt lat="45.13898" lon="-0.55166">
        <ele>40.9</ele>
        <time>2020-09-05T09:18:43Z</time>
      </trkpt>
      <trkpt lat="45.13898" lon="-0.55165">
        <ele>40.9</ele>
        <time>2020-09-05T09:18:44Z</time>
      </trkpt>
      <trkpt lat="45.139" lon="-0.55161">
        <ele>40.9</ele>
        <time>2020-09-05T09:18:46Z</time>
      </trkpt>
      <trkpt lat="45.139" lon="-0.5516">
        <ele>40.8</ele>
        <time>2020-09-05T09:18:47Z</time>
      </trkpt>
      <trkpt lat="45.13901" lon="-0.55156">
        <ele>40.8</ele>
        <time>2020-09-05T09:18:49Z</time>
      </trkpt>
      <trkpt lat="45.13902" lon="-0.55155">
        <ele>40.7</ele>
        <time>2020-09-05T09:18:50Z</time>
      </trkpt>
      <trkpt lat="45.13903" lon="-0.5515">
        <ele>40.7</ele>
        <time>2020-09-05T09:18:52Z</time>
      </trkpt>
      <trkpt lat="45.13904" lon="-0.55148">
        <ele>40.6</ele>
        <time>2020-09-05T09:18:54Z</time>
      </trkpt>
      <trkpt lat="45.13905" lon="-0.55146">
        <ele>40.6</ele>
        <time>2020-09-05T09:18:55Z</time>
      </trkpt>
      <trkpt lat="45.13906" lon="-0.55144">
        <ele>40.5</ele>
        <time>2020-09-05T09:18:56Z</time>
      </trkpt>
      <trkpt lat="45.13907" lon="-0.55142">
        <ele>40.4</ele>
        <time>2020-09-05T09:18:58Z</time>
      </trkpt>
      <trkpt lat="45.13908" lon="-0.5514">
        <ele>40.4</ele>
        <time>2020-09-05T09:18:59Z</time>
      </trkpt>
      <trkpt lat="45.13908" lon="-0.55138">
        <ele>40.3</ele>
        <time>2020-09-05T09:19:00Z</time>
      </trkpt>
      <trkpt lat="45.1391" lon="-0.55135">
        <ele>40.2</ele>
        <time>2020-09-05T09:19:02Z</time>
      </trkpt>
      <trkpt lat="45.1391" lon="-0.55133">
        <ele>40.2</ele>
        <time>2020-09-05T09:19:03Z</time>
      </trkpt>
      <trkpt lat="45.13911" lon="-0.55132">
        <ele>40.1</ele>
        <time>2020-09-05T09:19:04Z</time>
      </trkpt>
      <trkpt lat="45.13912" lon="-0.55129">
        <ele>40</ele>
        <time>2020-09-05T09:19:06Z</time>
      </trkpt>
      <trkpt lat="45.13912" lon="-0.55127">
        <ele>40</ele>
        <time>2020-09-05T09:19:07Z</time>
      </trkpt>
      <trkpt lat="45.13913" lon="-0.55125">
        <ele>39.9</ele>
        <time>2020-09-05T09:19:08Z</time>
      </trkpt>
      <trkpt lat="45.13914" lon="-0.55121">
        <ele>39.7</ele>
        <time>2020-09-05T09:19:10Z</time>
      </trkpt>
      <trkpt lat="45.13914" lon="-0.55119">
        <ele>39.7</ele>
        <time>2020-09-05T09:19:11Z</time>
      </trkpt>
      <trkpt lat="45.13915" lon="-0.55117">
        <ele>39.6</ele>
        <time>2020-09-05T09:19:13Z</time>
      </trkpt>
      <trkpt lat="45.13915" lon="-0.55115">
        <ele>39.5</ele>
        <time>2020-09-05T09:19:14Z</time>
      </trkpt>
      <trkpt lat="45.13916" lon="-0.55112">
        <ele>39.4</ele>
        <time>2020-09-05T09:19:15Z</time>
      </trkpt>
      <trkpt lat="45.13917" lon="-0.55109">
        <ele>39.3</ele>
        <time>2020-09-05T09:19:17Z</time>
      </trkpt>
      <trkpt lat="45.13917" lon="-0.55107">
        <ele>39.2</ele>
        <time>2020-09-05T09:19:18Z</time>
      </trkpt>
      <trkpt lat="45.13918" lon="-0.55105">
        <ele>39.1</ele>
        <time>2020-09-05T09:19:19Z</time>
      </trkpt>
      <trkpt lat="45.13918" lon="-0.55101">
        <ele>39</ele>
        <time>2020-09-05T09:19:21Z</time>
      </trkpt>
      <trkpt lat="45.13918" lon="-0.55099">
        <ele>38.9</ele>
        <time>2020-09-05T09:19:22Z</time>
      </trkpt>
      <trkpt lat="45.13918" lon="-0.55097">
        <ele>38.9</ele>
        <time>2020-09-05T09:19:23Z</time>
      </trkpt>
      <trkpt lat="45.13918" lon="-0.55094">
        <ele>38.8</ele>
        <time>2020-09-05T09:19:25Z</time>
      </trkpt>
      <trkpt lat="45.13919" lon="-0.55091">
        <ele>38.5</ele>
        <time>2020-09-05T09:19:26Z</time>
      </trkpt>
      <trkpt lat="45.13919" lon="-0.55089">
        <ele>38.5</ele>
        <time>2020-09-05T09:19:27Z</time>
      </trkpt>
      <trkpt lat="45.1392" lon="-0.55088">
        <ele>38.6</ele>
        <time>2020-09-05T09:19:29Z</time>
      </trkpt>
      <trkpt lat="45.1392" lon="-0.55086">
        <ele>38.6</ele>
        <time>2020-09-05T09:19:30Z</time>
      </trkpt>
      <trkpt lat="45.13922" lon="-0.55083">
        <ele>38.6</ele>
        <time>2020-09-05T09:19:31Z</time>
      </trkpt>
      <trkpt lat="45.13923" lon="-0.55082">
        <ele>38.5</ele>
        <time>2020-09-05T09:19:33Z</time>
      </trkpt>
      <trkpt lat="45.13925" lon="-0.55081">
        <ele>38.5</ele>
        <time>2020-09-05T09:19:34Z</time>
      </trkpt>
      <trkpt lat="45.13926" lon="-0.55081">
        <ele>38.5</ele>
        <time>2020-09-05T09:19:35Z</time>
      </trkpt>
      <trkpt lat="45.13928" lon="-0.5508">
        <ele>38.5</ele>
        <time>2020-09-05T09:19:36Z</time>
      </trkpt>
      <trkpt lat="45.13929" lon="-0.5508">
        <ele>38.5</ele>
        <time>2020-09-05T09:19:37Z</time>
      </trkpt>
      <trkpt lat="45.1393" lon="-0.5508">
        <ele>38.5</ele>
        <time>2020-09-05T09:19:38Z</time>
      </trkpt>
      <trkpt lat="45.13931" lon="-0.5508">
        <ele>38.4</ele>
        <time>2020-09-05T09:19:39Z</time>
      </trkpt>
      <trkpt lat="45.13932" lon="-0.5508">
        <ele>38.4</ele>
        <time>2020-09-05T09:19:40Z</time>
      </trkpt>
      <trkpt lat="45.13933" lon="-0.5508">
        <ele>38.4</ele>
        <time>2020-09-05T09:19:41Z</time>
      </trkpt>
      <trkpt lat="45.13935" lon="-0.5508">
        <ele>38.4</ele>
        <time>2020-09-05T09:19:42Z</time>
      </trkpt>
      <trkpt lat="45.13936" lon="-0.5508">
        <ele>38.4</ele>
        <time>2020-09-05T09:19:43Z</time>
      </trkpt>
      <trkpt lat="45.13937" lon="-0.5508">
        <ele>38.3</ele>
        <time>2020-09-05T09:19:44Z</time>
      </trkpt>
      <trkpt lat="45.13938" lon="-0.5508">
        <ele>38.3</ele>
        <time>2020-09-05T09:19:46Z</time>
      </trkpt>
      <trkpt lat="45.1394" lon="-0.5508">
        <ele>38.3</ele>
        <time>2020-09-05T09:19:47Z</time>
      </trkpt>
      <trkpt lat="45.13941" lon="-0.55081">
        <ele>38.3</ele>
        <time>2020-09-05T09:19:48Z</time>
      </trkpt>
      <trkpt lat="45.13942" lon="-0.55081">
        <ele>38.3</ele>
        <time>2020-09-05T09:19:49Z</time>
      </trkpt>
      <trkpt lat="45.13943" lon="-0.55081">
        <ele>38.3</ele>
        <time>2020-09-05T09:19:50Z</time>
      </trkpt>
      <trkpt lat="45.13945" lon="-0.55081">
        <ele>38.3</ele>
        <time>2020-09-05T09:19:51Z</time>
      </trkpt>
      <trkpt lat="45.13947" lon="-0.55081">
        <ele>38.2</ele>
        <time>2020-09-05T09:19:52Z</time>
      </trkpt>
      <trkpt lat="45.13948" lon="-0.55082">
        <ele>38.2</ele>
        <time>2020-09-05T09:19:53Z</time>
      </trkpt>
      <trkpt lat="45.13949" lon="-0.55082">
        <ele>38.2</ele>
        <time>2020-09-05T09:19:54Z</time>
      </trkpt>
      <trkpt lat="45.1395" lon="-0.55083">
        <ele>38.2</ele>
        <time>2020-09-05T09:19:55Z</time>
      </trkpt>
      <trkpt lat="45.13952" lon="-0.55083">
        <ele>38.2</ele>
        <time>2020-09-05T09:19:56Z</time>
      </trkpt>
      <trkpt lat="45.13953" lon="-0.55084">
        <ele>38.2</ele>
        <time>2020-09-05T09:19:57Z</time>
      </trkpt>
      <trkpt lat="45.13954" lon="-0.55085">
        <ele>38.2</ele>
        <time>2020-09-05T09:19:59Z</time>
      </trkpt>
      <trkpt lat="45.13955" lon="-0.55086">
        <ele>38.2</ele>
        <time>2020-09-05T09:20:01Z</time>
      </trkpt>
      <trkpt lat="45.13956" lon="-0.55087">
        <ele>38.2</ele>
        <time>2020-09-05T09:20:02Z</time>
      </trkpt>
      <trkpt lat="45.13957" lon="-0.55088">
        <ele>38.2</ele>
        <time>2020-09-05T09:20:03Z</time>
      </trkpt>
      <trkpt lat="45.13959" lon="-0.5509">
        <ele>38.2</ele>
        <time>2020-09-05T09:20:05Z</time>
      </trkpt>
      <trkpt lat="45.13962" lon="-0.55091">
        <ele>38.2</ele>
        <time>2020-09-05T09:20:06Z</time>
      </trkpt>
      <trkpt lat="45.13963" lon="-0.55092">
        <ele>38.2</ele>
        <time>2020-09-05T09:20:07Z</time>
      </trkpt>
      <trkpt lat="45.13964" lon="-0.55093">
        <ele>38.2</ele>
        <time>2020-09-05T09:20:09Z</time>
      </trkpt>
      <trkpt lat="45.13965" lon="-0.55095">
        <ele>38.2</ele>
        <time>2020-09-05T09:20:10Z</time>
      </trkpt>
      <trkpt lat="45.13967" lon="-0.55096">
        <ele>38.2</ele>
        <time>2020-09-05T09:20:12Z</time>
      </trkpt>
      <trkpt lat="45.13968" lon="-0.55098">
        <ele>38.2</ele>
        <time>2020-09-05T09:20:13Z</time>
      </trkpt>
      <trkpt lat="45.13969" lon="-0.55099">
        <ele>38.2</ele>
        <time>2020-09-05T09:20:15Z</time>
      </trkpt>
      <trkpt lat="45.1397" lon="-0.55101">
        <ele>38.1</ele>
        <time>2020-09-05T09:20:16Z</time>
      </trkpt>
      <trkpt lat="45.13972" lon="-0.55103">
        <ele>38.1</ele>
        <time>2020-09-05T09:20:17Z</time>
      </trkpt>
      <trkpt lat="45.13972" lon="-0.55103">
        <ele>38.1</ele>
        <time>2020-09-05T09:20:18Z</time>
      </trkpt>
      <trkpt lat="45.13973" lon="-0.55104">
        <ele>38.1</ele>
        <time>2020-09-05T09:20:19Z</time>
      </trkpt>
      <trkpt lat="45.13974" lon="-0.55106">
        <ele>38</ele>
        <time>2020-09-05T09:20:20Z</time>
      </trkpt>
      <trkpt lat="45.13975" lon="-0.55108">
        <ele>38</ele>
        <time>2020-09-05T09:20:21Z</time>
      </trkpt>
      <trkpt lat="45.13975" lon="-0.55109">
        <ele>38</ele>
        <time>2020-09-05T09:20:22Z</time>
      </trkpt>
      <trkpt lat="45.13976" lon="-0.5511">
        <ele>38</ele>
        <time>2020-09-05T09:20:23Z</time>
      </trkpt>
      <trkpt lat="45.13977" lon="-0.55111">
        <ele>38</ele>
        <time>2020-09-05T09:20:24Z</time>
      </trkpt>
      <trkpt lat="45.13978" lon="-0.55112">
        <ele>37.9</ele>
        <time>2020-09-05T09:20:25Z</time>
      </trkpt>
      <trkpt lat="45.13979" lon="-0.55114">
        <ele>37.9</ele>
        <time>2020-09-05T09:20:26Z</time>
      </trkpt>
      <trkpt lat="45.1398" lon="-0.55114">
        <ele>37.9</ele>
        <time>2020-09-05T09:20:28Z</time>
      </trkpt>
      <trkpt lat="45.13981" lon="-0.55115">
        <ele>37.9</ele>
        <time>2020-09-05T09:20:29Z</time>
      </trkpt>
      <trkpt lat="45.13982" lon="-0.55115">
        <ele>37.9</ele>
        <time>2020-09-05T09:20:30Z</time>
      </trkpt>
      <trkpt lat="45.13982" lon="-0.55116">
        <ele>37.9</ele>
        <time>2020-09-05T09:20:31Z</time>
      </trkpt>
      <trkpt lat="45.13984" lon="-0.55118">
        <ele>37.8</ele>
        <time>2020-09-05T09:20:32Z</time>
      </trkpt>
      <trkpt lat="45.13985" lon="-0.55119">
        <ele>37.8</ele>
        <time>2020-09-05T09:20:33Z</time>
      </trkpt>
      <trkpt lat="45.13985" lon="-0.5512">
        <ele>37.8</ele>
        <time>2020-09-05T09:20:34Z</time>
      </trkpt>
      <trkpt lat="45.13986" lon="-0.55121">
        <ele>37.8</ele>
        <time>2020-09-05T09:20:35Z</time>
      </trkpt>
      <trkpt lat="45.13988" lon="-0.55124">
        <ele>37.8</ele>
        <time>2020-09-05T09:20:37Z</time>
      </trkpt>
      <trkpt lat="45.13989" lon="-0.55125">
        <ele>37.8</ele>
        <time>2020-09-05T09:20:38Z</time>
      </trkpt>
      <trkpt lat="45.13989" lon="-0.55126">
        <ele>37.8</ele>
        <time>2020-09-05T09:20:39Z</time>
      </trkpt>
      <trkpt lat="45.1399" lon="-0.55127">
        <ele>37.8</ele>
        <time>2020-09-05T09:20:40Z</time>
      </trkpt>
      <trkpt lat="45.13993" lon="-0.5513">
        <ele>37.7</ele>
        <time>2020-09-05T09:20:42Z</time>
      </trkpt>
      <trkpt lat="45.13994" lon="-0.55132">
        <ele>37.7</ele>
        <time>2020-09-05T09:20:44Z</time>
      </trkpt>
      <trkpt lat="45.13996" lon="-0.55135">
        <ele>37.7</ele>
        <time>2020-09-05T09:20:46Z</time>
      </trkpt>
      <trkpt lat="45.13998" lon="-0.55137">
        <ele>37.7</ele>
        <time>2020-09-05T09:20:48Z</time>
      </trkpt>
      <trkpt lat="45.13998" lon="-0.55138">
        <ele>37.7</ele>
        <time>2020-09-05T09:20:49Z</time>
      </trkpt>
      <trkpt lat="45.14" lon="-0.5514">
        <ele>37.6</ele>
        <time>2020-09-05T09:20:50Z</time>
      </trkpt>
      <trkpt lat="45.14002" lon="-0.55143">
        <ele>37.6</ele>
        <time>2020-09-05T09:20:52Z</time>
      </trkpt>
      <trkpt lat="45.14003" lon="-0.55144">
        <ele>37.6</ele>
        <time>2020-09-05T09:20:53Z</time>
      </trkpt>
      <trkpt lat="45.14004" lon="-0.55146">
        <ele>37.6</ele>
        <time>2020-09-05T09:20:55Z</time>
      </trkpt>
      <trkpt lat="45.14005" lon="-0.55147">
        <ele>37.5</ele>
        <time>2020-09-05T09:20:56Z</time>
      </trkpt>
      <trkpt lat="45.14007" lon="-0.55149">
        <ele>37.5</ele>
        <time>2020-09-05T09:20:57Z</time>
      </trkpt>
      <trkpt lat="45.14008" lon="-0.5515">
        <ele>37.5</ele>
        <time>2020-09-05T09:20:59Z</time>
      </trkpt>
      <trkpt lat="45.14011" lon="-0.55152">
        <ele>37.5</ele>
        <time>2020-09-05T09:21:01Z</time>
      </trkpt>
      <trkpt lat="45.14011" lon="-0.55153">
        <ele>37.5</ele>
        <time>2020-09-05T09:21:02Z</time>
      </trkpt>
      <trkpt lat="45.14013" lon="-0.55155">
        <ele>37.4</ele>
        <time>2020-09-05T09:21:03Z</time>
      </trkpt>
      <trkpt lat="45.14014" lon="-0.55157">
        <ele>37.4</ele>
        <time>2020-09-05T09:21:05Z</time>
      </trkpt>
      <trkpt lat="45.14014" lon="-0.55158">
        <ele>37.4</ele>
        <time>2020-09-05T09:21:06Z</time>
      </trkpt>
      <trkpt lat="45.14016" lon="-0.5516">
        <ele>37.4</ele>
        <time>2020-09-05T09:21:07Z</time>
      </trkpt>
      <trkpt lat="45.14016" lon="-0.55161">
        <ele>37.4</ele>
        <time>2020-09-05T09:21:09Z</time>
      </trkpt>
      <trkpt lat="45.14017" lon="-0.55162">
        <ele>37.4</ele>
        <time>2020-09-05T09:21:10Z</time>
      </trkpt>
      <trkpt lat="45.14019" lon="-0.55164">
        <ele>37.3</ele>
        <time>2020-09-05T09:21:11Z</time>
      </trkpt>
      <trkpt lat="45.1402" lon="-0.55165">
        <ele>37.3</ele>
        <time>2020-09-05T09:21:13Z</time>
      </trkpt>
      <trkpt lat="45.14021" lon="-0.55167">
        <ele>37.3</ele>
        <time>2020-09-05T09:21:14Z</time>
      </trkpt>
      <trkpt lat="45.14022" lon="-0.55168">
        <ele>37.3</ele>
        <time>2020-09-05T09:21:16Z</time>
      </trkpt>
      <trkpt lat="45.14024" lon="-0.55171">
        <ele>37.2</ele>
        <time>2020-09-05T09:21:17Z</time>
      </trkpt>
      <trkpt lat="45.14025" lon="-0.55172">
        <ele>37.2</ele>
        <time>2020-09-05T09:21:18Z</time>
      </trkpt>
      <trkpt lat="45.14027" lon="-0.55174">
        <ele>37.2</ele>
        <time>2020-09-05T09:21:19Z</time>
      </trkpt>
      <trkpt lat="45.14028" lon="-0.55176">
        <ele>37.1</ele>
        <time>2020-09-05T09:21:21Z</time>
      </trkpt>
      <trkpt lat="45.14029" lon="-0.55177">
        <ele>37.1</ele>
        <time>2020-09-05T09:21:22Z</time>
      </trkpt>
      <trkpt lat="45.14029" lon="-0.55178">
        <ele>37.1</ele>
        <time>2020-09-05T09:21:23Z</time>
      </trkpt>
      <trkpt lat="45.1403" lon="-0.55179">
        <ele>37.1</ele>
        <time>2020-09-05T09:21:24Z</time>
      </trkpt>
      <trkpt lat="45.14033" lon="-0.55182">
        <ele>37</ele>
        <time>2020-09-05T09:21:26Z</time>
      </trkpt>
      <trkpt lat="45.14033" lon="-0.55183">
        <ele>37</ele>
        <time>2020-09-05T09:21:27Z</time>
      </trkpt>
      <trkpt lat="45.14034" lon="-0.55183">
        <ele>37</ele>
        <time>2020-09-05T09:21:28Z</time>
      </trkpt>
      <trkpt lat="45.14035" lon="-0.55184">
        <ele>37</ele>
        <time>2020-09-05T09:21:29Z</time>
      </trkpt>
      <trkpt lat="45.14036" lon="-0.55185">
        <ele>36.9</ele>
        <time>2020-09-05T09:21:30Z</time>
      </trkpt>
      <trkpt lat="45.14038" lon="-0.55187">
        <ele>36.9</ele>
        <time>2020-09-05T09:21:31Z</time>
      </trkpt>
      <trkpt lat="45.14038" lon="-0.55187">
        <ele>36.9</ele>
        <time>2020-09-05T09:21:32Z</time>
      </trkpt>
      <trkpt lat="45.14039" lon="-0.55188">
        <ele>36.9</ele>
        <time>2020-09-05T09:21:34Z</time>
      </trkpt>
      <trkpt lat="45.1404" lon="-0.55189">
        <ele>36.9</ele>
        <time>2020-09-05T09:21:35Z</time>
      </trkpt>
      <trkpt lat="45.14042" lon="-0.5519">
        <ele>36.9</ele>
        <time>2020-09-05T09:21:36Z</time>
      </trkpt>
      <trkpt lat="45.14043" lon="-0.55191">
        <ele>36.9</ele>
        <time>2020-09-05T09:21:38Z</time>
      </trkpt>
      <trkpt lat="45.14044" lon="-0.55192">
        <ele>36.9</ele>
        <time>2020-09-05T09:21:39Z</time>
      </trkpt>
      <trkpt lat="45.14045" lon="-0.55192">
        <ele>36.9</ele>
        <time>2020-09-05T09:21:40Z</time>
      </trkpt>
      <trkpt lat="45.14047" lon="-0.55193">
        <ele>36.9</ele>
        <time>2020-09-05T09:21:41Z</time>
      </trkpt>
      <trkpt lat="45.14048" lon="-0.55195">
        <ele>36.8</ele>
        <time>2020-09-05T09:21:42Z</time>
      </trkpt>
      <trkpt lat="45.14049" lon="-0.55195">
        <ele>36.8</ele>
        <time>2020-09-05T09:21:43Z</time>
      </trkpt>
      <trkpt lat="45.14051" lon="-0.55197">
        <ele>36.8</ele>
        <time>2020-09-05T09:21:45Z</time>
      </trkpt>
      <trkpt lat="45.14052" lon="-0.55198">
        <ele>36.8</ele>
        <time>2020-09-05T09:21:46Z</time>
      </trkpt>
      <trkpt lat="45.14054" lon="-0.55199">
        <ele>36.8</ele>
        <time>2020-09-05T09:21:47Z</time>
      </trkpt>
      <trkpt lat="45.14055" lon="-0.55201">
        <ele>36.8</ele>
        <time>2020-09-05T09:21:49Z</time>
      </trkpt>
      <trkpt lat="45.14058" lon="-0.55203">
        <ele>36.8</ele>
        <time>2020-09-05T09:21:51Z</time>
      </trkpt>
      <trkpt lat="45.1406" lon="-0.55205">
        <ele>36.8</ele>
        <time>2020-09-05T09:21:53Z</time>
      </trkpt>
      <trkpt lat="45.14062" lon="-0.55206">
        <ele>36.8</ele>
        <time>2020-09-05T09:21:55Z</time>
      </trkpt>
      <trkpt lat="45.14063" lon="-0.55206">
        <ele>36.8</ele>
        <time>2020-09-05T09:21:56Z</time>
      </trkpt>
      <trkpt lat="45.14065" lon="-0.55207">
        <ele>36.8</ele>
        <time>2020-09-05T09:21:57Z</time>
      </trkpt>
      <trkpt lat="45.14067" lon="-0.55208">
        <ele>36.7</ele>
        <time>2020-09-05T09:21:59Z</time>
      </trkpt>
      <trkpt lat="45.1407" lon="-0.5521">
        <ele>36.7</ele>
        <time>2020-09-05T09:22:01Z</time>
      </trkpt>
      <trkpt lat="45.14071" lon="-0.5521">
        <ele>36.7</ele>
        <time>2020-09-05T09:22:02Z</time>
      </trkpt>
      <trkpt lat="45.14072" lon="-0.55211">
        <ele>36.7</ele>
        <time>2020-09-05T09:22:04Z</time>
      </trkpt>
      <trkpt lat="45.14074" lon="-0.55212">
        <ele>36.7</ele>
        <time>2020-09-05T09:22:05Z</time>
      </trkpt>
      <trkpt lat="45.14076" lon="-0.55214">
        <ele>36.7</ele>
        <time>2020-09-05T09:22:06Z</time>
      </trkpt>
      <trkpt lat="45.14077" lon="-0.55215">
        <ele>36.7</ele>
        <time>2020-09-05T09:22:08Z</time>
      </trkpt>
      <trkpt lat="45.14078" lon="-0.55216">
        <ele>36.7</ele>
        <time>2020-09-05T09:22:09Z</time>
      </trkpt>
      <trkpt lat="45.1408" lon="-0.55217">
        <ele>36.7</ele>
        <time>2020-09-05T09:22:11Z</time>
      </trkpt>
      <trkpt lat="45.14081" lon="-0.55219">
        <ele>36.7</ele>
        <time>2020-09-05T09:22:12Z</time>
      </trkpt>
      <trkpt lat="45.14082" lon="-0.5522">
        <ele>36.7</ele>
        <time>2020-09-05T09:22:13Z</time>
      </trkpt>
      <trkpt lat="45.14084" lon="-0.55223">
        <ele>36.7</ele>
        <time>2020-09-05T09:22:15Z</time>
      </trkpt>
      <trkpt lat="45.14084" lon="-0.55224">
        <ele>36.7</ele>
        <time>2020-09-05T09:22:16Z</time>
      </trkpt>
      <trkpt lat="45.14085" lon="-0.55225">
        <ele>36.7</ele>
        <time>2020-09-05T09:22:17Z</time>
      </trkpt>
      <trkpt lat="45.14085" lon="-0.55226">
        <ele>36.6</ele>
        <time>2020-09-05T09:22:18Z</time>
      </trkpt>
      <trkpt lat="45.14086" lon="-0.55228">
        <ele>36.6</ele>
        <time>2020-09-05T09:22:19Z</time>
      </trkpt>
      <trkpt lat="45.14086" lon="-0.5523">
        <ele>36.6</ele>
        <time>2020-09-05T09:22:20Z</time>
      </trkpt>
      <trkpt lat="45.14087" lon="-0.55232">
        <ele>36.6</ele>
        <time>2020-09-05T09:22:22Z</time>
      </trkpt>
      <trkpt lat="45.14088" lon="-0.55235">
        <ele>36.6</ele>
        <time>2020-09-05T09:22:24Z</time>
      </trkpt>
      <trkpt lat="45.14089" lon="-0.55237">
        <ele>36.6</ele>
        <time>2020-09-05T09:22:26Z</time>
      </trkpt>
      <trkpt lat="45.1409" lon="-0.5524">
        <ele>36.6</ele>
        <time>2020-09-05T09:22:27Z</time>
      </trkpt>
      <trkpt lat="45.1409" lon="-0.55241">
        <ele>36.6</ele>
        <time>2020-09-05T09:22:28Z</time>
      </trkpt>
      <trkpt lat="45.14091" lon="-0.55243">
        <ele>36.6</ele>
        <time>2020-09-05T09:22:29Z</time>
      </trkpt>
      <trkpt lat="45.14092" lon="-0.55247">
        <ele>36.6</ele>
        <time>2020-09-05T09:22:31Z</time>
      </trkpt>
      <trkpt lat="45.14093" lon="-0.5525">
        <ele>36.6</ele>
        <time>2020-09-05T09:22:32Z</time>
      </trkpt>
      <trkpt lat="45.14093" lon="-0.55251">
        <ele>36.6</ele>
        <time>2020-09-05T09:22:33Z</time>
      </trkpt>
      <trkpt lat="45.14094" lon="-0.55252">
        <ele>36.6</ele>
        <time>2020-09-05T09:22:34Z</time>
      </trkpt>
      <trkpt lat="45.14096" lon="-0.55256">
        <ele>36.6</ele>
        <time>2020-09-05T09:22:36Z</time>
      </trkpt>
      <trkpt lat="45.14097" lon="-0.55258">
        <ele>36.6</ele>
        <time>2020-09-05T09:22:37Z</time>
      </trkpt>
      <trkpt lat="45.14097" lon="-0.55259">
        <ele>36.6</ele>
        <time>2020-09-05T09:22:39Z</time>
      </trkpt>
      <trkpt lat="45.14098" lon="-0.55261">
        <ele>36.6</ele>
        <time>2020-09-05T09:22:40Z</time>
      </trkpt>
      <trkpt lat="45.141" lon="-0.55264">
        <ele>36.6</ele>
        <time>2020-09-05T09:22:41Z</time>
      </trkpt>
      <trkpt lat="45.14101" lon="-0.55266">
        <ele>36.6</ele>
        <time>2020-09-05T09:22:43Z</time>
      </trkpt>
      <trkpt lat="45.14102" lon="-0.55267">
        <ele>36.6</ele>
        <time>2020-09-05T09:22:45Z</time>
      </trkpt>
      <trkpt lat="45.14103" lon="-0.55269">
        <ele>36.6</ele>
        <time>2020-09-05T09:22:46Z</time>
      </trkpt>
      <trkpt lat="45.14106" lon="-0.55271">
        <ele>36.6</ele>
        <time>2020-09-05T09:22:48Z</time>
      </trkpt>
      <trkpt lat="45.14107" lon="-0.55272">
        <ele>36.6</ele>
        <time>2020-09-05T09:22:49Z</time>
      </trkpt>
      <trkpt lat="45.14109" lon="-0.55274">
        <ele>36.6</ele>
        <time>2020-09-05T09:22:50Z</time>
      </trkpt>
      <trkpt lat="45.14113" lon="-0.55277">
        <ele>36.6</ele>
        <time>2020-09-05T09:22:52Z</time>
      </trkpt>
      <trkpt lat="45.14114" lon="-0.55278">
        <ele>36.6</ele>
        <time>2020-09-05T09:22:53Z</time>
      </trkpt>
      <trkpt lat="45.14115" lon="-0.55279">
        <ele>36.6</ele>
        <time>2020-09-05T09:22:55Z</time>
      </trkpt>
      <trkpt lat="45.14117" lon="-0.5528">
        <ele>36.6</ele>
        <time>2020-09-05T09:22:56Z</time>
      </trkpt>
      <trkpt lat="45.14118" lon="-0.5528">
        <ele>36.6</ele>
        <time>2020-09-05T09:22:57Z</time>
      </trkpt>
      <trkpt lat="45.1412" lon="-0.55281">
        <ele>36.6</ele>
        <time>2020-09-05T09:22:59Z</time>
      </trkpt>
      <trkpt lat="45.14121" lon="-0.55281">
        <ele>36.6</ele>
        <time>2020-09-05T09:23:00Z</time>
      </trkpt>
      <trkpt lat="45.14123" lon="-0.55282">
        <ele>36.6</ele>
        <time>2020-09-05T09:23:01Z</time>
      </trkpt>
      <trkpt lat="45.14124" lon="-0.55282">
        <ele>36.6</ele>
        <time>2020-09-05T09:23:02Z</time>
      </trkpt>
      <trkpt lat="45.14125" lon="-0.55283">
        <ele>36.6</ele>
        <time>2020-09-05T09:23:03Z</time>
      </trkpt>
      <trkpt lat="45.14128" lon="-0.55284">
        <ele>36.6</ele>
        <time>2020-09-05T09:23:05Z</time>
      </trkpt>
      <trkpt lat="45.14129" lon="-0.55285">
        <ele>36.6</ele>
        <time>2020-09-05T09:23:06Z</time>
      </trkpt>
      <trkpt lat="45.1413" lon="-0.55285">
        <ele>36.6</ele>
        <time>2020-09-05T09:23:07Z</time>
      </trkpt>
      <trkpt lat="45.14131" lon="-0.55286">
        <ele>36.6</ele>
        <time>2020-09-05T09:23:08Z</time>
      </trkpt>
      <trkpt lat="45.14132" lon="-0.55287">
        <ele>36.6</ele>
        <time>2020-09-05T09:23:09Z</time>
      </trkpt>
      <trkpt lat="45.14134" lon="-0.5529">
        <ele>36.6</ele>
        <time>2020-09-05T09:23:10Z</time>
      </trkpt>
      <trkpt lat="45.14134" lon="-0.55291">
        <ele>36.6</ele>
        <time>2020-09-05T09:23:11Z</time>
      </trkpt>
      <trkpt lat="45.14135" lon="-0.55292">
        <ele>36.6</ele>
        <time>2020-09-05T09:23:12Z</time>
      </trkpt>
      <trkpt lat="45.14136" lon="-0.55293">
        <ele>36.6</ele>
        <time>2020-09-05T09:23:13Z</time>
      </trkpt>
      <trkpt lat="45.14137" lon="-0.55294">
        <ele>36.6</ele>
        <time>2020-09-05T09:23:14Z</time>
      </trkpt>
      <trkpt lat="45.14137" lon="-0.55295">
        <ele>36.6</ele>
        <time>2020-09-05T09:23:15Z</time>
      </trkpt>
      <trkpt lat="45.14138" lon="-0.55297">
        <ele>36.5</ele>
        <time>2020-09-05T09:23:17Z</time>
      </trkpt>
      <trkpt lat="45.14139" lon="-0.55299">
        <ele>36.5</ele>
        <time>2020-09-05T09:23:18Z</time>
      </trkpt>
      <trkpt lat="45.1414" lon="-0.553">
        <ele>36.5</ele>
        <time>2020-09-05T09:23:19Z</time>
      </trkpt>
      <trkpt lat="45.14141" lon="-0.55302">
        <ele>36.5</ele>
        <time>2020-09-05T09:23:21Z</time>
      </trkpt>
      <trkpt lat="45.14141" lon="-0.55303">
        <ele>36.5</ele>
        <time>2020-09-05T09:23:22Z</time>
      </trkpt>
      <trkpt lat="45.14142" lon="-0.55305">
        <ele>36.5</ele>
        <time>2020-09-05T09:23:23Z</time>
      </trkpt>
      <trkpt lat="45.14142" lon="-0.55305">
        <ele>36.5</ele>
        <time>2020-09-05T09:23:24Z</time>
      </trkpt>
      <trkpt lat="45.14143" lon="-0.55307">
        <ele>36.5</ele>
        <time>2020-09-05T09:23:25Z</time>
      </trkpt>
      <trkpt lat="45.14143" lon="-0.55308">
        <ele>36.5</ele>
        <time>2020-09-05T09:23:26Z</time>
      </trkpt>
      <trkpt lat="45.14144" lon="-0.55312">
        <ele>36.5</ele>
        <time>2020-09-05T09:23:28Z</time>
      </trkpt>
      <trkpt lat="45.14144" lon="-0.55313">
        <ele>36.5</ele>
        <time>2020-09-05T09:23:29Z</time>
      </trkpt>
      <trkpt lat="45.14144" lon="-0.55314">
        <ele>36.5</ele>
        <time>2020-09-05T09:23:30Z</time>
      </trkpt>
      <trkpt lat="45.14145" lon="-0.55315">
        <ele>36.5</ele>
        <time>2020-09-05T09:23:31Z</time>
      </trkpt>
      <trkpt lat="45.14145" lon="-0.55317">
        <ele>36.5</ele>
        <time>2020-09-05T09:23:32Z</time>
      </trkpt>
      <trkpt lat="45.14146" lon="-0.55319">
        <ele>36.5</ele>
        <time>2020-09-05T09:23:33Z</time>
      </trkpt>
      <trkpt lat="45.14147" lon="-0.5532">
        <ele>36.5</ele>
        <time>2020-09-05T09:23:34Z</time>
      </trkpt>
      <trkpt lat="45.14147" lon="-0.55321">
        <ele>36.5</ele>
        <time>2020-09-05T09:23:35Z</time>
      </trkpt>
      <trkpt lat="45.14148" lon="-0.55323">
        <ele>36.5</ele>
        <time>2020-09-05T09:23:36Z</time>
      </trkpt>
      <trkpt lat="45.14149" lon="-0.55325">
        <ele>36.6</ele>
        <time>2020-09-05T09:23:38Z</time>
      </trkpt>
      <trkpt lat="45.14149" lon="-0.55327">
        <ele>36.6</ele>
        <time>2020-09-05T09:23:39Z</time>
      </trkpt>
      <trkpt lat="45.1415" lon="-0.55331">
        <ele>36.6</ele>
        <time>2020-09-05T09:23:41Z</time>
      </trkpt>
      <trkpt lat="45.1415" lon="-0.55333">
        <ele>36.6</ele>
        <time>2020-09-05T09:23:42Z</time>
      </trkpt>
      <trkpt lat="45.14151" lon="-0.55335">
        <ele>36.7</ele>
        <time>2020-09-05T09:23:43Z</time>
      </trkpt>
      <trkpt lat="45.14152" lon="-0.55338">
        <ele>36.7</ele>
        <time>2020-09-05T09:23:45Z</time>
      </trkpt>
      <trkpt lat="45.14153" lon="-0.55341">
        <ele>36.7</ele>
        <time>2020-09-05T09:23:47Z</time>
      </trkpt>
      <trkpt lat="45.14153" lon="-0.55345">
        <ele>36.8</ele>
        <time>2020-09-05T09:23:48Z</time>
      </trkpt>
      <trkpt lat="45.14155" lon="-0.55348">
        <ele>36.8</ele>
        <time>2020-09-05T09:23:49Z</time>
      </trkpt>
      <trkpt lat="45.14155" lon="-0.5535">
        <ele>36.8</ele>
        <time>2020-09-05T09:23:51Z</time>
      </trkpt>
      <trkpt lat="45.14156" lon="-0.55352">
        <ele>36.8</ele>
        <time>2020-09-05T09:23:52Z</time>
      </trkpt>
      <trkpt lat="45.14156" lon="-0.55354">
        <ele>36.9</ele>
        <time>2020-09-05T09:23:53Z</time>
      </trkpt>
      <trkpt lat="45.14157" lon="-0.55357">
        <ele>36.9</ele>
        <time>2020-09-05T09:23:55Z</time>
      </trkpt>
      <trkpt lat="45.14158" lon="-0.55358">
        <ele>36.9</ele>
        <time>2020-09-05T09:23:56Z</time>
      </trkpt>
      <trkpt lat="45.14158" lon="-0.5536">
        <ele>36.9</ele>
        <time>2020-09-05T09:23:57Z</time>
      </trkpt>
      <trkpt lat="45.14158" lon="-0.55362">
        <ele>36.9</ele>
        <time>2020-09-05T09:23:59Z</time>
      </trkpt>
      <trkpt lat="45.14159" lon="-0.55364">
        <ele>36.9</ele>
        <time>2020-09-05T09:24:00Z</time>
      </trkpt>
      <trkpt lat="45.14159" lon="-0.55366">
        <ele>37</ele>
        <time>2020-09-05T09:24:01Z</time>
      </trkpt>
      <trkpt lat="45.14159" lon="-0.55369">
        <ele>37</ele>
        <time>2020-09-05T09:24:03Z</time>
      </trkpt>
      <trkpt lat="45.1416" lon="-0.55371">
        <ele>37</ele>
        <time>2020-09-05T09:24:04Z</time>
      </trkpt>
      <trkpt lat="45.1416" lon="-0.55373">
        <ele>37</ele>
        <time>2020-09-05T09:24:05Z</time>
      </trkpt>
      <trkpt lat="45.14161" lon="-0.55374">
        <ele>37</ele>
        <time>2020-09-05T09:24:06Z</time>
      </trkpt>
      <trkpt lat="45.14162" lon="-0.55377">
        <ele>37.1</ele>
        <time>2020-09-05T09:24:07Z</time>
      </trkpt>
      <trkpt lat="45.14162" lon="-0.55378">
        <ele>37.1</ele>
        <time>2020-09-05T09:24:08Z</time>
      </trkpt>
      <trkpt lat="45.14162" lon="-0.5538">
        <ele>37.1</ele>
        <time>2020-09-05T09:24:09Z</time>
      </trkpt>
      <trkpt lat="45.14163" lon="-0.55383">
        <ele>37.2</ele>
        <time>2020-09-05T09:24:11Z</time>
      </trkpt>
      <trkpt lat="45.14164" lon="-0.55386">
        <ele>37.2</ele>
        <time>2020-09-05T09:24:12Z</time>
      </trkpt>
      <trkpt lat="45.14164" lon="-0.55387">
        <ele>37.2</ele>
        <time>2020-09-05T09:24:13Z</time>
      </trkpt>
      <trkpt lat="45.14164" lon="-0.55388">
        <ele>37.3</ele>
        <time>2020-09-05T09:24:14Z</time>
      </trkpt>
      <trkpt lat="45.14164" lon="-0.5539">
        <ele>37.3</ele>
        <time>2020-09-05T09:24:16Z</time>
      </trkpt>
      <trkpt lat="45.14165" lon="-0.55392">
        <ele>37.3</ele>
        <time>2020-09-05T09:24:17Z</time>
      </trkpt>
      <trkpt lat="45.14165" lon="-0.55395">
        <ele>37.4</ele>
        <time>2020-09-05T09:24:18Z</time>
      </trkpt>
      <trkpt lat="45.14165" lon="-0.55396">
        <ele>37.4</ele>
        <time>2020-09-05T09:24:19Z</time>
      </trkpt>
      <trkpt lat="45.14165" lon="-0.55397">
        <ele>37.4</ele>
        <time>2020-09-05T09:24:20Z</time>
      </trkpt>
      <trkpt lat="45.14166" lon="-0.55398">
        <ele>37.4</ele>
        <time>2020-09-05T09:24:21Z</time>
      </trkpt>
      <trkpt lat="45.14166" lon="-0.554">
        <ele>37.5</ele>
        <time>2020-09-05T09:24:22Z</time>
      </trkpt>
      <trkpt lat="45.14167" lon="-0.55405">
        <ele>37.6</ele>
        <time>2020-09-05T09:24:24Z</time>
      </trkpt>
      <trkpt lat="45.14167" lon="-0.55406">
        <ele>37.6</ele>
        <time>2020-09-05T09:24:25Z</time>
      </trkpt>
      <trkpt lat="45.14168" lon="-0.55408">
        <ele>37.6</ele>
        <time>2020-09-05T09:24:26Z</time>
      </trkpt>
      <trkpt lat="45.14168" lon="-0.55409">
        <ele>37.6</ele>
        <time>2020-09-05T09:24:27Z</time>
      </trkpt>
      <trkpt lat="45.14169" lon="-0.55412">
        <ele>37.6</ele>
        <time>2020-09-05T09:24:29Z</time>
      </trkpt>
      <trkpt lat="45.1417" lon="-0.55415">
        <ele>37.7</ele>
        <time>2020-09-05T09:24:31Z</time>
      </trkpt>
      <trkpt lat="45.1417" lon="-0.55417">
        <ele>37.7</ele>
        <time>2020-09-05T09:24:32Z</time>
      </trkpt>
      <trkpt lat="45.14171" lon="-0.55421">
        <ele>37.7</ele>
        <time>2020-09-05T09:24:34Z</time>
      </trkpt>
      <trkpt lat="45.14172" lon="-0.55424">
        <ele>37.8</ele>
        <time>2020-09-05T09:24:36Z</time>
      </trkpt>
      <trkpt lat="45.14172" lon="-0.55425">
        <ele>37.8</ele>
        <time>2020-09-05T09:24:37Z</time>
      </trkpt>
      <trkpt lat="45.14173" lon="-0.55428">
        <ele>37.8</ele>
        <time>2020-09-05T09:24:38Z</time>
      </trkpt>
      <trkpt lat="45.14173" lon="-0.5543">
        <ele>37.8</ele>
        <time>2020-09-05T09:24:39Z</time>
      </trkpt>
      <trkpt lat="45.14174" lon="-0.55432">
        <ele>37.8</ele>
        <time>2020-09-05T09:24:40Z</time>
      </trkpt>
      <trkpt lat="45.14174" lon="-0.55434">
        <ele>37.8</ele>
        <time>2020-09-05T09:24:42Z</time>
      </trkpt>
      <trkpt lat="45.14175" lon="-0.55437">
        <ele>37.9</ele>
        <time>2020-09-05T09:24:43Z</time>
      </trkpt>
      <trkpt lat="45.14175" lon="-0.55439">
        <ele>37.9</ele>
        <time>2020-09-05T09:24:45Z</time>
      </trkpt>
      <trkpt lat="45.14175" lon="-0.55443">
        <ele>37.9</ele>
        <time>2020-09-05T09:24:46Z</time>
      </trkpt>
      <trkpt lat="45.14176" lon="-0.55445">
        <ele>37.9</ele>
        <time>2020-09-05T09:24:47Z</time>
      </trkpt>
      <trkpt lat="45.14176" lon="-0.55447">
        <ele>37.9</ele>
        <time>2020-09-05T09:24:48Z</time>
      </trkpt>
      <trkpt lat="45.14177" lon="-0.55449">
        <ele>38</ele>
        <time>2020-09-05T09:24:49Z</time>
      </trkpt>
      <trkpt lat="45.14177" lon="-0.5545">
        <ele>38</ele>
        <time>2020-09-05T09:24:50Z</time>
      </trkpt>
      <trkpt lat="45.14178" lon="-0.55451">
        <ele>38</ele>
        <time>2020-09-05T09:24:51Z</time>
      </trkpt>
      <trkpt lat="45.14178" lon="-0.55453">
        <ele>38</ele>
        <time>2020-09-05T09:24:52Z</time>
      </trkpt>
      <trkpt lat="45.14178" lon="-0.55454">
        <ele>38</ele>
        <time>2020-09-05T09:24:53Z</time>
      </trkpt>
      <trkpt lat="45.14179" lon="-0.55455">
        <ele>38</ele>
        <time>2020-09-05T09:24:55Z</time>
      </trkpt>
      <trkpt lat="45.14179" lon="-0.55456">
        <ele>38</ele>
        <time>2020-09-05T09:24:56Z</time>
      </trkpt>
      <trkpt lat="45.1418" lon="-0.55457">
        <ele>38</ele>
        <time>2020-09-05T09:24:57Z</time>
      </trkpt>
      <trkpt lat="45.14181" lon="-0.55458">
        <ele>38</ele>
        <time>2020-09-05T09:24:58Z</time>
      </trkpt>
      <trkpt lat="45.14181" lon="-0.55459">
        <ele>38</ele>
        <time>2020-09-05T09:24:59Z</time>
      </trkpt>
      <trkpt lat="45.14181" lon="-0.55461">
        <ele>38.6</ele>
        <time>2020-09-05T09:25:00Z</time>
      </trkpt>
      <trkpt lat="45.14182" lon="-0.55462">
        <ele>39.1</ele>
        <time>2020-09-05T09:25:01Z</time>
      </trkpt>
      <trkpt lat="45.14182" lon="-0.55464">
        <ele>39.6</ele>
        <time>2020-09-05T09:25:02Z</time>
      </trkpt>
      <trkpt lat="45.14183" lon="-0.55465">
        <ele>39.9</ele>
        <time>2020-09-05T09:25:03Z</time>
      </trkpt>
      <trkpt lat="45.14183" lon="-0.55466">
        <ele>40.3</ele>
        <time>2020-09-05T09:25:04Z</time>
      </trkpt>
      <trkpt lat="45.14183" lon="-0.55468">
        <ele>40.8</ele>
        <time>2020-09-05T09:25:05Z</time>
      </trkpt>
      <trkpt lat="45.14183" lon="-0.55471">
        <ele>41.7</ele>
        <time>2020-09-05T09:25:06Z</time>
      </trkpt>
      <trkpt lat="45.14184" lon="-0.55473">
        <ele>41.9</ele>
        <time>2020-09-05T09:25:07Z</time>
      </trkpt>
      <trkpt lat="45.14184" lon="-0.55475">
        <ele>42.2</ele>
        <time>2020-09-05T09:25:08Z</time>
      </trkpt>
      <trkpt lat="45.14184" lon="-0.55477">
        <ele>42.6</ele>
        <time>2020-09-05T09:25:10Z</time>
      </trkpt>
      <trkpt lat="45.14184" lon="-0.55481">
        <ele>43</ele>
        <time>2020-09-05T09:25:12Z</time>
      </trkpt>
      <trkpt lat="45.14183" lon="-0.55485">
        <ele>43.3</ele>
        <time>2020-09-05T09:25:14Z</time>
      </trkpt>
      <trkpt lat="45.14183" lon="-0.55487">
        <ele>43.4</ele>
        <time>2020-09-05T09:25:15Z</time>
      </trkpt>
      <trkpt lat="45.14183" lon="-0.5549">
        <ele>43.5</ele>
        <time>2020-09-05T09:25:16Z</time>
      </trkpt>
      <trkpt lat="45.14183" lon="-0.55492">
        <ele>43.5</ele>
        <time>2020-09-05T09:25:18Z</time>
      </trkpt>
      <trkpt lat="45.14183" lon="-0.55494">
        <ele>43.6</ele>
        <time>2020-09-05T09:25:19Z</time>
      </trkpt>
      <trkpt lat="45.14183" lon="-0.55497">
        <ele>43.6</ele>
        <time>2020-09-05T09:25:20Z</time>
      </trkpt>
      <trkpt lat="45.14183" lon="-0.55499">
        <ele>43.7</ele>
        <time>2020-09-05T09:25:22Z</time>
      </trkpt>
      <trkpt lat="45.14184" lon="-0.55502">
        <ele>43.7</ele>
        <time>2020-09-05T09:25:23Z</time>
      </trkpt>
      <trkpt lat="45.14184" lon="-0.55504">
        <ele>43.7</ele>
        <time>2020-09-05T09:25:25Z</time>
      </trkpt>
      <trkpt lat="45.14185" lon="-0.55506">
        <ele>43.7</ele>
        <time>2020-09-05T09:25:26Z</time>
      </trkpt>
      <trkpt lat="45.14185" lon="-0.55509">
        <ele>43.7</ele>
        <time>2020-09-05T09:25:27Z</time>
      </trkpt>
      <trkpt lat="45.14185" lon="-0.55511">
        <ele>43.7</ele>
        <time>2020-09-05T09:25:28Z</time>
      </trkpt>
      <trkpt lat="45.14185" lon="-0.55512">
        <ele>43.7</ele>
        <time>2020-09-05T09:25:29Z</time>
      </trkpt>
      <trkpt lat="45.14185" lon="-0.55514">
        <ele>43.7</ele>
        <time>2020-09-05T09:25:30Z</time>
      </trkpt>
      <trkpt lat="45.14185" lon="-0.55515">
        <ele>43.7</ele>
        <time>2020-09-05T09:25:31Z</time>
      </trkpt>
      <trkpt lat="45.14185" lon="-0.55518">
        <ele>43.7</ele>
        <time>2020-09-05T09:25:32Z</time>
      </trkpt>
      <trkpt lat="45.14186" lon="-0.55521">
        <ele>43.7</ele>
        <time>2020-09-05T09:25:34Z</time>
      </trkpt>
      <trkpt lat="45.14186" lon="-0.55523">
        <ele>43.7</ele>
        <time>2020-09-05T09:25:35Z</time>
      </trkpt>
      <trkpt lat="45.14186" lon="-0.55525">
        <ele>43.7</ele>
        <time>2020-09-05T09:25:36Z</time>
      </trkpt>
      <trkpt lat="45.14186" lon="-0.55527">
        <ele>43.8</ele>
        <time>2020-09-05T09:25:37Z</time>
      </trkpt>
      <trkpt lat="45.14186" lon="-0.5553">
        <ele>43.8</ele>
        <time>2020-09-05T09:25:39Z</time>
      </trkpt>
      <trkpt lat="45.14187" lon="-0.55532">
        <ele>43.8</ele>
        <time>2020-09-05T09:25:40Z</time>
      </trkpt>
      <trkpt lat="45.14187" lon="-0.55533">
        <ele>43.8</ele>
        <time>2020-09-05T09:25:41Z</time>
      </trkpt>
      <trkpt lat="45.14187" lon="-0.55535">
        <ele>43.8</ele>
        <time>2020-09-05T09:25:42Z</time>
      </trkpt>
      <trkpt lat="45.14187" lon="-0.55537">
        <ele>43.9</ele>
        <time>2020-09-05T09:25:43Z</time>
      </trkpt>
      <trkpt lat="45.14187" lon="-0.55538">
        <ele>43.9</ele>
        <time>2020-09-05T09:25:44Z</time>
      </trkpt>
      <trkpt lat="45.14187" lon="-0.55539">
        <ele>43.9</ele>
        <time>2020-09-05T09:25:45Z</time>
      </trkpt>
      <trkpt lat="45.14187" lon="-0.55541">
        <ele>43.9</ele>
        <time>2020-09-05T09:25:46Z</time>
      </trkpt>
      <trkpt lat="45.14187" lon="-0.55543">
        <ele>43.9</ele>
        <time>2020-09-05T09:25:47Z</time>
      </trkpt>
      <trkpt lat="45.14187" lon="-0.55545">
        <ele>44</ele>
        <time>2020-09-05T09:25:48Z</time>
      </trkpt>
      <trkpt lat="45.14186" lon="-0.55547">
        <ele>43.9</ele>
        <time>2020-09-05T09:25:49Z</time>
      </trkpt>
      <trkpt lat="45.14187" lon="-0.55548">
        <ele>43.9</ele>
        <time>2020-09-05T09:25:50Z</time>
      </trkpt>
      <trkpt lat="45.14187" lon="-0.55549">
        <ele>43.9</ele>
        <time>2020-09-05T09:25:51Z</time>
      </trkpt>
      <trkpt lat="45.14187" lon="-0.55551">
        <ele>43.8</ele>
        <time>2020-09-05T09:25:53Z</time>
      </trkpt>
      <trkpt lat="45.14187" lon="-0.55553">
        <ele>43.8</ele>
        <time>2020-09-05T09:25:54Z</time>
      </trkpt>
      <trkpt lat="45.14188" lon="-0.55554">
        <ele>43.7</ele>
        <time>2020-09-05T09:25:56Z</time>
      </trkpt>
      <trkpt lat="45.14188" lon="-0.55554">
        <ele>43.7</ele>
        <time>2020-09-05T09:25:57Z</time>
      </trkpt>
      <trkpt lat="45.14187" lon="-0.55554">
        <ele>43.6</ele>
        <time>2020-09-05T09:25:58Z</time>
      </trkpt>
      <trkpt lat="45.14187" lon="-0.55554">
        <ele>43.6</ele>
        <time>2020-09-05T09:25:59Z</time>
      </trkpt>
      <trkpt lat="45.14187" lon="-0.55555">
        <ele>43.6</ele>
        <time>2020-09-05T09:26:01Z</time>
      </trkpt>
      <trkpt lat="45.14188" lon="-0.55555">
        <ele>43.6</ele>
        <time>2020-09-05T09:26:02Z</time>
      </trkpt>
      <trkpt lat="45.14188" lon="-0.55555">
        <ele>43.5</ele>
        <time>2020-09-05T09:26:03Z</time>
      </trkpt>
      <trkpt lat="45.14188" lon="-0.55557">
        <ele>43.3</ele>
        <time>2020-09-05T09:26:04Z</time>
      </trkpt>
      <trkpt lat="45.14188" lon="-0.55559">
        <ele>42.9</ele>
        <time>2020-09-05T09:26:06Z</time>
      </trkpt>
      <trkpt lat="45.14188" lon="-0.55562">
        <ele>42.6</ele>
        <time>2020-09-05T09:26:07Z</time>
      </trkpt>
      <trkpt lat="45.14188" lon="-0.55564">
        <ele>42.1</ele>
        <time>2020-09-05T09:26:08Z</time>
      </trkpt>
      <trkpt lat="45.14188" lon="-0.55566">
        <ele>41.6</ele>
        <time>2020-09-05T09:26:10Z</time>
      </trkpt>
      <trkpt lat="45.14187" lon="-0.55568">
        <ele>41</ele>
        <time>2020-09-05T09:26:11Z</time>
      </trkpt>
      <trkpt lat="45.14186" lon="-0.55573">
        <ele>39</ele>
        <time>2020-09-05T09:26:13Z</time>
      </trkpt>
      <trkpt lat="45.14185" lon="-0.55575">
        <ele>38.7</ele>
        <time>2020-09-05T09:26:14Z</time>
      </trkpt>
      <trkpt lat="45.14184" lon="-0.55576">
        <ele>38.8</ele>
        <time>2020-09-05T09:26:16Z</time>
      </trkpt>
      <trkpt lat="45.14183" lon="-0.55577">
        <ele>38.9</ele>
        <time>2020-09-05T09:26:17Z</time>
      </trkpt>
      <trkpt lat="45.14181" lon="-0.55581">
        <ele>39.2</ele>
        <time>2020-09-05T09:26:18Z</time>
      </trkpt>
      <trkpt lat="45.1418" lon="-0.55582">
        <ele>39.3</ele>
        <time>2020-09-05T09:26:19Z</time>
      </trkpt>
      <trkpt lat="45.1418" lon="-0.55584">
        <ele>39.4</ele>
        <time>2020-09-05T09:26:20Z</time>
      </trkpt>
      <trkpt lat="45.14179" lon="-0.55585">
        <ele>39.5</ele>
        <time>2020-09-05T09:26:21Z</time>
      </trkpt>
      <trkpt lat="45.14178" lon="-0.55587">
        <ele>39.6</ele>
        <time>2020-09-05T09:26:23Z</time>
      </trkpt>
      <trkpt lat="45.14177" lon="-0.55589">
        <ele>39.6</ele>
        <time>2020-09-05T09:26:24Z</time>
      </trkpt>
      <trkpt lat="45.14176" lon="-0.55591">
        <ele>39.7</ele>
        <time>2020-09-05T09:26:25Z</time>
      </trkpt>
      <trkpt lat="45.14175" lon="-0.55592">
        <ele>39.7</ele>
        <time>2020-09-05T09:26:26Z</time>
      </trkpt>
      <trkpt lat="45.14174" lon="-0.55594">
        <ele>39.7</ele>
        <time>2020-09-05T09:26:27Z</time>
      </trkpt>
      <trkpt lat="45.14173" lon="-0.55596">
        <ele>39.8</ele>
        <time>2020-09-05T09:26:28Z</time>
      </trkpt>
      <trkpt lat="45.14173" lon="-0.55597">
        <ele>39.8</ele>
        <time>2020-09-05T09:26:29Z</time>
      </trkpt>
      <trkpt lat="45.14172" lon="-0.55598">
        <ele>39.8</ele>
        <time>2020-09-05T09:26:30Z</time>
      </trkpt>
      <trkpt lat="45.14171" lon="-0.55601">
        <ele>39.8</ele>
        <time>2020-09-05T09:26:31Z</time>
      </trkpt>
      <trkpt lat="45.14171" lon="-0.55602">
        <ele>39.8</ele>
        <time>2020-09-05T09:26:32Z</time>
      </trkpt>
      <trkpt lat="45.1417" lon="-0.55603">
        <ele>39.8</ele>
        <time>2020-09-05T09:26:33Z</time>
      </trkpt>
      <trkpt lat="45.1417" lon="-0.55606">
        <ele>39.8</ele>
        <time>2020-09-05T09:26:35Z</time>
      </trkpt>
      <trkpt lat="45.1417" lon="-0.55609">
        <ele>39.8</ele>
        <time>2020-09-05T09:26:37Z</time>
      </trkpt>
      <trkpt lat="45.1417" lon="-0.55611">
        <ele>39.7</ele>
        <time>2020-09-05T09:26:39Z</time>
      </trkpt>
      <trkpt lat="45.14171" lon="-0.55611">
        <ele>39.7</ele>
        <time>2020-09-05T09:26:40Z</time>
      </trkpt>
      <trkpt lat="45.14171" lon="-0.55612">
        <ele>39.7</ele>
        <time>2020-09-05T09:26:41Z</time>
      </trkpt>
      <trkpt lat="45.14171" lon="-0.55614">
        <ele>39.7</ele>
        <time>2020-09-05T09:26:42Z</time>
      </trkpt>
      <trkpt lat="45.14171" lon="-0.55615">
        <ele>39.7</ele>
        <time>2020-09-05T09:26:43Z</time>
      </trkpt>
      <trkpt lat="45.14172" lon="-0.55617">
        <ele>39.7</ele>
        <time>2020-09-05T09:26:44Z</time>
      </trkpt>
      <trkpt lat="45.14172" lon="-0.55618">
        <ele>39.7</ele>
        <time>2020-09-05T09:26:45Z</time>
      </trkpt>
      <trkpt lat="45.14172" lon="-0.5562">
        <ele>39.7</ele>
        <time>2020-09-05T09:26:46Z</time>
      </trkpt>
      <trkpt lat="45.14173" lon="-0.55621">
        <ele>39.7</ele>
        <time>2020-09-05T09:26:47Z</time>
      </trkpt>
      <trkpt lat="45.14174" lon="-0.55624">
        <ele>39.6</ele>
        <time>2020-09-05T09:26:49Z</time>
      </trkpt>
      <trkpt lat="45.14174" lon="-0.55626">
        <ele>39.6</ele>
        <time>2020-09-05T09:26:50Z</time>
      </trkpt>
      <trkpt lat="45.14175" lon="-0.55628">
        <ele>39.5</ele>
        <time>2020-09-05T09:26:51Z</time>
      </trkpt>
      <trkpt lat="45.14176" lon="-0.55631">
        <ele>39.4</ele>
        <time>2020-09-05T09:26:53Z</time>
      </trkpt>
      <trkpt lat="45.14177" lon="-0.55633">
        <ele>39.4</ele>
        <time>2020-09-05T09:26:54Z</time>
      </trkpt>
      <trkpt lat="45.14177" lon="-0.55634">
        <ele>39.4</ele>
        <time>2020-09-05T09:26:55Z</time>
      </trkpt>
      <trkpt lat="45.14178" lon="-0.55638">
        <ele>39.4</ele>
        <time>2020-09-05T09:26:57Z</time>
      </trkpt>
      <trkpt lat="45.14179" lon="-0.55639">
        <ele>39.4</ele>
        <time>2020-09-05T09:26:58Z</time>
      </trkpt>
      <trkpt lat="45.1418" lon="-0.55641">
        <ele>39.3</ele>
        <time>2020-09-05T09:26:59Z</time>
      </trkpt>
      <trkpt lat="45.14181" lon="-0.55644">
        <ele>39.3</ele>
        <time>2020-09-05T09:27:01Z</time>
      </trkpt>
      <trkpt lat="45.14182" lon="-0.55645">
        <ele>39.2</ele>
        <time>2020-09-05T09:27:02Z</time>
      </trkpt>
      <trkpt lat="45.14183" lon="-0.55647">
        <ele>39.2</ele>
        <time>2020-09-05T09:27:03Z</time>
      </trkpt>
      <trkpt lat="45.14184" lon="-0.5565">
        <ele>39.1</ele>
        <time>2020-09-05T09:27:05Z</time>
      </trkpt>
      <trkpt lat="45.14185" lon="-0.55653">
        <ele>39.1</ele>
        <time>2020-09-05T09:27:07Z</time>
      </trkpt>
      <trkpt lat="45.14186" lon="-0.55656">
        <ele>39.1</ele>
        <time>2020-09-05T09:27:08Z</time>
      </trkpt>
      <trkpt lat="45.14187" lon="-0.55658">
        <ele>39</ele>
        <time>2020-09-05T09:27:10Z</time>
      </trkpt>
      <trkpt lat="45.14189" lon="-0.55661">
        <ele>38.9</ele>
        <time>2020-09-05T09:27:11Z</time>
      </trkpt>
      <trkpt lat="45.14189" lon="-0.55663">
        <ele>38.9</ele>
        <time>2020-09-05T09:27:12Z</time>
      </trkpt>
      <trkpt lat="45.1419" lon="-0.55665">
        <ele>38.9</ele>
        <time>2020-09-05T09:27:14Z</time>
      </trkpt>
      <trkpt lat="45.14191" lon="-0.55667">
        <ele>38.9</ele>
        <time>2020-09-05T09:27:15Z</time>
      </trkpt>
      <trkpt lat="45.14191" lon="-0.5567">
        <ele>38.8</ele>
        <time>2020-09-05T09:27:16Z</time>
      </trkpt>
      <trkpt lat="45.14192" lon="-0.55671">
        <ele>38.8</ele>
        <time>2020-09-05T09:27:18Z</time>
      </trkpt>
      <trkpt lat="45.14192" lon="-0.55672">
        <ele>38.8</ele>
        <time>2020-09-05T09:27:19Z</time>
      </trkpt>
      <trkpt lat="45.14194" lon="-0.55676">
        <ele>38.7</ele>
        <time>2020-09-05T09:27:21Z</time>
      </trkpt>
      <trkpt lat="45.14194" lon="-0.55677">
        <ele>38.7</ele>
        <time>2020-09-05T09:27:22Z</time>
      </trkpt>
      <trkpt lat="45.14195" lon="-0.55681">
        <ele>38.6</ele>
        <time>2020-09-05T09:27:23Z</time>
      </trkpt>
      <trkpt lat="45.14195" lon="-0.55683">
        <ele>38.5</ele>
        <time>2020-09-05T09:27:25Z</time>
      </trkpt>
      <trkpt lat="45.14196" lon="-0.55685">
        <ele>38.5</ele>
        <time>2020-09-05T09:27:26Z</time>
      </trkpt>
      <trkpt lat="45.14196" lon="-0.55686">
        <ele>38.5</ele>
        <time>2020-09-05T09:27:27Z</time>
      </trkpt>
      <trkpt lat="45.14197" lon="-0.55689">
        <ele>38.4</ele>
        <time>2020-09-05T09:27:29Z</time>
      </trkpt>
      <trkpt lat="45.14197" lon="-0.55691">
        <ele>38.4</ele>
        <time>2020-09-05T09:27:30Z</time>
      </trkpt>
      <trkpt lat="45.14198" lon="-0.55693">
        <ele>38.3</ele>
        <time>2020-09-05T09:27:31Z</time>
      </trkpt>
      <trkpt lat="45.14199" lon="-0.55695">
        <ele>38.3</ele>
        <time>2020-09-05T09:27:33Z</time>
      </trkpt>
      <trkpt lat="45.14199" lon="-0.55697">
        <ele>38.3</ele>
        <time>2020-09-05T09:27:34Z</time>
      </trkpt>
      <trkpt lat="45.142" lon="-0.557">
        <ele>38.3</ele>
        <time>2020-09-05T09:27:35Z</time>
      </trkpt>
      <trkpt lat="45.14201" lon="-0.55702">
        <ele>38.2</ele>
        <time>2020-09-05T09:27:37Z</time>
      </trkpt>
      <trkpt lat="45.14201" lon="-0.55704">
        <ele>38.2</ele>
        <time>2020-09-05T09:27:38Z</time>
      </trkpt>
      <trkpt lat="45.14202" lon="-0.55707">
        <ele>38.1</ele>
        <time>2020-09-05T09:27:39Z</time>
      </trkpt>
      <trkpt lat="45.14202" lon="-0.55708">
        <ele>38.1</ele>
        <time>2020-09-05T09:27:40Z</time>
      </trkpt>
      <trkpt lat="45.14203" lon="-0.55711">
        <ele>38</ele>
        <time>2020-09-05T09:27:41Z</time>
      </trkpt>
      <trkpt lat="45.14204" lon="-0.55712">
        <ele>38</ele>
        <time>2020-09-05T09:27:42Z</time>
      </trkpt>
      <trkpt lat="45.14204" lon="-0.55713">
        <ele>37.9</ele>
        <time>2020-09-05T09:27:43Z</time>
      </trkpt>
      <trkpt lat="45.14205" lon="-0.55715">
        <ele>37.9</ele>
        <time>2020-09-05T09:27:44Z</time>
      </trkpt>
      <trkpt lat="45.14205" lon="-0.55716">
        <ele>37.9</ele>
        <time>2020-09-05T09:27:45Z</time>
      </trkpt>
      <trkpt lat="45.14206" lon="-0.55717">
        <ele>37.9</ele>
        <time>2020-09-05T09:27:46Z</time>
      </trkpt>
      <trkpt lat="45.14206" lon="-0.55719">
        <ele>37.8</ele>
        <time>2020-09-05T09:27:48Z</time>
      </trkpt>
      <trkpt lat="45.14207" lon="-0.5572">
        <ele>37.8</ele>
        <time>2020-09-05T09:27:49Z</time>
      </trkpt>
      <trkpt lat="45.14207" lon="-0.55722">
        <ele>37.8</ele>
        <time>2020-09-05T09:27:50Z</time>
      </trkpt>
      <trkpt lat="45.14208" lon="-0.55723">
        <ele>37.8</ele>
        <time>2020-09-05T09:27:51Z</time>
      </trkpt>
      <trkpt lat="45.14208" lon="-0.55725">
        <ele>37.8</ele>
        <time>2020-09-05T09:27:53Z</time>
      </trkpt>
      <trkpt lat="45.14209" lon="-0.55729">
        <ele>37.7</ele>
        <time>2020-09-05T09:27:55Z</time>
      </trkpt>
      <trkpt lat="45.1421" lon="-0.55731">
        <ele>37.7</ele>
        <time>2020-09-05T09:27:56Z</time>
      </trkpt>
      <trkpt lat="45.14211" lon="-0.55732">
        <ele>37.7</ele>
        <time>2020-09-05T09:27:57Z</time>
      </trkpt>
      <trkpt lat="45.14211" lon="-0.55733">
        <ele>37.7</ele>
        <time>2020-09-05T09:27:58Z</time>
      </trkpt>
      <trkpt lat="45.14211" lon="-0.55735">
        <ele>37.6</ele>
        <time>2020-09-05T09:27:59Z</time>
      </trkpt>
      <trkpt lat="45.14212" lon="-0.55737">
        <ele>37.6</ele>
        <time>2020-09-05T09:28:00Z</time>
      </trkpt>
      <trkpt lat="45.14212" lon="-0.55739">
        <ele>37.5</ele>
        <time>2020-09-05T09:28:01Z</time>
      </trkpt>
      <trkpt lat="45.14213" lon="-0.55741">
        <ele>37.6</ele>
        <time>2020-09-05T09:28:03Z</time>
      </trkpt>
      <trkpt lat="45.14213" lon="-0.55743">
        <ele>37.6</ele>
        <time>2020-09-05T09:28:04Z</time>
      </trkpt>
      <trkpt lat="45.14213" lon="-0.55745">
        <ele>37.5</ele>
        <time>2020-09-05T09:28:05Z</time>
      </trkpt>
      <trkpt lat="45.14214" lon="-0.55748">
        <ele>37.5</ele>
        <time>2020-09-05T09:28:06Z</time>
      </trkpt>
      <trkpt lat="45.14214" lon="-0.5575">
        <ele>37.5</ele>
        <time>2020-09-05T09:28:07Z</time>
      </trkpt>
      <trkpt lat="45.14215" lon="-0.55753">
        <ele>37.4</ele>
        <time>2020-09-05T09:28:09Z</time>
      </trkpt>
      <trkpt lat="45.14215" lon="-0.55755">
        <ele>37.4</ele>
        <time>2020-09-05T09:28:10Z</time>
      </trkpt>
      <trkpt lat="45.14215" lon="-0.55757">
        <ele>37.3</ele>
        <time>2020-09-05T09:28:11Z</time>
      </trkpt>
      <trkpt lat="45.14216" lon="-0.55759">
        <ele>37.4</ele>
        <time>2020-09-05T09:28:13Z</time>
      </trkpt>
      <trkpt lat="45.14216" lon="-0.55761">
        <ele>37.3</ele>
        <time>2020-09-05T09:28:14Z</time>
      </trkpt>
      <trkpt lat="45.14216" lon="-0.55763">
        <ele>37.3</ele>
        <time>2020-09-05T09:28:15Z</time>
      </trkpt>
      <trkpt lat="45.14216" lon="-0.55765">
        <ele>37.3</ele>
        <time>2020-09-05T09:28:16Z</time>
      </trkpt>
      <trkpt lat="45.14217" lon="-0.55766">
        <ele>37.3</ele>
        <time>2020-09-05T09:28:17Z</time>
      </trkpt>
      <trkpt lat="45.14217" lon="-0.55768">
        <ele>37.3</ele>
        <time>2020-09-05T09:28:18Z</time>
      </trkpt>
      <trkpt lat="45.14217" lon="-0.55771">
        <ele>37.2</ele>
        <time>2020-09-05T09:28:20Z</time>
      </trkpt>
      <trkpt lat="45.14218" lon="-0.55772">
        <ele>37.2</ele>
        <time>2020-09-05T09:28:21Z</time>
      </trkpt>
      <trkpt lat="45.14218" lon="-0.55775">
        <ele>37.1</ele>
        <time>2020-09-05T09:28:22Z</time>
      </trkpt>
      <trkpt lat="45.14218" lon="-0.55777">
        <ele>37.1</ele>
        <time>2020-09-05T09:28:23Z</time>
      </trkpt>
      <trkpt lat="45.14219" lon="-0.55778">
        <ele>37.1</ele>
        <time>2020-09-05T09:28:24Z</time>
      </trkpt>
      <trkpt lat="45.14219" lon="-0.55782">
        <ele>37.1</ele>
        <time>2020-09-05T09:28:26Z</time>
      </trkpt>
      <trkpt lat="45.14219" lon="-0.55783">
        <ele>37.1</ele>
        <time>2020-09-05T09:28:27Z</time>
      </trkpt>
      <trkpt lat="45.1422" lon="-0.55786">
        <ele>37</ele>
        <time>2020-09-05T09:28:28Z</time>
      </trkpt>
      <trkpt lat="45.1422" lon="-0.55788">
        <ele>37</ele>
        <time>2020-09-05T09:28:29Z</time>
      </trkpt>
      <trkpt lat="45.1422" lon="-0.55789">
        <ele>37</ele>
        <time>2020-09-05T09:28:30Z</time>
      </trkpt>
      <trkpt lat="45.1422" lon="-0.55791">
        <ele>37</ele>
        <time>2020-09-05T09:28:31Z</time>
      </trkpt>
      <trkpt lat="45.1422" lon="-0.55792">
        <ele>37</ele>
        <time>2020-09-05T09:28:32Z</time>
      </trkpt>
      <trkpt lat="45.14221" lon="-0.55795">
        <ele>36.9</ele>
        <time>2020-09-05T09:28:34Z</time>
      </trkpt>
      <trkpt lat="45.14221" lon="-0.55798">
        <ele>36.9</ele>
        <time>2020-09-05T09:28:35Z</time>
      </trkpt>
      <trkpt lat="45.14221" lon="-0.55799">
        <ele>36.9</ele>
        <time>2020-09-05T09:28:36Z</time>
      </trkpt>
      <trkpt lat="45.14222" lon="-0.55802">
        <ele>36.9</ele>
        <time>2020-09-05T09:28:37Z</time>
      </trkpt>
      <trkpt lat="45.14222" lon="-0.55804">
        <ele>36.9</ele>
        <time>2020-09-05T09:28:39Z</time>
      </trkpt>
      <trkpt lat="45.14222" lon="-0.55807">
        <ele>36.9</ele>
        <time>2020-09-05T09:28:40Z</time>
      </trkpt>
      <trkpt lat="45.14222" lon="-0.55809">
        <ele>36.8</ele>
        <time>2020-09-05T09:28:41Z</time>
      </trkpt>
      <trkpt lat="45.14222" lon="-0.55813">
        <ele>36.8</ele>
        <time>2020-09-05T09:28:43Z</time>
      </trkpt>
      <trkpt lat="45.14222" lon="-0.55815">
        <ele>36.8</ele>
        <time>2020-09-05T09:28:44Z</time>
      </trkpt>
      <trkpt lat="45.14222" lon="-0.55817">
        <ele>36.7</ele>
        <time>2020-09-05T09:28:46Z</time>
      </trkpt>
      <trkpt lat="45.14222" lon="-0.55819">
        <ele>36.7</ele>
        <time>2020-09-05T09:28:47Z</time>
      </trkpt>
      <trkpt lat="45.14222" lon="-0.55823">
        <ele>36.7</ele>
        <time>2020-09-05T09:28:48Z</time>
      </trkpt>
      <trkpt lat="45.14222" lon="-0.55824">
        <ele>36.6</ele>
        <time>2020-09-05T09:28:49Z</time>
      </trkpt>
      <trkpt lat="45.14222" lon="-0.55828">
        <ele>36.6</ele>
        <time>2020-09-05T09:28:50Z</time>
      </trkpt>
      <trkpt lat="45.14222" lon="-0.5583">
        <ele>36.5</ele>
        <time>2020-09-05T09:28:52Z</time>
      </trkpt>
      <trkpt lat="45.14222" lon="-0.55832">
        <ele>36.5</ele>
        <time>2020-09-05T09:28:54Z</time>
      </trkpt>
      <trkpt lat="45.14222" lon="-0.55834">
        <ele>36.5</ele>
        <time>2020-09-05T09:28:55Z</time>
      </trkpt>
      <trkpt lat="45.14222" lon="-0.55836">
        <ele>36.5</ele>
        <time>2020-09-05T09:28:56Z</time>
      </trkpt>
      <trkpt lat="45.14221" lon="-0.55839">
        <ele>36.4</ele>
        <time>2020-09-05T09:28:59Z</time>
      </trkpt>
      <trkpt lat="45.14221" lon="-0.55842">
        <ele>36.3</ele>
        <time>2020-09-05T09:29:00Z</time>
      </trkpt>
      <trkpt lat="45.14221" lon="-0.55844">
        <ele>36.3</ele>
        <time>2020-09-05T09:29:02Z</time>
      </trkpt>
      <trkpt lat="45.1422" lon="-0.55846">
        <ele>36.3</ele>
        <time>2020-09-05T09:29:04Z</time>
      </trkpt>
      <trkpt lat="45.1422" lon="-0.55848">
        <ele>36.3</ele>
        <time>2020-09-05T09:29:06Z</time>
      </trkpt>
      <trkpt lat="45.1422" lon="-0.55848">
        <ele>36.3</ele>
        <time>2020-09-05T09:29:08Z</time>
      </trkpt>
      <trkpt lat="45.14221" lon="-0.55848">
        <ele>36.3</ele>
        <time>2020-09-05T09:29:09Z</time>
      </trkpt>
      <trkpt lat="45.1422" lon="-0.55848">
        <ele>36.3</ele>
        <time>2020-09-05T09:29:10Z</time>
      </trkpt>
      <trkpt lat="45.1422" lon="-0.5585">
        <ele>36.3</ele>
        <time>2020-09-05T09:29:12Z</time>
      </trkpt>
      <trkpt lat="45.1422" lon="-0.55852">
        <ele>36.2</ele>
        <time>2020-09-05T09:29:13Z</time>
      </trkpt>
      <trkpt lat="45.14219" lon="-0.55855">
        <ele>36.1</ele>
        <time>2020-09-05T09:29:14Z</time>
      </trkpt>
      <trkpt lat="45.14219" lon="-0.55858">
        <ele>36.1</ele>
        <time>2020-09-05T09:29:16Z</time>
      </trkpt>
      <trkpt lat="45.14219" lon="-0.5586">
        <ele>36.1</ele>
        <time>2020-09-05T09:29:17Z</time>
      </trkpt>
      <trkpt lat="45.14218" lon="-0.55863">
        <ele>36</ele>
        <time>2020-09-05T09:29:18Z</time>
      </trkpt>
      <trkpt lat="45.14217" lon="-0.55865">
        <ele>35.9</ele>
        <time>2020-09-05T09:29:19Z</time>
      </trkpt>
      <trkpt lat="45.14217" lon="-0.55866">
        <ele>35.9</ele>
        <time>2020-09-05T09:29:20Z</time>
      </trkpt>
      <trkpt lat="45.14217" lon="-0.55867">
        <ele>35.9</ele>
        <time>2020-09-05T09:29:22Z</time>
      </trkpt>
      <trkpt lat="45.14217" lon="-0.55867">
        <ele>35.9</ele>
        <time>2020-09-05T09:29:23Z</time>
      </trkpt>
      <trkpt lat="45.14216" lon="-0.55869">
        <ele>35.9</ele>
        <time>2020-09-05T09:29:24Z</time>
      </trkpt>
      <trkpt lat="45.14216" lon="-0.55871">
        <ele>35.9</ele>
        <time>2020-09-05T09:29:25Z</time>
      </trkpt>
      <trkpt lat="45.14216" lon="-0.55873">
        <ele>35.8</ele>
        <time>2020-09-05T09:29:26Z</time>
      </trkpt>
      <trkpt lat="45.14216" lon="-0.55874">
        <ele>35.8</ele>
        <time>2020-09-05T09:29:27Z</time>
      </trkpt>
      <trkpt lat="45.14216" lon="-0.55876">
        <ele>35.8</ele>
        <time>2020-09-05T09:29:28Z</time>
      </trkpt>
      <trkpt lat="45.14216" lon="-0.5588">
        <ele>35.7</ele>
        <time>2020-09-05T09:29:30Z</time>
      </trkpt>
      <trkpt lat="45.14216" lon="-0.55881">
        <ele>35.7</ele>
        <time>2020-09-05T09:29:31Z</time>
      </trkpt>
      <trkpt lat="45.14216" lon="-0.55884">
        <ele>35.7</ele>
        <time>2020-09-05T09:29:33Z</time>
      </trkpt>
      <trkpt lat="45.14215" lon="-0.55888">
        <ele>35.6</ele>
        <time>2020-09-05T09:29:35Z</time>
      </trkpt>
      <trkpt lat="45.14215" lon="-0.5589">
        <ele>35.6</ele>
        <time>2020-09-05T09:29:36Z</time>
      </trkpt>
      <trkpt lat="45.14215" lon="-0.55892">
        <ele>35.6</ele>
        <time>2020-09-05T09:29:37Z</time>
      </trkpt>
      <trkpt lat="45.14215" lon="-0.55894">
        <ele>35.5</ele>
        <time>2020-09-05T09:29:39Z</time>
      </trkpt>
      <trkpt lat="45.14214" lon="-0.55897">
        <ele>35.5</ele>
        <time>2020-09-05T09:29:40Z</time>
      </trkpt>
      <trkpt lat="45.14214" lon="-0.55899">
        <ele>35.4</ele>
        <time>2020-09-05T09:29:41Z</time>
      </trkpt>
      <trkpt lat="45.14214" lon="-0.55901">
        <ele>35.4</ele>
        <time>2020-09-05T09:29:42Z</time>
      </trkpt>
      <trkpt lat="45.14214" lon="-0.55903">
        <ele>35.4</ele>
        <time>2020-09-05T09:29:44Z</time>
      </trkpt>
      <trkpt lat="45.14214" lon="-0.55907">
        <ele>35.4</ele>
        <time>2020-09-05T09:29:45Z</time>
      </trkpt>
      <trkpt lat="45.14213" lon="-0.55909">
        <ele>35.4</ele>
        <time>2020-09-05T09:29:47Z</time>
      </trkpt>
      <trkpt lat="45.14213" lon="-0.55911">
        <ele>35.3</ele>
        <time>2020-09-05T09:29:48Z</time>
      </trkpt>
      <trkpt lat="45.14213" lon="-0.55915">
        <ele>35.3</ele>
        <time>2020-09-05T09:29:50Z</time>
      </trkpt>
      <trkpt lat="45.14213" lon="-0.55919">
        <ele>35.2</ele>
        <time>2020-09-05T09:29:51Z</time>
      </trkpt>
      <trkpt lat="45.14213" lon="-0.5592">
        <ele>35.2</ele>
        <time>2020-09-05T09:29:53Z</time>
      </trkpt>
      <trkpt lat="45.14214" lon="-0.55922">
        <ele>35.2</ele>
        <time>2020-09-05T09:29:54Z</time>
      </trkpt>
      <trkpt lat="45.14214" lon="-0.55924">
        <ele>35.2</ele>
        <time>2020-09-05T09:29:56Z</time>
      </trkpt>
      <trkpt lat="45.14214" lon="-0.55925">
        <ele>35.2</ele>
        <time>2020-09-05T09:29:57Z</time>
      </trkpt>
      <trkpt lat="45.14214" lon="-0.55925">
        <ele>35.2</ele>
        <time>2020-09-05T09:29:59Z</time>
      </trkpt>
      <trkpt lat="45.14214" lon="-0.55926">
        <ele>35.2</ele>
        <time>2020-09-05T09:30:01Z</time>
      </trkpt>
      <trkpt lat="45.14214" lon="-0.55927">
        <ele>35.2</ele>
        <time>2020-09-05T09:30:02Z</time>
      </trkpt>
      <trkpt lat="45.14214" lon="-0.55927">
        <ele>35.2</ele>
        <time>2020-09-05T09:30:03Z</time>
      </trkpt>
      <trkpt lat="45.14214" lon="-0.55928">
        <ele>35.2</ele>
        <time>2020-09-05T09:30:04Z</time>
      </trkpt>
      <trkpt lat="45.14214" lon="-0.55929">
        <ele>35.2</ele>
        <time>2020-09-05T09:30:05Z</time>
      </trkpt>
      <trkpt lat="45.14214" lon="-0.5593">
        <ele>35.2</ele>
        <time>2020-09-05T09:30:06Z</time>
      </trkpt>
      <trkpt lat="45.14214" lon="-0.55932">
        <ele>35.2</ele>
        <time>2020-09-05T09:30:07Z</time>
      </trkpt>
      <trkpt lat="45.14214" lon="-0.55935">
        <ele>35.2</ele>
        <time>2020-09-05T09:30:09Z</time>
      </trkpt>
      <trkpt lat="45.14214" lon="-0.55938">
        <ele>35.1</ele>
        <time>2020-09-05T09:30:11Z</time>
      </trkpt>
      <trkpt lat="45.14214" lon="-0.55939">
        <ele>35.1</ele>
        <time>2020-09-05T09:30:12Z</time>
      </trkpt>
      <trkpt lat="45.14214" lon="-0.5594">
        <ele>35.1</ele>
        <time>2020-09-05T09:30:13Z</time>
      </trkpt>
      <trkpt lat="45.14214" lon="-0.55942">
        <ele>35.1</ele>
        <time>2020-09-05T09:30:14Z</time>
      </trkpt>
      <trkpt lat="45.14214" lon="-0.55945">
        <ele>35.1</ele>
        <time>2020-09-05T09:30:15Z</time>
      </trkpt>
      <trkpt lat="45.14214" lon="-0.55946">
        <ele>35.1</ele>
        <time>2020-09-05T09:30:16Z</time>
      </trkpt>
      <trkpt lat="45.14214" lon="-0.55948">
        <ele>35.1</ele>
        <time>2020-09-05T09:30:17Z</time>
      </trkpt>
      <trkpt lat="45.14214" lon="-0.5595">
        <ele>35.1</ele>
        <time>2020-09-05T09:30:18Z</time>
      </trkpt>
      <trkpt lat="45.14214" lon="-0.55951">
        <ele>35.1</ele>
        <time>2020-09-05T09:30:19Z</time>
      </trkpt>
      <trkpt lat="45.14214" lon="-0.55954">
        <ele>35</ele>
        <time>2020-09-05T09:30:20Z</time>
      </trkpt>
      <trkpt lat="45.14215" lon="-0.55956">
        <ele>35</ele>
        <time>2020-09-05T09:30:22Z</time>
      </trkpt>
      <trkpt lat="45.14215" lon="-0.55959">
        <ele>35</ele>
        <time>2020-09-05T09:30:23Z</time>
      </trkpt>
      <trkpt lat="45.14216" lon="-0.55963">
        <ele>35</ele>
        <time>2020-09-05T09:30:25Z</time>
      </trkpt>
      <trkpt lat="45.14216" lon="-0.55964">
        <ele>35</ele>
        <time>2020-09-05T09:30:26Z</time>
      </trkpt>
      <trkpt lat="45.14216" lon="-0.55965">
        <ele>35</ele>
        <time>2020-09-05T09:30:27Z</time>
      </trkpt>
      <trkpt lat="45.14216" lon="-0.55968">
        <ele>35</ele>
        <time>2020-09-05T09:30:29Z</time>
      </trkpt>
      <trkpt lat="45.14217" lon="-0.55971">
        <ele>35</ele>
        <time>2020-09-05T09:30:30Z</time>
      </trkpt>
      <trkpt lat="45.14217" lon="-0.55972">
        <ele>35</ele>
        <time>2020-09-05T09:30:31Z</time>
      </trkpt>
      <trkpt lat="45.14217" lon="-0.55974">
        <ele>35</ele>
        <time>2020-09-05T09:30:32Z</time>
      </trkpt>
      <trkpt lat="45.14217" lon="-0.55975">
        <ele>35</ele>
        <time>2020-09-05T09:30:33Z</time>
      </trkpt>
      <trkpt lat="45.14217" lon="-0.55978">
        <ele>35</ele>
        <time>2020-09-05T09:30:35Z</time>
      </trkpt>
      <trkpt lat="45.14217" lon="-0.55979">
        <ele>34.9</ele>
        <time>2020-09-05T09:30:36Z</time>
      </trkpt>
      <trkpt lat="45.14217" lon="-0.55982">
        <ele>34.9</ele>
        <time>2020-09-05T09:30:38Z</time>
      </trkpt>
      <trkpt lat="45.14217" lon="-0.55984">
        <ele>34.9</ele>
        <time>2020-09-05T09:30:39Z</time>
      </trkpt>
      <trkpt lat="45.14217" lon="-0.55987">
        <ele>34.9</ele>
        <time>2020-09-05T09:30:40Z</time>
      </trkpt>
      <trkpt lat="45.14217" lon="-0.55989">
        <ele>34.9</ele>
        <time>2020-09-05T09:30:41Z</time>
      </trkpt>
      <trkpt lat="45.14217" lon="-0.55991">
        <ele>34.9</ele>
        <time>2020-09-05T09:30:42Z</time>
      </trkpt>
      <trkpt lat="45.14217" lon="-0.55992">
        <ele>34.9</ele>
        <time>2020-09-05T09:30:43Z</time>
      </trkpt>
      <trkpt lat="45.14217" lon="-0.55994">
        <ele>34.9</ele>
        <time>2020-09-05T09:30:44Z</time>
      </trkpt>
      <trkpt lat="45.14217" lon="-0.55996">
        <ele>34.9</ele>
        <time>2020-09-05T09:30:45Z</time>
      </trkpt>
      <trkpt lat="45.14217" lon="-0.55999">
        <ele>34.9</ele>
        <time>2020-09-05T09:30:47Z</time>
      </trkpt>
      <trkpt lat="45.14217" lon="-0.56001">
        <ele>34.9</ele>
        <time>2020-09-05T09:30:48Z</time>
      </trkpt>
      <trkpt lat="45.14218" lon="-0.56004">
        <ele>34.9</ele>
        <time>2020-09-05T09:30:49Z</time>
      </trkpt>
      <trkpt lat="45.14218" lon="-0.56007">
        <ele>34.9</ele>
        <time>2020-09-05T09:30:51Z</time>
      </trkpt>
      <trkpt lat="45.14218" lon="-0.56009">
        <ele>34.9</ele>
        <time>2020-09-05T09:30:52Z</time>
      </trkpt>
      <trkpt lat="45.14218" lon="-0.56011">
        <ele>34.9</ele>
        <time>2020-09-05T09:30:53Z</time>
      </trkpt>
      <trkpt lat="45.14219" lon="-0.56015">
        <ele>34.9</ele>
        <time>2020-09-05T09:30:55Z</time>
      </trkpt>
      <trkpt lat="45.1422" lon="-0.56016">
        <ele>34.9</ele>
        <time>2020-09-05T09:30:56Z</time>
      </trkpt>
      <trkpt lat="45.1422" lon="-0.56018">
        <ele>34.9</ele>
        <time>2020-09-05T09:30:58Z</time>
      </trkpt>
      <trkpt lat="45.14221" lon="-0.56021">
        <ele>34.9</ele>
        <time>2020-09-05T09:30:59Z</time>
      </trkpt>
      <trkpt lat="45.14222" lon="-0.56024">
        <ele>34.9</ele>
        <time>2020-09-05T09:31:00Z</time>
      </trkpt>
      <trkpt lat="45.14222" lon="-0.56025">
        <ele>34.9</ele>
        <time>2020-09-05T09:31:01Z</time>
      </trkpt>
      <trkpt lat="45.14223" lon="-0.56025">
        <ele>34.9</ele>
        <time>2020-09-05T09:31:02Z</time>
      </trkpt>
      <trkpt lat="45.14224" lon="-0.56028">
        <ele>34.9</ele>
        <time>2020-09-05T09:31:03Z</time>
      </trkpt>
      <trkpt lat="45.14224" lon="-0.5603">
        <ele>34.9</ele>
        <time>2020-09-05T09:31:04Z</time>
      </trkpt>
      <trkpt lat="45.14225" lon="-0.56031">
        <ele>34.9</ele>
        <time>2020-09-05T09:31:05Z</time>
      </trkpt>
      <trkpt lat="45.14225" lon="-0.56032">
        <ele>34.9</ele>
        <time>2020-09-05T09:31:06Z</time>
      </trkpt>
      <trkpt lat="45.14226" lon="-0.56034">
        <ele>34.9</ele>
        <time>2020-09-05T09:31:08Z</time>
      </trkpt>
      <trkpt lat="45.14226" lon="-0.56035">
        <ele>34.9</ele>
        <time>2020-09-05T09:31:09Z</time>
      </trkpt>
      <trkpt lat="45.14226" lon="-0.56037">
        <ele>34.9</ele>
        <time>2020-09-05T09:31:10Z</time>
      </trkpt>
      <trkpt lat="45.14227" lon="-0.5604">
        <ele>34.9</ele>
        <time>2020-09-05T09:31:11Z</time>
      </trkpt>
      <trkpt lat="45.14227" lon="-0.56042">
        <ele>34.9</ele>
        <time>2020-09-05T09:31:12Z</time>
      </trkpt>
      <trkpt lat="45.14227" lon="-0.56043">
        <ele>34.9</ele>
        <time>2020-09-05T09:31:13Z</time>
      </trkpt>
      <trkpt lat="45.14227" lon="-0.56045">
        <ele>34.9</ele>
        <time>2020-09-05T09:31:14Z</time>
      </trkpt>
      <trkpt lat="45.14228" lon="-0.56048">
        <ele>34.9</ele>
        <time>2020-09-05T09:31:15Z</time>
      </trkpt>
      <trkpt lat="45.14228" lon="-0.56049">
        <ele>34.9</ele>
        <time>2020-09-05T09:31:16Z</time>
      </trkpt>
      <trkpt lat="45.14228" lon="-0.5605">
        <ele>34.9</ele>
        <time>2020-09-05T09:31:17Z</time>
      </trkpt>
      <trkpt lat="45.14228" lon="-0.56052">
        <ele>34.9</ele>
        <time>2020-09-05T09:31:18Z</time>
      </trkpt>
      <trkpt lat="45.14229" lon="-0.56054">
        <ele>34.9</ele>
        <time>2020-09-05T09:31:19Z</time>
      </trkpt>
      <trkpt lat="45.14229" lon="-0.56057">
        <ele>34.9</ele>
        <time>2020-09-05T09:31:21Z</time>
      </trkpt>
      <trkpt lat="45.14229" lon="-0.56058">
        <ele>34.9</ele>
        <time>2020-09-05T09:31:22Z</time>
      </trkpt>
      <trkpt lat="45.1423" lon="-0.5606">
        <ele>34.9</ele>
        <time>2020-09-05T09:31:23Z</time>
      </trkpt>
      <trkpt lat="45.1423" lon="-0.56064">
        <ele>34.9</ele>
        <time>2020-09-05T09:31:25Z</time>
      </trkpt>
      <trkpt lat="45.14231" lon="-0.56067">
        <ele>34.8</ele>
        <time>2020-09-05T09:31:26Z</time>
      </trkpt>
      <trkpt lat="45.14231" lon="-0.56068">
        <ele>34.8</ele>
        <time>2020-09-05T09:31:27Z</time>
      </trkpt>
      <trkpt lat="45.14231" lon="-0.56069">
        <ele>34.8</ele>
        <time>2020-09-05T09:31:28Z</time>
      </trkpt>
      <trkpt lat="45.14232" lon="-0.56071">
        <ele>34.9</ele>
        <time>2020-09-05T09:31:30Z</time>
      </trkpt>
      <trkpt lat="45.14232" lon="-0.56073">
        <ele>34.9</ele>
        <time>2020-09-05T09:31:31Z</time>
      </trkpt>
      <trkpt lat="45.14232" lon="-0.56074">
        <ele>34.9</ele>
        <time>2020-09-05T09:31:33Z</time>
      </trkpt>
      <trkpt lat="45.14231" lon="-0.56076">
        <ele>34.9</ele>
        <time>2020-09-05T09:31:34Z</time>
      </trkpt>
      <trkpt lat="45.14231" lon="-0.56078">
        <ele>34.9</ele>
        <time>2020-09-05T09:31:36Z</time>
      </trkpt>
      <trkpt lat="45.1423" lon="-0.56079">
        <ele>34.9</ele>
        <time>2020-09-05T09:31:38Z</time>
      </trkpt>
      <trkpt lat="45.14231" lon="-0.56081">
        <ele>34.9</ele>
        <time>2020-09-05T09:31:40Z</time>
      </trkpt>
      <trkpt lat="45.14231" lon="-0.56082">
        <ele>34.9</ele>
        <time>2020-09-05T09:31:41Z</time>
      </trkpt>
      <trkpt lat="45.14231" lon="-0.56083">
        <ele>34.9</ele>
        <time>2020-09-05T09:31:43Z</time>
      </trkpt>
      <trkpt lat="45.14232" lon="-0.56085">
        <ele>34.9</ele>
        <time>2020-09-05T09:31:44Z</time>
      </trkpt>
      <trkpt lat="45.14233" lon="-0.56087">
        <ele>34.9</ele>
        <time>2020-09-05T09:31:46Z</time>
      </trkpt>
      <trkpt lat="45.14233" lon="-0.56089">
        <ele>34.9</ele>
        <time>2020-09-05T09:31:47Z</time>
      </trkpt>
      <trkpt lat="45.14233" lon="-0.56092">
        <ele>34.9</ele>
        <time>2020-09-05T09:31:49Z</time>
      </trkpt>
      <trkpt lat="45.14233" lon="-0.56094">
        <ele>34.9</ele>
        <time>2020-09-05T09:31:50Z</time>
      </trkpt>
      <trkpt lat="45.14233" lon="-0.56096">
        <ele>34.9</ele>
        <time>2020-09-05T09:31:51Z</time>
      </trkpt>
      <trkpt lat="45.14233" lon="-0.56098">
        <ele>34.9</ele>
        <time>2020-09-05T09:31:52Z</time>
      </trkpt>
      <trkpt lat="45.14234" lon="-0.56103">
        <ele>34.8</ele>
        <time>2020-09-05T09:31:54Z</time>
      </trkpt>
      <trkpt lat="45.14235" lon="-0.56105">
        <ele>34.8</ele>
        <time>2020-09-05T09:31:55Z</time>
      </trkpt>
      <trkpt lat="45.14235" lon="-0.56107">
        <ele>34.8</ele>
        <time>2020-09-05T09:31:56Z</time>
      </trkpt>
      <trkpt lat="45.14236" lon="-0.5611">
        <ele>34.8</ele>
        <time>2020-09-05T09:31:57Z</time>
      </trkpt>
      <trkpt lat="45.14237" lon="-0.56111">
        <ele>34.8</ele>
        <time>2020-09-05T09:31:58Z</time>
      </trkpt>
      <trkpt lat="45.1424" lon="-0.56114">
        <ele>34.8</ele>
        <time>2020-09-05T09:32:00Z</time>
      </trkpt>
      <trkpt lat="45.14242" lon="-0.56118">
        <ele>34.8</ele>
        <time>2020-09-05T09:32:01Z</time>
      </trkpt>
      <trkpt lat="45.14243" lon="-0.56123">
        <ele>34.7</ele>
        <time>2020-09-05T09:32:03Z</time>
      </trkpt>
      <trkpt lat="45.14243" lon="-0.56125">
        <ele>34.7</ele>
        <time>2020-09-05T09:32:04Z</time>
      </trkpt>
      <trkpt lat="45.14244" lon="-0.56127">
        <ele>34.7</ele>
        <time>2020-09-05T09:32:06Z</time>
      </trkpt>
      <trkpt lat="45.14244" lon="-0.56129">
        <ele>34.7</ele>
        <time>2020-09-05T09:32:07Z</time>
      </trkpt>
      <trkpt lat="45.14244" lon="-0.56131">
        <ele>34.8</ele>
        <time>2020-09-05T09:32:09Z</time>
      </trkpt>
      <trkpt lat="45.14245" lon="-0.56133">
        <ele>34.8</ele>
        <time>2020-09-05T09:32:10Z</time>
      </trkpt>
      <trkpt lat="45.14245" lon="-0.56134">
        <ele>34.8</ele>
        <time>2020-09-05T09:32:11Z</time>
      </trkpt>
      <trkpt lat="45.14245" lon="-0.56136">
        <ele>34.8</ele>
        <time>2020-09-05T09:32:13Z</time>
      </trkpt>
      <trkpt lat="45.14245" lon="-0.56137">
        <ele>34.8</ele>
        <time>2020-09-05T09:32:15Z</time>
      </trkpt>
      <trkpt lat="45.14245" lon="-0.56136">
        <ele>34.8</ele>
        <time>2020-09-05T09:32:17Z</time>
      </trkpt>
      <trkpt lat="45.14245" lon="-0.56135">
        <ele>34.8</ele>
        <time>2020-09-05T09:32:18Z</time>
      </trkpt>
      <trkpt lat="45.14245" lon="-0.56135">
        <ele>34.8</ele>
        <time>2020-09-05T09:32:19Z</time>
      </trkpt>
      <trkpt lat="45.14245" lon="-0.56134">
        <ele>34.8</ele>
        <time>2020-09-05T09:32:21Z</time>
      </trkpt>
      <trkpt lat="45.14245" lon="-0.56134">
        <ele>34.8</ele>
        <time>2020-09-05T09:32:22Z</time>
      </trkpt>
      <trkpt lat="45.14245" lon="-0.56133">
        <ele>34.8</ele>
        <time>2020-09-05T09:32:24Z</time>
      </trkpt>
      <trkpt lat="45.14245" lon="-0.56133">
        <ele>34.8</ele>
        <time>2020-09-05T09:32:25Z</time>
      </trkpt>
      <trkpt lat="45.14245" lon="-0.56133">
        <ele>34.8</ele>
        <time>2020-09-05T09:32:27Z</time>
      </trkpt>
      <trkpt lat="45.14243" lon="-0.5613">
        <ele>34.8</ele>
        <time>2020-09-05T09:32:28Z</time>
      </trkpt>
      <trkpt lat="45.14242" lon="-0.56129">
        <ele>34.8</ele>
        <time>2020-09-05T09:32:29Z</time>
      </trkpt>
      <trkpt lat="45.1424" lon="-0.56129">
        <ele>34.8</ele>
        <time>2020-09-05T09:32:31Z</time>
      </trkpt>
      <trkpt lat="45.14239" lon="-0.56129">
        <ele>34.8</ele>
        <time>2020-09-05T09:32:32Z</time>
      </trkpt>
      <trkpt lat="45.14237" lon="-0.56129">
        <ele>34.9</ele>
        <time>2020-09-05T09:32:33Z</time>
      </trkpt>
      <trkpt lat="45.14236" lon="-0.56129">
        <ele>34.8</ele>
        <time>2020-09-05T09:32:34Z</time>
      </trkpt>
      <trkpt lat="45.14235" lon="-0.56129">
        <ele>34.8</ele>
        <time>2020-09-05T09:32:35Z</time>
      </trkpt>
      <trkpt lat="45.14232" lon="-0.56129">
        <ele>34.9</ele>
        <time>2020-09-05T09:32:37Z</time>
      </trkpt>
      <trkpt lat="45.14229" lon="-0.56129">
        <ele>34.9</ele>
        <time>2020-09-05T09:32:38Z</time>
      </trkpt>
      <trkpt lat="45.14228" lon="-0.5613">
        <ele>34.9</ele>
        <time>2020-09-05T09:32:40Z</time>
      </trkpt>
      <trkpt lat="45.14225" lon="-0.5613">
        <ele>35</ele>
        <time>2020-09-05T09:32:41Z</time>
      </trkpt>
      <trkpt lat="45.14224" lon="-0.5613">
        <ele>35</ele>
        <time>2020-09-05T09:32:43Z</time>
      </trkpt>
      <trkpt lat="45.14223" lon="-0.5613">
        <ele>35</ele>
        <time>2020-09-05T09:32:44Z</time>
      </trkpt>
      <trkpt lat="45.14222" lon="-0.5613">
        <ele>35</ele>
        <time>2020-09-05T09:32:46Z</time>
      </trkpt>
      <trkpt lat="45.14221" lon="-0.56131">
        <ele>35.1</ele>
        <time>2020-09-05T09:32:47Z</time>
      </trkpt>
      <trkpt lat="45.14219" lon="-0.56131">
        <ele>35.1</ele>
        <time>2020-09-05T09:32:48Z</time>
      </trkpt>
      <trkpt lat="45.14218" lon="-0.56131">
        <ele>35.1</ele>
        <time>2020-09-05T09:32:49Z</time>
      </trkpt>
      <trkpt lat="45.14216" lon="-0.56131">
        <ele>35.1</ele>
        <time>2020-09-05T09:32:50Z</time>
      </trkpt>
      <trkpt lat="45.14214" lon="-0.56131">
        <ele>35.2</ele>
        <time>2020-09-05T09:32:52Z</time>
      </trkpt>
      <trkpt lat="45.14213" lon="-0.56131">
        <ele>35.2</ele>
        <time>2020-09-05T09:32:53Z</time>
      </trkpt>
      <trkpt lat="45.14211" lon="-0.56131">
        <ele>35.3</ele>
        <time>2020-09-05T09:32:55Z</time>
      </trkpt>
      <trkpt lat="45.14209" lon="-0.56131">
        <ele>35.3</ele>
        <time>2020-09-05T09:32:56Z</time>
      </trkpt>
      <trkpt lat="45.14208" lon="-0.56132">
        <ele>35.3</ele>
        <time>2020-09-05T09:32:57Z</time>
      </trkpt>
      <trkpt lat="45.14206" lon="-0.56132">
        <ele>35.4</ele>
        <time>2020-09-05T09:32:58Z</time>
      </trkpt>
      <trkpt lat="45.14205" lon="-0.56132">
        <ele>35.4</ele>
        <time>2020-09-05T09:32:59Z</time>
      </trkpt>
      <trkpt lat="45.14204" lon="-0.56132">
        <ele>35.4</ele>
        <time>2020-09-05T09:33:00Z</time>
      </trkpt>
      <trkpt lat="45.14203" lon="-0.56132">
        <ele>35.5</ele>
        <time>2020-09-05T09:33:01Z</time>
      </trkpt>
      <trkpt lat="45.14202" lon="-0.56133">
        <ele>35.5</ele>
        <time>2020-09-05T09:33:03Z</time>
      </trkpt>
      <trkpt lat="45.142" lon="-0.56133">
        <ele>35.6</ele>
        <time>2020-09-05T09:33:04Z</time>
      </trkpt>
      <trkpt lat="45.14199" lon="-0.56133">
        <ele>35.6</ele>
        <time>2020-09-05T09:33:05Z</time>
      </trkpt>
      <trkpt lat="45.14198" lon="-0.56133">
        <ele>35.6</ele>
        <time>2020-09-05T09:33:06Z</time>
      </trkpt>
      <trkpt lat="45.14198" lon="-0.56133">
        <ele>35.6</ele>
        <time>2020-09-05T09:33:07Z</time>
      </trkpt>
      <trkpt lat="45.14197" lon="-0.56134">
        <ele>35.6</ele>
        <time>2020-09-05T09:33:08Z</time>
      </trkpt>
      <trkpt lat="45.14195" lon="-0.56134">
        <ele>35.6</ele>
        <time>2020-09-05T09:33:09Z</time>
      </trkpt>
      <trkpt lat="45.14193" lon="-0.56135">
        <ele>35.7</ele>
        <time>2020-09-05T09:33:11Z</time>
      </trkpt>
      <trkpt lat="45.14191" lon="-0.56135">
        <ele>35.7</ele>
        <time>2020-09-05T09:33:12Z</time>
      </trkpt>
      <trkpt lat="45.1419" lon="-0.56135">
        <ele>35.8</ele>
        <time>2020-09-05T09:33:13Z</time>
      </trkpt>
      <trkpt lat="45.14187" lon="-0.56135">
        <ele>35.9</ele>
        <time>2020-09-05T09:33:14Z</time>
      </trkpt>
      <trkpt lat="45.14186" lon="-0.56135">
        <ele>35.9</ele>
        <time>2020-09-05T09:33:16Z</time>
      </trkpt>
      <trkpt lat="45.14184" lon="-0.56135">
        <ele>35.9</ele>
        <time>2020-09-05T09:33:17Z</time>
      </trkpt>
      <trkpt lat="45.14182" lon="-0.56135">
        <ele>36</ele>
        <time>2020-09-05T09:33:19Z</time>
      </trkpt>
      <trkpt lat="45.14179" lon="-0.56135">
        <ele>36</ele>
        <time>2020-09-05T09:33:20Z</time>
      </trkpt>
      <trkpt lat="45.14178" lon="-0.56135">
        <ele>36.1</ele>
        <time>2020-09-05T09:33:21Z</time>
      </trkpt>
      <trkpt lat="45.14178" lon="-0.56135">
        <ele>36.1</ele>
        <time>2020-09-05T09:33:22Z</time>
      </trkpt>
      <trkpt lat="45.14176" lon="-0.56135">
        <ele>36.2</ele>
        <time>2020-09-05T09:33:23Z</time>
      </trkpt>
      <trkpt lat="45.14175" lon="-0.56135">
        <ele>36.2</ele>
        <time>2020-09-05T09:33:24Z</time>
      </trkpt>
      <trkpt lat="45.14172" lon="-0.56135">
        <ele>36.2</ele>
        <time>2020-09-05T09:33:26Z</time>
      </trkpt>
      <trkpt lat="45.14171" lon="-0.56135">
        <ele>36.2</ele>
        <time>2020-09-05T09:33:28Z</time>
      </trkpt>
      <trkpt lat="45.1417" lon="-0.56135">
        <ele>36.3</ele>
        <time>2020-09-05T09:33:29Z</time>
      </trkpt>
      <trkpt lat="45.14169" lon="-0.56135">
        <ele>36.3</ele>
        <time>2020-09-05T09:33:30Z</time>
      </trkpt>
      <trkpt lat="45.14168" lon="-0.56135">
        <ele>36.3</ele>
        <time>2020-09-05T09:33:31Z</time>
      </trkpt>
      <trkpt lat="45.14166" lon="-0.56135">
        <ele>36.3</ele>
        <time>2020-09-05T09:33:32Z</time>
      </trkpt>
      <trkpt lat="45.14164" lon="-0.56135">
        <ele>36.3</ele>
        <time>2020-09-05T09:33:33Z</time>
      </trkpt>
      <trkpt lat="45.14163" lon="-0.56135">
        <ele>36.4</ele>
        <time>2020-09-05T09:33:34Z</time>
      </trkpt>
      <trkpt lat="45.14162" lon="-0.56135">
        <ele>36.4</ele>
        <time>2020-09-05T09:33:36Z</time>
      </trkpt>
      <trkpt lat="45.14161" lon="-0.56135">
        <ele>36.4</ele>
        <time>2020-09-05T09:33:37Z</time>
      </trkpt>
      <trkpt lat="45.14159" lon="-0.56134">
        <ele>36.4</ele>
        <time>2020-09-05T09:33:38Z</time>
      </trkpt>
      <trkpt lat="45.14157" lon="-0.56133">
        <ele>36.4</ele>
        <time>2020-09-05T09:33:40Z</time>
      </trkpt>
      <trkpt lat="45.14155" lon="-0.56132">
        <ele>36.4</ele>
        <time>2020-09-05T09:33:41Z</time>
      </trkpt>
      <trkpt lat="45.14154" lon="-0.56131">
        <ele>36.5</ele>
        <time>2020-09-05T09:33:43Z</time>
      </trkpt>
      <trkpt lat="45.14152" lon="-0.5613">
        <ele>36.5</ele>
        <time>2020-09-05T09:33:44Z</time>
      </trkpt>
      <trkpt lat="45.14151" lon="-0.5613">
        <ele>36.5</ele>
        <time>2020-09-05T09:33:45Z</time>
      </trkpt>
      <trkpt lat="45.14149" lon="-0.56131">
        <ele>36.5</ele>
        <time>2020-09-05T09:33:47Z</time>
      </trkpt>
      <trkpt lat="45.14148" lon="-0.56131">
        <ele>36.5</ele>
        <time>2020-09-05T09:33:49Z</time>
      </trkpt>
      <trkpt lat="45.14146" lon="-0.56131">
        <ele>36.5</ele>
        <time>2020-09-05T09:33:50Z</time>
      </trkpt>
      <trkpt lat="45.14145" lon="-0.56131">
        <ele>36.5</ele>
        <time>2020-09-05T09:33:51Z</time>
      </trkpt>
      <trkpt lat="45.14144" lon="-0.56131">
        <ele>36.5</ele>
        <time>2020-09-05T09:33:52Z</time>
      </trkpt>
      <trkpt lat="45.14143" lon="-0.56131">
        <ele>36.5</ele>
        <time>2020-09-05T09:33:53Z</time>
      </trkpt>
      <trkpt lat="45.14141" lon="-0.56131">
        <ele>36.6</ele>
        <time>2020-09-05T09:33:55Z</time>
      </trkpt>
      <trkpt lat="45.14138" lon="-0.56131">
        <ele>36.6</ele>
        <time>2020-09-05T09:33:57Z</time>
      </trkpt>
      <trkpt lat="45.14137" lon="-0.56131">
        <ele>36.6</ele>
        <time>2020-09-05T09:33:58Z</time>
      </trkpt>
      <trkpt lat="45.14134" lon="-0.56132">
        <ele>36.6</ele>
        <time>2020-09-05T09:33:59Z</time>
      </trkpt>
      <trkpt lat="45.14132" lon="-0.56132">
        <ele>36.6</ele>
        <time>2020-09-05T09:34:00Z</time>
      </trkpt>
      <trkpt lat="45.14131" lon="-0.56132">
        <ele>36.6</ele>
        <time>2020-09-05T09:34:02Z</time>
      </trkpt>
      <trkpt lat="45.14128" lon="-0.56132">
        <ele>36.6</ele>
        <time>2020-09-05T09:34:03Z</time>
      </trkpt>
      <trkpt lat="45.14126" lon="-0.56132">
        <ele>36.6</ele>
        <time>2020-09-05T09:34:05Z</time>
      </trkpt>
      <trkpt lat="45.14124" lon="-0.56132">
        <ele>36.6</ele>
        <time>2020-09-05T09:34:06Z</time>
      </trkpt>
      <trkpt lat="45.14121" lon="-0.56131">
        <ele>36.6</ele>
        <time>2020-09-05T09:34:08Z</time>
      </trkpt>
      <trkpt lat="45.1412" lon="-0.5613">
        <ele>36.6</ele>
        <time>2020-09-05T09:34:09Z</time>
      </trkpt>
      <trkpt lat="45.14119" lon="-0.5613">
        <ele>36.6</ele>
        <time>2020-09-05T09:34:11Z</time>
      </trkpt>
      <trkpt lat="45.14118" lon="-0.5613">
        <ele>36.6</ele>
        <time>2020-09-05T09:34:12Z</time>
      </trkpt>
      <trkpt lat="45.14117" lon="-0.56129">
        <ele>36.6</ele>
        <time>2020-09-05T09:34:13Z</time>
      </trkpt>
      <trkpt lat="45.14115" lon="-0.56129">
        <ele>36.5</ele>
        <time>2020-09-05T09:34:14Z</time>
      </trkpt>
      <trkpt lat="45.14114" lon="-0.56129">
        <ele>36.5</ele>
        <time>2020-09-05T09:34:15Z</time>
      </trkpt>
      <trkpt lat="45.14113" lon="-0.56128">
        <ele>36.5</ele>
        <time>2020-09-05T09:34:16Z</time>
      </trkpt>
      <trkpt lat="45.14112" lon="-0.56128">
        <ele>36.5</ele>
        <time>2020-09-05T09:34:17Z</time>
      </trkpt>
      <trkpt lat="45.14112" lon="-0.56128">
        <ele>36.5</ele>
        <time>2020-09-05T09:34:18Z</time>
      </trkpt>
      <trkpt lat="45.1411" lon="-0.56128">
        <ele>36.5</ele>
        <time>2020-09-05T09:34:19Z</time>
      </trkpt>
      <trkpt lat="45.14108" lon="-0.56127">
        <ele>36.5</ele>
        <time>2020-09-05T09:34:21Z</time>
      </trkpt>
      <trkpt lat="45.14106" lon="-0.56126">
        <ele>36.5</ele>
        <time>2020-09-05T09:34:23Z</time>
      </trkpt>
      <trkpt lat="45.14105" lon="-0.56125">
        <ele>36.5</ele>
        <time>2020-09-05T09:34:24Z</time>
      </trkpt>
      <trkpt lat="45.14104" lon="-0.56125">
        <ele>36.5</ele>
        <time>2020-09-05T09:34:25Z</time>
      </trkpt>
      <trkpt lat="45.14103" lon="-0.56125">
        <ele>36.5</ele>
        <time>2020-09-05T09:34:27Z</time>
      </trkpt>
      <trkpt lat="45.14102" lon="-0.56125">
        <ele>36.4</ele>
        <time>2020-09-05T09:34:28Z</time>
      </trkpt>
      <trkpt lat="45.14101" lon="-0.56124">
        <ele>36.4</ele>
        <time>2020-09-05T09:34:29Z</time>
      </trkpt>
      <trkpt lat="45.141" lon="-0.56124">
        <ele>36.4</ele>
        <time>2020-09-05T09:34:31Z</time>
      </trkpt>
      <trkpt lat="45.14099" lon="-0.56124">
        <ele>36.4</ele>
        <time>2020-09-05T09:34:32Z</time>
      </trkpt>
      <trkpt lat="45.14098" lon="-0.56124">
        <ele>36.4</ele>
        <time>2020-09-05T09:34:33Z</time>
      </trkpt>
      <trkpt lat="45.14096" lon="-0.56124">
        <ele>36.4</ele>
        <time>2020-09-05T09:34:34Z</time>
      </trkpt>
      <trkpt lat="45.14095" lon="-0.56124">
        <ele>36.4</ele>
        <time>2020-09-05T09:34:35Z</time>
      </trkpt>
      <trkpt lat="45.14093" lon="-0.56124">
        <ele>36.4</ele>
        <time>2020-09-05T09:34:36Z</time>
      </trkpt>
      <trkpt lat="45.14092" lon="-0.56124">
        <ele>36.4</ele>
        <time>2020-09-05T09:34:37Z</time>
      </trkpt>
      <trkpt lat="45.14091" lon="-0.56123">
        <ele>36.4</ele>
        <time>2020-09-05T09:34:39Z</time>
      </trkpt>
      <trkpt lat="45.14089" lon="-0.56123">
        <ele>36.4</ele>
        <time>2020-09-05T09:34:40Z</time>
      </trkpt>
      <trkpt lat="45.14088" lon="-0.56123">
        <ele>36.4</ele>
        <time>2020-09-05T09:34:41Z</time>
      </trkpt>
      <trkpt lat="45.14087" lon="-0.56122">
        <ele>36.4</ele>
        <time>2020-09-05T09:34:42Z</time>
      </trkpt>
      <trkpt lat="45.14085" lon="-0.56121">
        <ele>36.4</ele>
        <time>2020-09-05T09:34:44Z</time>
      </trkpt>
      <trkpt lat="45.14084" lon="-0.56121">
        <ele>36.4</ele>
        <time>2020-09-05T09:34:45Z</time>
      </trkpt>
      <trkpt lat="45.14083" lon="-0.56121">
        <ele>36.4</ele>
        <time>2020-09-05T09:34:46Z</time>
      </trkpt>
      <trkpt lat="45.14082" lon="-0.5612">
        <ele>36.4</ele>
        <time>2020-09-05T09:34:47Z</time>
      </trkpt>
      <trkpt lat="45.14079" lon="-0.5612">
        <ele>36.4</ele>
        <time>2020-09-05T09:34:49Z</time>
      </trkpt>
      <trkpt lat="45.14078" lon="-0.5612">
        <ele>36.4</ele>
        <time>2020-09-05T09:34:50Z</time>
      </trkpt>
      <trkpt lat="45.14076" lon="-0.5612">
        <ele>36.4</ele>
        <time>2020-09-05T09:34:52Z</time>
      </trkpt>
      <trkpt lat="45.14075" lon="-0.5612">
        <ele>36.4</ele>
        <time>2020-09-05T09:34:53Z</time>
      </trkpt>
      <trkpt lat="45.14073" lon="-0.5612">
        <ele>36.4</ele>
        <time>2020-09-05T09:34:54Z</time>
      </trkpt>
      <trkpt lat="45.14071" lon="-0.5612">
        <ele>36.4</ele>
        <time>2020-09-05T09:34:56Z</time>
      </trkpt>
      <trkpt lat="45.1407" lon="-0.5612">
        <ele>36.5</ele>
        <time>2020-09-05T09:34:57Z</time>
      </trkpt>
      <trkpt lat="45.14067" lon="-0.56119">
        <ele>36.5</ele>
        <time>2020-09-05T09:34:59Z</time>
      </trkpt>
      <trkpt lat="45.14064" lon="-0.56119">
        <ele>36.5</ele>
        <time>2020-09-05T09:35:01Z</time>
      </trkpt>
      <trkpt lat="45.14063" lon="-0.56119">
        <ele>36.5</ele>
        <time>2020-09-05T09:35:02Z</time>
      </trkpt>
      <trkpt lat="45.1406" lon="-0.56119">
        <ele>36.6</ele>
        <time>2020-09-05T09:35:04Z</time>
      </trkpt>
      <trkpt lat="45.14059" lon="-0.56119">
        <ele>36.6</ele>
        <time>2020-09-05T09:35:06Z</time>
      </trkpt>
      <trkpt lat="45.14057" lon="-0.56118">
        <ele>36.6</ele>
        <time>2020-09-05T09:35:08Z</time>
      </trkpt>
      <trkpt lat="45.14055" lon="-0.56117">
        <ele>36.6</ele>
        <time>2020-09-05T09:35:09Z</time>
      </trkpt>
      <trkpt lat="45.14055" lon="-0.56116">
        <ele>36.6</ele>
        <time>2020-09-05T09:35:11Z</time>
      </trkpt>
      <trkpt lat="45.14055" lon="-0.56116">
        <ele>36.6</ele>
        <time>2020-09-05T09:35:12Z</time>
      </trkpt>
      <trkpt lat="45.14056" lon="-0.56116">
        <ele>36.6</ele>
        <time>2020-09-05T09:35:13Z</time>
      </trkpt>
      <trkpt lat="45.14056" lon="-0.56116">
        <ele>36.6</ele>
        <time>2020-09-05T09:35:14Z</time>
      </trkpt>
      <trkpt lat="45.14056" lon="-0.56114">
        <ele>36.6</ele>
        <time>2020-09-05T09:35:15Z</time>
      </trkpt>
      <trkpt lat="45.14056" lon="-0.56112">
        <ele>36.6</ele>
        <time>2020-09-05T09:35:17Z</time>
      </trkpt>
      <trkpt lat="45.14056" lon="-0.56109">
        <ele>36.5</ele>
        <time>2020-09-05T09:35:19Z</time>
      </trkpt>
      <trkpt lat="45.14056" lon="-0.56106">
        <ele>36.5</ele>
        <time>2020-09-05T09:35:20Z</time>
      </trkpt>
      <trkpt lat="45.14057" lon="-0.56103">
        <ele>36.5</ele>
        <time>2020-09-05T09:35:22Z</time>
      </trkpt>
      <trkpt lat="45.14057" lon="-0.56101">
        <ele>36.5</ele>
        <time>2020-09-05T09:35:23Z</time>
      </trkpt>
      <trkpt lat="45.14057" lon="-0.56099">
        <ele>36.5</ele>
        <time>2020-09-05T09:35:24Z</time>
      </trkpt>
      <trkpt lat="45.14057" lon="-0.56096">
        <ele>36.5</ele>
        <time>2020-09-05T09:35:25Z</time>
      </trkpt>
      <trkpt lat="45.14057" lon="-0.56095">
        <ele>36.4</ele>
        <time>2020-09-05T09:35:26Z</time>
      </trkpt>
      <trkpt lat="45.14057" lon="-0.5609">
        <ele>36.4</ele>
        <time>2020-09-05T09:35:27Z</time>
      </trkpt>
      <trkpt lat="45.14057" lon="-0.56088">
        <ele>36.4</ele>
        <time>2020-09-05T09:35:29Z</time>
      </trkpt>
      <trkpt lat="45.14057" lon="-0.56086">
        <ele>36.4</ele>
        <time>2020-09-05T09:35:30Z</time>
      </trkpt>
      <trkpt lat="45.14057" lon="-0.56084">
        <ele>36.4</ele>
        <time>2020-09-05T09:35:31Z</time>
      </trkpt>
      <trkpt lat="45.14057" lon="-0.56082">
        <ele>36.4</ele>
        <time>2020-09-05T09:35:33Z</time>
      </trkpt>
      <trkpt lat="45.14057" lon="-0.56079">
        <ele>36.4</ele>
        <time>2020-09-05T09:35:35Z</time>
      </trkpt>
      <trkpt lat="45.14057" lon="-0.56078">
        <ele>36.4</ele>
        <time>2020-09-05T09:35:36Z</time>
      </trkpt>
      <trkpt lat="45.14057" lon="-0.56076">
        <ele>36.4</ele>
        <time>2020-09-05T09:35:37Z</time>
      </trkpt>
      <trkpt lat="45.14057" lon="-0.56075">
        <ele>36.4</ele>
        <time>2020-09-05T09:35:39Z</time>
      </trkpt>
      <trkpt lat="45.14057" lon="-0.56073">
        <ele>36.4</ele>
        <time>2020-09-05T09:35:40Z</time>
      </trkpt>
      <trkpt lat="45.14057" lon="-0.56071">
        <ele>36.4</ele>
        <time>2020-09-05T09:35:41Z</time>
      </trkpt>
      <trkpt lat="45.14057" lon="-0.5607">
        <ele>36.4</ele>
        <time>2020-09-05T09:35:42Z</time>
      </trkpt>
      <trkpt lat="45.14057" lon="-0.56067">
        <ele>36.4</ele>
        <time>2020-09-05T09:35:43Z</time>
      </trkpt>
      <trkpt lat="45.14057" lon="-0.56065">
        <ele>36.4</ele>
        <time>2020-09-05T09:35:44Z</time>
      </trkpt>
      <trkpt lat="45.14057" lon="-0.56063">
        <ele>36.4</ele>
        <time>2020-09-05T09:35:45Z</time>
      </trkpt>
      <trkpt lat="45.14057" lon="-0.5606">
        <ele>36.4</ele>
        <time>2020-09-05T09:35:46Z</time>
      </trkpt>
      <trkpt lat="45.14057" lon="-0.56057">
        <ele>36.4</ele>
        <time>2020-09-05T09:35:48Z</time>
      </trkpt>
      <trkpt lat="45.14057" lon="-0.56055">
        <ele>36.4</ele>
        <time>2020-09-05T09:35:49Z</time>
      </trkpt>
      <trkpt lat="45.14057" lon="-0.56053">
        <ele>36.4</ele>
        <time>2020-09-05T09:35:50Z</time>
      </trkpt>
      <trkpt lat="45.14057" lon="-0.56051">
        <ele>36.4</ele>
        <time>2020-09-05T09:35:52Z</time>
      </trkpt>
      <trkpt lat="45.14057" lon="-0.56048">
        <ele>36.4</ele>
        <time>2020-09-05T09:35:53Z</time>
      </trkpt>
      <trkpt lat="45.14057" lon="-0.56045">
        <ele>36.4</ele>
        <time>2020-09-05T09:35:55Z</time>
      </trkpt>
      <trkpt lat="45.14057" lon="-0.56044">
        <ele>36.4</ele>
        <time>2020-09-05T09:35:56Z</time>
      </trkpt>
      <trkpt lat="45.14057" lon="-0.5604">
        <ele>36.4</ele>
        <time>2020-09-05T09:35:58Z</time>
      </trkpt>
      <trkpt lat="45.14057" lon="-0.56039">
        <ele>36.4</ele>
        <time>2020-09-05T09:35:59Z</time>
      </trkpt>
      <trkpt lat="45.14057" lon="-0.56038">
        <ele>36.5</ele>
        <time>2020-09-05T09:36:00Z</time>
      </trkpt>
      <trkpt lat="45.14057" lon="-0.56033">
        <ele>36.5</ele>
        <time>2020-09-05T09:36:02Z</time>
      </trkpt>
      <trkpt lat="45.14057" lon="-0.56032">
        <ele>36.5</ele>
        <time>2020-09-05T09:36:03Z</time>
      </trkpt>
      <trkpt lat="45.14057" lon="-0.5603">
        <ele>36.6</ele>
        <time>2020-09-05T09:36:04Z</time>
      </trkpt>
      <trkpt lat="45.14057" lon="-0.56028">
        <ele>36.6</ele>
        <time>2020-09-05T09:36:06Z</time>
      </trkpt>
      <trkpt lat="45.14057" lon="-0.56025">
        <ele>36.6</ele>
        <time>2020-09-05T09:36:08Z</time>
      </trkpt>
      <trkpt lat="45.14058" lon="-0.56024">
        <ele>36.6</ele>
        <time>2020-09-05T09:36:09Z</time>
      </trkpt>
      <trkpt lat="45.14058" lon="-0.56019">
        <ele>36.7</ele>
        <time>2020-09-05T09:36:11Z</time>
      </trkpt>
      <trkpt lat="45.14058" lon="-0.56018">
        <ele>36.7</ele>
        <time>2020-09-05T09:36:12Z</time>
      </trkpt>
      <trkpt lat="45.14058" lon="-0.56017">
        <ele>36.7</ele>
        <time>2020-09-05T09:36:13Z</time>
      </trkpt>
      <trkpt lat="45.14058" lon="-0.56015">
        <ele>36.7</ele>
        <time>2020-09-05T09:36:14Z</time>
      </trkpt>
      <trkpt lat="45.14058" lon="-0.56012">
        <ele>36.7</ele>
        <time>2020-09-05T09:36:16Z</time>
      </trkpt>
      <trkpt lat="45.14058" lon="-0.5601">
        <ele>36.7</ele>
        <time>2020-09-05T09:36:17Z</time>
      </trkpt>
      <trkpt lat="45.14058" lon="-0.56008">
        <ele>36.8</ele>
        <time>2020-09-05T09:36:18Z</time>
      </trkpt>
      <trkpt lat="45.14057" lon="-0.56004">
        <ele>36.8</ele>
        <time>2020-09-05T09:36:20Z</time>
      </trkpt>
      <trkpt lat="45.14057" lon="-0.56003">
        <ele>36.8</ele>
        <time>2020-09-05T09:36:21Z</time>
      </trkpt>
      <trkpt lat="45.14056" lon="-0.56002">
        <ele>36.8</ele>
        <time>2020-09-05T09:36:22Z</time>
      </trkpt>
      <trkpt lat="45.14056" lon="-0.56">
        <ele>36.9</ele>
        <time>2020-09-05T09:36:23Z</time>
      </trkpt>
      <trkpt lat="45.14056" lon="-0.55997">
        <ele>36.9</ele>
        <time>2020-09-05T09:36:24Z</time>
      </trkpt>
      <trkpt lat="45.14055" lon="-0.55993">
        <ele>37</ele>
        <time>2020-09-05T09:36:26Z</time>
      </trkpt>
      <trkpt lat="45.14055" lon="-0.55991">
        <ele>37</ele>
        <time>2020-09-05T09:36:27Z</time>
      </trkpt>
      <trkpt lat="45.14054" lon="-0.55989">
        <ele>37</ele>
        <time>2020-09-05T09:36:29Z</time>
      </trkpt>
      <trkpt lat="45.14054" lon="-0.55986">
        <ele>37.1</ele>
        <time>2020-09-05T09:36:30Z</time>
      </trkpt>
      <trkpt lat="45.14053" lon="-0.55984">
        <ele>37.1</ele>
        <time>2020-09-05T09:36:32Z</time>
      </trkpt>
      <trkpt lat="45.14051" lon="-0.55981">
        <ele>37.2</ele>
        <time>2020-09-05T09:36:34Z</time>
      </trkpt>
      <trkpt lat="45.14051" lon="-0.55979">
        <ele>37.2</ele>
        <time>2020-09-05T09:36:35Z</time>
      </trkpt>
      <trkpt lat="45.14049" lon="-0.55978">
        <ele>37.3</ele>
        <time>2020-09-05T09:36:36Z</time>
      </trkpt>
      <trkpt lat="45.14048" lon="-0.55978">
        <ele>37.3</ele>
        <time>2020-09-05T09:36:38Z</time>
      </trkpt>
      <trkpt lat="45.14047" lon="-0.55977">
        <ele>37.3</ele>
        <time>2020-09-05T09:36:39Z</time>
      </trkpt>
      <trkpt lat="45.14045" lon="-0.55975">
        <ele>37.4</ele>
        <time>2020-09-05T09:36:40Z</time>
      </trkpt>
      <trkpt lat="45.14044" lon="-0.55975">
        <ele>37.4</ele>
        <time>2020-09-05T09:36:42Z</time>
      </trkpt>
      <trkpt lat="45.14042" lon="-0.55974">
        <ele>37.5</ele>
        <time>2020-09-05T09:36:43Z</time>
      </trkpt>
      <trkpt lat="45.14041" lon="-0.55972">
        <ele>37.5</ele>
        <time>2020-09-05T09:36:44Z</time>
      </trkpt>
      <trkpt lat="45.1404" lon="-0.5597">
        <ele>37.6</ele>
        <time>2020-09-05T09:36:46Z</time>
      </trkpt>
      <trkpt lat="45.14039" lon="-0.55968">
        <ele>37.6</ele>
        <time>2020-09-05T09:36:47Z</time>
      </trkpt>
      <trkpt lat="45.14039" lon="-0.55964">
        <ele>37.7</ele>
        <time>2020-09-05T09:36:49Z</time>
      </trkpt>
      <trkpt lat="45.14039" lon="-0.55963">
        <ele>37.7</ele>
        <time>2020-09-05T09:36:50Z</time>
      </trkpt>
      <trkpt lat="45.14039" lon="-0.55961">
        <ele>37.7</ele>
        <time>2020-09-05T09:36:51Z</time>
      </trkpt>
      <trkpt lat="45.14039" lon="-0.55959">
        <ele>37.7</ele>
        <time>2020-09-05T09:36:53Z</time>
      </trkpt>
      <trkpt lat="45.14039" lon="-0.55955">
        <ele>37.8</ele>
        <time>2020-09-05T09:36:55Z</time>
      </trkpt>
      <trkpt lat="45.14039" lon="-0.55954">
        <ele>37.8</ele>
        <time>2020-09-05T09:36:56Z</time>
      </trkpt>
      <trkpt lat="45.14039" lon="-0.55953">
        <ele>37.8</ele>
        <time>2020-09-05T09:36:57Z</time>
      </trkpt>
      <trkpt lat="45.14039" lon="-0.55952">
        <ele>37.8</ele>
        <time>2020-09-05T09:36:58Z</time>
      </trkpt>
      <trkpt lat="45.1404" lon="-0.55951">
        <ele>37.8</ele>
        <time>2020-09-05T09:37:00Z</time>
      </trkpt>
      <trkpt lat="45.1404" lon="-0.5595">
        <ele>37.8</ele>
        <time>2020-09-05T09:37:01Z</time>
      </trkpt>
      <trkpt lat="45.1404" lon="-0.55948">
        <ele>37.8</ele>
        <time>2020-09-05T09:37:03Z</time>
      </trkpt>
      <trkpt lat="45.1404" lon="-0.55947">
        <ele>37.8</ele>
        <time>2020-09-05T09:37:04Z</time>
      </trkpt>
      <trkpt lat="45.1404" lon="-0.55946">
        <ele>37.8</ele>
        <time>2020-09-05T09:37:05Z</time>
      </trkpt>
      <trkpt lat="45.1404" lon="-0.55944">
        <ele>37.8</ele>
        <time>2020-09-05T09:37:07Z</time>
      </trkpt>
      <trkpt lat="45.1404" lon="-0.55941">
        <ele>37.8</ele>
        <time>2020-09-05T09:37:08Z</time>
      </trkpt>
      <trkpt lat="45.14041" lon="-0.55937">
        <ele>37.8</ele>
        <time>2020-09-05T09:37:10Z</time>
      </trkpt>
      <trkpt lat="45.14041" lon="-0.55936">
        <ele>37.8</ele>
        <time>2020-09-05T09:37:11Z</time>
      </trkpt>
      <trkpt lat="45.14041" lon="-0.55931">
        <ele>37.9</ele>
        <time>2020-09-05T09:37:13Z</time>
      </trkpt>
      <trkpt lat="45.14041" lon="-0.55929">
        <ele>37.9</ele>
        <time>2020-09-05T09:37:14Z</time>
      </trkpt>
      <trkpt lat="45.14041" lon="-0.55927">
        <ele>37.9</ele>
        <time>2020-09-05T09:37:15Z</time>
      </trkpt>
      <trkpt lat="45.14041" lon="-0.55926">
        <ele>37.9</ele>
        <time>2020-09-05T09:37:16Z</time>
      </trkpt>
      <trkpt lat="45.14041" lon="-0.55924">
        <ele>37.9</ele>
        <time>2020-09-05T09:37:17Z</time>
      </trkpt>
      <trkpt lat="45.14041" lon="-0.55922">
        <ele>37.9</ele>
        <time>2020-09-05T09:37:18Z</time>
      </trkpt>
      <trkpt lat="45.14041" lon="-0.5592">
        <ele>37.9</ele>
        <time>2020-09-05T09:37:20Z</time>
      </trkpt>
      <trkpt lat="45.14041" lon="-0.55918">
        <ele>37.9</ele>
        <time>2020-09-05T09:37:21Z</time>
      </trkpt>
      <trkpt lat="45.14041" lon="-0.55917">
        <ele>37.9</ele>
        <time>2020-09-05T09:37:22Z</time>
      </trkpt>
      <trkpt lat="45.14041" lon="-0.55915">
        <ele>37.9</ele>
        <time>2020-09-05T09:37:24Z</time>
      </trkpt>
      <trkpt lat="45.14041" lon="-0.55913">
        <ele>37.9</ele>
        <time>2020-09-05T09:37:25Z</time>
      </trkpt>
      <trkpt lat="45.14041" lon="-0.55911">
        <ele>37.9</ele>
        <time>2020-09-05T09:37:27Z</time>
      </trkpt>
      <trkpt lat="45.1404" lon="-0.5591">
        <ele>37.9</ele>
        <time>2020-09-05T09:37:28Z</time>
      </trkpt>
      <trkpt lat="45.1404" lon="-0.55908">
        <ele>37.9</ele>
        <time>2020-09-05T09:37:29Z</time>
      </trkpt>
      <trkpt lat="45.1404" lon="-0.55904">
        <ele>37.9</ele>
        <time>2020-09-05T09:37:31Z</time>
      </trkpt>
      <trkpt lat="45.1404" lon="-0.559">
        <ele>38</ele>
        <time>2020-09-05T09:37:32Z</time>
      </trkpt>
      <trkpt lat="45.1404" lon="-0.55898">
        <ele>38</ele>
        <time>2020-09-05T09:37:34Z</time>
      </trkpt>
      <trkpt lat="45.1404" lon="-0.55896">
        <ele>38</ele>
        <time>2020-09-05T09:37:35Z</time>
      </trkpt>
      <trkpt lat="45.1404" lon="-0.55894">
        <ele>38</ele>
        <time>2020-09-05T09:37:36Z</time>
      </trkpt>
      <trkpt lat="45.14041" lon="-0.5589">
        <ele>38</ele>
        <time>2020-09-05T09:37:38Z</time>
      </trkpt>
      <trkpt lat="45.1404" lon="-0.55888">
        <ele>38.1</ele>
        <time>2020-09-05T09:37:39Z</time>
      </trkpt>
      <trkpt lat="45.1404" lon="-0.55885">
        <ele>38.1</ele>
        <time>2020-09-05T09:37:40Z</time>
      </trkpt>
      <trkpt lat="45.1404" lon="-0.55884">
        <ele>38.1</ele>
        <time>2020-09-05T09:37:41Z</time>
      </trkpt>
      <trkpt lat="45.1404" lon="-0.55881">
        <ele>38.1</ele>
        <time>2020-09-05T09:37:42Z</time>
      </trkpt>
      <trkpt lat="45.1404" lon="-0.5588">
        <ele>38.1</ele>
        <time>2020-09-05T09:37:43Z</time>
      </trkpt>
      <trkpt lat="45.1404" lon="-0.55879">
        <ele>38.1</ele>
        <time>2020-09-05T09:37:44Z</time>
      </trkpt>
      <trkpt lat="45.1404" lon="-0.55877">
        <ele>38.1</ele>
        <time>2020-09-05T09:37:46Z</time>
      </trkpt>
      <trkpt lat="45.1404" lon="-0.55875">
        <ele>38.2</ele>
        <time>2020-09-05T09:37:47Z</time>
      </trkpt>
      <trkpt lat="45.1404" lon="-0.55874">
        <ele>38.2</ele>
        <time>2020-09-05T09:37:48Z</time>
      </trkpt>
      <trkpt lat="45.1404" lon="-0.55872">
        <ele>38.2</ele>
        <time>2020-09-05T09:37:49Z</time>
      </trkpt>
      <trkpt lat="45.14041" lon="-0.55869">
        <ele>38.2</ele>
        <time>2020-09-05T09:37:50Z</time>
      </trkpt>
      <trkpt lat="45.14041" lon="-0.55868">
        <ele>38.2</ele>
        <time>2020-09-05T09:37:51Z</time>
      </trkpt>
      <trkpt lat="45.14041" lon="-0.55867">
        <ele>38.3</ele>
        <time>2020-09-05T09:37:52Z</time>
      </trkpt>
      <trkpt lat="45.14041" lon="-0.55865">
        <ele>38.3</ele>
        <time>2020-09-05T09:37:53Z</time>
      </trkpt>
      <trkpt lat="45.14041" lon="-0.55862">
        <ele>38.3</ele>
        <time>2020-09-05T09:37:55Z</time>
      </trkpt>
      <trkpt lat="45.14041" lon="-0.55861">
        <ele>38.3</ele>
        <time>2020-09-05T09:37:56Z</time>
      </trkpt>
      <trkpt lat="45.14041" lon="-0.55858">
        <ele>38.3</ele>
        <time>2020-09-05T09:37:57Z</time>
      </trkpt>
      <trkpt lat="45.14041" lon="-0.55856">
        <ele>38.3</ele>
        <time>2020-09-05T09:37:58Z</time>
      </trkpt>
      <trkpt lat="45.14041" lon="-0.55855">
        <ele>38.3</ele>
        <time>2020-09-05T09:37:59Z</time>
      </trkpt>
      <trkpt lat="45.14041" lon="-0.55852">
        <ele>38.4</ele>
        <time>2020-09-05T09:38:00Z</time>
      </trkpt>
      <trkpt lat="45.14041" lon="-0.55851">
        <ele>38.4</ele>
        <time>2020-09-05T09:38:01Z</time>
      </trkpt>
      <trkpt lat="45.14041" lon="-0.55848">
        <ele>38.4</ele>
        <time>2020-09-05T09:38:03Z</time>
      </trkpt>
      <trkpt lat="45.14042" lon="-0.55844">
        <ele>38.4</ele>
        <time>2020-09-05T09:38:05Z</time>
      </trkpt>
      <trkpt lat="45.14042" lon="-0.55841">
        <ele>38.5</ele>
        <time>2020-09-05T09:38:07Z</time>
      </trkpt>
      <trkpt lat="45.14042" lon="-0.5584">
        <ele>38.5</ele>
        <time>2020-09-05T09:38:08Z</time>
      </trkpt>
      <trkpt lat="45.14042" lon="-0.55838">
        <ele>38.5</ele>
        <time>2020-09-05T09:38:09Z</time>
      </trkpt>
      <trkpt lat="45.14042" lon="-0.55834">
        <ele>38.5</ele>
        <time>2020-09-05T09:38:11Z</time>
      </trkpt>
      <trkpt lat="45.14042" lon="-0.55831">
        <ele>38.5</ele>
        <time>2020-09-05T09:38:13Z</time>
      </trkpt>
      <trkpt lat="45.14042" lon="-0.55826">
        <ele>38.6</ele>
        <time>2020-09-05T09:38:15Z</time>
      </trkpt>
      <trkpt lat="45.14042" lon="-0.55821">
        <ele>38.6</ele>
        <time>2020-09-05T09:38:17Z</time>
      </trkpt>
      <trkpt lat="45.14042" lon="-0.5582">
        <ele>38.6</ele>
        <time>2020-09-05T09:38:18Z</time>
      </trkpt>
      <trkpt lat="45.14041" lon="-0.55817">
        <ele>38.6</ele>
        <time>2020-09-05T09:38:19Z</time>
      </trkpt>
      <trkpt lat="45.14041" lon="-0.55814">
        <ele>38.7</ele>
        <time>2020-09-05T09:38:21Z</time>
      </trkpt>
      <trkpt lat="45.14041" lon="-0.55812">
        <ele>38.7</ele>
        <time>2020-09-05T09:38:22Z</time>
      </trkpt>
      <trkpt lat="45.14041" lon="-0.5581">
        <ele>38.7</ele>
        <time>2020-09-05T09:38:23Z</time>
      </trkpt>
      <trkpt lat="45.14042" lon="-0.55805">
        <ele>38.7</ele>
        <time>2020-09-05T09:38:25Z</time>
      </trkpt>
      <trkpt lat="45.14042" lon="-0.55803">
        <ele>38.7</ele>
        <time>2020-09-05T09:38:26Z</time>
      </trkpt>
      <trkpt lat="45.14042" lon="-0.55802">
        <ele>38.8</ele>
        <time>2020-09-05T09:38:28Z</time>
      </trkpt>
      <trkpt lat="45.14042" lon="-0.55801">
        <ele>38.8</ele>
        <time>2020-09-05T09:38:29Z</time>
      </trkpt>
      <trkpt lat="45.14042" lon="-0.55798">
        <ele>38.8</ele>
        <time>2020-09-05T09:38:30Z</time>
      </trkpt>
      <trkpt lat="45.14042" lon="-0.55797">
        <ele>38.8</ele>
        <time>2020-09-05T09:38:31Z</time>
      </trkpt>
      <trkpt lat="45.14042" lon="-0.55795">
        <ele>38.8</ele>
        <time>2020-09-05T09:38:32Z</time>
      </trkpt>
      <trkpt lat="45.14042" lon="-0.55794">
        <ele>38.8</ele>
        <time>2020-09-05T09:38:33Z</time>
      </trkpt>
      <trkpt lat="45.14042" lon="-0.55792">
        <ele>38.8</ele>
        <time>2020-09-05T09:38:34Z</time>
      </trkpt>
      <trkpt lat="45.14042" lon="-0.55789">
        <ele>38.9</ele>
        <time>2020-09-05T09:38:36Z</time>
      </trkpt>
      <trkpt lat="45.14043" lon="-0.55787">
        <ele>38.9</ele>
        <time>2020-09-05T09:38:38Z</time>
      </trkpt>
      <trkpt lat="45.14043" lon="-0.55785">
        <ele>38.9</ele>
        <time>2020-09-05T09:38:39Z</time>
      </trkpt>
      <trkpt lat="45.14043" lon="-0.55783">
        <ele>38.9</ele>
        <time>2020-09-05T09:38:40Z</time>
      </trkpt>
      <trkpt lat="45.14043" lon="-0.55781">
        <ele>38.8</ele>
        <time>2020-09-05T09:38:41Z</time>
      </trkpt>
      <trkpt lat="45.14043" lon="-0.55778">
        <ele>38.8</ele>
        <time>2020-09-05T09:38:43Z</time>
      </trkpt>
      <trkpt lat="45.14044" lon="-0.55777">
        <ele>38.9</ele>
        <time>2020-09-05T09:38:44Z</time>
      </trkpt>
      <trkpt lat="45.14043" lon="-0.55774">
        <ele>38.9</ele>
        <time>2020-09-05T09:38:45Z</time>
      </trkpt>
      <trkpt lat="45.14043" lon="-0.55772">
        <ele>39</ele>
        <time>2020-09-05T09:38:47Z</time>
      </trkpt>
      <trkpt lat="45.14043" lon="-0.55769">
        <ele>39</ele>
        <time>2020-09-05T09:38:49Z</time>
      </trkpt>
      <trkpt lat="45.14042" lon="-0.55765">
        <ele>39</ele>
        <time>2020-09-05T09:38:51Z</time>
      </trkpt>
      <trkpt lat="45.14042" lon="-0.55761">
        <ele>39.1</ele>
        <time>2020-09-05T09:38:52Z</time>
      </trkpt>
      <trkpt lat="45.14042" lon="-0.55759">
        <ele>39.1</ele>
        <time>2020-09-05T09:38:53Z</time>
      </trkpt>
      <trkpt lat="45.14043" lon="-0.55753">
        <ele>39.2</ele>
        <time>2020-09-05T09:38:55Z</time>
      </trkpt>
      <trkpt lat="45.14043" lon="-0.55751">
        <ele>39.2</ele>
        <time>2020-09-05T09:38:56Z</time>
      </trkpt>
      <trkpt lat="45.14043" lon="-0.55749">
        <ele>39.2</ele>
        <time>2020-09-05T09:38:58Z</time>
      </trkpt>
      <trkpt lat="45.14043" lon="-0.55747">
        <ele>39.2</ele>
        <time>2020-09-05T09:38:59Z</time>
      </trkpt>
      <trkpt lat="45.14044" lon="-0.55745">
        <ele>39.2</ele>
        <time>2020-09-05T09:39:00Z</time>
      </trkpt>
      <trkpt lat="45.14044" lon="-0.55742">
        <ele>39.3</ele>
        <time>2020-09-05T09:39:02Z</time>
      </trkpt>
      <trkpt lat="45.14044" lon="-0.55741">
        <ele>39.3</ele>
        <time>2020-09-05T09:39:03Z</time>
      </trkpt>
      <trkpt lat="45.14044" lon="-0.5574">
        <ele>39.3</ele>
        <time>2020-09-05T09:39:04Z</time>
      </trkpt>
      <trkpt lat="45.14045" lon="-0.55738">
        <ele>39.3</ele>
        <time>2020-09-05T09:39:05Z</time>
      </trkpt>
      <trkpt lat="45.14044" lon="-0.55735">
        <ele>39.3</ele>
        <time>2020-09-05T09:39:08Z</time>
      </trkpt>
      <trkpt lat="45.14044" lon="-0.55732">
        <ele>39.4</ele>
        <time>2020-09-05T09:39:10Z</time>
      </trkpt>
      <trkpt lat="45.14044" lon="-0.55727">
        <ele>39.4</ele>
        <time>2020-09-05T09:39:12Z</time>
      </trkpt>
      <trkpt lat="45.14044" lon="-0.55726">
        <ele>39.4</ele>
        <time>2020-09-05T09:39:13Z</time>
      </trkpt>
      <trkpt lat="45.14043" lon="-0.55722">
        <ele>39.5</ele>
        <time>2020-09-05T09:39:15Z</time>
      </trkpt>
      <trkpt lat="45.14042" lon="-0.55718">
        <ele>39.6</ele>
        <time>2020-09-05T09:39:17Z</time>
      </trkpt>
      <trkpt lat="45.14042" lon="-0.55715">
        <ele>39.7</ele>
        <time>2020-09-05T09:39:19Z</time>
      </trkpt>
      <trkpt lat="45.14042" lon="-0.55713">
        <ele>39.7</ele>
        <time>2020-09-05T09:39:21Z</time>
      </trkpt>
      <trkpt lat="45.14042" lon="-0.5571">
        <ele>39.8</ele>
        <time>2020-09-05T09:39:22Z</time>
      </trkpt>
      <trkpt lat="45.14041" lon="-0.55708">
        <ele>39.8</ele>
        <time>2020-09-05T09:39:24Z</time>
      </trkpt>
      <trkpt lat="45.14041" lon="-0.55704">
        <ele>39.9</ele>
        <time>2020-09-05T09:39:25Z</time>
      </trkpt>
      <trkpt lat="45.1404" lon="-0.55704">
        <ele>40</ele>
        <time>2020-09-05T09:39:26Z</time>
      </trkpt>
      <trkpt lat="45.14038" lon="-0.55704">
        <ele>40</ele>
        <time>2020-09-05T09:39:28Z</time>
      </trkpt>
      <trkpt lat="45.14037" lon="-0.55704">
        <ele>39.9</ele>
        <time>2020-09-05T09:39:29Z</time>
      </trkpt>
      <trkpt lat="45.14036" lon="-0.55705">
        <ele>39.9</ele>
        <time>2020-09-05T09:39:30Z</time>
      </trkpt>
      <trkpt lat="45.14034" lon="-0.55705">
        <ele>39.9</ele>
        <time>2020-09-05T09:39:31Z</time>
      </trkpt>
      <trkpt lat="45.14034" lon="-0.55705">
        <ele>39.9</ele>
        <time>2020-09-05T09:39:32Z</time>
      </trkpt>
      <trkpt lat="45.14033" lon="-0.55706">
        <ele>39.9</ele>
        <time>2020-09-05T09:39:33Z</time>
      </trkpt>
      <trkpt lat="45.14032" lon="-0.55706">
        <ele>39.9</ele>
        <time>2020-09-05T09:39:34Z</time>
      </trkpt>
      <trkpt lat="45.14031" lon="-0.55706">
        <ele>39.9</ele>
        <time>2020-09-05T09:39:35Z</time>
      </trkpt>
      <trkpt lat="45.1403" lon="-0.55707">
        <ele>39.9</ele>
        <time>2020-09-05T09:39:36Z</time>
      </trkpt>
      <trkpt lat="45.14027" lon="-0.55708">
        <ele>39.9</ele>
        <time>2020-09-05T09:39:38Z</time>
      </trkpt>
      <trkpt lat="45.14026" lon="-0.55709">
        <ele>39.9</ele>
        <time>2020-09-05T09:39:39Z</time>
      </trkpt>
      <trkpt lat="45.14024" lon="-0.5571">
        <ele>39.9</ele>
        <time>2020-09-05T09:39:41Z</time>
      </trkpt>
      <trkpt lat="45.14022" lon="-0.55712">
        <ele>39.9</ele>
        <time>2020-09-05T09:39:42Z</time>
      </trkpt>
      <trkpt lat="45.14021" lon="-0.55712">
        <ele>39.9</ele>
        <time>2020-09-05T09:39:43Z</time>
      </trkpt>
      <trkpt lat="45.14019" lon="-0.55713">
        <ele>39.9</ele>
        <time>2020-09-05T09:39:44Z</time>
      </trkpt>
      <trkpt lat="45.14018" lon="-0.55714">
        <ele>39.9</ele>
        <time>2020-09-05T09:39:46Z</time>
      </trkpt>
      <trkpt lat="45.14016" lon="-0.55715">
        <ele>39.8</ele>
        <time>2020-09-05T09:39:48Z</time>
      </trkpt>
      <trkpt lat="45.14015" lon="-0.55716">
        <ele>39.8</ele>
        <time>2020-09-05T09:39:49Z</time>
      </trkpt>
      <trkpt lat="45.14012" lon="-0.55716">
        <ele>39.8</ele>
        <time>2020-09-05T09:39:51Z</time>
      </trkpt>
      <trkpt lat="45.14011" lon="-0.55717">
        <ele>39.8</ele>
        <time>2020-09-05T09:39:53Z</time>
      </trkpt>
      <trkpt lat="45.14009" lon="-0.55718">
        <ele>39.8</ele>
        <time>2020-09-05T09:39:54Z</time>
      </trkpt>
      <trkpt lat="45.14006" lon="-0.55719">
        <ele>39.8</ele>
        <time>2020-09-05T09:39:55Z</time>
      </trkpt>
      <trkpt lat="45.14005" lon="-0.5572">
        <ele>39.8</ele>
        <time>2020-09-05T09:39:57Z</time>
      </trkpt>
      <trkpt lat="45.14003" lon="-0.5572">
        <ele>39.8</ele>
        <time>2020-09-05T09:39:58Z</time>
      </trkpt>
      <trkpt lat="45.14001" lon="-0.55721">
        <ele>39.8</ele>
        <time>2020-09-05T09:40:00Z</time>
      </trkpt>
      <trkpt lat="45.13999" lon="-0.55722">
        <ele>39.8</ele>
        <time>2020-09-05T09:40:01Z</time>
      </trkpt>
      <trkpt lat="45.13998" lon="-0.55723">
        <ele>39.8</ele>
        <time>2020-09-05T09:40:02Z</time>
      </trkpt>
      <trkpt lat="45.13996" lon="-0.55723">
        <ele>39.8</ele>
        <time>2020-09-05T09:40:04Z</time>
      </trkpt>
      <trkpt lat="45.13995" lon="-0.55724">
        <ele>39.8</ele>
        <time>2020-09-05T09:40:05Z</time>
      </trkpt>
      <trkpt lat="45.13993" lon="-0.55726">
        <ele>39.9</ele>
        <time>2020-09-05T09:40:07Z</time>
      </trkpt>
      <trkpt lat="45.13992" lon="-0.55726">
        <ele>39.9</ele>
        <time>2020-09-05T09:40:08Z</time>
      </trkpt>
      <trkpt lat="45.1399" lon="-0.55727">
        <ele>39.9</ele>
        <time>2020-09-05T09:40:09Z</time>
      </trkpt>
      <trkpt lat="45.13989" lon="-0.55727">
        <ele>39.9</ele>
        <time>2020-09-05T09:40:10Z</time>
      </trkpt>
      <trkpt lat="45.13986" lon="-0.55729">
        <ele>39.9</ele>
        <time>2020-09-05T09:40:12Z</time>
      </trkpt>
      <trkpt lat="45.13986" lon="-0.5573">
        <ele>39.9</ele>
        <time>2020-09-05T09:40:13Z</time>
      </trkpt>
      <trkpt lat="45.13984" lon="-0.55731">
        <ele>39.9</ele>
        <time>2020-09-05T09:40:15Z</time>
      </trkpt>
      <trkpt lat="45.13981" lon="-0.55732">
        <ele>39.9</ele>
        <time>2020-09-05T09:40:17Z</time>
      </trkpt>
      <trkpt lat="45.13979" lon="-0.55733">
        <ele>39.9</ele>
        <time>2020-09-05T09:40:18Z</time>
      </trkpt>
      <trkpt lat="45.13977" lon="-0.55734">
        <ele>39.9</ele>
        <time>2020-09-05T09:40:19Z</time>
      </trkpt>
      <trkpt lat="45.13975" lon="-0.55736">
        <ele>39.9</ele>
        <time>2020-09-05T09:40:20Z</time>
      </trkpt>
      <trkpt lat="45.13974" lon="-0.55737">
        <ele>39.9</ele>
        <time>2020-09-05T09:40:22Z</time>
      </trkpt>
      <trkpt lat="45.13973" lon="-0.55738">
        <ele>39.9</ele>
        <time>2020-09-05T09:40:23Z</time>
      </trkpt>
      <trkpt lat="45.13973" lon="-0.5574">
        <ele>39.9</ele>
        <time>2020-09-05T09:40:24Z</time>
      </trkpt>
      <trkpt lat="45.13972" lon="-0.55741">
        <ele>39.9</ele>
        <time>2020-09-05T09:40:25Z</time>
      </trkpt>
      <trkpt lat="45.13972" lon="-0.55742">
        <ele>39.9</ele>
        <time>2020-09-05T09:40:27Z</time>
      </trkpt>
      <trkpt lat="45.13971" lon="-0.55744">
        <ele>39.9</ele>
        <time>2020-09-05T09:40:28Z</time>
      </trkpt>
      <trkpt lat="45.13971" lon="-0.55745">
        <ele>39.9</ele>
        <time>2020-09-05T09:40:29Z</time>
      </trkpt>
      <trkpt lat="45.1397" lon="-0.55746">
        <ele>39.9</ele>
        <time>2020-09-05T09:40:30Z</time>
      </trkpt>
      <trkpt lat="45.1397" lon="-0.55748">
        <ele>39.9</ele>
        <time>2020-09-05T09:40:31Z</time>
      </trkpt>
      <trkpt lat="45.1397" lon="-0.55749">
        <ele>39.9</ele>
        <time>2020-09-05T09:40:32Z</time>
      </trkpt>
      <trkpt lat="45.1397" lon="-0.55751">
        <ele>39.9</ele>
        <time>2020-09-05T09:40:34Z</time>
      </trkpt>
      <trkpt lat="45.13969" lon="-0.55754">
        <ele>39.9</ele>
        <time>2020-09-05T09:40:36Z</time>
      </trkpt>
      <trkpt lat="45.13969" lon="-0.55756">
        <ele>39.9</ele>
        <time>2020-09-05T09:40:37Z</time>
      </trkpt>
      <trkpt lat="45.13969" lon="-0.55758">
        <ele>39.9</ele>
        <time>2020-09-05T09:40:38Z</time>
      </trkpt>
      <trkpt lat="45.13969" lon="-0.55759">
        <ele>39.9</ele>
        <time>2020-09-05T09:40:40Z</time>
      </trkpt>
      <trkpt lat="45.13969" lon="-0.5576">
        <ele>39.9</ele>
        <time>2020-09-05T09:40:41Z</time>
      </trkpt>
      <trkpt lat="45.13969" lon="-0.55762">
        <ele>39.9</ele>
        <time>2020-09-05T09:40:42Z</time>
      </trkpt>
      <trkpt lat="45.13969" lon="-0.55765">
        <ele>39.9</ele>
        <time>2020-09-05T09:40:44Z</time>
      </trkpt>
      <trkpt lat="45.13969" lon="-0.55766">
        <ele>39.9</ele>
        <time>2020-09-05T09:40:45Z</time>
      </trkpt>
      <trkpt lat="45.13969" lon="-0.55769">
        <ele>39.9</ele>
        <time>2020-09-05T09:40:46Z</time>
      </trkpt>
      <trkpt lat="45.13969" lon="-0.55773">
        <ele>39.9</ele>
        <time>2020-09-05T09:40:47Z</time>
      </trkpt>
      <trkpt lat="45.13969" lon="-0.55775">
        <ele>39.9</ele>
        <time>2020-09-05T09:40:49Z</time>
      </trkpt>
      <trkpt lat="45.13969" lon="-0.55777">
        <ele>39.9</ele>
        <time>2020-09-05T09:40:51Z</time>
      </trkpt>
      <trkpt lat="45.13969" lon="-0.5578">
        <ele>39.9</ele>
        <time>2020-09-05T09:40:52Z</time>
      </trkpt>
      <trkpt lat="45.13969" lon="-0.55782">
        <ele>39.9</ele>
        <time>2020-09-05T09:40:53Z</time>
      </trkpt>
      <trkpt lat="45.13969" lon="-0.55784">
        <ele>39.9</ele>
        <time>2020-09-05T09:40:54Z</time>
      </trkpt>
      <trkpt lat="45.13968" lon="-0.55787">
        <ele>39.9</ele>
        <time>2020-09-05T09:40:56Z</time>
      </trkpt>
      <trkpt lat="45.13968" lon="-0.55787">
        <ele>39.9</ele>
        <time>2020-09-05T09:40:57Z</time>
      </trkpt>
      <trkpt lat="45.13968" lon="-0.55788">
        <ele>39.9</ele>
        <time>2020-09-05T09:40:59Z</time>
      </trkpt>
      <trkpt lat="45.13967" lon="-0.55789">
        <ele>39.9</ele>
        <time>2020-09-05T09:41:00Z</time>
      </trkpt>
      <trkpt lat="45.13967" lon="-0.5579">
        <ele>39.9</ele>
        <time>2020-09-05T09:41:01Z</time>
      </trkpt>
      <trkpt lat="45.13966" lon="-0.55791">
        <ele>39.9</ele>
        <time>2020-09-05T09:41:03Z</time>
      </trkpt>
      <trkpt lat="45.13966" lon="-0.55793">
        <ele>40</ele>
        <time>2020-09-05T09:41:05Z</time>
      </trkpt>
      <trkpt lat="45.13966" lon="-0.55795">
        <ele>40</ele>
        <time>2020-09-05T09:41:06Z</time>
      </trkpt>
      <trkpt lat="45.13966" lon="-0.55797">
        <ele>40</ele>
        <time>2020-09-05T09:41:08Z</time>
      </trkpt>
      <trkpt lat="45.13966" lon="-0.55799">
        <ele>40</ele>
        <time>2020-09-05T09:41:09Z</time>
      </trkpt>
      <trkpt lat="45.13966" lon="-0.55802">
        <ele>40</ele>
        <time>2020-09-05T09:41:11Z</time>
      </trkpt>
      <trkpt lat="45.13966" lon="-0.55805">
        <ele>40</ele>
        <time>2020-09-05T09:41:12Z</time>
      </trkpt>
      <trkpt lat="45.13965" lon="-0.55808">
        <ele>40</ele>
        <time>2020-09-05T09:41:14Z</time>
      </trkpt>
      <trkpt lat="45.13965" lon="-0.5581">
        <ele>40</ele>
        <time>2020-09-05T09:41:15Z</time>
      </trkpt>
      <trkpt lat="45.13965" lon="-0.55812">
        <ele>40</ele>
        <time>2020-09-05T09:41:16Z</time>
      </trkpt>
      <trkpt lat="45.13965" lon="-0.55816">
        <ele>40</ele>
        <time>2020-09-05T09:41:18Z</time>
      </trkpt>
      <trkpt lat="45.13964" lon="-0.5582">
        <ele>40</ele>
        <time>2020-09-05T09:41:20Z</time>
      </trkpt>
      <trkpt lat="45.13963" lon="-0.55824">
        <ele>40</ele>
        <time>2020-09-05T09:41:21Z</time>
      </trkpt>
      <trkpt lat="45.13963" lon="-0.55825">
        <ele>40</ele>
        <time>2020-09-05T09:41:22Z</time>
      </trkpt>
      <trkpt lat="45.13963" lon="-0.5583">
        <ele>40</ele>
        <time>2020-09-05T09:41:24Z</time>
      </trkpt>
      <trkpt lat="45.13963" lon="-0.55831">
        <ele>40</ele>
        <time>2020-09-05T09:41:25Z</time>
      </trkpt>
      <trkpt lat="45.13964" lon="-0.55838">
        <ele>40</ele>
        <time>2020-09-05T09:41:27Z</time>
      </trkpt>
      <trkpt lat="45.13965" lon="-0.55842">
        <ele>40</ele>
        <time>2020-09-05T09:41:28Z</time>
      </trkpt>
      <trkpt lat="45.13965" lon="-0.55844">
        <ele>40</ele>
        <time>2020-09-05T09:41:29Z</time>
      </trkpt>
      <trkpt lat="45.13965" lon="-0.55848">
        <ele>40</ele>
        <time>2020-09-05T09:41:31Z</time>
      </trkpt>
      <trkpt lat="45.13965" lon="-0.55849">
        <ele>40</ele>
        <time>2020-09-05T09:41:32Z</time>
      </trkpt>
      <trkpt lat="45.13965" lon="-0.55851">
        <ele>40</ele>
        <time>2020-09-05T09:41:33Z</time>
      </trkpt>
      <trkpt lat="45.13965" lon="-0.55853">
        <ele>40</ele>
        <time>2020-09-05T09:41:35Z</time>
      </trkpt>
      <trkpt lat="45.13965" lon="-0.55856">
        <ele>40</ele>
        <time>2020-09-05T09:41:36Z</time>
      </trkpt>
      <trkpt lat="45.13966" lon="-0.55859">
        <ele>40</ele>
        <time>2020-09-05T09:41:38Z</time>
      </trkpt>
      <trkpt lat="45.13965" lon="-0.55862">
        <ele>40.1</ele>
        <time>2020-09-05T09:41:40Z</time>
      </trkpt>
      <trkpt lat="45.13965" lon="-0.55864">
        <ele>40.1</ele>
        <time>2020-09-05T09:41:41Z</time>
      </trkpt>
      <trkpt lat="45.13965" lon="-0.55866">
        <ele>40.1</ele>
        <time>2020-09-05T09:41:42Z</time>
      </trkpt>
      <trkpt lat="45.13965" lon="-0.55868">
        <ele>40.1</ele>
        <time>2020-09-05T09:41:43Z</time>
      </trkpt>
      <trkpt lat="45.13964" lon="-0.5587">
        <ele>40.1</ele>
        <time>2020-09-05T09:41:45Z</time>
      </trkpt>
      <trkpt lat="45.13964" lon="-0.55872">
        <ele>40.1</ele>
        <time>2020-09-05T09:41:46Z</time>
      </trkpt>
      <trkpt lat="45.13964" lon="-0.55874">
        <ele>40.1</ele>
        <time>2020-09-05T09:41:47Z</time>
      </trkpt>
      <trkpt lat="45.13964" lon="-0.55876">
        <ele>40.1</ele>
        <time>2020-09-05T09:41:48Z</time>
      </trkpt>
      <trkpt lat="45.13964" lon="-0.55878">
        <ele>40.1</ele>
        <time>2020-09-05T09:41:50Z</time>
      </trkpt>
      <trkpt lat="45.13963" lon="-0.5588">
        <ele>40.1</ele>
        <time>2020-09-05T09:41:51Z</time>
      </trkpt>
      <trkpt lat="45.13963" lon="-0.55882">
        <ele>40.1</ele>
        <time>2020-09-05T09:41:52Z</time>
      </trkpt>
      <trkpt lat="45.13963" lon="-0.55884">
        <ele>40.1</ele>
        <time>2020-09-05T09:41:54Z</time>
      </trkpt>
      <trkpt lat="45.13963" lon="-0.55885">
        <ele>40.1</ele>
        <time>2020-09-05T09:41:55Z</time>
      </trkpt>
      <trkpt lat="45.13962" lon="-0.55888">
        <ele>40.1</ele>
        <time>2020-09-05T09:41:56Z</time>
      </trkpt>
      <trkpt lat="45.13962" lon="-0.55889">
        <ele>40.1</ele>
        <time>2020-09-05T09:41:57Z</time>
      </trkpt>
      <trkpt lat="45.13962" lon="-0.5589">
        <ele>40.1</ele>
        <time>2020-09-05T09:41:58Z</time>
      </trkpt>
      <trkpt lat="45.13962" lon="-0.55893">
        <ele>40.1</ele>
        <time>2020-09-05T09:42:00Z</time>
      </trkpt>
      <trkpt lat="45.13962" lon="-0.55897">
        <ele>40.1</ele>
        <time>2020-09-05T09:42:02Z</time>
      </trkpt>
      <trkpt lat="45.13962" lon="-0.55901">
        <ele>40.1</ele>
        <time>2020-09-05T09:42:04Z</time>
      </trkpt>
      <trkpt lat="45.13962" lon="-0.55904">
        <ele>40.1</ele>
        <time>2020-09-05T09:42:05Z</time>
      </trkpt>
      <trkpt lat="45.13962" lon="-0.55908">
        <ele>40.1</ele>
        <time>2020-09-05T09:42:07Z</time>
      </trkpt>
      <trkpt lat="45.13962" lon="-0.55912">
        <ele>40.1</ele>
        <time>2020-09-05T09:42:08Z</time>
      </trkpt>
      <trkpt lat="45.13962" lon="-0.55914">
        <ele>40.1</ele>
        <time>2020-09-05T09:42:09Z</time>
      </trkpt>
      <trkpt lat="45.13962" lon="-0.55918">
        <ele>40.1</ele>
        <time>2020-09-05T09:42:11Z</time>
      </trkpt>
      <trkpt lat="45.13962" lon="-0.55919">
        <ele>40.1</ele>
        <time>2020-09-05T09:42:12Z</time>
      </trkpt>
      <trkpt lat="45.13961" lon="-0.55922">
        <ele>40.1</ele>
        <time>2020-09-05T09:42:13Z</time>
      </trkpt>
      <trkpt lat="45.13961" lon="-0.55924">
        <ele>40.1</ele>
        <time>2020-09-05T09:42:15Z</time>
      </trkpt>
      <trkpt lat="45.13961" lon="-0.55927">
        <ele>40.1</ele>
        <time>2020-09-05T09:42:16Z</time>
      </trkpt>
      <trkpt lat="45.13961" lon="-0.5593">
        <ele>40.1</ele>
        <time>2020-09-05T09:42:18Z</time>
      </trkpt>
      <trkpt lat="45.13961" lon="-0.55933">
        <ele>40.2</ele>
        <time>2020-09-05T09:42:19Z</time>
      </trkpt>
      <trkpt lat="45.13961" lon="-0.55934">
        <ele>40.2</ele>
        <time>2020-09-05T09:42:20Z</time>
      </trkpt>
      <trkpt lat="45.1396" lon="-0.55935">
        <ele>40.2</ele>
        <time>2020-09-05T09:42:21Z</time>
      </trkpt>
      <trkpt lat="45.1396" lon="-0.55938">
        <ele>40.2</ele>
        <time>2020-09-05T09:42:22Z</time>
      </trkpt>
      <trkpt lat="45.1396" lon="-0.55939">
        <ele>40.2</ele>
        <time>2020-09-05T09:42:23Z</time>
      </trkpt>
      <trkpt lat="45.1396" lon="-0.5594">
        <ele>40.2</ele>
        <time>2020-09-05T09:42:24Z</time>
      </trkpt>
      <trkpt lat="45.13959" lon="-0.55943">
        <ele>40.2</ele>
        <time>2020-09-05T09:42:26Z</time>
      </trkpt>
      <trkpt lat="45.13959" lon="-0.55945">
        <ele>40.2</ele>
        <time>2020-09-05T09:42:27Z</time>
      </trkpt>
      <trkpt lat="45.13959" lon="-0.55946">
        <ele>40.2</ele>
        <time>2020-09-05T09:42:28Z</time>
      </trkpt>
      <trkpt lat="45.13958" lon="-0.55947">
        <ele>40.2</ele>
        <time>2020-09-05T09:42:29Z</time>
      </trkpt>
      <trkpt lat="45.13958" lon="-0.55948">
        <ele>40.2</ele>
        <time>2020-09-05T09:42:30Z</time>
      </trkpt>
      <trkpt lat="45.13957" lon="-0.5595">
        <ele>40.2</ele>
        <time>2020-09-05T09:42:31Z</time>
      </trkpt>
      <trkpt lat="45.13957" lon="-0.55951">
        <ele>40.2</ele>
        <time>2020-09-05T09:42:32Z</time>
      </trkpt>
      <trkpt lat="45.13956" lon="-0.55954">
        <ele>40.2</ele>
        <time>2020-09-05T09:42:33Z</time>
      </trkpt>
      <trkpt lat="45.13956" lon="-0.55955">
        <ele>40.2</ele>
        <time>2020-09-05T09:42:34Z</time>
      </trkpt>
      <trkpt lat="45.13956" lon="-0.55956">
        <ele>40.2</ele>
        <time>2020-09-05T09:42:35Z</time>
      </trkpt>
      <trkpt lat="45.13955" lon="-0.55958">
        <ele>40.2</ele>
        <time>2020-09-05T09:42:36Z</time>
      </trkpt>
      <trkpt lat="45.13955" lon="-0.55959">
        <ele>40.2</ele>
        <time>2020-09-05T09:42:37Z</time>
      </trkpt>
      <trkpt lat="45.13954" lon="-0.55961">
        <ele>40.2</ele>
        <time>2020-09-05T09:42:38Z</time>
      </trkpt>
      <trkpt lat="45.13954" lon="-0.55963">
        <ele>40.2</ele>
        <time>2020-09-05T09:42:40Z</time>
      </trkpt>
      <trkpt lat="45.13953" lon="-0.55964">
        <ele>40.2</ele>
        <time>2020-09-05T09:42:41Z</time>
      </trkpt>
      <trkpt lat="45.13952" lon="-0.55969">
        <ele>40.2</ele>
        <time>2020-09-05T09:42:43Z</time>
      </trkpt>
      <trkpt lat="45.13952" lon="-0.55971">
        <ele>40.2</ele>
        <time>2020-09-05T09:42:44Z</time>
      </trkpt>
      <trkpt lat="45.13951" lon="-0.55973">
        <ele>40.2</ele>
        <time>2020-09-05T09:42:45Z</time>
      </trkpt>
      <trkpt lat="45.13951" lon="-0.55978">
        <ele>40.2</ele>
        <time>2020-09-05T09:42:47Z</time>
      </trkpt>
      <trkpt lat="45.1395" lon="-0.55979">
        <ele>40.2</ele>
        <time>2020-09-05T09:42:48Z</time>
      </trkpt>
      <trkpt lat="45.1395" lon="-0.55981">
        <ele>40.2</ele>
        <time>2020-09-05T09:42:50Z</time>
      </trkpt>
      <trkpt lat="45.13949" lon="-0.55983">
        <ele>40.2</ele>
        <time>2020-09-05T09:42:51Z</time>
      </trkpt>
      <trkpt lat="45.13948" lon="-0.55988">
        <ele>40.2</ele>
        <time>2020-09-05T09:42:53Z</time>
      </trkpt>
      <trkpt lat="45.13948" lon="-0.55989">
        <ele>40.2</ele>
        <time>2020-09-05T09:42:54Z</time>
      </trkpt>
      <trkpt lat="45.13947" lon="-0.55992">
        <ele>40.2</ele>
        <time>2020-09-05T09:42:55Z</time>
      </trkpt>
      <trkpt lat="45.13947" lon="-0.55993">
        <ele>40.2</ele>
        <time>2020-09-05T09:42:56Z</time>
      </trkpt>
      <trkpt lat="45.13946" lon="-0.55995">
        <ele>40.2</ele>
        <time>2020-09-05T09:42:57Z</time>
      </trkpt>
      <trkpt lat="45.13946" lon="-0.55996">
        <ele>40.2</ele>
        <time>2020-09-05T09:42:58Z</time>
      </trkpt>
      <trkpt lat="45.13946" lon="-0.55997">
        <ele>40.3</ele>
        <time>2020-09-05T09:42:59Z</time>
      </trkpt>
      <trkpt lat="45.13945" lon="-0.55998">
        <ele>40.3</ele>
        <time>2020-09-05T09:43:01Z</time>
      </trkpt>
      <trkpt lat="45.13945" lon="-0.56">
        <ele>40.3</ele>
        <time>2020-09-05T09:43:02Z</time>
      </trkpt>
      <trkpt lat="45.13944" lon="-0.56002">
        <ele>40.3</ele>
        <time>2020-09-05T09:43:03Z</time>
      </trkpt>
      <trkpt lat="45.13944" lon="-0.56004">
        <ele>40.3</ele>
        <time>2020-09-05T09:43:04Z</time>
      </trkpt>
      <trkpt lat="45.13943" lon="-0.56005">
        <ele>40.3</ele>
        <time>2020-09-05T09:43:05Z</time>
      </trkpt>
      <trkpt lat="45.13943" lon="-0.56006">
        <ele>40.3</ele>
        <time>2020-09-05T09:43:06Z</time>
      </trkpt>
      <trkpt lat="45.13942" lon="-0.56008">
        <ele>40.3</ele>
        <time>2020-09-05T09:43:07Z</time>
      </trkpt>
      <trkpt lat="45.13942" lon="-0.56011">
        <ele>40.3</ele>
        <time>2020-09-05T09:43:08Z</time>
      </trkpt>
      <trkpt lat="45.13941" lon="-0.56012">
        <ele>40.3</ele>
        <time>2020-09-05T09:43:09Z</time>
      </trkpt>
      <trkpt lat="45.13941" lon="-0.56014">
        <ele>40.3</ele>
        <time>2020-09-05T09:43:11Z</time>
      </trkpt>
      <trkpt lat="45.13941" lon="-0.56017">
        <ele>40.3</ele>
        <time>2020-09-05T09:43:13Z</time>
      </trkpt>
      <trkpt lat="45.1394" lon="-0.5602">
        <ele>40.3</ele>
        <time>2020-09-05T09:43:15Z</time>
      </trkpt>
      <trkpt lat="45.1394" lon="-0.56022">
        <ele>40.3</ele>
        <time>2020-09-05T09:43:16Z</time>
      </trkpt>
      <trkpt lat="45.1394" lon="-0.56026">
        <ele>40.3</ele>
        <time>2020-09-05T09:43:17Z</time>
      </trkpt>
      <trkpt lat="45.13939" lon="-0.56028">
        <ele>40.3</ele>
        <time>2020-09-05T09:43:19Z</time>
      </trkpt>
      <trkpt lat="45.13939" lon="-0.56031">
        <ele>40.3</ele>
        <time>2020-09-05T09:43:21Z</time>
      </trkpt>
      <trkpt lat="45.13939" lon="-0.56032">
        <ele>40.3</ele>
        <time>2020-09-05T09:43:22Z</time>
      </trkpt>
      <trkpt lat="45.13938" lon="-0.56036">
        <ele>40.3</ele>
        <time>2020-09-05T09:43:24Z</time>
      </trkpt>
      <trkpt lat="45.13938" lon="-0.5604">
        <ele>40.3</ele>
        <time>2020-09-05T09:43:25Z</time>
      </trkpt>
      <trkpt lat="45.13938" lon="-0.56041">
        <ele>40.3</ele>
        <time>2020-09-05T09:43:26Z</time>
      </trkpt>
      <trkpt lat="45.13937" lon="-0.56044">
        <ele>40.3</ele>
        <time>2020-09-05T09:43:27Z</time>
      </trkpt>
      <trkpt lat="45.13937" lon="-0.56046">
        <ele>40.3</ele>
        <time>2020-09-05T09:43:28Z</time>
      </trkpt>
      <trkpt lat="45.13936" lon="-0.56047">
        <ele>40.3</ele>
        <time>2020-09-05T09:43:29Z</time>
      </trkpt>
      <trkpt lat="45.13936" lon="-0.56049">
        <ele>40.3</ele>
        <time>2020-09-05T09:43:30Z</time>
      </trkpt>
      <trkpt lat="45.13936" lon="-0.5605">
        <ele>40.3</ele>
        <time>2020-09-05T09:43:32Z</time>
      </trkpt>
      <trkpt lat="45.13936" lon="-0.56051">
        <ele>40.3</ele>
        <time>2020-09-05T09:43:33Z</time>
      </trkpt>
      <trkpt lat="45.13935" lon="-0.56053">
        <ele>40.3</ele>
        <time>2020-09-05T09:43:34Z</time>
      </trkpt>
      <trkpt lat="45.13935" lon="-0.56054">
        <ele>40.3</ele>
        <time>2020-09-05T09:43:35Z</time>
      </trkpt>
      <trkpt lat="45.13935" lon="-0.56057">
        <ele>40.3</ele>
        <time>2020-09-05T09:43:36Z</time>
      </trkpt>
      <trkpt lat="45.13935" lon="-0.56059">
        <ele>40.3</ele>
        <time>2020-09-05T09:43:37Z</time>
      </trkpt>
      <trkpt lat="45.13935" lon="-0.5606">
        <ele>40.3</ele>
        <time>2020-09-05T09:43:38Z</time>
      </trkpt>
      <trkpt lat="45.13935" lon="-0.56061">
        <ele>40.3</ele>
        <time>2020-09-05T09:43:39Z</time>
      </trkpt>
      <trkpt lat="45.13935" lon="-0.56063">
        <ele>40.3</ele>
        <time>2020-09-05T09:43:40Z</time>
      </trkpt>
      <trkpt lat="45.13935" lon="-0.56065">
        <ele>40.4</ele>
        <time>2020-09-05T09:43:41Z</time>
      </trkpt>
      <trkpt lat="45.13935" lon="-0.5607">
        <ele>40.4</ele>
        <time>2020-09-05T09:43:43Z</time>
      </trkpt>
      <trkpt lat="45.13936" lon="-0.56071">
        <ele>40.4</ele>
        <time>2020-09-05T09:43:44Z</time>
      </trkpt>
      <trkpt lat="45.13936" lon="-0.56073">
        <ele>40.4</ele>
        <time>2020-09-05T09:43:46Z</time>
      </trkpt>
      <trkpt lat="45.13936" lon="-0.56074">
        <ele>40.4</ele>
        <time>2020-09-05T09:43:47Z</time>
      </trkpt>
      <trkpt lat="45.13937" lon="-0.56078">
        <ele>40.4</ele>
        <time>2020-09-05T09:43:49Z</time>
      </trkpt>
      <trkpt lat="45.13937" lon="-0.56079">
        <ele>40.4</ele>
        <time>2020-09-05T09:43:50Z</time>
      </trkpt>
      <trkpt lat="45.13937" lon="-0.56081">
        <ele>40.4</ele>
        <time>2020-09-05T09:43:51Z</time>
      </trkpt>
      <trkpt lat="45.13938" lon="-0.56084">
        <ele>40.4</ele>
        <time>2020-09-05T09:43:53Z</time>
      </trkpt>
      <trkpt lat="45.13939" lon="-0.56085">
        <ele>40.4</ele>
        <time>2020-09-05T09:43:54Z</time>
      </trkpt>
      <trkpt lat="45.13939" lon="-0.56085">
        <ele>40.4</ele>
        <time>2020-09-05T09:43:55Z</time>
      </trkpt>
      <trkpt lat="45.13939" lon="-0.56086">
        <ele>40.4</ele>
        <time>2020-09-05T09:43:56Z</time>
      </trkpt>
      <trkpt lat="45.1394" lon="-0.56089">
        <ele>40.4</ele>
        <time>2020-09-05T09:43:58Z</time>
      </trkpt>
      <trkpt lat="45.13941" lon="-0.56091">
        <ele>40.4</ele>
        <time>2020-09-05T09:44:00Z</time>
      </trkpt>
      <trkpt lat="45.13941" lon="-0.56093">
        <ele>40.4</ele>
        <time>2020-09-05T09:44:01Z</time>
      </trkpt>
      <trkpt lat="45.13942" lon="-0.56097">
        <ele>40.4</ele>
        <time>2020-09-05T09:44:03Z</time>
      </trkpt>
      <trkpt lat="45.13942" lon="-0.56096">
        <ele>40.4</ele>
        <time>2020-09-05T09:44:05Z</time>
      </trkpt>
      <trkpt lat="45.13942" lon="-0.56096">
        <ele>40.4</ele>
        <time>2020-09-05T09:44:07Z</time>
      </trkpt>
      <trkpt lat="45.13941" lon="-0.56094">
        <ele>40.4</ele>
        <time>2020-09-05T09:44:09Z</time>
      </trkpt>
      <trkpt lat="45.13941" lon="-0.56094">
        <ele>40.4</ele>
        <time>2020-09-05T09:44:11Z</time>
      </trkpt>
      <trkpt lat="45.13941" lon="-0.56093">
        <ele>40.4</ele>
        <time>2020-09-05T09:44:12Z</time>
      </trkpt>
      <trkpt lat="45.13941" lon="-0.56093">
        <ele>40.4</ele>
        <time>2020-09-05T09:44:13Z</time>
      </trkpt>
      <trkpt lat="45.13941" lon="-0.56093">
        <ele>40.4</ele>
        <time>2020-09-05T09:44:14Z</time>
      </trkpt>
      <trkpt lat="45.13941" lon="-0.56092">
        <ele>40.4</ele>
        <time>2020-09-05T09:44:16Z</time>
      </trkpt>
      <trkpt lat="45.13941" lon="-0.56092">
        <ele>40.4</ele>
        <time>2020-09-05T09:44:17Z</time>
      </trkpt>
      <trkpt lat="45.13941" lon="-0.56091">
        <ele>40.4</ele>
        <time>2020-09-05T09:44:18Z</time>
      </trkpt>
      <trkpt lat="45.13941" lon="-0.56091">
        <ele>40.4</ele>
        <time>2020-09-05T09:44:19Z</time>
      </trkpt>
      <trkpt lat="45.13941" lon="-0.56091">
        <ele>40.4</ele>
        <time>2020-09-05T09:44:21Z</time>
      </trkpt>
      <trkpt lat="45.13942" lon="-0.56093">
        <ele>40.4</ele>
        <time>2020-09-05T09:44:22Z</time>
      </trkpt>
      <trkpt lat="45.13943" lon="-0.56095">
        <ele>40.4</ele>
        <time>2020-09-05T09:44:24Z</time>
      </trkpt>
      <trkpt lat="45.13944" lon="-0.56096">
        <ele>40.4</ele>
        <time>2020-09-05T09:44:25Z</time>
      </trkpt>
      <trkpt lat="45.13945" lon="-0.56098">
        <ele>40.4</ele>
        <time>2020-09-05T09:44:27Z</time>
      </trkpt>
      <trkpt lat="45.13946" lon="-0.561">
        <ele>40.4</ele>
        <time>2020-09-05T09:44:29Z</time>
      </trkpt>
      <trkpt lat="45.13945" lon="-0.561">
        <ele>40.4</ele>
        <time>2020-09-05T09:44:30Z</time>
      </trkpt>
      <trkpt lat="45.13945" lon="-0.56099">
        <ele>40.4</ele>
        <time>2020-09-05T09:44:31Z</time>
      </trkpt>
      <trkpt lat="45.13945" lon="-0.561">
        <ele>40.4</ele>
        <time>2020-09-05T09:44:33Z</time>
      </trkpt>
      <trkpt lat="45.13946" lon="-0.56102">
        <ele>40.4</ele>
        <time>2020-09-05T09:44:34Z</time>
      </trkpt>
      <trkpt lat="45.13947" lon="-0.56106">
        <ele>40.4</ele>
        <time>2020-09-05T09:44:36Z</time>
      </trkpt>
      <trkpt lat="45.13948" lon="-0.56108">
        <ele>40.4</ele>
        <time>2020-09-05T09:44:37Z</time>
      </trkpt>
      <trkpt lat="45.1395" lon="-0.56112">
        <ele>40.4</ele>
        <time>2020-09-05T09:44:39Z</time>
      </trkpt>
      <trkpt lat="45.13951" lon="-0.56114">
        <ele>40.4</ele>
        <time>2020-09-05T09:44:40Z</time>
      </trkpt>
      <trkpt lat="45.13952" lon="-0.56116">
        <ele>40.4</ele>
        <time>2020-09-05T09:44:42Z</time>
      </trkpt>
      <trkpt lat="45.13952" lon="-0.56118">
        <ele>40.5</ele>
        <time>2020-09-05T09:44:43Z</time>
      </trkpt>
      <trkpt lat="45.13953" lon="-0.5612">
        <ele>40.5</ele>
        <time>2020-09-05T09:44:44Z</time>
      </trkpt>
      <trkpt lat="45.13954" lon="-0.56122">
        <ele>40.5</ele>
        <time>2020-09-05T09:44:45Z</time>
      </trkpt>
      <trkpt lat="45.13954" lon="-0.56123">
        <ele>40.5</ele>
        <time>2020-09-05T09:44:46Z</time>
      </trkpt>
      <trkpt lat="45.13955" lon="-0.56125">
        <ele>40.5</ele>
        <time>2020-09-05T09:44:47Z</time>
      </trkpt>
      <trkpt lat="45.13955" lon="-0.56126">
        <ele>40.5</ele>
        <time>2020-09-05T09:44:48Z</time>
      </trkpt>
      <trkpt lat="45.13956" lon="-0.56127">
        <ele>40.5</ele>
        <time>2020-09-05T09:44:49Z</time>
      </trkpt>
      <trkpt lat="45.13956" lon="-0.56128">
        <ele>40.5</ele>
        <time>2020-09-05T09:44:51Z</time>
      </trkpt>
      <trkpt lat="45.13956" lon="-0.56129">
        <ele>40.5</ele>
        <time>2020-09-05T09:44:52Z</time>
      </trkpt>
      <trkpt lat="45.13956" lon="-0.5613">
        <ele>40.5</ele>
        <time>2020-09-05T09:44:53Z</time>
      </trkpt>
      <trkpt lat="45.13957" lon="-0.56132">
        <ele>40.5</ele>
        <time>2020-09-05T09:44:54Z</time>
      </trkpt>
      <trkpt lat="45.13958" lon="-0.56134">
        <ele>40.5</ele>
        <time>2020-09-05T09:44:55Z</time>
      </trkpt>
      <trkpt lat="45.13958" lon="-0.56136">
        <ele>40.5</ele>
        <time>2020-09-05T09:44:56Z</time>
      </trkpt>
      <trkpt lat="45.13959" lon="-0.56138">
        <ele>40.5</ele>
        <time>2020-09-05T09:44:57Z</time>
      </trkpt>
      <trkpt lat="45.1396" lon="-0.5614">
        <ele>40.5</ele>
        <time>2020-09-05T09:44:58Z</time>
      </trkpt>
      <trkpt lat="45.1396" lon="-0.56142">
        <ele>40.5</ele>
        <time>2020-09-05T09:44:59Z</time>
      </trkpt>
      <trkpt lat="45.13961" lon="-0.56144">
        <ele>40.5</ele>
        <time>2020-09-05T09:45:00Z</time>
      </trkpt>
      <trkpt lat="45.13961" lon="-0.56147">
        <ele>40.5</ele>
        <time>2020-09-05T09:45:01Z</time>
      </trkpt>
      <trkpt lat="45.13962" lon="-0.5615">
        <ele>40.5</ele>
        <time>2020-09-05T09:45:03Z</time>
      </trkpt>
      <trkpt lat="45.13962" lon="-0.56152">
        <ele>40.5</ele>
        <time>2020-09-05T09:45:04Z</time>
      </trkpt>
      <trkpt lat="45.13962" lon="-0.56154">
        <ele>40.5</ele>
        <time>2020-09-05T09:45:05Z</time>
      </trkpt>
      <trkpt lat="45.13963" lon="-0.56157">
        <ele>40.5</ele>
        <time>2020-09-05T09:45:06Z</time>
      </trkpt>
      <trkpt lat="45.13963" lon="-0.56159">
        <ele>40.5</ele>
        <time>2020-09-05T09:45:08Z</time>
      </trkpt>
      <trkpt lat="45.13964" lon="-0.56161">
        <ele>40.5</ele>
        <time>2020-09-05T09:45:09Z</time>
      </trkpt>
      <trkpt lat="45.13965" lon="-0.56163">
        <ele>40.5</ele>
        <time>2020-09-05T09:45:11Z</time>
      </trkpt>
      <trkpt lat="45.13965" lon="-0.56165">
        <ele>40.5</ele>
        <time>2020-09-05T09:45:12Z</time>
      </trkpt>
      <trkpt lat="45.13966" lon="-0.56167">
        <ele>40.5</ele>
        <time>2020-09-05T09:45:13Z</time>
      </trkpt>
      <trkpt lat="45.13966" lon="-0.56169">
        <ele>40.5</ele>
        <time>2020-09-05T09:45:14Z</time>
      </trkpt>
      <trkpt lat="45.13966" lon="-0.56171">
        <ele>40.5</ele>
        <time>2020-09-05T09:45:15Z</time>
      </trkpt>
      <trkpt lat="45.13966" lon="-0.56172">
        <ele>40.5</ele>
        <time>2020-09-05T09:45:16Z</time>
      </trkpt>
      <trkpt lat="45.13966" lon="-0.56176">
        <ele>40.5</ele>
        <time>2020-09-05T09:45:18Z</time>
      </trkpt>
      <trkpt lat="45.13966" lon="-0.56177">
        <ele>40.5</ele>
        <time>2020-09-05T09:45:19Z</time>
      </trkpt>
      <trkpt lat="45.13967" lon="-0.56181">
        <ele>40.5</ele>
        <time>2020-09-05T09:45:21Z</time>
      </trkpt>
      <trkpt lat="45.13967" lon="-0.56182">
        <ele>40.6</ele>
        <time>2020-09-05T09:45:22Z</time>
      </trkpt>
      <trkpt lat="45.13968" lon="-0.56185">
        <ele>40.6</ele>
        <time>2020-09-05T09:45:24Z</time>
      </trkpt>
      <trkpt lat="45.13968" lon="-0.56186">
        <ele>40.6</ele>
        <time>2020-09-05T09:45:25Z</time>
      </trkpt>
      <trkpt lat="45.13969" lon="-0.56188">
        <ele>40.6</ele>
        <time>2020-09-05T09:45:26Z</time>
      </trkpt>
      <trkpt lat="45.13969" lon="-0.5619">
        <ele>40.6</ele>
        <time>2020-09-05T09:45:27Z</time>
      </trkpt>
      <trkpt lat="45.13969" lon="-0.56194">
        <ele>40.6</ele>
        <time>2020-09-05T09:45:29Z</time>
      </trkpt>
      <trkpt lat="45.13969" lon="-0.56195">
        <ele>40.6</ele>
        <time>2020-09-05T09:45:30Z</time>
      </trkpt>
      <trkpt lat="45.13969" lon="-0.56197">
        <ele>40.6</ele>
        <time>2020-09-05T09:45:31Z</time>
      </trkpt>
      <trkpt lat="45.13969" lon="-0.56199">
        <ele>40.6</ele>
        <time>2020-09-05T09:45:32Z</time>
      </trkpt>
      <trkpt lat="45.13969" lon="-0.56202">
        <ele>40.6</ele>
        <time>2020-09-05T09:45:33Z</time>
      </trkpt>
      <trkpt lat="45.13969" lon="-0.56204">
        <ele>40.6</ele>
        <time>2020-09-05T09:45:35Z</time>
      </trkpt>
      <trkpt lat="45.13969" lon="-0.56207">
        <ele>40.6</ele>
        <time>2020-09-05T09:45:36Z</time>
      </trkpt>
      <trkpt lat="45.13969" lon="-0.56209">
        <ele>40.6</ele>
        <time>2020-09-05T09:45:37Z</time>
      </trkpt>
      <trkpt lat="45.13969" lon="-0.56213">
        <ele>40.6</ele>
        <time>2020-09-05T09:45:39Z</time>
      </trkpt>
      <trkpt lat="45.13969" lon="-0.56214">
        <ele>40.6</ele>
        <time>2020-09-05T09:45:40Z</time>
      </trkpt>
      <trkpt lat="45.13969" lon="-0.56217">
        <ele>40.6</ele>
        <time>2020-09-05T09:45:41Z</time>
      </trkpt>
      <trkpt lat="45.13969" lon="-0.5622">
        <ele>40.6</ele>
        <time>2020-09-05T09:45:43Z</time>
      </trkpt>
      <trkpt lat="45.13969" lon="-0.56222">
        <ele>40.6</ele>
        <time>2020-09-05T09:45:44Z</time>
      </trkpt>
      <trkpt lat="45.13969" lon="-0.56225">
        <ele>40.6</ele>
        <time>2020-09-05T09:45:46Z</time>
      </trkpt>
      <trkpt lat="45.13969" lon="-0.56227">
        <ele>40.6</ele>
        <time>2020-09-05T09:45:47Z</time>
      </trkpt>
      <trkpt lat="45.13968" lon="-0.56229">
        <ele>40.6</ele>
        <time>2020-09-05T09:45:48Z</time>
      </trkpt>
      <trkpt lat="45.13968" lon="-0.56231">
        <ele>40.6</ele>
        <time>2020-09-05T09:45:49Z</time>
      </trkpt>
      <trkpt lat="45.13968" lon="-0.56232">
        <ele>40.6</ele>
        <time>2020-09-05T09:45:51Z</time>
      </trkpt>
      <trkpt lat="45.13967" lon="-0.56234">
        <ele>40.6</ele>
        <time>2020-09-05T09:45:52Z</time>
      </trkpt>
      <trkpt lat="45.13967" lon="-0.56236">
        <ele>40.6</ele>
        <time>2020-09-05T09:45:53Z</time>
      </trkpt>
      <trkpt lat="45.13966" lon="-0.56237">
        <ele>40.6</ele>
        <time>2020-09-05T09:45:54Z</time>
      </trkpt>
      <trkpt lat="45.13965" lon="-0.56239">
        <ele>40.6</ele>
        <time>2020-09-05T09:45:55Z</time>
      </trkpt>
      <trkpt lat="45.13964" lon="-0.5624">
        <ele>40.6</ele>
        <time>2020-09-05T09:45:56Z</time>
      </trkpt>
      <trkpt lat="45.13963" lon="-0.56242">
        <ele>40.6</ele>
        <time>2020-09-05T09:45:57Z</time>
      </trkpt>
      <trkpt lat="45.13962" lon="-0.56244">
        <ele>40.6</ele>
        <time>2020-09-05T09:45:58Z</time>
      </trkpt>
      <trkpt lat="45.13962" lon="-0.56246">
        <ele>40.6</ele>
        <time>2020-09-05T09:46:00Z</time>
      </trkpt>
      <trkpt lat="45.13961" lon="-0.56248">
        <ele>40.6</ele>
        <time>2020-09-05T09:46:01Z</time>
      </trkpt>
      <trkpt lat="45.13959" lon="-0.56249">
        <ele>40.7</ele>
        <time>2020-09-05T09:46:03Z</time>
      </trkpt>
      <trkpt lat="45.13958" lon="-0.56251">
        <ele>40.7</ele>
        <time>2020-09-05T09:46:04Z</time>
      </trkpt>
      <trkpt lat="45.13957" lon="-0.56254">
        <ele>40.7</ele>
        <time>2020-09-05T09:46:05Z</time>
      </trkpt>
      <trkpt lat="45.13957" lon="-0.56255">
        <ele>40.7</ele>
        <time>2020-09-05T09:46:06Z</time>
      </trkpt>
      <trkpt lat="45.13956" lon="-0.56256">
        <ele>40.7</ele>
        <time>2020-09-05T09:46:07Z</time>
      </trkpt>
      <trkpt lat="45.13955" lon="-0.56258">
        <ele>40.7</ele>
        <time>2020-09-05T09:46:08Z</time>
      </trkpt>
      <trkpt lat="45.13955" lon="-0.5626">
        <ele>40.7</ele>
        <time>2020-09-05T09:46:10Z</time>
      </trkpt>
      <trkpt lat="45.13954" lon="-0.56261">
        <ele>40.7</ele>
        <time>2020-09-05T09:46:11Z</time>
      </trkpt>
      <trkpt lat="45.13954" lon="-0.56262">
        <ele>40.7</ele>
        <time>2020-09-05T09:46:12Z</time>
      </trkpt>
      <trkpt lat="45.13953" lon="-0.56265">
        <ele>40.7</ele>
        <time>2020-09-05T09:46:13Z</time>
      </trkpt>
      <trkpt lat="45.13952" lon="-0.56268">
        <ele>40.7</ele>
        <time>2020-09-05T09:46:15Z</time>
      </trkpt>
      <trkpt lat="45.13951" lon="-0.56271">
        <ele>40.7</ele>
        <time>2020-09-05T09:46:17Z</time>
      </trkpt>
      <trkpt lat="45.13951" lon="-0.56272">
        <ele>40.7</ele>
        <time>2020-09-05T09:46:18Z</time>
      </trkpt>
      <trkpt lat="45.1395" lon="-0.56274">
        <ele>40.7</ele>
        <time>2020-09-05T09:46:19Z</time>
      </trkpt>
      <trkpt lat="45.13949" lon="-0.56276">
        <ele>40.7</ele>
        <time>2020-09-05T09:46:21Z</time>
      </trkpt>
      <trkpt lat="45.13948" lon="-0.56278">
        <ele>40.7</ele>
        <time>2020-09-05T09:46:22Z</time>
      </trkpt>
      <trkpt lat="45.13948" lon="-0.5628">
        <ele>40.7</ele>
        <time>2020-09-05T09:46:23Z</time>
      </trkpt>
      <trkpt lat="45.13947" lon="-0.56283">
        <ele>40.7</ele>
        <time>2020-09-05T09:46:25Z</time>
      </trkpt>
      <trkpt lat="45.13947" lon="-0.56284">
        <ele>40.7</ele>
        <time>2020-09-05T09:46:26Z</time>
      </trkpt>
      <trkpt lat="45.13947" lon="-0.56286">
        <ele>40.7</ele>
        <time>2020-09-05T09:46:27Z</time>
      </trkpt>
      <trkpt lat="45.13946" lon="-0.56288">
        <ele>40.7</ele>
        <time>2020-09-05T09:46:28Z</time>
      </trkpt>
      <trkpt lat="45.13946" lon="-0.5629">
        <ele>40.7</ele>
        <time>2020-09-05T09:46:29Z</time>
      </trkpt>
      <trkpt lat="45.13946" lon="-0.56293">
        <ele>40.7</ele>
        <time>2020-09-05T09:46:30Z</time>
      </trkpt>
      <trkpt lat="45.13946" lon="-0.56294">
        <ele>40.7</ele>
        <time>2020-09-05T09:46:31Z</time>
      </trkpt>
      <trkpt lat="45.13947" lon="-0.56295">
        <ele>40.7</ele>
        <time>2020-09-05T09:46:32Z</time>
      </trkpt>
      <trkpt lat="45.13947" lon="-0.56299">
        <ele>40.7</ele>
        <time>2020-09-05T09:46:33Z</time>
      </trkpt>
      <trkpt lat="45.13947" lon="-0.56301">
        <ele>40.7</ele>
        <time>2020-09-05T09:46:34Z</time>
      </trkpt>
      <trkpt lat="45.13948" lon="-0.56305">
        <ele>40.7</ele>
        <time>2020-09-05T09:46:36Z</time>
      </trkpt>
      <trkpt lat="45.13948" lon="-0.56306">
        <ele>40.7</ele>
        <time>2020-09-05T09:46:37Z</time>
      </trkpt>
      <trkpt lat="45.13948" lon="-0.56309">
        <ele>40.7</ele>
        <time>2020-09-05T09:46:39Z</time>
      </trkpt>
      <trkpt lat="45.13948" lon="-0.56311">
        <ele>40.7</ele>
        <time>2020-09-05T09:46:40Z</time>
      </trkpt>
      <trkpt lat="45.13949" lon="-0.56313">
        <ele>40.8</ele>
        <time>2020-09-05T09:46:41Z</time>
      </trkpt>
      <trkpt lat="45.13949" lon="-0.56316">
        <ele>40.8</ele>
        <time>2020-09-05T09:46:43Z</time>
      </trkpt>
      <trkpt lat="45.13949" lon="-0.56318">
        <ele>40.8</ele>
        <time>2020-09-05T09:46:44Z</time>
      </trkpt>
      <trkpt lat="45.1395" lon="-0.5632">
        <ele>40.8</ele>
        <time>2020-09-05T09:46:45Z</time>
      </trkpt>
      <trkpt lat="45.1395" lon="-0.56323">
        <ele>40.8</ele>
        <time>2020-09-05T09:46:47Z</time>
      </trkpt>
      <trkpt lat="45.1395" lon="-0.56324">
        <ele>40.8</ele>
        <time>2020-09-05T09:46:48Z</time>
      </trkpt>
      <trkpt lat="45.1395" lon="-0.56325">
        <ele>40.8</ele>
        <time>2020-09-05T09:46:49Z</time>
      </trkpt>
      <trkpt lat="45.1395" lon="-0.56328">
        <ele>40.8</ele>
        <time>2020-09-05T09:46:51Z</time>
      </trkpt>
      <trkpt lat="45.1395" lon="-0.56331">
        <ele>40.8</ele>
        <time>2020-09-05T09:46:53Z</time>
      </trkpt>
      <trkpt lat="45.1395" lon="-0.56333">
        <ele>40.8</ele>
        <time>2020-09-05T09:46:54Z</time>
      </trkpt>
      <trkpt lat="45.13951" lon="-0.56335">
        <ele>40.8</ele>
        <time>2020-09-05T09:46:55Z</time>
      </trkpt>
      <trkpt lat="45.13951" lon="-0.56341">
        <ele>40.8</ele>
        <time>2020-09-05T09:46:57Z</time>
      </trkpt>
      <trkpt lat="45.13951" lon="-0.56342">
        <ele>40.8</ele>
        <time>2020-09-05T09:46:58Z</time>
      </trkpt>
      <trkpt lat="45.13951" lon="-0.56343">
        <ele>40.8</ele>
        <time>2020-09-05T09:46:59Z</time>
      </trkpt>
      <trkpt lat="45.13952" lon="-0.56345">
        <ele>40.8</ele>
        <time>2020-09-05T09:47:00Z</time>
      </trkpt>
      <trkpt lat="45.13952" lon="-0.56346">
        <ele>40.8</ele>
        <time>2020-09-05T09:47:01Z</time>
      </trkpt>
      <trkpt lat="45.13952" lon="-0.56348">
        <ele>40.8</ele>
        <time>2020-09-05T09:47:02Z</time>
      </trkpt>
      <trkpt lat="45.13953" lon="-0.56351">
        <ele>40.8</ele>
        <time>2020-09-05T09:47:04Z</time>
      </trkpt>
      <trkpt lat="45.13953" lon="-0.56353">
        <ele>40.8</ele>
        <time>2020-09-05T09:47:05Z</time>
      </trkpt>
      <trkpt lat="45.13954" lon="-0.56357">
        <ele>40.8</ele>
        <time>2020-09-05T09:47:07Z</time>
      </trkpt>
      <trkpt lat="45.13954" lon="-0.56362">
        <ele>40.8</ele>
        <time>2020-09-05T09:47:09Z</time>
      </trkpt>
      <trkpt lat="45.13955" lon="-0.56366">
        <ele>40.8</ele>
        <time>2020-09-05T09:47:11Z</time>
      </trkpt>
      <trkpt lat="45.13955" lon="-0.56368">
        <ele>40.8</ele>
        <time>2020-09-05T09:47:12Z</time>
      </trkpt>
      <trkpt lat="45.13956" lon="-0.5637">
        <ele>40.8</ele>
        <time>2020-09-05T09:47:13Z</time>
      </trkpt>
      <trkpt lat="45.13956" lon="-0.56372">
        <ele>40.8</ele>
        <time>2020-09-05T09:47:14Z</time>
      </trkpt>
      <trkpt lat="45.13957" lon="-0.56375">
        <ele>40.8</ele>
        <time>2020-09-05T09:47:16Z</time>
      </trkpt>
      <trkpt lat="45.13958" lon="-0.56378">
        <ele>40.8</ele>
        <time>2020-09-05T09:47:18Z</time>
      </trkpt>
      <trkpt lat="45.13959" lon="-0.56381">
        <ele>40.9</ele>
        <time>2020-09-05T09:47:20Z</time>
      </trkpt>
      <trkpt lat="45.13959" lon="-0.56383">
        <ele>40.9</ele>
        <time>2020-09-05T09:47:21Z</time>
      </trkpt>
      <trkpt lat="45.13958" lon="-0.56386">
        <ele>41</ele>
        <time>2020-09-05T09:47:23Z</time>
      </trkpt>
      <trkpt lat="45.13957" lon="-0.56388">
        <ele>41</ele>
        <time>2020-09-05T09:47:24Z</time>
      </trkpt>
      <trkpt lat="45.13956" lon="-0.56389">
        <ele>41</ele>
        <time>2020-09-05T09:47:25Z</time>
      </trkpt>
      <trkpt lat="45.13954" lon="-0.5639">
        <ele>41.1</ele>
        <time>2020-09-05T09:47:26Z</time>
      </trkpt>
      <trkpt lat="45.13953" lon="-0.56391">
        <ele>41.1</ele>
        <time>2020-09-05T09:47:27Z</time>
      </trkpt>
      <trkpt lat="45.1395" lon="-0.56392">
        <ele>41.2</ele>
        <time>2020-09-05T09:47:29Z</time>
      </trkpt>
      <trkpt lat="45.13948" lon="-0.56393">
        <ele>41.2</ele>
        <time>2020-09-05T09:47:30Z</time>
      </trkpt>
      <trkpt lat="45.13946" lon="-0.56395">
        <ele>41.3</ele>
        <time>2020-09-05T09:47:32Z</time>
      </trkpt>
      <trkpt lat="45.13944" lon="-0.56397">
        <ele>41.3</ele>
        <time>2020-09-05T09:47:34Z</time>
      </trkpt>
      <trkpt lat="45.13942" lon="-0.56398">
        <ele>41.4</ele>
        <time>2020-09-05T09:47:36Z</time>
      </trkpt>
      <trkpt lat="45.13941" lon="-0.56399">
        <ele>41.4</ele>
        <time>2020-09-05T09:47:37Z</time>
      </trkpt>
      <trkpt lat="45.13939" lon="-0.56402">
        <ele>41.4</ele>
        <time>2020-09-05T09:47:39Z</time>
      </trkpt>
      <trkpt lat="45.13936" lon="-0.56404">
        <ele>41.5</ele>
        <time>2020-09-05T09:47:41Z</time>
      </trkpt>
      <trkpt lat="45.13935" lon="-0.56404">
        <ele>41.5</ele>
        <time>2020-09-05T09:47:42Z</time>
      </trkpt>
      <trkpt lat="45.13934" lon="-0.56405">
        <ele>41.6</ele>
        <time>2020-09-05T09:47:43Z</time>
      </trkpt>
      <trkpt lat="45.13933" lon="-0.56406">
        <ele>41.6</ele>
        <time>2020-09-05T09:47:44Z</time>
      </trkpt>
      <trkpt lat="45.13931" lon="-0.56407">
        <ele>41.7</ele>
        <time>2020-09-05T09:47:46Z</time>
      </trkpt>
      <trkpt lat="45.1393" lon="-0.56408">
        <ele>41.7</ele>
        <time>2020-09-05T09:47:47Z</time>
      </trkpt>
      <trkpt lat="45.1393" lon="-0.56408">
        <ele>41.7</ele>
        <time>2020-09-05T09:47:48Z</time>
      </trkpt>
      <trkpt lat="45.13928" lon="-0.5641">
        <ele>41.8</ele>
        <time>2020-09-05T09:47:50Z</time>
      </trkpt>
      <trkpt lat="45.13926" lon="-0.56412">
        <ele>41.8</ele>
        <time>2020-09-05T09:47:51Z</time>
      </trkpt>
      <trkpt lat="45.13926" lon="-0.56412">
        <ele>41.8</ele>
        <time>2020-09-05T09:47:52Z</time>
      </trkpt>
      <trkpt lat="45.13925" lon="-0.56413">
        <ele>41.9</ele>
        <time>2020-09-05T09:47:53Z</time>
      </trkpt>
      <trkpt lat="45.13924" lon="-0.56414">
        <ele>41.9</ele>
        <time>2020-09-05T09:47:54Z</time>
      </trkpt>
      <trkpt lat="45.13923" lon="-0.56415">
        <ele>41.9</ele>
        <time>2020-09-05T09:47:55Z</time>
      </trkpt>
      <trkpt lat="45.13922" lon="-0.56416">
        <ele>41.9</ele>
        <time>2020-09-05T09:47:56Z</time>
      </trkpt>
      <trkpt lat="45.1392" lon="-0.56418">
        <ele>42</ele>
        <time>2020-09-05T09:47:57Z</time>
      </trkpt>
      <trkpt lat="45.13919" lon="-0.56419">
        <ele>42</ele>
        <time>2020-09-05T09:47:59Z</time>
      </trkpt>
      <trkpt lat="45.13917" lon="-0.5642">
        <ele>42</ele>
        <time>2020-09-05T09:48:01Z</time>
      </trkpt>
      <trkpt lat="45.13916" lon="-0.56422">
        <ele>42</ele>
        <time>2020-09-05T09:48:02Z</time>
      </trkpt>
      <trkpt lat="45.13914" lon="-0.56423">
        <ele>42.1</ele>
        <time>2020-09-05T09:48:03Z</time>
      </trkpt>
      <trkpt lat="45.13913" lon="-0.56424">
        <ele>42.1</ele>
        <time>2020-09-05T09:48:04Z</time>
      </trkpt>
      <trkpt lat="45.1391" lon="-0.56425">
        <ele>42.1</ele>
        <time>2020-09-05T09:48:06Z</time>
      </trkpt>
      <trkpt lat="45.13909" lon="-0.56425">
        <ele>42.1</ele>
        <time>2020-09-05T09:48:07Z</time>
      </trkpt>
      <trkpt lat="45.13907" lon="-0.56426">
        <ele>42.2</ele>
        <time>2020-09-05T09:48:08Z</time>
      </trkpt>
      <trkpt lat="45.13905" lon="-0.56427">
        <ele>42.2</ele>
        <time>2020-09-05T09:48:10Z</time>
      </trkpt>
      <trkpt lat="45.13902" lon="-0.56429">
        <ele>42.2</ele>
        <time>2020-09-05T09:48:11Z</time>
      </trkpt>
      <trkpt lat="45.13901" lon="-0.56429">
        <ele>42.2</ele>
        <time>2020-09-05T09:48:12Z</time>
      </trkpt>
      <trkpt lat="45.13899" lon="-0.5643">
        <ele>42.2</ele>
        <time>2020-09-05T09:48:13Z</time>
      </trkpt>
      <trkpt lat="45.13898" lon="-0.5643">
        <ele>42.3</ele>
        <time>2020-09-05T09:48:15Z</time>
      </trkpt>
      <trkpt lat="45.13896" lon="-0.56431">
        <ele>42.3</ele>
        <time>2020-09-05T09:48:16Z</time>
      </trkpt>
      <trkpt lat="45.13895" lon="-0.56431">
        <ele>42.3</ele>
        <time>2020-09-05T09:48:18Z</time>
      </trkpt>
      <trkpt lat="45.13894" lon="-0.56432">
        <ele>42.3</ele>
        <time>2020-09-05T09:48:19Z</time>
      </trkpt>
      <trkpt lat="45.13892" lon="-0.56432">
        <ele>42.3</ele>
        <time>2020-09-05T09:48:20Z</time>
      </trkpt>
      <trkpt lat="45.13889" lon="-0.56432">
        <ele>42.4</ele>
        <time>2020-09-05T09:48:22Z</time>
      </trkpt>
      <trkpt lat="45.13888" lon="-0.56432">
        <ele>42.4</ele>
        <time>2020-09-05T09:48:23Z</time>
      </trkpt>
      <trkpt lat="45.13887" lon="-0.56433">
        <ele>42.4</ele>
        <time>2020-09-05T09:48:24Z</time>
      </trkpt>
      <trkpt lat="45.13886" lon="-0.56433">
        <ele>42.4</ele>
        <time>2020-09-05T09:48:25Z</time>
      </trkpt>
      <trkpt lat="45.13884" lon="-0.56433">
        <ele>42.4</ele>
        <time>2020-09-05T09:48:26Z</time>
      </trkpt>
      <trkpt lat="45.13883" lon="-0.56433">
        <ele>42.4</ele>
        <time>2020-09-05T09:48:28Z</time>
      </trkpt>
      <trkpt lat="45.13882" lon="-0.56434">
        <ele>42.4</ele>
        <time>2020-09-05T09:48:29Z</time>
      </trkpt>
      <trkpt lat="45.1388" lon="-0.56434">
        <ele>42.4</ele>
        <time>2020-09-05T09:48:30Z</time>
      </trkpt>
      <trkpt lat="45.13879" lon="-0.56434">
        <ele>42.4</ele>
        <time>2020-09-05T09:48:31Z</time>
      </trkpt>
      <trkpt lat="45.13878" lon="-0.56434">
        <ele>42.5</ele>
        <time>2020-09-05T09:48:32Z</time>
      </trkpt>
      <trkpt lat="45.13877" lon="-0.56435">
        <ele>42.5</ele>
        <time>2020-09-05T09:48:33Z</time>
      </trkpt>
      <trkpt lat="45.13875" lon="-0.56435">
        <ele>42.5</ele>
        <time>2020-09-05T09:48:34Z</time>
      </trkpt>
      <trkpt lat="45.13874" lon="-0.56435">
        <ele>42.5</ele>
        <time>2020-09-05T09:48:35Z</time>
      </trkpt>
      <trkpt lat="45.13872" lon="-0.56435">
        <ele>42.5</ele>
        <time>2020-09-05T09:48:36Z</time>
      </trkpt>
      <trkpt lat="45.13869" lon="-0.56436">
        <ele>42.5</ele>
        <time>2020-09-05T09:48:38Z</time>
      </trkpt>
      <trkpt lat="45.13868" lon="-0.56436">
        <ele>42.5</ele>
        <time>2020-09-05T09:48:39Z</time>
      </trkpt>
      <trkpt lat="45.13865" lon="-0.56437">
        <ele>42.5</ele>
        <time>2020-09-05T09:48:41Z</time>
      </trkpt>
      <trkpt lat="45.13864" lon="-0.56437">
        <ele>42.5</ele>
        <time>2020-09-05T09:48:42Z</time>
      </trkpt>
      <trkpt lat="45.13862" lon="-0.56438">
        <ele>42.5</ele>
        <time>2020-09-05T09:48:43Z</time>
      </trkpt>
      <trkpt lat="45.13861" lon="-0.56439">
        <ele>42.5</ele>
        <time>2020-09-05T09:48:45Z</time>
      </trkpt>
      <trkpt lat="45.13859" lon="-0.56439">
        <ele>42.5</ele>
        <time>2020-09-05T09:48:46Z</time>
      </trkpt>
      <trkpt lat="45.13857" lon="-0.5644">
        <ele>42.5</ele>
        <time>2020-09-05T09:48:48Z</time>
      </trkpt>
      <trkpt lat="45.13856" lon="-0.56441">
        <ele>42.5</ele>
        <time>2020-09-05T09:48:49Z</time>
      </trkpt>
      <trkpt lat="45.13854" lon="-0.56441">
        <ele>42.5</ele>
        <time>2020-09-05T09:48:50Z</time>
      </trkpt>
      <trkpt lat="45.13853" lon="-0.56442">
        <ele>42.5</ele>
        <time>2020-09-05T09:48:51Z</time>
      </trkpt>
      <trkpt lat="45.13852" lon="-0.56442">
        <ele>42.5</ele>
        <time>2020-09-05T09:48:52Z</time>
      </trkpt>
      <trkpt lat="45.13851" lon="-0.56442">
        <ele>42.5</ele>
        <time>2020-09-05T09:48:54Z</time>
      </trkpt>
      <trkpt lat="45.1385" lon="-0.56442">
        <ele>42.5</ele>
        <time>2020-09-05T09:48:55Z</time>
      </trkpt>
      <trkpt lat="45.13849" lon="-0.56442">
        <ele>42.5</ele>
        <time>2020-09-05T09:48:57Z</time>
      </trkpt>
      <trkpt lat="45.13848" lon="-0.56442">
        <ele>42.5</ele>
        <time>2020-09-05T09:48:58Z</time>
      </trkpt>
      <trkpt lat="45.13846" lon="-0.56443">
        <ele>42.5</ele>
        <time>2020-09-05T09:49:00Z</time>
      </trkpt>
      <trkpt lat="45.13845" lon="-0.56443">
        <ele>42.6</ele>
        <time>2020-09-05T09:49:01Z</time>
      </trkpt>
      <trkpt lat="45.13844" lon="-0.56443">
        <ele>42.6</ele>
        <time>2020-09-05T09:49:02Z</time>
      </trkpt>
      <trkpt lat="45.13843" lon="-0.56443">
        <ele>42.6</ele>
        <time>2020-09-05T09:49:03Z</time>
      </trkpt>
      <trkpt lat="45.13843" lon="-0.56442">
        <ele>42.6</ele>
        <time>2020-09-05T09:49:05Z</time>
      </trkpt>
      <trkpt lat="45.13842" lon="-0.56442">
        <ele>42.6</ele>
        <time>2020-09-05T09:49:06Z</time>
      </trkpt>
      <trkpt lat="45.13842" lon="-0.56442">
        <ele>42.6</ele>
        <time>2020-09-05T09:49:07Z</time>
      </trkpt>
      <trkpt lat="45.13841" lon="-0.56443">
        <ele>42.6</ele>
        <time>2020-09-05T09:49:09Z</time>
      </trkpt>
      <trkpt lat="45.1384" lon="-0.56443">
        <ele>42.6</ele>
        <time>2020-09-05T09:49:11Z</time>
      </trkpt>
      <trkpt lat="45.13838" lon="-0.56443">
        <ele>42.6</ele>
        <time>2020-09-05T09:49:13Z</time>
      </trkpt>
      <trkpt lat="45.13838" lon="-0.56443">
        <ele>42.6</ele>
        <time>2020-09-05T09:49:15Z</time>
      </trkpt>
      <trkpt lat="45.13837" lon="-0.56443">
        <ele>42.6</ele>
        <time>2020-09-05T09:49:16Z</time>
      </trkpt>
      <trkpt lat="45.13836" lon="-0.56444">
        <ele>42.6</ele>
        <time>2020-09-05T09:49:17Z</time>
      </trkpt>
      <trkpt lat="45.13834" lon="-0.56444">
        <ele>42.6</ele>
        <time>2020-09-05T09:49:18Z</time>
      </trkpt>
      <trkpt lat="45.13832" lon="-0.56444">
        <ele>42.6</ele>
        <time>2020-09-05T09:49:20Z</time>
      </trkpt>
      <trkpt lat="45.13829" lon="-0.56444">
        <ele>42.6</ele>
        <time>2020-09-05T09:49:22Z</time>
      </trkpt>
      <trkpt lat="45.13828" lon="-0.56444">
        <ele>42.6</ele>
        <time>2020-09-05T09:49:23Z</time>
      </trkpt>
      <trkpt lat="45.13828" lon="-0.56445">
        <ele>42.6</ele>
        <time>2020-09-05T09:49:24Z</time>
      </trkpt>
      <trkpt lat="45.13827" lon="-0.56445">
        <ele>42.6</ele>
        <time>2020-09-05T09:49:25Z</time>
      </trkpt>
      <trkpt lat="45.13824" lon="-0.56446">
        <ele>42.6</ele>
        <time>2020-09-05T09:49:27Z</time>
      </trkpt>
      <trkpt lat="45.1382" lon="-0.56448">
        <ele>42.6</ele>
        <time>2020-09-05T09:49:29Z</time>
      </trkpt>
      <trkpt lat="45.13819" lon="-0.56448">
        <ele>42.6</ele>
        <time>2020-09-05T09:49:31Z</time>
      </trkpt>
      <trkpt lat="45.13817" lon="-0.56449">
        <ele>42.6</ele>
        <time>2020-09-05T09:49:32Z</time>
      </trkpt>
      <trkpt lat="45.13815" lon="-0.5645">
        <ele>42.7</ele>
        <time>2020-09-05T09:49:33Z</time>
      </trkpt>
      <trkpt lat="45.13814" lon="-0.5645">
        <ele>42.7</ele>
        <time>2020-09-05T09:49:34Z</time>
      </trkpt>
      <trkpt lat="45.1381" lon="-0.56451">
        <ele>42.7</ele>
        <time>2020-09-05T09:49:35Z</time>
      </trkpt>
      <trkpt lat="45.13809" lon="-0.56451">
        <ele>42.7</ele>
        <time>2020-09-05T09:49:36Z</time>
      </trkpt>
      <trkpt lat="45.13807" lon="-0.56452">
        <ele>42.7</ele>
        <time>2020-09-05T09:49:37Z</time>
      </trkpt>
      <trkpt lat="45.13803" lon="-0.56452">
        <ele>42.8</ele>
        <time>2020-09-05T09:49:39Z</time>
      </trkpt>
      <trkpt lat="45.138" lon="-0.56453">
        <ele>42.8</ele>
        <time>2020-09-05T09:49:41Z</time>
      </trkpt>
      <trkpt lat="45.13799" lon="-0.56454">
        <ele>42.9</ele>
        <time>2020-09-05T09:49:42Z</time>
      </trkpt>
      <trkpt lat="45.13796" lon="-0.56454">
        <ele>42.9</ele>
        <time>2020-09-05T09:49:44Z</time>
      </trkpt>
      <trkpt lat="45.13793" lon="-0.56455">
        <ele>43</ele>
        <time>2020-09-05T09:49:46Z</time>
      </trkpt>
      <trkpt lat="45.13792" lon="-0.56455">
        <ele>43</ele>
        <time>2020-09-05T09:49:47Z</time>
      </trkpt>
      <trkpt lat="45.13791" lon="-0.56455">
        <ele>43</ele>
        <time>2020-09-05T09:49:48Z</time>
      </trkpt>
      <trkpt lat="45.13789" lon="-0.56455">
        <ele>43.1</ele>
        <time>2020-09-05T09:49:50Z</time>
      </trkpt>
      <trkpt lat="45.13787" lon="-0.56456">
        <ele>43.1</ele>
        <time>2020-09-05T09:49:51Z</time>
      </trkpt>
      <trkpt lat="45.13785" lon="-0.56456">
        <ele>43.1</ele>
        <time>2020-09-05T09:49:53Z</time>
      </trkpt>
      <trkpt lat="45.13783" lon="-0.56456">
        <ele>43.2</ele>
        <time>2020-09-05T09:49:54Z</time>
      </trkpt>
      <trkpt lat="45.13781" lon="-0.56457">
        <ele>43.2</ele>
        <time>2020-09-05T09:49:56Z</time>
      </trkpt>
      <trkpt lat="45.13778" lon="-0.56457">
        <ele>43.3</ele>
        <time>2020-09-05T09:49:57Z</time>
      </trkpt>
      <trkpt lat="45.13776" lon="-0.56458">
        <ele>43.3</ele>
        <time>2020-09-05T09:49:59Z</time>
      </trkpt>
      <trkpt lat="45.13775" lon="-0.56458">
        <ele>43.4</ele>
        <time>2020-09-05T09:50:00Z</time>
      </trkpt>
      <trkpt lat="45.13772" lon="-0.56459">
        <ele>43.4</ele>
        <time>2020-09-05T09:50:02Z</time>
      </trkpt>
      <trkpt lat="45.13771" lon="-0.56459">
        <ele>43.5</ele>
        <time>2020-09-05T09:50:03Z</time>
      </trkpt>
      <trkpt lat="45.13769" lon="-0.5646">
        <ele>43.6</ele>
        <time>2020-09-05T09:50:05Z</time>
      </trkpt>
      <trkpt lat="45.13767" lon="-0.5646">
        <ele>43.6</ele>
        <time>2020-09-05T09:50:07Z</time>
      </trkpt>
      <trkpt lat="45.13766" lon="-0.56461">
        <ele>43.6</ele>
        <time>2020-09-05T09:50:08Z</time>
      </trkpt>
      <trkpt lat="45.13764" lon="-0.56461">
        <ele>43.7</ele>
        <time>2020-09-05T09:50:09Z</time>
      </trkpt>
      <trkpt lat="45.13763" lon="-0.56461">
        <ele>43.7</ele>
        <time>2020-09-05T09:50:10Z</time>
      </trkpt>
      <trkpt lat="45.13762" lon="-0.56461">
        <ele>43.7</ele>
        <time>2020-09-05T09:50:11Z</time>
      </trkpt>
      <trkpt lat="45.13761" lon="-0.56461">
        <ele>43.7</ele>
        <time>2020-09-05T09:50:12Z</time>
      </trkpt>
      <trkpt lat="45.1376" lon="-0.56462">
        <ele>43.8</ele>
        <time>2020-09-05T09:50:13Z</time>
      </trkpt>
      <trkpt lat="45.13759" lon="-0.56462">
        <ele>43.8</ele>
        <time>2020-09-05T09:50:14Z</time>
      </trkpt>
      <trkpt lat="45.13757" lon="-0.56463">
        <ele>43.8</ele>
        <time>2020-09-05T09:50:15Z</time>
      </trkpt>
      <trkpt lat="45.13755" lon="-0.56463">
        <ele>43.9</ele>
        <time>2020-09-05T09:50:17Z</time>
      </trkpt>
      <trkpt lat="45.13753" lon="-0.56464">
        <ele>43.9</ele>
        <time>2020-09-05T09:50:18Z</time>
      </trkpt>
      <trkpt lat="45.13751" lon="-0.56465">
        <ele>43.9</ele>
        <time>2020-09-05T09:50:20Z</time>
      </trkpt>
      <trkpt lat="45.13749" lon="-0.56465">
        <ele>44</ele>
        <time>2020-09-05T09:50:22Z</time>
      </trkpt>
      <trkpt lat="45.13747" lon="-0.56466">
        <ele>44</ele>
        <time>2020-09-05T09:50:23Z</time>
      </trkpt>
      <trkpt lat="45.13746" lon="-0.56466">
        <ele>44</ele>
        <time>2020-09-05T09:50:24Z</time>
      </trkpt>
      <trkpt lat="45.13745" lon="-0.56466">
        <ele>44.1</ele>
        <time>2020-09-05T09:50:25Z</time>
      </trkpt>
      <trkpt lat="45.13744" lon="-0.56467">
        <ele>44.1</ele>
        <time>2020-09-05T09:50:26Z</time>
      </trkpt>
      <trkpt lat="45.13743" lon="-0.56467">
        <ele>44.1</ele>
        <time>2020-09-05T09:50:28Z</time>
      </trkpt>
      <trkpt lat="45.13742" lon="-0.56467">
        <ele>44.1</ele>
        <time>2020-09-05T09:50:29Z</time>
      </trkpt>
      <trkpt lat="45.1374" lon="-0.56467">
        <ele>44.1</ele>
        <time>2020-09-05T09:50:30Z</time>
      </trkpt>
      <trkpt lat="45.13737" lon="-0.56467">
        <ele>44.2</ele>
        <time>2020-09-05T09:50:32Z</time>
      </trkpt>
      <trkpt lat="45.13736" lon="-0.56468">
        <ele>44.2</ele>
        <time>2020-09-05T09:50:33Z</time>
      </trkpt>
      <trkpt lat="45.13734" lon="-0.56468">
        <ele>44.3</ele>
        <time>2020-09-05T09:50:35Z</time>
      </trkpt>
      <trkpt lat="45.13732" lon="-0.56468">
        <ele>44.3</ele>
        <time>2020-09-05T09:50:37Z</time>
      </trkpt>
      <trkpt lat="45.13731" lon="-0.56469">
        <ele>44.3</ele>
        <time>2020-09-05T09:50:38Z</time>
      </trkpt>
      <trkpt lat="45.13726" lon="-0.5647">
        <ele>44.4</ele>
        <time>2020-09-05T09:50:40Z</time>
      </trkpt>
      <trkpt lat="45.13725" lon="-0.56471">
        <ele>44.4</ele>
        <time>2020-09-05T09:50:42Z</time>
      </trkpt>
      <trkpt lat="45.13723" lon="-0.56472">
        <ele>44.5</ele>
        <time>2020-09-05T09:50:43Z</time>
      </trkpt>
      <trkpt lat="45.13721" lon="-0.56472">
        <ele>44.5</ele>
        <time>2020-09-05T09:50:44Z</time>
      </trkpt>
      <trkpt lat="45.13719" lon="-0.56473">
        <ele>44.5</ele>
        <time>2020-09-05T09:50:46Z</time>
      </trkpt>
      <trkpt lat="45.13718" lon="-0.56473">
        <ele>44.6</ele>
        <time>2020-09-05T09:50:48Z</time>
      </trkpt>
      <trkpt lat="45.13716" lon="-0.56474">
        <ele>44.6</ele>
        <time>2020-09-05T09:50:49Z</time>
      </trkpt>
      <trkpt lat="45.13715" lon="-0.56474">
        <ele>44.6</ele>
        <time>2020-09-05T09:50:51Z</time>
      </trkpt>
      <trkpt lat="45.13713" lon="-0.56475">
        <ele>44.6</ele>
        <time>2020-09-05T09:50:52Z</time>
      </trkpt>
      <trkpt lat="45.13711" lon="-0.56475">
        <ele>44.7</ele>
        <time>2020-09-05T09:50:53Z</time>
      </trkpt>
      <trkpt lat="45.13709" lon="-0.56475">
        <ele>44.7</ele>
        <time>2020-09-05T09:50:54Z</time>
      </trkpt>
      <trkpt lat="45.13708" lon="-0.56475">
        <ele>44.7</ele>
        <time>2020-09-05T09:50:56Z</time>
      </trkpt>
      <trkpt lat="45.13707" lon="-0.56476">
        <ele>44.7</ele>
        <time>2020-09-05T09:50:57Z</time>
      </trkpt>
      <trkpt lat="45.13706" lon="-0.56476">
        <ele>44.8</ele>
        <time>2020-09-05T09:50:59Z</time>
      </trkpt>
      <trkpt lat="45.13704" lon="-0.56476">
        <ele>44.8</ele>
        <time>2020-09-05T09:51:01Z</time>
      </trkpt>
      <trkpt lat="45.13702" lon="-0.56477">
        <ele>44.8</ele>
        <time>2020-09-05T09:51:03Z</time>
      </trkpt>
      <trkpt lat="45.137" lon="-0.56477">
        <ele>44.8</ele>
        <time>2020-09-05T09:51:05Z</time>
      </trkpt>
      <trkpt lat="45.13699" lon="-0.56477">
        <ele>44.8</ele>
        <time>2020-09-05T09:51:06Z</time>
      </trkpt>
      <trkpt lat="45.13698" lon="-0.56478">
        <ele>44.9</ele>
        <time>2020-09-05T09:51:07Z</time>
      </trkpt>
      <trkpt lat="45.13696" lon="-0.56478">
        <ele>44.9</ele>
        <time>2020-09-05T09:51:09Z</time>
      </trkpt>
      <trkpt lat="45.13693" lon="-0.56479">
        <ele>44.9</ele>
        <time>2020-09-05T09:51:11Z</time>
      </trkpt>
      <trkpt lat="45.13692" lon="-0.5648">
        <ele>44.9</ele>
        <time>2020-09-05T09:51:12Z</time>
      </trkpt>
      <trkpt lat="45.1369" lon="-0.5648">
        <ele>45</ele>
        <time>2020-09-05T09:51:13Z</time>
      </trkpt>
      <trkpt lat="45.13688" lon="-0.56481">
        <ele>45</ele>
        <time>2020-09-05T09:51:14Z</time>
      </trkpt>
      <trkpt lat="45.13686" lon="-0.56482">
        <ele>45</ele>
        <time>2020-09-05T09:51:16Z</time>
      </trkpt>
      <trkpt lat="45.13685" lon="-0.56482">
        <ele>45</ele>
        <time>2020-09-05T09:51:17Z</time>
      </trkpt>
      <trkpt lat="45.13684" lon="-0.56482">
        <ele>45</ele>
        <time>2020-09-05T09:51:18Z</time>
      </trkpt>
      <trkpt lat="45.13683" lon="-0.56483">
        <ele>45.1</ele>
        <time>2020-09-05T09:51:19Z</time>
      </trkpt>
      <trkpt lat="45.13681" lon="-0.56483">
        <ele>45.1</ele>
        <time>2020-09-05T09:51:21Z</time>
      </trkpt>
      <trkpt lat="45.1368" lon="-0.56483">
        <ele>45.1</ele>
        <time>2020-09-05T09:51:22Z</time>
      </trkpt>
      <trkpt lat="45.13678" lon="-0.56483">
        <ele>45.1</ele>
        <time>2020-09-05T09:51:23Z</time>
      </trkpt>
      <trkpt lat="45.13677" lon="-0.56484">
        <ele>45.2</ele>
        <time>2020-09-05T09:51:25Z</time>
      </trkpt>
      <trkpt lat="45.13675" lon="-0.56484">
        <ele>45.2</ele>
        <time>2020-09-05T09:51:27Z</time>
      </trkpt>
      <trkpt lat="45.13674" lon="-0.56484">
        <ele>45.2</ele>
        <time>2020-09-05T09:51:28Z</time>
      </trkpt>
      <trkpt lat="45.13673" lon="-0.56484">
        <ele>45.2</ele>
        <time>2020-09-05T09:51:29Z</time>
      </trkpt>
      <trkpt lat="45.13672" lon="-0.56484">
        <ele>45.2</ele>
        <time>2020-09-05T09:51:30Z</time>
      </trkpt>
      <trkpt lat="45.13671" lon="-0.56484">
        <ele>45.3</ele>
        <time>2020-09-05T09:51:31Z</time>
      </trkpt>
      <trkpt lat="45.13669" lon="-0.56484">
        <ele>45.3</ele>
        <time>2020-09-05T09:51:32Z</time>
      </trkpt>
      <trkpt lat="45.13667" lon="-0.56485">
        <ele>45.3</ele>
        <time>2020-09-05T09:51:34Z</time>
      </trkpt>
      <trkpt lat="45.13667" lon="-0.56485">
        <ele>45.3</ele>
        <time>2020-09-05T09:51:36Z</time>
      </trkpt>
      <trkpt lat="45.13666" lon="-0.56485">
        <ele>45.3</ele>
        <time>2020-09-05T09:51:38Z</time>
      </trkpt>
      <trkpt lat="45.13666" lon="-0.56484">
        <ele>45.3</ele>
        <time>2020-09-05T09:51:39Z</time>
      </trkpt>
      <trkpt lat="45.13666" lon="-0.56485">
        <ele>45.3</ele>
        <time>2020-09-05T09:51:40Z</time>
      </trkpt>
      <trkpt lat="45.13665" lon="-0.56486">
        <ele>45.3</ele>
        <time>2020-09-05T09:51:42Z</time>
      </trkpt>
      <trkpt lat="45.13664" lon="-0.56487">
        <ele>45.3</ele>
        <time>2020-09-05T09:51:43Z</time>
      </trkpt>
      <trkpt lat="45.13663" lon="-0.56488">
        <ele>45.3</ele>
        <time>2020-09-05T09:51:44Z</time>
      </trkpt>
      <trkpt lat="45.13662" lon="-0.56489">
        <ele>45.3</ele>
        <time>2020-09-05T09:51:45Z</time>
      </trkpt>
      <trkpt lat="45.13662" lon="-0.56491">
        <ele>45.3</ele>
        <time>2020-09-05T09:51:47Z</time>
      </trkpt>
      <trkpt lat="45.13661" lon="-0.56492">
        <ele>45.3</ele>
        <time>2020-09-05T09:51:48Z</time>
      </trkpt>
      <trkpt lat="45.1366" lon="-0.56494">
        <ele>45.3</ele>
        <time>2020-09-05T09:51:49Z</time>
      </trkpt>
      <trkpt lat="45.13659" lon="-0.56495">
        <ele>45.3</ele>
        <time>2020-09-05T09:51:50Z</time>
      </trkpt>
      <trkpt lat="45.13658" lon="-0.56498">
        <ele>45.2</ele>
        <time>2020-09-05T09:51:51Z</time>
      </trkpt>
      <trkpt lat="45.13657" lon="-0.56499">
        <ele>45.2</ele>
        <time>2020-09-05T09:51:52Z</time>
      </trkpt>
      <trkpt lat="45.13656" lon="-0.565">
        <ele>45.2</ele>
        <time>2020-09-05T09:51:53Z</time>
      </trkpt>
      <trkpt lat="45.13654" lon="-0.56503">
        <ele>45.1</ele>
        <time>2020-09-05T09:51:54Z</time>
      </trkpt>
      <trkpt lat="45.13652" lon="-0.56504">
        <ele>45.1</ele>
        <time>2020-09-05T09:51:56Z</time>
      </trkpt>
      <trkpt lat="45.13651" lon="-0.56505">
        <ele>45.1</ele>
        <time>2020-09-05T09:51:58Z</time>
      </trkpt>
      <trkpt lat="45.1365" lon="-0.56506">
        <ele>45</ele>
        <time>2020-09-05T09:51:59Z</time>
      </trkpt>
      <trkpt lat="45.13648" lon="-0.56508">
        <ele>45</ele>
        <time>2020-09-05T09:52:01Z</time>
      </trkpt>
      <trkpt lat="45.13647" lon="-0.56509">
        <ele>44.9</ele>
        <time>2020-09-05T09:52:02Z</time>
      </trkpt>
      <trkpt lat="45.13646" lon="-0.5651">
        <ele>44.9</ele>
        <time>2020-09-05T09:52:03Z</time>
      </trkpt>
      <trkpt lat="45.13644" lon="-0.56511">
        <ele>44.8</ele>
        <time>2020-09-05T09:52:05Z</time>
      </trkpt>
      <trkpt lat="45.13643" lon="-0.56513">
        <ele>44.8</ele>
        <time>2020-09-05T09:52:07Z</time>
      </trkpt>
      <trkpt lat="45.13642" lon="-0.56513">
        <ele>44.8</ele>
        <time>2020-09-05T09:52:08Z</time>
      </trkpt>
      <trkpt lat="45.1364" lon="-0.56515">
        <ele>44.7</ele>
        <time>2020-09-05T09:52:09Z</time>
      </trkpt>
      <trkpt lat="45.13639" lon="-0.56515">
        <ele>44.7</ele>
        <time>2020-09-05T09:52:10Z</time>
      </trkpt>
      <trkpt lat="45.13639" lon="-0.56516">
        <ele>44.7</ele>
        <time>2020-09-05T09:52:11Z</time>
      </trkpt>
      <trkpt lat="45.13637" lon="-0.56517">
        <ele>44.6</ele>
        <time>2020-09-05T09:52:13Z</time>
      </trkpt>
      <trkpt lat="45.13636" lon="-0.56519">
        <ele>44.6</ele>
        <time>2020-09-05T09:52:14Z</time>
      </trkpt>
      <trkpt lat="45.13634" lon="-0.5652">
        <ele>44.6</ele>
        <time>2020-09-05T09:52:15Z</time>
      </trkpt>
      <trkpt lat="45.13634" lon="-0.56521">
        <ele>44.5</ele>
        <time>2020-09-05T09:52:16Z</time>
      </trkpt>
      <trkpt lat="45.13633" lon="-0.56522">
        <ele>44.5</ele>
        <time>2020-09-05T09:52:17Z</time>
      </trkpt>
      <trkpt lat="45.13632" lon="-0.56523">
        <ele>44.5</ele>
        <time>2020-09-05T09:52:18Z</time>
      </trkpt>
      <trkpt lat="45.13631" lon="-0.56524">
        <ele>44.5</ele>
        <time>2020-09-05T09:52:19Z</time>
      </trkpt>
      <trkpt lat="45.13629" lon="-0.56526">
        <ele>44.4</ele>
        <time>2020-09-05T09:52:21Z</time>
      </trkpt>
      <trkpt lat="45.13628" lon="-0.56527">
        <ele>44.4</ele>
        <time>2020-09-05T09:52:22Z</time>
      </trkpt>
      <trkpt lat="45.13627" lon="-0.56528">
        <ele>44.4</ele>
        <time>2020-09-05T09:52:23Z</time>
      </trkpt>
      <trkpt lat="45.13626" lon="-0.56529">
        <ele>44.4</ele>
        <time>2020-09-05T09:52:24Z</time>
      </trkpt>
      <trkpt lat="45.13625" lon="-0.5653">
        <ele>44.3</ele>
        <time>2020-09-05T09:52:25Z</time>
      </trkpt>
      <trkpt lat="45.13624" lon="-0.56532">
        <ele>44.3</ele>
        <time>2020-09-05T09:52:27Z</time>
      </trkpt>
      <trkpt lat="45.13623" lon="-0.56533">
        <ele>44.3</ele>
        <time>2020-09-05T09:52:28Z</time>
      </trkpt>
      <trkpt lat="45.13622" lon="-0.56534">
        <ele>44.3</ele>
        <time>2020-09-05T09:52:29Z</time>
      </trkpt>
      <trkpt lat="45.13621" lon="-0.56535">
        <ele>44.3</ele>
        <time>2020-09-05T09:52:30Z</time>
      </trkpt>
      <trkpt lat="45.13619" lon="-0.56536">
        <ele>44.3</ele>
        <time>2020-09-05T09:52:32Z</time>
      </trkpt>
      <trkpt lat="45.13618" lon="-0.56538">
        <ele>44.2</ele>
        <time>2020-09-05T09:52:34Z</time>
      </trkpt>
      <trkpt lat="45.13617" lon="-0.56538">
        <ele>44.2</ele>
        <time>2020-09-05T09:52:35Z</time>
      </trkpt>
      <trkpt lat="45.13615" lon="-0.5654">
        <ele>44.2</ele>
        <time>2020-09-05T09:52:36Z</time>
      </trkpt>
      <trkpt lat="45.13613" lon="-0.56541">
        <ele>44.2</ele>
        <time>2020-09-05T09:52:37Z</time>
      </trkpt>
      <trkpt lat="45.13611" lon="-0.56543">
        <ele>44.2</ele>
        <time>2020-09-05T09:52:39Z</time>
      </trkpt>
      <trkpt lat="45.1361" lon="-0.56544">
        <ele>44.2</ele>
        <time>2020-09-05T09:52:40Z</time>
      </trkpt>
      <trkpt lat="45.13609" lon="-0.56545">
        <ele>44.2</ele>
        <time>2020-09-05T09:52:41Z</time>
      </trkpt>
      <trkpt lat="45.13608" lon="-0.56546">
        <ele>44.2</ele>
        <time>2020-09-05T09:52:42Z</time>
      </trkpt>
      <trkpt lat="45.13607" lon="-0.56547">
        <ele>44.2</ele>
        <time>2020-09-05T09:52:43Z</time>
      </trkpt>
      <trkpt lat="45.13606" lon="-0.56548">
        <ele>44.1</ele>
        <time>2020-09-05T09:52:44Z</time>
      </trkpt>
      <trkpt lat="45.13606" lon="-0.56549">
        <ele>44.1</ele>
        <time>2020-09-05T09:52:46Z</time>
      </trkpt>
      <trkpt lat="45.13605" lon="-0.56551">
        <ele>44.1</ele>
        <time>2020-09-05T09:52:47Z</time>
      </trkpt>
      <trkpt lat="45.13604" lon="-0.56552">
        <ele>44.1</ele>
        <time>2020-09-05T09:52:48Z</time>
      </trkpt>
      <trkpt lat="45.13603" lon="-0.56554">
        <ele>44.1</ele>
        <time>2020-09-05T09:52:49Z</time>
      </trkpt>
      <trkpt lat="45.13602" lon="-0.56558">
        <ele>44.1</ele>
        <time>2020-09-05T09:52:51Z</time>
      </trkpt>
      <trkpt lat="45.13601" lon="-0.56559">
        <ele>44.1</ele>
        <time>2020-09-05T09:52:52Z</time>
      </trkpt>
      <trkpt lat="45.136" lon="-0.56561">
        <ele>44.1</ele>
        <time>2020-09-05T09:52:54Z</time>
      </trkpt>
      <trkpt lat="45.13599" lon="-0.56562">
        <ele>44.1</ele>
        <time>2020-09-05T09:52:55Z</time>
      </trkpt>
      <trkpt lat="45.13597" lon="-0.56565">
        <ele>44.1</ele>
        <time>2020-09-05T09:52:57Z</time>
      </trkpt>
      <trkpt lat="45.13597" lon="-0.56566">
        <ele>44.1</ele>
        <time>2020-09-05T09:52:58Z</time>
      </trkpt>
      <trkpt lat="45.13595" lon="-0.56568">
        <ele>44.1</ele>
        <time>2020-09-05T09:53:00Z</time>
      </trkpt>
      <trkpt lat="45.13594" lon="-0.56569">
        <ele>44.1</ele>
        <time>2020-09-05T09:53:02Z</time>
      </trkpt>
      <trkpt lat="45.13593" lon="-0.5657">
        <ele>44.1</ele>
        <time>2020-09-05T09:53:04Z</time>
      </trkpt>
      <trkpt lat="45.13592" lon="-0.56571">
        <ele>44.1</ele>
        <time>2020-09-05T09:53:06Z</time>
      </trkpt>
      <trkpt lat="45.1359" lon="-0.56572">
        <ele>44.1</ele>
        <time>2020-09-05T09:53:08Z</time>
      </trkpt>
      <trkpt lat="45.13587" lon="-0.56574">
        <ele>44.1</ele>
        <time>2020-09-05T09:53:10Z</time>
      </trkpt>
      <trkpt lat="45.13585" lon="-0.56575">
        <ele>44.1</ele>
        <time>2020-09-05T09:53:12Z</time>
      </trkpt>
      <trkpt lat="45.13583" lon="-0.56576">
        <ele>44.1</ele>
        <time>2020-09-05T09:53:13Z</time>
      </trkpt>
      <trkpt lat="45.13582" lon="-0.56577">
        <ele>44.1</ele>
        <time>2020-09-05T09:53:14Z</time>
      </trkpt>
      <trkpt lat="45.13581" lon="-0.56577">
        <ele>44.1</ele>
        <time>2020-09-05T09:53:15Z</time>
      </trkpt>
      <trkpt lat="45.1358" lon="-0.56578">
        <ele>44.1</ele>
        <time>2020-09-05T09:53:17Z</time>
      </trkpt>
      <trkpt lat="45.13578" lon="-0.56579">
        <ele>44.2</ele>
        <time>2020-09-05T09:53:19Z</time>
      </trkpt>
      <trkpt lat="45.13577" lon="-0.5658">
        <ele>44.2</ele>
        <time>2020-09-05T09:53:20Z</time>
      </trkpt>
      <trkpt lat="45.13576" lon="-0.56581">
        <ele>44.2</ele>
        <time>2020-09-05T09:53:21Z</time>
      </trkpt>
      <trkpt lat="45.13574" lon="-0.56583">
        <ele>44.2</ele>
        <time>2020-09-05T09:53:23Z</time>
      </trkpt>
      <trkpt lat="45.13573" lon="-0.56585">
        <ele>44.2</ele>
        <time>2020-09-05T09:53:25Z</time>
      </trkpt>
      <trkpt lat="45.13571" lon="-0.56586">
        <ele>44.2</ele>
        <time>2020-09-05T09:53:27Z</time>
      </trkpt>
      <trkpt lat="45.1357" lon="-0.56588">
        <ele>44.3</ele>
        <time>2020-09-05T09:53:28Z</time>
      </trkpt>
      <trkpt lat="45.13569" lon="-0.56589">
        <ele>44.3</ele>
        <time>2020-09-05T09:53:29Z</time>
      </trkpt>
      <trkpt lat="45.13568" lon="-0.5659">
        <ele>44.3</ele>
        <time>2020-09-05T09:53:30Z</time>
      </trkpt>
      <trkpt lat="45.13566" lon="-0.56592">
        <ele>44.3</ele>
        <time>2020-09-05T09:53:32Z</time>
      </trkpt>
      <trkpt lat="45.13565" lon="-0.56593">
        <ele>44.3</ele>
        <time>2020-09-05T09:53:33Z</time>
      </trkpt>
      <trkpt lat="45.13564" lon="-0.56595">
        <ele>44.3</ele>
        <time>2020-09-05T09:53:35Z</time>
      </trkpt>
      <trkpt lat="45.13563" lon="-0.56597">
        <ele>44.3</ele>
        <time>2020-09-05T09:53:36Z</time>
      </trkpt>
      <trkpt lat="45.13562" lon="-0.56598">
        <ele>44.3</ele>
        <time>2020-09-05T09:53:37Z</time>
      </trkpt>
      <trkpt lat="45.13561" lon="-0.56599">
        <ele>44.3</ele>
        <time>2020-09-05T09:53:38Z</time>
      </trkpt>
      <trkpt lat="45.1356" lon="-0.56601">
        <ele>44.4</ele>
        <time>2020-09-05T09:53:40Z</time>
      </trkpt>
      <trkpt lat="45.13558" lon="-0.56603">
        <ele>44.4</ele>
        <time>2020-09-05T09:53:42Z</time>
      </trkpt>
      <trkpt lat="45.13556" lon="-0.56605">
        <ele>44.4</ele>
        <time>2020-09-05T09:53:44Z</time>
      </trkpt>
      <trkpt lat="45.13555" lon="-0.56605">
        <ele>44.4</ele>
        <time>2020-09-05T09:53:45Z</time>
      </trkpt>
      <trkpt lat="45.13554" lon="-0.56607">
        <ele>44.4</ele>
        <time>2020-09-05T09:53:46Z</time>
      </trkpt>
      <trkpt lat="45.13553" lon="-0.56608">
        <ele>44.4</ele>
        <time>2020-09-05T09:53:48Z</time>
      </trkpt>
      <trkpt lat="45.13552" lon="-0.56609">
        <ele>44.4</ele>
        <time>2020-09-05T09:53:49Z</time>
      </trkpt>
      <trkpt lat="45.13551" lon="-0.5661">
        <ele>44.4</ele>
        <time>2020-09-05T09:53:51Z</time>
      </trkpt>
      <trkpt lat="45.1355" lon="-0.56611">
        <ele>44.4</ele>
        <time>2020-09-05T09:53:52Z</time>
      </trkpt>
      <trkpt lat="45.13549" lon="-0.56612">
        <ele>44.4</ele>
        <time>2020-09-05T09:53:54Z</time>
      </trkpt>
      <trkpt lat="45.13547" lon="-0.56615">
        <ele>44.4</ele>
        <time>2020-09-05T09:53:56Z</time>
      </trkpt>
      <trkpt lat="45.13545" lon="-0.56616">
        <ele>44.4</ele>
        <time>2020-09-05T09:53:58Z</time>
      </trkpt>
      <trkpt lat="45.13544" lon="-0.56617">
        <ele>44.4</ele>
        <time>2020-09-05T09:54:00Z</time>
      </trkpt>
      <trkpt lat="45.13543" lon="-0.56619">
        <ele>44.3</ele>
        <time>2020-09-05T09:54:01Z</time>
      </trkpt>
      <trkpt lat="45.13541" lon="-0.56621">
        <ele>44.3</ele>
        <time>2020-09-05T09:54:02Z</time>
      </trkpt>
      <trkpt lat="45.1354" lon="-0.56622">
        <ele>44.3</ele>
        <time>2020-09-05T09:54:03Z</time>
      </trkpt>
      <trkpt lat="45.13537" lon="-0.56624">
        <ele>44.3</ele>
        <time>2020-09-05T09:54:05Z</time>
      </trkpt>
      <trkpt lat="45.13537" lon="-0.56625">
        <ele>44.3</ele>
        <time>2020-09-05T09:54:06Z</time>
      </trkpt>
      <trkpt lat="45.13534" lon="-0.56628">
        <ele>44.3</ele>
        <time>2020-09-05T09:54:08Z</time>
      </trkpt>
      <trkpt lat="45.13533" lon="-0.56629">
        <ele>44.3</ele>
        <time>2020-09-05T09:54:09Z</time>
      </trkpt>
      <trkpt lat="45.13532" lon="-0.56631">
        <ele>44.4</ele>
        <time>2020-09-05T09:54:11Z</time>
      </trkpt>
      <trkpt lat="45.1353" lon="-0.56631">
        <ele>44.4</ele>
        <time>2020-09-05T09:54:13Z</time>
      </trkpt>
      <trkpt lat="45.13529" lon="-0.56634">
        <ele>44.4</ele>
        <time>2020-09-05T09:54:15Z</time>
      </trkpt>
      <trkpt lat="45.13529" lon="-0.56635">
        <ele>44.4</ele>
        <time>2020-09-05T09:54:16Z</time>
      </trkpt>
      <trkpt lat="45.13528" lon="-0.56636">
        <ele>44.4</ele>
        <time>2020-09-05T09:54:17Z</time>
      </trkpt>
      <trkpt lat="45.13528" lon="-0.56638">
        <ele>44.4</ele>
        <time>2020-09-05T09:54:19Z</time>
      </trkpt>
      <trkpt lat="45.13527" lon="-0.56639">
        <ele>44.4</ele>
        <time>2020-09-05T09:54:20Z</time>
      </trkpt>
      <trkpt lat="45.13527" lon="-0.56639">
        <ele>44.4</ele>
        <time>2020-09-05T09:54:21Z</time>
      </trkpt>
      <trkpt lat="45.13526" lon="-0.5664">
        <ele>44.3</ele>
        <time>2020-09-05T09:54:23Z</time>
      </trkpt>
      <trkpt lat="45.13525" lon="-0.5664">
        <ele>44.3</ele>
        <time>2020-09-05T09:54:24Z</time>
      </trkpt>
      <trkpt lat="45.13525" lon="-0.56639">
        <ele>44.3</ele>
        <time>2020-09-05T09:54:26Z</time>
      </trkpt>
      <trkpt lat="45.13525" lon="-0.56639">
        <ele>44.3</ele>
        <time>2020-09-05T09:54:27Z</time>
      </trkpt>
      <trkpt lat="45.13525" lon="-0.56638">
        <ele>44.3</ele>
        <time>2020-09-05T09:54:28Z</time>
      </trkpt>
      <trkpt lat="45.13525" lon="-0.56638">
        <ele>44.3</ele>
        <time>2020-09-05T09:54:29Z</time>
      </trkpt>
      <trkpt lat="45.13525" lon="-0.56638">
        <ele>44.3</ele>
        <time>2020-09-05T09:54:30Z</time>
      </trkpt>
      <trkpt lat="45.13524" lon="-0.56637">
        <ele>44.3</ele>
        <time>2020-09-05T09:54:32Z</time>
      </trkpt>
      <trkpt lat="45.13523" lon="-0.56637">
        <ele>44.3</ele>
        <time>2020-09-05T09:54:34Z</time>
      </trkpt>
      <trkpt lat="45.13523" lon="-0.56637">
        <ele>44.3</ele>
        <time>2020-09-05T09:54:35Z</time>
      </trkpt>
      <trkpt lat="45.13524" lon="-0.56638">
        <ele>44.3</ele>
        <time>2020-09-05T09:54:36Z</time>
      </trkpt>
      <trkpt lat="45.13524" lon="-0.56638">
        <ele>44.3</ele>
        <time>2020-09-05T09:54:38Z</time>
      </trkpt>
      <trkpt lat="45.13524" lon="-0.56637">
        <ele>44.2</ele>
        <time>2020-09-05T09:54:40Z</time>
      </trkpt>
      <trkpt lat="45.13524" lon="-0.56637">
        <ele>44.2</ele>
        <time>2020-09-05T09:54:42Z</time>
      </trkpt>
      <trkpt lat="45.13524" lon="-0.56639">
        <ele>44.2</ele>
        <time>2020-09-05T09:54:43Z</time>
      </trkpt>
      <trkpt lat="45.13524" lon="-0.5664">
        <ele>44.2</ele>
        <time>2020-09-05T09:54:45Z</time>
      </trkpt>
      <trkpt lat="45.13523" lon="-0.56642">
        <ele>44.2</ele>
        <time>2020-09-05T09:54:46Z</time>
      </trkpt>
      <trkpt lat="45.13523" lon="-0.56644">
        <ele>44.2</ele>
        <time>2020-09-05T09:54:47Z</time>
      </trkpt>
      <trkpt lat="45.13522" lon="-0.56647">
        <ele>44.2</ele>
        <time>2020-09-05T09:54:49Z</time>
      </trkpt>
      <trkpt lat="45.13522" lon="-0.56648">
        <ele>44.2</ele>
        <time>2020-09-05T09:54:50Z</time>
      </trkpt>
      <trkpt lat="45.13521" lon="-0.56649">
        <ele>44.2</ele>
        <time>2020-09-05T09:54:51Z</time>
      </trkpt>
      <trkpt lat="45.1352" lon="-0.56651">
        <ele>44.2</ele>
        <time>2020-09-05T09:54:52Z</time>
      </trkpt>
      <trkpt lat="45.13518" lon="-0.56652">
        <ele>44.2</ele>
        <time>2020-09-05T09:54:53Z</time>
      </trkpt>
      <trkpt lat="45.13517" lon="-0.56653">
        <ele>44.2</ele>
        <time>2020-09-05T09:54:55Z</time>
      </trkpt>
      <trkpt lat="45.13516" lon="-0.56654">
        <ele>44.2</ele>
        <time>2020-09-05T09:54:56Z</time>
      </trkpt>
      <trkpt lat="45.13515" lon="-0.56654">
        <ele>44.2</ele>
        <time>2020-09-05T09:54:57Z</time>
      </trkpt>
      <trkpt lat="45.13514" lon="-0.56655">
        <ele>44.2</ele>
        <time>2020-09-05T09:54:58Z</time>
      </trkpt>
      <trkpt lat="45.13513" lon="-0.56656">
        <ele>44.3</ele>
        <time>2020-09-05T09:54:59Z</time>
      </trkpt>
      <trkpt lat="45.13511" lon="-0.56658">
        <ele>44.3</ele>
        <time>2020-09-05T09:55:00Z</time>
      </trkpt>
      <trkpt lat="45.1351" lon="-0.56659">
        <ele>44.3</ele>
        <time>2020-09-05T09:55:01Z</time>
      </trkpt>
      <trkpt lat="45.13509" lon="-0.56661">
        <ele>44.3</ele>
        <time>2020-09-05T09:55:03Z</time>
      </trkpt>
      <trkpt lat="45.13507" lon="-0.56662">
        <ele>44.3</ele>
        <time>2020-09-05T09:55:04Z</time>
      </trkpt>
      <trkpt lat="45.13506" lon="-0.56663">
        <ele>44.3</ele>
        <time>2020-09-05T09:55:05Z</time>
      </trkpt>
      <trkpt lat="45.13504" lon="-0.56665">
        <ele>44.3</ele>
        <time>2020-09-05T09:55:06Z</time>
      </trkpt>
      <trkpt lat="45.13504" lon="-0.56666">
        <ele>44.4</ele>
        <time>2020-09-05T09:55:07Z</time>
      </trkpt>
      <trkpt lat="45.13503" lon="-0.56666">
        <ele>44.4</ele>
        <time>2020-09-05T09:55:08Z</time>
      </trkpt>
      <trkpt lat="45.13502" lon="-0.56667">
        <ele>44.4</ele>
        <time>2020-09-05T09:55:09Z</time>
      </trkpt>
      <trkpt lat="45.135" lon="-0.56668">
        <ele>44.4</ele>
        <time>2020-09-05T09:55:11Z</time>
      </trkpt>
      <trkpt lat="45.13499" lon="-0.56669">
        <ele>44.4</ele>
        <time>2020-09-05T09:55:12Z</time>
      </trkpt>
      <trkpt lat="45.13498" lon="-0.5667">
        <ele>44.4</ele>
        <time>2020-09-05T09:55:13Z</time>
      </trkpt>
      <trkpt lat="45.13497" lon="-0.56671">
        <ele>44.4</ele>
        <time>2020-09-05T09:55:14Z</time>
      </trkpt>
      <trkpt lat="45.13495" lon="-0.56672">
        <ele>44.4</ele>
        <time>2020-09-05T09:55:15Z</time>
      </trkpt>
      <trkpt lat="45.13495" lon="-0.56673">
        <ele>44.4</ele>
        <time>2020-09-05T09:55:16Z</time>
      </trkpt>
      <trkpt lat="45.13494" lon="-0.56674">
        <ele>44.5</ele>
        <time>2020-09-05T09:55:17Z</time>
      </trkpt>
      <trkpt lat="45.13493" lon="-0.56675">
        <ele>44.5</ele>
        <time>2020-09-05T09:55:18Z</time>
      </trkpt>
      <trkpt lat="45.13491" lon="-0.56677">
        <ele>44.5</ele>
        <time>2020-09-05T09:55:20Z</time>
      </trkpt>
      <trkpt lat="45.13489" lon="-0.56679">
        <ele>44.5</ele>
        <time>2020-09-05T09:55:21Z</time>
      </trkpt>
      <trkpt lat="45.13488" lon="-0.5668">
        <ele>44.5</ele>
        <time>2020-09-05T09:55:22Z</time>
      </trkpt>
      <trkpt lat="45.13485" lon="-0.56683">
        <ele>44.6</ele>
        <time>2020-09-05T09:55:24Z</time>
      </trkpt>
      <trkpt lat="45.13485" lon="-0.56684">
        <ele>44.6</ele>
        <time>2020-09-05T09:55:25Z</time>
      </trkpt>
      <trkpt lat="45.13483" lon="-0.56685">
        <ele>44.6</ele>
        <time>2020-09-05T09:55:27Z</time>
      </trkpt>
      <trkpt lat="45.13482" lon="-0.56686">
        <ele>44.6</ele>
        <time>2020-09-05T09:55:28Z</time>
      </trkpt>
      <trkpt lat="45.13481" lon="-0.56688">
        <ele>44.6</ele>
        <time>2020-09-05T09:55:29Z</time>
      </trkpt>
      <trkpt lat="45.1348" lon="-0.56689">
        <ele>44.6</ele>
        <time>2020-09-05T09:55:30Z</time>
      </trkpt>
      <trkpt lat="45.13479" lon="-0.5669">
        <ele>44.6</ele>
        <time>2020-09-05T09:55:31Z</time>
      </trkpt>
      <trkpt lat="45.13478" lon="-0.56691">
        <ele>44.6</ele>
        <time>2020-09-05T09:55:32Z</time>
      </trkpt>
      <trkpt lat="45.13477" lon="-0.56692">
        <ele>44.6</ele>
        <time>2020-09-05T09:55:34Z</time>
      </trkpt>
      <trkpt lat="45.13476" lon="-0.56693">
        <ele>44.6</ele>
        <time>2020-09-05T09:55:35Z</time>
      </trkpt>
      <trkpt lat="45.13476" lon="-0.56694">
        <ele>44.6</ele>
        <time>2020-09-05T09:55:36Z</time>
      </trkpt>
      <trkpt lat="45.13475" lon="-0.56696">
        <ele>44.6</ele>
        <time>2020-09-05T09:55:37Z</time>
      </trkpt>
      <trkpt lat="45.13474" lon="-0.56697">
        <ele>44.6</ele>
        <time>2020-09-05T09:55:38Z</time>
      </trkpt>
      <trkpt lat="45.13473" lon="-0.56698">
        <ele>44.6</ele>
        <time>2020-09-05T09:55:39Z</time>
      </trkpt>
      <trkpt lat="45.13473" lon="-0.56699">
        <ele>44.6</ele>
        <time>2020-09-05T09:55:40Z</time>
      </trkpt>
      <trkpt lat="45.13472" lon="-0.56701">
        <ele>44.6</ele>
        <time>2020-09-05T09:55:41Z</time>
      </trkpt>
      <trkpt lat="45.13471" lon="-0.56702">
        <ele>44.6</ele>
        <time>2020-09-05T09:55:42Z</time>
      </trkpt>
      <trkpt lat="45.1347" lon="-0.56704">
        <ele>44.6</ele>
        <time>2020-09-05T09:55:44Z</time>
      </trkpt>
      <trkpt lat="45.13468" lon="-0.56706">
        <ele>44.6</ele>
        <time>2020-09-05T09:55:45Z</time>
      </trkpt>
      <trkpt lat="45.13467" lon="-0.56707">
        <ele>44.7</ele>
        <time>2020-09-05T09:55:46Z</time>
      </trkpt>
      <trkpt lat="45.13466" lon="-0.56708">
        <ele>44.7</ele>
        <time>2020-09-05T09:55:47Z</time>
      </trkpt>
      <trkpt lat="45.13464" lon="-0.56711">
        <ele>44.7</ele>
        <time>2020-09-05T09:55:49Z</time>
      </trkpt>
      <trkpt lat="45.13464" lon="-0.56712">
        <ele>44.7</ele>
        <time>2020-09-05T09:55:50Z</time>
      </trkpt>
      <trkpt lat="45.13463" lon="-0.56713">
        <ele>44.7</ele>
        <time>2020-09-05T09:55:51Z</time>
      </trkpt>
      <trkpt lat="45.13462" lon="-0.56714">
        <ele>44.7</ele>
        <time>2020-09-05T09:55:52Z</time>
      </trkpt>
      <trkpt lat="45.13461" lon="-0.56715">
        <ele>44.7</ele>
        <time>2020-09-05T09:55:53Z</time>
      </trkpt>
      <trkpt lat="45.1346" lon="-0.56717">
        <ele>44.7</ele>
        <time>2020-09-05T09:55:54Z</time>
      </trkpt>
      <trkpt lat="45.13459" lon="-0.56718">
        <ele>44.7</ele>
        <time>2020-09-05T09:55:56Z</time>
      </trkpt>
      <trkpt lat="45.13458" lon="-0.56719">
        <ele>44.7</ele>
        <time>2020-09-05T09:55:57Z</time>
      </trkpt>
      <trkpt lat="45.13457" lon="-0.56721">
        <ele>44.7</ele>
        <time>2020-09-05T09:55:58Z</time>
      </trkpt>
      <trkpt lat="45.13456" lon="-0.56722">
        <ele>44.7</ele>
        <time>2020-09-05T09:55:59Z</time>
      </trkpt>
      <trkpt lat="45.13456" lon="-0.56723">
        <ele>44.7</ele>
        <time>2020-09-05T09:56:00Z</time>
      </trkpt>
      <trkpt lat="45.13455" lon="-0.56724">
        <ele>44.7</ele>
        <time>2020-09-05T09:56:01Z</time>
      </trkpt>
      <trkpt lat="45.13454" lon="-0.56727">
        <ele>44.7</ele>
        <time>2020-09-05T09:56:03Z</time>
      </trkpt>
      <trkpt lat="45.13454" lon="-0.56728">
        <ele>44.7</ele>
        <time>2020-09-05T09:56:04Z</time>
      </trkpt>
      <trkpt lat="45.13453" lon="-0.5673">
        <ele>44.7</ele>
        <time>2020-09-05T09:56:05Z</time>
      </trkpt>
      <trkpt lat="45.13452" lon="-0.56733">
        <ele>44.7</ele>
        <time>2020-09-05T09:56:07Z</time>
      </trkpt>
      <trkpt lat="45.13452" lon="-0.56735">
        <ele>44.7</ele>
        <time>2020-09-05T09:56:08Z</time>
      </trkpt>
      <trkpt lat="45.13451" lon="-0.56738">
        <ele>44.6</ele>
        <time>2020-09-05T09:56:10Z</time>
      </trkpt>
      <trkpt lat="45.1345" lon="-0.56744">
        <ele>44.6</ele>
        <time>2020-09-05T09:56:12Z</time>
      </trkpt>
      <trkpt lat="45.1345" lon="-0.56746">
        <ele>44.6</ele>
        <time>2020-09-05T09:56:13Z</time>
      </trkpt>
      <trkpt lat="45.13449" lon="-0.56747">
        <ele>44.6</ele>
        <time>2020-09-05T09:56:14Z</time>
      </trkpt>
      <trkpt lat="45.13449" lon="-0.56752">
        <ele>44.6</ele>
        <time>2020-09-05T09:56:16Z</time>
      </trkpt>
      <trkpt lat="45.13449" lon="-0.56753">
        <ele>44.6</ele>
        <time>2020-09-05T09:56:17Z</time>
      </trkpt>
      <trkpt lat="45.13448" lon="-0.56756">
        <ele>44.6</ele>
        <time>2020-09-05T09:56:19Z</time>
      </trkpt>
      <trkpt lat="45.13448" lon="-0.56758">
        <ele>44.6</ele>
        <time>2020-09-05T09:56:21Z</time>
      </trkpt>
      <trkpt lat="45.13448" lon="-0.56761">
        <ele>44.6</ele>
        <time>2020-09-05T09:56:22Z</time>
      </trkpt>
      <trkpt lat="45.13448" lon="-0.56763">
        <ele>44.6</ele>
        <time>2020-09-05T09:56:23Z</time>
      </trkpt>
      <trkpt lat="45.13449" lon="-0.56764">
        <ele>44.6</ele>
        <time>2020-09-05T09:56:24Z</time>
      </trkpt>
      <trkpt lat="45.13449" lon="-0.56767">
        <ele>44.6</ele>
        <time>2020-09-05T09:56:26Z</time>
      </trkpt>
      <trkpt lat="45.13449" lon="-0.56769">
        <ele>44.5</ele>
        <time>2020-09-05T09:56:27Z</time>
      </trkpt>
      <trkpt lat="45.1345" lon="-0.56772">
        <ele>44.5</ele>
        <time>2020-09-05T09:56:28Z</time>
      </trkpt>
      <trkpt lat="45.1345" lon="-0.56774">
        <ele>44.5</ele>
        <time>2020-09-05T09:56:30Z</time>
      </trkpt>
      <trkpt lat="45.13451" lon="-0.56777">
        <ele>44.4</ele>
        <time>2020-09-05T09:56:31Z</time>
      </trkpt>
      <trkpt lat="45.13452" lon="-0.5678">
        <ele>44.4</ele>
        <time>2020-09-05T09:56:33Z</time>
      </trkpt>
      <trkpt lat="45.13453" lon="-0.56781">
        <ele>44.3</ele>
        <time>2020-09-05T09:56:34Z</time>
      </trkpt>
      <trkpt lat="45.13454" lon="-0.56783">
        <ele>44.3</ele>
        <time>2020-09-05T09:56:35Z</time>
      </trkpt>
      <trkpt lat="45.13454" lon="-0.56784">
        <ele>44.3</ele>
        <time>2020-09-05T09:56:36Z</time>
      </trkpt>
      <trkpt lat="45.13455" lon="-0.56785">
        <ele>44.2</ele>
        <time>2020-09-05T09:56:37Z</time>
      </trkpt>
      <trkpt lat="45.13455" lon="-0.56787">
        <ele>44.2</ele>
        <time>2020-09-05T09:56:39Z</time>
      </trkpt>
      <trkpt lat="45.13456" lon="-0.56788">
        <ele>44.2</ele>
        <time>2020-09-05T09:56:40Z</time>
      </trkpt>
      <trkpt lat="45.13457" lon="-0.56791">
        <ele>44.2</ele>
        <time>2020-09-05T09:56:41Z</time>
      </trkpt>
      <trkpt lat="45.13457" lon="-0.56792">
        <ele>44.1</ele>
        <time>2020-09-05T09:56:42Z</time>
      </trkpt>
      <trkpt lat="45.13458" lon="-0.56793">
        <ele>44.1</ele>
        <time>2020-09-05T09:56:43Z</time>
      </trkpt>
      <trkpt lat="45.13459" lon="-0.56796">
        <ele>44.1</ele>
        <time>2020-09-05T09:56:44Z</time>
      </trkpt>
      <trkpt lat="45.13459" lon="-0.56797">
        <ele>44.1</ele>
        <time>2020-09-05T09:56:45Z</time>
      </trkpt>
      <trkpt lat="45.13459" lon="-0.56798">
        <ele>44.1</ele>
        <time>2020-09-05T09:56:46Z</time>
      </trkpt>
      <trkpt lat="45.1346" lon="-0.568">
        <ele>44.1</ele>
        <time>2020-09-05T09:56:47Z</time>
      </trkpt>
      <trkpt lat="45.13461" lon="-0.56801">
        <ele>44.1</ele>
        <time>2020-09-05T09:56:48Z</time>
      </trkpt>
      <trkpt lat="45.13462" lon="-0.56804">
        <ele>44.1</ele>
        <time>2020-09-05T09:56:50Z</time>
      </trkpt>
      <trkpt lat="45.13463" lon="-0.56806">
        <ele>44.1</ele>
        <time>2020-09-05T09:56:51Z</time>
      </trkpt>
      <trkpt lat="45.13463" lon="-0.56807">
        <ele>44.1</ele>
        <time>2020-09-05T09:56:52Z</time>
      </trkpt>
      <trkpt lat="45.13463" lon="-0.56808">
        <ele>44.1</ele>
        <time>2020-09-05T09:56:53Z</time>
      </trkpt>
      <trkpt lat="45.13464" lon="-0.5681">
        <ele>44.1</ele>
        <time>2020-09-05T09:56:54Z</time>
      </trkpt>
      <trkpt lat="45.13464" lon="-0.56811">
        <ele>44.1</ele>
        <time>2020-09-05T09:56:55Z</time>
      </trkpt>
      <trkpt lat="45.13464" lon="-0.56812">
        <ele>44</ele>
        <time>2020-09-05T09:56:56Z</time>
      </trkpt>
      <trkpt lat="45.13465" lon="-0.56816">
        <ele>44</ele>
        <time>2020-09-05T09:56:57Z</time>
      </trkpt>
      <trkpt lat="45.13465" lon="-0.56818">
        <ele>44</ele>
        <time>2020-09-05T09:56:59Z</time>
      </trkpt>
      <trkpt lat="45.13466" lon="-0.5682">
        <ele>44</ele>
        <time>2020-09-05T09:57:01Z</time>
      </trkpt>
      <trkpt lat="45.13466" lon="-0.56822">
        <ele>44</ele>
        <time>2020-09-05T09:57:02Z</time>
      </trkpt>
      <trkpt lat="45.13467" lon="-0.56824">
        <ele>44</ele>
        <time>2020-09-05T09:57:03Z</time>
      </trkpt>
      <trkpt lat="45.13467" lon="-0.56826">
        <ele>44</ele>
        <time>2020-09-05T09:57:04Z</time>
      </trkpt>
      <trkpt lat="45.13468" lon="-0.56829">
        <ele>44</ele>
        <time>2020-09-05T09:57:06Z</time>
      </trkpt>
      <trkpt lat="45.13469" lon="-0.56831">
        <ele>44</ele>
        <time>2020-09-05T09:57:07Z</time>
      </trkpt>
      <trkpt lat="45.13469" lon="-0.56833">
        <ele>44</ele>
        <time>2020-09-05T09:57:08Z</time>
      </trkpt>
      <trkpt lat="45.1347" lon="-0.56836">
        <ele>43.9</ele>
        <time>2020-09-05T09:57:10Z</time>
      </trkpt>
      <trkpt lat="45.1347" lon="-0.56838">
        <ele>43.9</ele>
        <time>2020-09-05T09:57:11Z</time>
      </trkpt>
      <trkpt lat="45.1347" lon="-0.56841">
        <ele>43.9</ele>
        <time>2020-09-05T09:57:13Z</time>
      </trkpt>
      <trkpt lat="45.13471" lon="-0.56843">
        <ele>43.9</ele>
        <time>2020-09-05T09:57:14Z</time>
      </trkpt>
      <trkpt lat="45.13471" lon="-0.56845">
        <ele>43.9</ele>
        <time>2020-09-05T09:57:15Z</time>
      </trkpt>
      <trkpt lat="45.13471" lon="-0.56847">
        <ele>43.8</ele>
        <time>2020-09-05T09:57:17Z</time>
      </trkpt>
      <trkpt lat="45.13471" lon="-0.5685">
        <ele>43.8</ele>
        <time>2020-09-05T09:57:18Z</time>
      </trkpt>
      <trkpt lat="45.13471" lon="-0.56853">
        <ele>43.8</ele>
        <time>2020-09-05T09:57:20Z</time>
      </trkpt>
      <trkpt lat="45.13471" lon="-0.56855">
        <ele>43.7</ele>
        <time>2020-09-05T09:57:22Z</time>
      </trkpt>
      <trkpt lat="45.13471" lon="-0.56857">
        <ele>43.7</ele>
        <time>2020-09-05T09:57:23Z</time>
      </trkpt>
      <trkpt lat="45.1347" lon="-0.5686">
        <ele>43.6</ele>
        <time>2020-09-05T09:57:24Z</time>
      </trkpt>
      <trkpt lat="45.1347" lon="-0.56862">
        <ele>43.6</ele>
        <time>2020-09-05T09:57:25Z</time>
      </trkpt>
      <trkpt lat="45.1347" lon="-0.56863">
        <ele>43.6</ele>
        <time>2020-09-05T09:57:26Z</time>
      </trkpt>
      <trkpt lat="45.13469" lon="-0.56864">
        <ele>43.6</ele>
        <time>2020-09-05T09:57:27Z</time>
      </trkpt>
      <trkpt lat="45.13469" lon="-0.56867">
        <ele>43.5</ele>
        <time>2020-09-05T09:57:28Z</time>
      </trkpt>
      <trkpt lat="45.13468" lon="-0.56868">
        <ele>43.5</ele>
        <time>2020-09-05T09:57:29Z</time>
      </trkpt>
      <trkpt lat="45.13468" lon="-0.56869">
        <ele>43.5</ele>
        <time>2020-09-05T09:57:30Z</time>
      </trkpt>
      <trkpt lat="45.13467" lon="-0.56871">
        <ele>43.5</ele>
        <time>2020-09-05T09:57:31Z</time>
      </trkpt>
      <trkpt lat="45.13467" lon="-0.56872">
        <ele>43.4</ele>
        <time>2020-09-05T09:57:32Z</time>
      </trkpt>
      <trkpt lat="45.13465" lon="-0.56875">
        <ele>43.4</ele>
        <time>2020-09-05T09:57:35Z</time>
      </trkpt>
      <trkpt lat="45.13465" lon="-0.56876">
        <ele>43.4</ele>
        <time>2020-09-05T09:57:36Z</time>
      </trkpt>
      <trkpt lat="45.13464" lon="-0.56877">
        <ele>43.4</ele>
        <time>2020-09-05T09:57:37Z</time>
      </trkpt>
      <trkpt lat="45.13463" lon="-0.56879">
        <ele>43.4</ele>
        <time>2020-09-05T09:57:38Z</time>
      </trkpt>
      <trkpt lat="45.13462" lon="-0.56881">
        <ele>43.4</ele>
        <time>2020-09-05T09:57:39Z</time>
      </trkpt>
      <trkpt lat="45.13461" lon="-0.56882">
        <ele>43.4</ele>
        <time>2020-09-05T09:57:40Z</time>
      </trkpt>
      <trkpt lat="45.1346" lon="-0.56884">
        <ele>43.4</ele>
        <time>2020-09-05T09:57:42Z</time>
      </trkpt>
      <trkpt lat="45.13459" lon="-0.56885">
        <ele>43.4</ele>
        <time>2020-09-05T09:57:43Z</time>
      </trkpt>
      <trkpt lat="45.13458" lon="-0.56887">
        <ele>43.4</ele>
        <time>2020-09-05T09:57:44Z</time>
      </trkpt>
      <trkpt lat="45.13457" lon="-0.5689">
        <ele>43.4</ele>
        <time>2020-09-05T09:57:46Z</time>
      </trkpt>
      <trkpt lat="45.13454" lon="-0.56893">
        <ele>43.4</ele>
        <time>2020-09-05T09:57:48Z</time>
      </trkpt>
      <trkpt lat="45.13454" lon="-0.56894">
        <ele>43.4</ele>
        <time>2020-09-05T09:57:49Z</time>
      </trkpt>
      <trkpt lat="45.13451" lon="-0.56897">
        <ele>43.4</ele>
        <time>2020-09-05T09:57:51Z</time>
      </trkpt>
      <trkpt lat="45.13451" lon="-0.56897">
        <ele>43.4</ele>
        <time>2020-09-05T09:57:52Z</time>
      </trkpt>
      <trkpt lat="45.1345" lon="-0.56899">
        <ele>43.4</ele>
        <time>2020-09-05T09:57:53Z</time>
      </trkpt>
      <trkpt lat="45.13449" lon="-0.569">
        <ele>43.4</ele>
        <time>2020-09-05T09:57:55Z</time>
      </trkpt>
      <trkpt lat="45.13448" lon="-0.56901">
        <ele>43.4</ele>
        <time>2020-09-05T09:57:56Z</time>
      </trkpt>
      <trkpt lat="45.13446" lon="-0.56902">
        <ele>43.4</ele>
        <time>2020-09-05T09:57:57Z</time>
      </trkpt>
      <trkpt lat="45.13445" lon="-0.56903">
        <ele>43.4</ele>
        <time>2020-09-05T09:57:59Z</time>
      </trkpt>
      <trkpt lat="45.13444" lon="-0.56904">
        <ele>43.4</ele>
        <time>2020-09-05T09:58:00Z</time>
      </trkpt>
      <trkpt lat="45.13442" lon="-0.56905">
        <ele>43.4</ele>
        <time>2020-09-05T09:58:02Z</time>
      </trkpt>
      <trkpt lat="45.1344" lon="-0.56906">
        <ele>43.5</ele>
        <time>2020-09-05T09:58:03Z</time>
      </trkpt>
      <trkpt lat="45.13438" lon="-0.56907">
        <ele>43.5</ele>
        <time>2020-09-05T09:58:05Z</time>
      </trkpt>
      <trkpt lat="45.13435" lon="-0.56908">
        <ele>43.5</ele>
        <time>2020-09-05T09:58:07Z</time>
      </trkpt>
      <trkpt lat="45.13435" lon="-0.56908">
        <ele>43.5</ele>
        <time>2020-09-05T09:58:08Z</time>
      </trkpt>
      <trkpt lat="45.13433" lon="-0.56909">
        <ele>43.5</ele>
        <time>2020-09-05T09:58:09Z</time>
      </trkpt>
      <trkpt lat="45.13432" lon="-0.5691">
        <ele>43.5</ele>
        <time>2020-09-05T09:58:10Z</time>
      </trkpt>
      <trkpt lat="45.13431" lon="-0.5691">
        <ele>43.5</ele>
        <time>2020-09-05T09:58:11Z</time>
      </trkpt>
      <trkpt lat="45.1343" lon="-0.5691">
        <ele>43.5</ele>
        <time>2020-09-05T09:58:13Z</time>
      </trkpt>
      <trkpt lat="45.13429" lon="-0.56911">
        <ele>43.5</ele>
        <time>2020-09-05T09:58:14Z</time>
      </trkpt>
      <trkpt lat="45.13428" lon="-0.56911">
        <ele>43.5</ele>
        <time>2020-09-05T09:58:15Z</time>
      </trkpt>
      <trkpt lat="45.13426" lon="-0.56912">
        <ele>43.5</ele>
        <time>2020-09-05T09:58:16Z</time>
      </trkpt>
      <trkpt lat="45.13424" lon="-0.56913">
        <ele>43.5</ele>
        <time>2020-09-05T09:58:18Z</time>
      </trkpt>
      <trkpt lat="45.13421" lon="-0.56914">
        <ele>43.6</ele>
        <time>2020-09-05T09:58:20Z</time>
      </trkpt>
      <trkpt lat="45.13419" lon="-0.56916">
        <ele>43.6</ele>
        <time>2020-09-05T09:58:22Z</time>
      </trkpt>
      <trkpt lat="45.13418" lon="-0.56917">
        <ele>43.6</ele>
        <time>2020-09-05T09:58:23Z</time>
      </trkpt>
      <trkpt lat="45.13417" lon="-0.56918">
        <ele>43.6</ele>
        <time>2020-09-05T09:58:24Z</time>
      </trkpt>
      <trkpt lat="45.13416" lon="-0.56918">
        <ele>43.6</ele>
        <time>2020-09-05T09:58:25Z</time>
      </trkpt>
      <trkpt lat="45.13413" lon="-0.56921">
        <ele>43.7</ele>
        <time>2020-09-05T09:58:27Z</time>
      </trkpt>
      <trkpt lat="45.13412" lon="-0.56922">
        <ele>43.7</ele>
        <time>2020-09-05T09:58:28Z</time>
      </trkpt>
      <trkpt lat="45.13409" lon="-0.56923">
        <ele>43.7</ele>
        <time>2020-09-05T09:58:30Z</time>
      </trkpt>
      <trkpt lat="45.13406" lon="-0.56925">
        <ele>43.8</ele>
        <time>2020-09-05T09:58:31Z</time>
      </trkpt>
      <trkpt lat="45.13406" lon="-0.56925">
        <ele>43.8</ele>
        <time>2020-09-05T09:58:32Z</time>
      </trkpt>
      <trkpt lat="45.13404" lon="-0.56926">
        <ele>43.8</ele>
        <time>2020-09-05T09:58:34Z</time>
      </trkpt>
      <trkpt lat="45.13403" lon="-0.56927">
        <ele>43.8</ele>
        <time>2020-09-05T09:58:35Z</time>
      </trkpt>
      <trkpt lat="45.13401" lon="-0.56928">
        <ele>43.8</ele>
        <time>2020-09-05T09:58:37Z</time>
      </trkpt>
      <trkpt lat="45.134" lon="-0.56929">
        <ele>43.9</ele>
        <time>2020-09-05T09:58:38Z</time>
      </trkpt>
      <trkpt lat="45.13398" lon="-0.56929">
        <ele>43.9</ele>
        <time>2020-09-05T09:58:39Z</time>
      </trkpt>
      <trkpt lat="45.13397" lon="-0.5693">
        <ele>43.9</ele>
        <time>2020-09-05T09:58:40Z</time>
      </trkpt>
      <trkpt lat="45.13396" lon="-0.5693">
        <ele>43.9</ele>
        <time>2020-09-05T09:58:41Z</time>
      </trkpt>
      <trkpt lat="45.13395" lon="-0.5693">
        <ele>43.9</ele>
        <time>2020-09-05T09:58:43Z</time>
      </trkpt>
      <trkpt lat="45.13394" lon="-0.56931">
        <ele>43.9</ele>
        <time>2020-09-05T09:58:44Z</time>
      </trkpt>
      <trkpt lat="45.13392" lon="-0.56932">
        <ele>44</ele>
        <time>2020-09-05T09:58:45Z</time>
      </trkpt>
      <trkpt lat="45.13391" lon="-0.56932">
        <ele>44</ele>
        <time>2020-09-05T09:58:46Z</time>
      </trkpt>
      <trkpt lat="45.13391" lon="-0.56932">
        <ele>44</ele>
        <time>2020-09-05T09:58:47Z</time>
      </trkpt>
      <trkpt lat="45.13389" lon="-0.56933">
        <ele>44.1</ele>
        <time>2020-09-05T09:58:48Z</time>
      </trkpt>
      <trkpt lat="45.13388" lon="-0.56933">
        <ele>44.1</ele>
        <time>2020-09-05T09:58:49Z</time>
      </trkpt>
      <trkpt lat="45.13388" lon="-0.56934">
        <ele>44.1</ele>
        <time>2020-09-05T09:58:50Z</time>
      </trkpt>
      <trkpt lat="45.13387" lon="-0.56934">
        <ele>44.1</ele>
        <time>2020-09-05T09:58:51Z</time>
      </trkpt>
      <trkpt lat="45.13386" lon="-0.56934">
        <ele>44.1</ele>
        <time>2020-09-05T09:58:52Z</time>
      </trkpt>
      <trkpt lat="45.13385" lon="-0.56934">
        <ele>44.2</ele>
        <time>2020-09-05T09:58:53Z</time>
      </trkpt>
      <trkpt lat="45.13383" lon="-0.56935">
        <ele>44.2</ele>
        <time>2020-09-05T09:58:55Z</time>
      </trkpt>
      <trkpt lat="45.13381" lon="-0.56936">
        <ele>44.3</ele>
        <time>2020-09-05T09:58:57Z</time>
      </trkpt>
      <trkpt lat="45.1338" lon="-0.56936">
        <ele>44.3</ele>
        <time>2020-09-05T09:58:58Z</time>
      </trkpt>
      <trkpt lat="45.13379" lon="-0.56936">
        <ele>44.4</ele>
        <time>2020-09-05T09:58:59Z</time>
      </trkpt>
      <trkpt lat="45.13378" lon="-0.56937">
        <ele>44.4</ele>
        <time>2020-09-05T09:59:00Z</time>
      </trkpt>
      <trkpt lat="45.13377" lon="-0.56937">
        <ele>44.5</ele>
        <time>2020-09-05T09:59:01Z</time>
      </trkpt>
      <trkpt lat="45.13375" lon="-0.56938">
        <ele>44.5</ele>
        <time>2020-09-05T09:59:03Z</time>
      </trkpt>
      <trkpt lat="45.13374" lon="-0.56939">
        <ele>44.5</ele>
        <time>2020-09-05T09:59:04Z</time>
      </trkpt>
      <trkpt lat="45.13371" lon="-0.5694">
        <ele>44.6</ele>
        <time>2020-09-05T09:59:05Z</time>
      </trkpt>
      <trkpt lat="45.1337" lon="-0.5694">
        <ele>44.6</ele>
        <time>2020-09-05T09:59:06Z</time>
      </trkpt>
      <trkpt lat="45.13369" lon="-0.56941">
        <ele>44.7</ele>
        <time>2020-09-05T09:59:07Z</time>
      </trkpt>
      <trkpt lat="45.13368" lon="-0.56942">
        <ele>44.7</ele>
        <time>2020-09-05T09:59:09Z</time>
      </trkpt>
      <trkpt lat="45.13367" lon="-0.56942">
        <ele>44.7</ele>
        <time>2020-09-05T09:59:10Z</time>
      </trkpt>
      <trkpt lat="45.13365" lon="-0.56943">
        <ele>44.7</ele>
        <time>2020-09-05T09:59:11Z</time>
      </trkpt>
      <trkpt lat="45.13364" lon="-0.56943">
        <ele>44.8</ele>
        <time>2020-09-05T09:59:12Z</time>
      </trkpt>
      <trkpt lat="45.13363" lon="-0.56944">
        <ele>44.8</ele>
        <time>2020-09-05T09:59:13Z</time>
      </trkpt>
      <trkpt lat="45.13362" lon="-0.56945">
        <ele>44.8</ele>
        <time>2020-09-05T09:59:14Z</time>
      </trkpt>
      <trkpt lat="45.13361" lon="-0.56945">
        <ele>44.8</ele>
        <time>2020-09-05T09:59:15Z</time>
      </trkpt>
      <trkpt lat="45.13358" lon="-0.56947">
        <ele>44.9</ele>
        <time>2020-09-05T09:59:17Z</time>
      </trkpt>
      <trkpt lat="45.13357" lon="-0.56947">
        <ele>44.9</ele>
        <time>2020-09-05T09:59:18Z</time>
      </trkpt>
      <trkpt lat="45.13355" lon="-0.56948">
        <ele>44.9</ele>
        <time>2020-09-05T09:59:19Z</time>
      </trkpt>
      <trkpt lat="45.13353" lon="-0.56949">
        <ele>44.9</ele>
        <time>2020-09-05T09:59:21Z</time>
      </trkpt>
      <trkpt lat="45.13351" lon="-0.56949">
        <ele>45</ele>
        <time>2020-09-05T09:59:22Z</time>
      </trkpt>
      <trkpt lat="45.1335" lon="-0.5695">
        <ele>45</ele>
        <time>2020-09-05T09:59:24Z</time>
      </trkpt>
      <trkpt lat="45.13348" lon="-0.56951">
        <ele>45.1</ele>
        <time>2020-09-05T09:59:25Z</time>
      </trkpt>
      <trkpt lat="45.13347" lon="-0.56952">
        <ele>45.1</ele>
        <time>2020-09-05T09:59:27Z</time>
      </trkpt>
      <trkpt lat="45.13346" lon="-0.56953">
        <ele>45.1</ele>
        <time>2020-09-05T09:59:28Z</time>
      </trkpt>
      <trkpt lat="45.13344" lon="-0.56954">
        <ele>45.2</ele>
        <time>2020-09-05T09:59:29Z</time>
      </trkpt>
      <trkpt lat="45.13342" lon="-0.56954">
        <ele>45.2</ele>
        <time>2020-09-05T09:59:31Z</time>
      </trkpt>
      <trkpt lat="45.1334" lon="-0.56955">
        <ele>45.3</ele>
        <time>2020-09-05T09:59:32Z</time>
      </trkpt>
      <trkpt lat="45.13339" lon="-0.56956">
        <ele>45.3</ele>
        <time>2020-09-05T09:59:34Z</time>
      </trkpt>
      <trkpt lat="45.13336" lon="-0.56958">
        <ele>45.4</ele>
        <time>2020-09-05T09:59:35Z</time>
      </trkpt>
      <trkpt lat="45.13336" lon="-0.56958">
        <ele>45.4</ele>
        <time>2020-09-05T09:59:36Z</time>
      </trkpt>
      <trkpt lat="45.13334" lon="-0.56959">
        <ele>45.4</ele>
        <time>2020-09-05T09:59:37Z</time>
      </trkpt>
      <trkpt lat="45.13333" lon="-0.5696">
        <ele>45.4</ele>
        <time>2020-09-05T09:59:38Z</time>
      </trkpt>
      <trkpt lat="45.13331" lon="-0.56962">
        <ele>45.5</ele>
        <time>2020-09-05T09:59:40Z</time>
      </trkpt>
      <trkpt lat="45.1333" lon="-0.56962">
        <ele>45.5</ele>
        <time>2020-09-05T09:59:42Z</time>
      </trkpt>
      <trkpt lat="45.13329" lon="-0.56963">
        <ele>45.5</ele>
        <time>2020-09-05T09:59:43Z</time>
      </trkpt>
      <trkpt lat="45.13327" lon="-0.56964">
        <ele>45.5</ele>
        <time>2020-09-05T09:59:44Z</time>
      </trkpt>
      <trkpt lat="45.13326" lon="-0.56964">
        <ele>45.5</ele>
        <time>2020-09-05T09:59:45Z</time>
      </trkpt>
      <trkpt lat="45.13325" lon="-0.56965">
        <ele>45.5</ele>
        <time>2020-09-05T09:59:46Z</time>
      </trkpt>
      <trkpt lat="45.13324" lon="-0.56966">
        <ele>45.6</ele>
        <time>2020-09-05T09:59:47Z</time>
      </trkpt>
      <trkpt lat="45.13322" lon="-0.56967">
        <ele>45.6</ele>
        <time>2020-09-05T09:59:48Z</time>
      </trkpt>
      <trkpt lat="45.13321" lon="-0.56968">
        <ele>45.6</ele>
        <time>2020-09-05T09:59:49Z</time>
      </trkpt>
      <trkpt lat="45.13318" lon="-0.56969">
        <ele>45.6</ele>
        <time>2020-09-05T09:59:51Z</time>
      </trkpt>
      <trkpt lat="45.13317" lon="-0.56969">
        <ele>45.7</ele>
        <time>2020-09-05T09:59:52Z</time>
      </trkpt>
      <trkpt lat="45.13316" lon="-0.5697">
        <ele>45.7</ele>
        <time>2020-09-05T09:59:54Z</time>
      </trkpt>
      <trkpt lat="45.13313" lon="-0.56971">
        <ele>45.8</ele>
        <time>2020-09-05T09:59:56Z</time>
      </trkpt>
      <trkpt lat="45.13311" lon="-0.56972">
        <ele>45.8</ele>
        <time>2020-09-05T09:59:57Z</time>
      </trkpt>
      <trkpt lat="45.13309" lon="-0.56972">
        <ele>45.8</ele>
        <time>2020-09-05T09:59:59Z</time>
      </trkpt>
      <trkpt lat="45.13308" lon="-0.56973">
        <ele>45.8</ele>
        <time>2020-09-05T10:00:00Z</time>
      </trkpt>
      <trkpt lat="45.13307" lon="-0.56973">
        <ele>45.9</ele>
        <time>2020-09-05T10:00:01Z</time>
      </trkpt>
      <trkpt lat="45.13305" lon="-0.56974">
        <ele>45.9</ele>
        <time>2020-09-05T10:00:02Z</time>
      </trkpt>
      <trkpt lat="45.13303" lon="-0.56975">
        <ele>46</ele>
        <time>2020-09-05T10:00:04Z</time>
      </trkpt>
      <trkpt lat="45.13301" lon="-0.56976">
        <ele>46</ele>
        <time>2020-09-05T10:00:05Z</time>
      </trkpt>
      <trkpt lat="45.13299" lon="-0.56977">
        <ele>46</ele>
        <time>2020-09-05T10:00:07Z</time>
      </trkpt>
      <trkpt lat="45.13298" lon="-0.56978">
        <ele>46</ele>
        <time>2020-09-05T10:00:08Z</time>
      </trkpt>
      <trkpt lat="45.13296" lon="-0.56979">
        <ele>46</ele>
        <time>2020-09-05T10:00:09Z</time>
      </trkpt>
      <trkpt lat="45.13294" lon="-0.56981">
        <ele>46.1</ele>
        <time>2020-09-05T10:00:11Z</time>
      </trkpt>
      <trkpt lat="45.13293" lon="-0.56982">
        <ele>46.1</ele>
        <time>2020-09-05T10:00:12Z</time>
      </trkpt>
      <trkpt lat="45.13291" lon="-0.56983">
        <ele>46.1</ele>
        <time>2020-09-05T10:00:13Z</time>
      </trkpt>
      <trkpt lat="45.13289" lon="-0.56984">
        <ele>46.1</ele>
        <time>2020-09-05T10:00:14Z</time>
      </trkpt>
      <trkpt lat="45.13288" lon="-0.56985">
        <ele>46.1</ele>
        <time>2020-09-05T10:00:15Z</time>
      </trkpt>
      <trkpt lat="45.13287" lon="-0.56986">
        <ele>46.1</ele>
        <time>2020-09-05T10:00:16Z</time>
      </trkpt>
      <trkpt lat="45.13286" lon="-0.56986">
        <ele>46.1</ele>
        <time>2020-09-05T10:00:17Z</time>
      </trkpt>
      <trkpt lat="45.13284" lon="-0.56987">
        <ele>46.1</ele>
        <time>2020-09-05T10:00:18Z</time>
      </trkpt>
      <trkpt lat="45.13283" lon="-0.56988">
        <ele>46.1</ele>
        <time>2020-09-05T10:00:19Z</time>
      </trkpt>
      <trkpt lat="45.13283" lon="-0.56988">
        <ele>46.1</ele>
        <time>2020-09-05T10:00:20Z</time>
      </trkpt>
      <trkpt lat="45.13282" lon="-0.56989">
        <ele>46.1</ele>
        <time>2020-09-05T10:00:21Z</time>
      </trkpt>
      <trkpt lat="45.13281" lon="-0.5699">
        <ele>46.1</ele>
        <time>2020-09-05T10:00:22Z</time>
      </trkpt>
      <trkpt lat="45.13279" lon="-0.56991">
        <ele>46.2</ele>
        <time>2020-09-05T10:00:24Z</time>
      </trkpt>
      <trkpt lat="45.13278" lon="-0.56992">
        <ele>46.2</ele>
        <time>2020-09-05T10:00:25Z</time>
      </trkpt>
      <trkpt lat="45.13277" lon="-0.56992">
        <ele>46.2</ele>
        <time>2020-09-05T10:00:26Z</time>
      </trkpt>
      <trkpt lat="45.13276" lon="-0.56993">
        <ele>46.2</ele>
        <time>2020-09-05T10:00:27Z</time>
      </trkpt>
      <trkpt lat="45.13276" lon="-0.56994">
        <ele>46.2</ele>
        <time>2020-09-05T10:00:28Z</time>
      </trkpt>
      <trkpt lat="45.13275" lon="-0.56995">
        <ele>46.2</ele>
        <time>2020-09-05T10:00:29Z</time>
      </trkpt>
      <trkpt lat="45.13274" lon="-0.56996">
        <ele>46.2</ele>
        <time>2020-09-05T10:00:30Z</time>
      </trkpt>
      <trkpt lat="45.13272" lon="-0.56997">
        <ele>46.2</ele>
        <time>2020-09-05T10:00:31Z</time>
      </trkpt>
      <trkpt lat="45.13271" lon="-0.56998">
        <ele>46.2</ele>
        <time>2020-09-05T10:00:32Z</time>
      </trkpt>
      <trkpt lat="45.13271" lon="-0.56998">
        <ele>46.2</ele>
        <time>2020-09-05T10:00:33Z</time>
      </trkpt>
      <trkpt lat="45.13269" lon="-0.56999">
        <ele>46.2</ele>
        <time>2020-09-05T10:00:34Z</time>
      </trkpt>
      <trkpt lat="45.13268" lon="-0.57">
        <ele>46.2</ele>
        <time>2020-09-05T10:00:35Z</time>
      </trkpt>
      <trkpt lat="45.13267" lon="-0.57">
        <ele>46.2</ele>
        <time>2020-09-05T10:00:36Z</time>
      </trkpt>
      <trkpt lat="45.13265" lon="-0.56999">
        <ele>46.2</ele>
        <time>2020-09-05T10:00:37Z</time>
      </trkpt>
      <trkpt lat="45.13263" lon="-0.56999">
        <ele>46.3</ele>
        <time>2020-09-05T10:00:39Z</time>
      </trkpt>
      <trkpt lat="45.13262" lon="-0.56998">
        <ele>46.3</ele>
        <time>2020-09-05T10:00:40Z</time>
      </trkpt>
      <trkpt lat="45.13261" lon="-0.56997">
        <ele>46.3</ele>
        <time>2020-09-05T10:00:41Z</time>
      </trkpt>
      <trkpt lat="45.1326" lon="-0.56996">
        <ele>46.3</ele>
        <time>2020-09-05T10:00:42Z</time>
      </trkpt>
      <trkpt lat="45.1326" lon="-0.56991">
        <ele>46.3</ele>
        <time>2020-09-05T10:00:44Z</time>
      </trkpt>
      <trkpt lat="45.1326" lon="-0.5699">
        <ele>46.3</ele>
        <time>2020-09-05T10:00:45Z</time>
      </trkpt>
      <trkpt lat="45.1326" lon="-0.56988">
        <ele>46.3</ele>
        <time>2020-09-05T10:00:46Z</time>
      </trkpt>
      <trkpt lat="45.1326" lon="-0.56984">
        <ele>46.3</ele>
        <time>2020-09-05T10:00:48Z</time>
      </trkpt>
      <trkpt lat="45.1326" lon="-0.56981">
        <ele>46.3</ele>
        <time>2020-09-05T10:00:49Z</time>
      </trkpt>
      <trkpt lat="45.1326" lon="-0.56977">
        <ele>46.3</ele>
        <time>2020-09-05T10:00:51Z</time>
      </trkpt>
      <trkpt lat="45.1326" lon="-0.56975">
        <ele>46.3</ele>
        <time>2020-09-05T10:00:52Z</time>
      </trkpt>
      <trkpt lat="45.13259" lon="-0.56973">
        <ele>46.3</ele>
        <time>2020-09-05T10:00:54Z</time>
      </trkpt>
      <trkpt lat="45.13259" lon="-0.5697">
        <ele>46.4</ele>
        <time>2020-09-05T10:00:56Z</time>
      </trkpt>
      <trkpt lat="45.13258" lon="-0.56968">
        <ele>46.4</ele>
        <time>2020-09-05T10:00:57Z</time>
      </trkpt>
      <trkpt lat="45.13257" lon="-0.56965">
        <ele>46.4</ele>
        <time>2020-09-05T10:00:58Z</time>
      </trkpt>
      <trkpt lat="45.13257" lon="-0.56962">
        <ele>46.4</ele>
        <time>2020-09-05T10:01:00Z</time>
      </trkpt>
      <trkpt lat="45.13256" lon="-0.5696">
        <ele>46.4</ele>
        <time>2020-09-05T10:01:01Z</time>
      </trkpt>
      <trkpt lat="45.13254" lon="-0.56956">
        <ele>46.5</ele>
        <time>2020-09-05T10:01:03Z</time>
      </trkpt>
      <trkpt lat="45.13252" lon="-0.56954">
        <ele>46.5</ele>
        <time>2020-09-05T10:01:04Z</time>
      </trkpt>
      <trkpt lat="45.13251" lon="-0.56953">
        <ele>46.5</ele>
        <time>2020-09-05T10:01:05Z</time>
      </trkpt>
      <trkpt lat="45.13248" lon="-0.56949">
        <ele>46.6</ele>
        <time>2020-09-05T10:01:07Z</time>
      </trkpt>
      <trkpt lat="45.13247" lon="-0.56948">
        <ele>46.6</ele>
        <time>2020-09-05T10:01:08Z</time>
      </trkpt>
      <trkpt lat="45.13246" lon="-0.56944">
        <ele>46.7</ele>
        <time>2020-09-05T10:01:10Z</time>
      </trkpt>
      <trkpt lat="45.13246" lon="-0.56943">
        <ele>46.7</ele>
        <time>2020-09-05T10:01:11Z</time>
      </trkpt>
      <trkpt lat="45.13245" lon="-0.5694">
        <ele>46.7</ele>
        <time>2020-09-05T10:01:12Z</time>
      </trkpt>
      <trkpt lat="45.13244" lon="-0.56938">
        <ele>46.8</ele>
        <time>2020-09-05T10:01:14Z</time>
      </trkpt>
      <trkpt lat="45.13243" lon="-0.56936">
        <ele>46.8</ele>
        <time>2020-09-05T10:01:15Z</time>
      </trkpt>
      <trkpt lat="45.13242" lon="-0.56934">
        <ele>46.8</ele>
        <time>2020-09-05T10:01:16Z</time>
      </trkpt>
      <trkpt lat="45.13241" lon="-0.56932">
        <ele>46.8</ele>
        <time>2020-09-05T10:01:18Z</time>
      </trkpt>
      <trkpt lat="45.1324" lon="-0.5693">
        <ele>46.8</ele>
        <time>2020-09-05T10:01:19Z</time>
      </trkpt>
      <trkpt lat="45.1324" lon="-0.56928">
        <ele>46.8</ele>
        <time>2020-09-05T10:01:20Z</time>
      </trkpt>
      <trkpt lat="45.13239" lon="-0.56926">
        <ele>46.8</ele>
        <time>2020-09-05T10:01:22Z</time>
      </trkpt>
      <trkpt lat="45.13239" lon="-0.56923">
        <ele>46.9</ele>
        <time>2020-09-05T10:01:23Z</time>
      </trkpt>
      <trkpt lat="45.13238" lon="-0.56921">
        <ele>46.9</ele>
        <time>2020-09-05T10:01:24Z</time>
      </trkpt>
      <trkpt lat="45.13237" lon="-0.56918">
        <ele>46.9</ele>
        <time>2020-09-05T10:01:26Z</time>
      </trkpt>
      <trkpt lat="45.13236" lon="-0.56916">
        <ele>46.9</ele>
        <time>2020-09-05T10:01:27Z</time>
      </trkpt>
      <trkpt lat="45.13235" lon="-0.56914">
        <ele>46.9</ele>
        <time>2020-09-05T10:01:28Z</time>
      </trkpt>
      <trkpt lat="45.13234" lon="-0.56911">
        <ele>46.9</ele>
        <time>2020-09-05T10:01:30Z</time>
      </trkpt>
      <trkpt lat="45.13233" lon="-0.56909">
        <ele>46.9</ele>
        <time>2020-09-05T10:01:31Z</time>
      </trkpt>
      <trkpt lat="45.13232" lon="-0.56907">
        <ele>47</ele>
        <time>2020-09-05T10:01:33Z</time>
      </trkpt>
      <trkpt lat="45.13231" lon="-0.56905">
        <ele>47</ele>
        <time>2020-09-05T10:01:34Z</time>
      </trkpt>
      <trkpt lat="45.13231" lon="-0.56903">
        <ele>47</ele>
        <time>2020-09-05T10:01:35Z</time>
      </trkpt>
      <trkpt lat="45.1323" lon="-0.56901">
        <ele>47</ele>
        <time>2020-09-05T10:01:37Z</time>
      </trkpt>
      <trkpt lat="45.13229" lon="-0.56899">
        <ele>47</ele>
        <time>2020-09-05T10:01:38Z</time>
      </trkpt>
      <trkpt lat="45.13228" lon="-0.56897">
        <ele>47</ele>
        <time>2020-09-05T10:01:39Z</time>
      </trkpt>
      <trkpt lat="45.13228" lon="-0.56896">
        <ele>47</ele>
        <time>2020-09-05T10:01:41Z</time>
      </trkpt>
      <trkpt lat="45.13227" lon="-0.56893">
        <ele>47.1</ele>
        <time>2020-09-05T10:01:42Z</time>
      </trkpt>
      <trkpt lat="45.13226" lon="-0.56892">
        <ele>47.1</ele>
        <time>2020-09-05T10:01:43Z</time>
      </trkpt>
      <trkpt lat="45.13225" lon="-0.5689">
        <ele>47.1</ele>
        <time>2020-09-05T10:01:44Z</time>
      </trkpt>
      <trkpt lat="45.13224" lon="-0.56889">
        <ele>47.1</ele>
        <time>2020-09-05T10:01:46Z</time>
      </trkpt>
      <trkpt lat="45.13224" lon="-0.56886">
        <ele>47.1</ele>
        <time>2020-09-05T10:01:47Z</time>
      </trkpt>
      <trkpt lat="45.13223" lon="-0.56884">
        <ele>47.1</ele>
        <time>2020-09-05T10:01:49Z</time>
      </trkpt>
      <trkpt lat="45.13221" lon="-0.56882">
        <ele>47.2</ele>
        <time>2020-09-05T10:01:50Z</time>
      </trkpt>
      <trkpt lat="45.1322" lon="-0.5688">
        <ele>47.2</ele>
        <time>2020-09-05T10:01:52Z</time>
      </trkpt>
      <trkpt lat="45.13219" lon="-0.56878">
        <ele>47.2</ele>
        <time>2020-09-05T10:01:53Z</time>
      </trkpt>
      <trkpt lat="45.13218" lon="-0.56877">
        <ele>47.2</ele>
        <time>2020-09-05T10:01:55Z</time>
      </trkpt>
      <trkpt lat="45.13217" lon="-0.56876">
        <ele>47.2</ele>
        <time>2020-09-05T10:01:56Z</time>
      </trkpt>
      <trkpt lat="45.13216" lon="-0.56874">
        <ele>47.2</ele>
        <time>2020-09-05T10:01:57Z</time>
      </trkpt>
      <trkpt lat="45.13215" lon="-0.56873">
        <ele>47.1</ele>
        <time>2020-09-05T10:01:58Z</time>
      </trkpt>
      <trkpt lat="45.13214" lon="-0.56871">
        <ele>47.1</ele>
        <time>2020-09-05T10:01:59Z</time>
      </trkpt>
      <trkpt lat="45.13213" lon="-0.5687">
        <ele>47.1</ele>
        <time>2020-09-05T10:02:00Z</time>
      </trkpt>
      <trkpt lat="45.13212" lon="-0.56869">
        <ele>47.1</ele>
        <time>2020-09-05T10:02:01Z</time>
      </trkpt>
      <trkpt lat="45.13211" lon="-0.56869">
        <ele>47.1</ele>
        <time>2020-09-05T10:02:02Z</time>
      </trkpt>
      <trkpt lat="45.1321" lon="-0.56868">
        <ele>47.1</ele>
        <time>2020-09-05T10:02:03Z</time>
      </trkpt>
      <trkpt lat="45.13209" lon="-0.56866">
        <ele>47.1</ele>
        <time>2020-09-05T10:02:04Z</time>
      </trkpt>
      <trkpt lat="45.13208" lon="-0.56866">
        <ele>47.1</ele>
        <time>2020-09-05T10:02:05Z</time>
      </trkpt>
      <trkpt lat="45.13207" lon="-0.56865">
        <ele>47.1</ele>
        <time>2020-09-05T10:02:06Z</time>
      </trkpt>
      <trkpt lat="45.13206" lon="-0.56864">
        <ele>47.1</ele>
        <time>2020-09-05T10:02:08Z</time>
      </trkpt>
      <trkpt lat="45.13205" lon="-0.56863">
        <ele>47.1</ele>
        <time>2020-09-05T10:02:09Z</time>
      </trkpt>
      <trkpt lat="45.13203" lon="-0.56861">
        <ele>47.2</ele>
        <time>2020-09-05T10:02:10Z</time>
      </trkpt>
      <trkpt lat="45.13202" lon="-0.56861">
        <ele>47.2</ele>
        <time>2020-09-05T10:02:11Z</time>
      </trkpt>
      <trkpt lat="45.13202" lon="-0.5686">
        <ele>47.2</ele>
        <time>2020-09-05T10:02:12Z</time>
      </trkpt>
      <trkpt lat="45.132" lon="-0.56859">
        <ele>47.2</ele>
        <time>2020-09-05T10:02:13Z</time>
      </trkpt>
      <trkpt lat="45.13198" lon="-0.56857">
        <ele>47.2</ele>
        <time>2020-09-05T10:02:14Z</time>
      </trkpt>
      <trkpt lat="45.13197" lon="-0.56856">
        <ele>47.3</ele>
        <time>2020-09-05T10:02:15Z</time>
      </trkpt>
      <trkpt lat="45.13196" lon="-0.56855">
        <ele>47.3</ele>
        <time>2020-09-05T10:02:16Z</time>
      </trkpt>
      <trkpt lat="45.13195" lon="-0.56855">
        <ele>47.3</ele>
        <time>2020-09-05T10:02:17Z</time>
      </trkpt>
      <trkpt lat="45.13194" lon="-0.56854">
        <ele>47.3</ele>
        <time>2020-09-05T10:02:18Z</time>
      </trkpt>
      <trkpt lat="45.13193" lon="-0.56853">
        <ele>47.3</ele>
        <time>2020-09-05T10:02:19Z</time>
      </trkpt>
      <trkpt lat="45.1319" lon="-0.56852">
        <ele>47.3</ele>
        <time>2020-09-05T10:02:21Z</time>
      </trkpt>
      <trkpt lat="45.13188" lon="-0.56851">
        <ele>47.3</ele>
        <time>2020-09-05T10:02:22Z</time>
      </trkpt>
      <trkpt lat="45.13186" lon="-0.5685">
        <ele>47.3</ele>
        <time>2020-09-05T10:02:24Z</time>
      </trkpt>
      <trkpt lat="45.13183" lon="-0.56849">
        <ele>47.3</ele>
        <time>2020-09-05T10:02:25Z</time>
      </trkpt>
      <trkpt lat="45.13183" lon="-0.56849">
        <ele>47.3</ele>
        <time>2020-09-05T10:02:26Z</time>
      </trkpt>
      <trkpt lat="45.1318" lon="-0.56847">
        <ele>47.3</ele>
        <time>2020-09-05T10:02:28Z</time>
      </trkpt>
      <trkpt lat="45.13179" lon="-0.56846">
        <ele>47.3</ele>
        <time>2020-09-05T10:02:29Z</time>
      </trkpt>
      <trkpt lat="45.13178" lon="-0.56846">
        <ele>47.3</ele>
        <time>2020-09-05T10:02:31Z</time>
      </trkpt>
      <trkpt lat="45.13177" lon="-0.56845">
        <ele>47.3</ele>
        <time>2020-09-05T10:02:32Z</time>
      </trkpt>
      <trkpt lat="45.13175" lon="-0.56844">
        <ele>47.3</ele>
        <time>2020-09-05T10:02:33Z</time>
      </trkpt>
      <trkpt lat="45.13173" lon="-0.56843">
        <ele>47.3</ele>
        <time>2020-09-05T10:02:34Z</time>
      </trkpt>
      <trkpt lat="45.13173" lon="-0.56843">
        <ele>47.3</ele>
        <time>2020-09-05T10:02:35Z</time>
      </trkpt>
      <trkpt lat="45.13172" lon="-0.56842">
        <ele>47.3</ele>
        <time>2020-09-05T10:02:36Z</time>
      </trkpt>
      <trkpt lat="45.13171" lon="-0.56842">
        <ele>47.3</ele>
        <time>2020-09-05T10:02:37Z</time>
      </trkpt>
      <trkpt lat="45.13168" lon="-0.56841">
        <ele>47.3</ele>
        <time>2020-09-05T10:02:39Z</time>
      </trkpt>
      <trkpt lat="45.13167" lon="-0.5684">
        <ele>47.3</ele>
        <time>2020-09-05T10:02:40Z</time>
      </trkpt>
      <trkpt lat="45.13166" lon="-0.5684">
        <ele>47.3</ele>
        <time>2020-09-05T10:02:42Z</time>
      </trkpt>
      <trkpt lat="45.13165" lon="-0.5684">
        <ele>47.3</ele>
        <time>2020-09-05T10:02:43Z</time>
      </trkpt>
      <trkpt lat="45.13164" lon="-0.56839">
        <ele>47.3</ele>
        <time>2020-09-05T10:02:44Z</time>
      </trkpt>
      <trkpt lat="45.13162" lon="-0.56838">
        <ele>47.3</ele>
        <time>2020-09-05T10:02:46Z</time>
      </trkpt>
      <trkpt lat="45.13161" lon="-0.56837">
        <ele>47.3</ele>
        <time>2020-09-05T10:02:47Z</time>
      </trkpt>
      <trkpt lat="45.13159" lon="-0.56836">
        <ele>47.3</ele>
        <time>2020-09-05T10:02:48Z</time>
      </trkpt>
      <trkpt lat="45.13158" lon="-0.56836">
        <ele>47.3</ele>
        <time>2020-09-05T10:02:49Z</time>
      </trkpt>
      <trkpt lat="45.13157" lon="-0.56835">
        <ele>47.3</ele>
        <time>2020-09-05T10:02:50Z</time>
      </trkpt>
      <trkpt lat="45.13155" lon="-0.56834">
        <ele>47.4</ele>
        <time>2020-09-05T10:02:52Z</time>
      </trkpt>
      <trkpt lat="45.13154" lon="-0.56834">
        <ele>47.4</ele>
        <time>2020-09-05T10:02:53Z</time>
      </trkpt>
      <trkpt lat="45.13154" lon="-0.56833">
        <ele>47.4</ele>
        <time>2020-09-05T10:02:54Z</time>
      </trkpt>
      <trkpt lat="45.13151" lon="-0.56832">
        <ele>47.4</ele>
        <time>2020-09-05T10:02:56Z</time>
      </trkpt>
      <trkpt lat="45.1315" lon="-0.56831">
        <ele>47.4</ele>
        <time>2020-09-05T10:02:57Z</time>
      </trkpt>
      <trkpt lat="45.13148" lon="-0.5683">
        <ele>47.4</ele>
        <time>2020-09-05T10:02:58Z</time>
      </trkpt>
      <trkpt lat="45.13146" lon="-0.56827">
        <ele>47.4</ele>
        <time>2020-09-05T10:03:00Z</time>
      </trkpt>
      <trkpt lat="45.13144" lon="-0.56826">
        <ele>47.4</ele>
        <time>2020-09-05T10:03:02Z</time>
      </trkpt>
      <trkpt lat="45.13143" lon="-0.56825">
        <ele>47.4</ele>
        <time>2020-09-05T10:03:03Z</time>
      </trkpt>
      <trkpt lat="45.13141" lon="-0.56823">
        <ele>47.4</ele>
        <time>2020-09-05T10:03:04Z</time>
      </trkpt>
      <trkpt lat="45.13139" lon="-0.5682">
        <ele>47.4</ele>
        <time>2020-09-05T10:03:06Z</time>
      </trkpt>
      <trkpt lat="45.13138" lon="-0.56819">
        <ele>47.4</ele>
        <time>2020-09-05T10:03:07Z</time>
      </trkpt>
      <trkpt lat="45.13136" lon="-0.56817">
        <ele>47.4</ele>
        <time>2020-09-05T10:03:08Z</time>
      </trkpt>
      <trkpt lat="45.13134" lon="-0.56814">
        <ele>47.3</ele>
        <time>2020-09-05T10:03:10Z</time>
      </trkpt>
      <trkpt lat="45.13134" lon="-0.56812">
        <ele>47.3</ele>
        <time>2020-09-05T10:03:11Z</time>
      </trkpt>
      <trkpt lat="45.13132" lon="-0.5681">
        <ele>47.3</ele>
        <time>2020-09-05T10:03:13Z</time>
      </trkpt>
      <trkpt lat="45.13131" lon="-0.56808">
        <ele>47.3</ele>
        <time>2020-09-05T10:03:14Z</time>
      </trkpt>
      <trkpt lat="45.1313" lon="-0.56805">
        <ele>47.3</ele>
        <time>2020-09-05T10:03:16Z</time>
      </trkpt>
      <trkpt lat="45.1313" lon="-0.56803">
        <ele>47.3</ele>
        <time>2020-09-05T10:03:17Z</time>
      </trkpt>
      <trkpt lat="45.13129" lon="-0.56801">
        <ele>47.3</ele>
        <time>2020-09-05T10:03:18Z</time>
      </trkpt>
      <trkpt lat="45.13128" lon="-0.56798">
        <ele>47.3</ele>
        <time>2020-09-05T10:03:20Z</time>
      </trkpt>
      <trkpt lat="45.13128" lon="-0.56796">
        <ele>47.3</ele>
        <time>2020-09-05T10:03:21Z</time>
      </trkpt>
      <trkpt lat="45.13128" lon="-0.56793">
        <ele>47.3</ele>
        <time>2020-09-05T10:03:22Z</time>
      </trkpt>
      <trkpt lat="45.13127" lon="-0.56792">
        <ele>47.3</ele>
        <time>2020-09-05T10:03:23Z</time>
      </trkpt>
      <trkpt lat="45.13127" lon="-0.56791">
        <ele>47.3</ele>
        <time>2020-09-05T10:03:24Z</time>
      </trkpt>
      <trkpt lat="45.13126" lon="-0.5679">
        <ele>47.3</ele>
        <time>2020-09-05T10:03:25Z</time>
      </trkpt>
      <trkpt lat="45.13126" lon="-0.56787">
        <ele>47.3</ele>
        <time>2020-09-05T10:03:27Z</time>
      </trkpt>
      <trkpt lat="45.13125" lon="-0.56785">
        <ele>47.3</ele>
        <time>2020-09-05T10:03:29Z</time>
      </trkpt>
      <trkpt lat="45.13124" lon="-0.56781">
        <ele>47.4</ele>
        <time>2020-09-05T10:03:31Z</time>
      </trkpt>
      <trkpt lat="45.13124" lon="-0.5678">
        <ele>47.4</ele>
        <time>2020-09-05T10:03:32Z</time>
      </trkpt>
      <trkpt lat="45.13124" lon="-0.56779">
        <ele>47.4</ele>
        <time>2020-09-05T10:03:33Z</time>
      </trkpt>
      <trkpt lat="45.13124" lon="-0.56777">
        <ele>47.4</ele>
        <time>2020-09-05T10:03:35Z</time>
      </trkpt>
      <trkpt lat="45.13123" lon="-0.56774">
        <ele>47.4</ele>
        <time>2020-09-05T10:03:36Z</time>
      </trkpt>
      <trkpt lat="45.13123" lon="-0.56772">
        <ele>47.4</ele>
        <time>2020-09-05T10:03:37Z</time>
      </trkpt>
      <trkpt lat="45.13123" lon="-0.5677">
        <ele>47.4</ele>
        <time>2020-09-05T10:03:38Z</time>
      </trkpt>
      <trkpt lat="45.13123" lon="-0.56769">
        <ele>47.4</ele>
        <time>2020-09-05T10:03:39Z</time>
      </trkpt>
      <trkpt lat="45.13122" lon="-0.56767">
        <ele>47.4</ele>
        <time>2020-09-05T10:03:40Z</time>
      </trkpt>
      <trkpt lat="45.13122" lon="-0.56765">
        <ele>47.4</ele>
        <time>2020-09-05T10:03:41Z</time>
      </trkpt>
      <trkpt lat="45.13122" lon="-0.56764">
        <ele>47.4</ele>
        <time>2020-09-05T10:03:42Z</time>
      </trkpt>
      <trkpt lat="45.13122" lon="-0.56763">
        <ele>47.4</ele>
        <time>2020-09-05T10:03:43Z</time>
      </trkpt>
      <trkpt lat="45.13121" lon="-0.56759">
        <ele>47.5</ele>
        <time>2020-09-05T10:03:45Z</time>
      </trkpt>
      <trkpt lat="45.13121" lon="-0.56758">
        <ele>47.5</ele>
        <time>2020-09-05T10:03:46Z</time>
      </trkpt>
      <trkpt lat="45.1312" lon="-0.56756">
        <ele>47.5</ele>
        <time>2020-09-05T10:03:47Z</time>
      </trkpt>
      <trkpt lat="45.13119" lon="-0.56754">
        <ele>47.5</ele>
        <time>2020-09-05T10:03:49Z</time>
      </trkpt>
      <trkpt lat="45.13118" lon="-0.5675">
        <ele>47.5</ele>
        <time>2020-09-05T10:03:51Z</time>
      </trkpt>
      <trkpt lat="45.13118" lon="-0.56749">
        <ele>47.5</ele>
        <time>2020-09-05T10:03:52Z</time>
      </trkpt>
      <trkpt lat="45.13117" lon="-0.56748">
        <ele>47.5</ele>
        <time>2020-09-05T10:03:53Z</time>
      </trkpt>
      <trkpt lat="45.13117" lon="-0.56747">
        <ele>47.5</ele>
        <time>2020-09-05T10:03:54Z</time>
      </trkpt>
      <trkpt lat="45.13116" lon="-0.56744">
        <ele>47.6</ele>
        <time>2020-09-05T10:03:55Z</time>
      </trkpt>
      <trkpt lat="45.13116" lon="-0.56742">
        <ele>47.6</ele>
        <time>2020-09-05T10:03:56Z</time>
      </trkpt>
      <trkpt lat="45.13115" lon="-0.56741">
        <ele>47.6</ele>
        <time>2020-09-05T10:03:57Z</time>
      </trkpt>
      <trkpt lat="45.13115" lon="-0.56736">
        <ele>47.6</ele>
        <time>2020-09-05T10:03:59Z</time>
      </trkpt>
      <trkpt lat="45.13114" lon="-0.56734">
        <ele>47.6</ele>
        <time>2020-09-05T10:04:00Z</time>
      </trkpt>
      <trkpt lat="45.13114" lon="-0.56729">
        <ele>47.7</ele>
        <time>2020-09-05T10:04:02Z</time>
      </trkpt>
      <trkpt lat="45.13114" lon="-0.56728">
        <ele>47.7</ele>
        <time>2020-09-05T10:04:03Z</time>
      </trkpt>
      <trkpt lat="45.13114" lon="-0.56723">
        <ele>47.7</ele>
        <time>2020-09-05T10:04:05Z</time>
      </trkpt>
      <trkpt lat="45.13114" lon="-0.56721">
        <ele>47.7</ele>
        <time>2020-09-05T10:04:06Z</time>
      </trkpt>
      <trkpt lat="45.13114" lon="-0.56718">
        <ele>47.8</ele>
        <time>2020-09-05T10:04:07Z</time>
      </trkpt>
      <trkpt lat="45.13114" lon="-0.56716">
        <ele>47.8</ele>
        <time>2020-09-05T10:04:09Z</time>
      </trkpt>
      <trkpt lat="45.13114" lon="-0.56712">
        <ele>47.9</ele>
        <time>2020-09-05T10:04:10Z</time>
      </trkpt>
      <trkpt lat="45.13114" lon="-0.5671">
        <ele>47.9</ele>
        <time>2020-09-05T10:04:12Z</time>
      </trkpt>
      <trkpt lat="45.13114" lon="-0.56708">
        <ele>47.9</ele>
        <time>2020-09-05T10:04:13Z</time>
      </trkpt>
      <trkpt lat="45.13114" lon="-0.56707">
        <ele>47.9</ele>
        <time>2020-09-05T10:04:15Z</time>
      </trkpt>
      <trkpt lat="45.13114" lon="-0.56705">
        <ele>48</ele>
        <time>2020-09-05T10:04:16Z</time>
      </trkpt>
      <trkpt lat="45.13114" lon="-0.56703">
        <ele>48</ele>
        <time>2020-09-05T10:04:17Z</time>
      </trkpt>
      <trkpt lat="45.13114" lon="-0.56702">
        <ele>48</ele>
        <time>2020-09-05T10:04:18Z</time>
      </trkpt>
      <trkpt lat="45.13114" lon="-0.567">
        <ele>48</ele>
        <time>2020-09-05T10:04:19Z</time>
      </trkpt>
      <trkpt lat="45.13114" lon="-0.56696">
        <ele>48.1</ele>
        <time>2020-09-05T10:04:21Z</time>
      </trkpt>
      <trkpt lat="45.13114" lon="-0.56695">
        <ele>48.1</ele>
        <time>2020-09-05T10:04:22Z</time>
      </trkpt>
      <trkpt lat="45.13114" lon="-0.56693">
        <ele>48.1</ele>
        <time>2020-09-05T10:04:23Z</time>
      </trkpt>
      <trkpt lat="45.13114" lon="-0.56691">
        <ele>48.2</ele>
        <time>2020-09-05T10:04:25Z</time>
      </trkpt>
      <trkpt lat="45.13114" lon="-0.56688">
        <ele>48.2</ele>
        <time>2020-09-05T10:04:26Z</time>
      </trkpt>
      <trkpt lat="45.13114" lon="-0.56686">
        <ele>48.2</ele>
        <time>2020-09-05T10:04:27Z</time>
      </trkpt>
      <trkpt lat="45.13114" lon="-0.56684">
        <ele>48.3</ele>
        <time>2020-09-05T10:04:29Z</time>
      </trkpt>
      <trkpt lat="45.13113" lon="-0.56682">
        <ele>48.3</ele>
        <time>2020-09-05T10:04:30Z</time>
      </trkpt>
      <trkpt lat="45.13113" lon="-0.56678">
        <ele>48.3</ele>
        <time>2020-09-05T10:04:31Z</time>
      </trkpt>
      <trkpt lat="45.13113" lon="-0.56676">
        <ele>48.4</ele>
        <time>2020-09-05T10:04:33Z</time>
      </trkpt>
      <trkpt lat="45.13113" lon="-0.56674">
        <ele>48.4</ele>
        <time>2020-09-05T10:04:34Z</time>
      </trkpt>
      <trkpt lat="45.13112" lon="-0.56672">
        <ele>48.4</ele>
        <time>2020-09-05T10:04:35Z</time>
      </trkpt>
      <trkpt lat="45.13112" lon="-0.5667">
        <ele>48.5</ele>
        <time>2020-09-05T10:04:36Z</time>
      </trkpt>
      <trkpt lat="45.13112" lon="-0.56669">
        <ele>48.5</ele>
        <time>2020-09-05T10:04:37Z</time>
      </trkpt>
      <trkpt lat="45.13112" lon="-0.56667">
        <ele>48.5</ele>
        <time>2020-09-05T10:04:38Z</time>
      </trkpt>
      <trkpt lat="45.13112" lon="-0.56665">
        <ele>48.5</ele>
        <time>2020-09-05T10:04:40Z</time>
      </trkpt>
      <trkpt lat="45.13112" lon="-0.56663">
        <ele>48.6</ele>
        <time>2020-09-05T10:04:41Z</time>
      </trkpt>
      <trkpt lat="45.13111" lon="-0.56661">
        <ele>48.6</ele>
        <time>2020-09-05T10:04:43Z</time>
      </trkpt>
      <trkpt lat="45.13111" lon="-0.56659">
        <ele>48.6</ele>
        <time>2020-09-05T10:04:45Z</time>
      </trkpt>
      <trkpt lat="45.13111" lon="-0.56657">
        <ele>48.7</ele>
        <time>2020-09-05T10:04:46Z</time>
      </trkpt>
      <trkpt lat="45.13111" lon="-0.56655">
        <ele>48.7</ele>
        <time>2020-09-05T10:04:47Z</time>
      </trkpt>
      <trkpt lat="45.13111" lon="-0.56653">
        <ele>48.7</ele>
        <time>2020-09-05T10:04:48Z</time>
      </trkpt>
      <trkpt lat="45.13111" lon="-0.56652">
        <ele>48.7</ele>
        <time>2020-09-05T10:04:49Z</time>
      </trkpt>
      <trkpt lat="45.13111" lon="-0.5665">
        <ele>48.8</ele>
        <time>2020-09-05T10:04:50Z</time>
      </trkpt>
      <trkpt lat="45.1311" lon="-0.56647">
        <ele>48.8</ele>
        <time>2020-09-05T10:04:52Z</time>
      </trkpt>
      <trkpt lat="45.1311" lon="-0.56645">
        <ele>48.8</ele>
        <time>2020-09-05T10:04:53Z</time>
      </trkpt>
      <trkpt lat="45.1311" lon="-0.56642">
        <ele>48.9</ele>
        <time>2020-09-05T10:04:54Z</time>
      </trkpt>
      <trkpt lat="45.1311" lon="-0.56636">
        <ele>48.9</ele>
        <time>2020-09-05T10:04:56Z</time>
      </trkpt>
      <trkpt lat="45.1311" lon="-0.56634">
        <ele>48.9</ele>
        <time>2020-09-05T10:04:57Z</time>
      </trkpt>
      <trkpt lat="45.1311" lon="-0.56632">
        <ele>49</ele>
        <time>2020-09-05T10:04:58Z</time>
      </trkpt>
      <trkpt lat="45.13109" lon="-0.56628">
        <ele>49</ele>
        <time>2020-09-05T10:05:00Z</time>
      </trkpt>
      <trkpt lat="45.13109" lon="-0.56627">
        <ele>49</ele>
        <time>2020-09-05T10:05:01Z</time>
      </trkpt>
      <trkpt lat="45.13108" lon="-0.56625">
        <ele>49</ele>
        <time>2020-09-05T10:05:02Z</time>
      </trkpt>
      <trkpt lat="45.13107" lon="-0.56622">
        <ele>49.1</ele>
        <time>2020-09-05T10:05:04Z</time>
      </trkpt>
      <trkpt lat="45.13107" lon="-0.56619">
        <ele>49.1</ele>
        <time>2020-09-05T10:05:05Z</time>
      </trkpt>
      <trkpt lat="45.13106" lon="-0.56617">
        <ele>49.1</ele>
        <time>2020-09-05T10:05:06Z</time>
      </trkpt>
      <trkpt lat="45.13106" lon="-0.56615">
        <ele>49.1</ele>
        <time>2020-09-05T10:05:08Z</time>
      </trkpt>
      <trkpt lat="45.13106" lon="-0.56613">
        <ele>49.1</ele>
        <time>2020-09-05T10:05:09Z</time>
      </trkpt>
      <trkpt lat="45.13106" lon="-0.56611">
        <ele>49.1</ele>
        <time>2020-09-05T10:05:10Z</time>
      </trkpt>
      <trkpt lat="45.13105" lon="-0.56609">
        <ele>49.1</ele>
        <time>2020-09-05T10:05:11Z</time>
      </trkpt>
      <trkpt lat="45.13105" lon="-0.56608">
        <ele>49.1</ele>
        <time>2020-09-05T10:05:12Z</time>
      </trkpt>
      <trkpt lat="45.13105" lon="-0.56606">
        <ele>49.1</ele>
        <time>2020-09-05T10:05:14Z</time>
      </trkpt>
      <trkpt lat="45.13104" lon="-0.56605">
        <ele>49.1</ele>
        <time>2020-09-05T10:05:15Z</time>
      </trkpt>
      <trkpt lat="45.13105" lon="-0.56603">
        <ele>49.1</ele>
        <time>2020-09-05T10:05:16Z</time>
      </trkpt>
      <trkpt lat="45.13104" lon="-0.566">
        <ele>49.1</ele>
        <time>2020-09-05T10:05:17Z</time>
      </trkpt>
      <trkpt lat="45.13104" lon="-0.56599">
        <ele>49.1</ele>
        <time>2020-09-05T10:05:18Z</time>
      </trkpt>
      <trkpt lat="45.13103" lon="-0.56598">
        <ele>49.1</ele>
        <time>2020-09-05T10:05:19Z</time>
      </trkpt>
      <trkpt lat="45.13103" lon="-0.56596">
        <ele>49.1</ele>
        <time>2020-09-05T10:05:20Z</time>
      </trkpt>
      <trkpt lat="45.13102" lon="-0.56594">
        <ele>49.1</ele>
        <time>2020-09-05T10:05:21Z</time>
      </trkpt>
      <trkpt lat="45.13101" lon="-0.56591">
        <ele>49.1</ele>
        <time>2020-09-05T10:05:22Z</time>
      </trkpt>
      <trkpt lat="45.13101" lon="-0.5659">
        <ele>49.1</ele>
        <time>2020-09-05T10:05:23Z</time>
      </trkpt>
      <trkpt lat="45.131" lon="-0.56588">
        <ele>49.1</ele>
        <time>2020-09-05T10:05:24Z</time>
      </trkpt>
      <trkpt lat="45.131" lon="-0.56586">
        <ele>49.1</ele>
        <time>2020-09-05T10:05:25Z</time>
      </trkpt>
      <trkpt lat="45.131" lon="-0.56585">
        <ele>49.1</ele>
        <time>2020-09-05T10:05:26Z</time>
      </trkpt>
      <trkpt lat="45.13099" lon="-0.56582">
        <ele>49.1</ele>
        <time>2020-09-05T10:05:27Z</time>
      </trkpt>
      <trkpt lat="45.13099" lon="-0.5658">
        <ele>49</ele>
        <time>2020-09-05T10:05:29Z</time>
      </trkpt>
      <trkpt lat="45.13098" lon="-0.56577">
        <ele>49</ele>
        <time>2020-09-05T10:05:31Z</time>
      </trkpt>
      <trkpt lat="45.13098" lon="-0.56575">
        <ele>49</ele>
        <time>2020-09-05T10:05:32Z</time>
      </trkpt>
      <trkpt lat="45.13097" lon="-0.56573">
        <ele>49</ele>
        <time>2020-09-05T10:05:33Z</time>
      </trkpt>
      <trkpt lat="45.13096" lon="-0.5657">
        <ele>49</ele>
        <time>2020-09-05T10:05:35Z</time>
      </trkpt>
      <trkpt lat="45.13095" lon="-0.56566">
        <ele>49</ele>
        <time>2020-09-05T10:05:36Z</time>
      </trkpt>
      <trkpt lat="45.13094" lon="-0.56564">
        <ele>49.1</ele>
        <time>2020-09-05T10:05:37Z</time>
      </trkpt>
      <trkpt lat="45.13094" lon="-0.56562">
        <ele>49.1</ele>
        <time>2020-09-05T10:05:39Z</time>
      </trkpt>
      <trkpt lat="45.13093" lon="-0.56561">
        <ele>49.1</ele>
        <time>2020-09-05T10:05:40Z</time>
      </trkpt>
      <trkpt lat="45.13092" lon="-0.56556">
        <ele>49.1</ele>
        <time>2020-09-05T10:05:41Z</time>
      </trkpt>
      <trkpt lat="45.13091" lon="-0.56554">
        <ele>49.2</ele>
        <time>2020-09-05T10:05:43Z</time>
      </trkpt>
      <trkpt lat="45.13091" lon="-0.56552">
        <ele>49.2</ele>
        <time>2020-09-05T10:05:44Z</time>
      </trkpt>
      <trkpt lat="45.1309" lon="-0.5655">
        <ele>49.2</ele>
        <time>2020-09-05T10:05:46Z</time>
      </trkpt>
      <trkpt lat="45.1309" lon="-0.56548">
        <ele>49.2</ele>
        <time>2020-09-05T10:05:47Z</time>
      </trkpt>
      <trkpt lat="45.13089" lon="-0.56546">
        <ele>49.3</ele>
        <time>2020-09-05T10:05:49Z</time>
      </trkpt>
      <trkpt lat="45.13089" lon="-0.56544">
        <ele>49.3</ele>
        <time>2020-09-05T10:05:51Z</time>
      </trkpt>
      <trkpt lat="45.13088" lon="-0.56542">
        <ele>49.3</ele>
        <time>2020-09-05T10:05:52Z</time>
      </trkpt>
      <trkpt lat="45.13088" lon="-0.56541">
        <ele>49.3</ele>
        <time>2020-09-05T10:05:54Z</time>
      </trkpt>
      <trkpt lat="45.13087" lon="-0.56539">
        <ele>49.4</ele>
        <time>2020-09-05T10:05:55Z</time>
      </trkpt>
      <trkpt lat="45.13085" lon="-0.56536">
        <ele>49.4</ele>
        <time>2020-09-05T10:05:56Z</time>
      </trkpt>
      <trkpt lat="45.13085" lon="-0.56534">
        <ele>49.4</ele>
        <time>2020-09-05T10:05:58Z</time>
      </trkpt>
      <trkpt lat="45.13083" lon="-0.56531">
        <ele>49.5</ele>
        <time>2020-09-05T10:05:59Z</time>
      </trkpt>
      <trkpt lat="45.13083" lon="-0.56529">
        <ele>49.5</ele>
        <time>2020-09-05T10:06:00Z</time>
      </trkpt>
      <trkpt lat="45.13082" lon="-0.56527">
        <ele>49.5</ele>
        <time>2020-09-05T10:06:01Z</time>
      </trkpt>
      <trkpt lat="45.13081" lon="-0.56525">
        <ele>49.5</ele>
        <time>2020-09-05T10:06:03Z</time>
      </trkpt>
      <trkpt lat="45.1308" lon="-0.56522">
        <ele>49.5</ele>
        <time>2020-09-05T10:06:04Z</time>
      </trkpt>
      <trkpt lat="45.1308" lon="-0.5652">
        <ele>49.5</ele>
        <time>2020-09-05T10:06:05Z</time>
      </trkpt>
      <trkpt lat="45.13079" lon="-0.56518">
        <ele>49.5</ele>
        <time>2020-09-05T10:06:06Z</time>
      </trkpt>
      <trkpt lat="45.13079" lon="-0.56517">
        <ele>49.5</ele>
        <time>2020-09-05T10:06:07Z</time>
      </trkpt>
      <trkpt lat="45.13078" lon="-0.56512">
        <ele>49.5</ele>
        <time>2020-09-05T10:06:10Z</time>
      </trkpt>
      <trkpt lat="45.13077" lon="-0.5651">
        <ele>49.5</ele>
        <time>2020-09-05T10:06:11Z</time>
      </trkpt>
      <trkpt lat="45.13077" lon="-0.56509">
        <ele>49.5</ele>
        <time>2020-09-05T10:06:12Z</time>
      </trkpt>
      <trkpt lat="45.13077" lon="-0.56506">
        <ele>49.5</ele>
        <time>2020-09-05T10:06:13Z</time>
      </trkpt>
      <trkpt lat="45.13076" lon="-0.56505">
        <ele>49.5</ele>
        <time>2020-09-05T10:06:14Z</time>
      </trkpt>
      <trkpt lat="45.13076" lon="-0.56503">
        <ele>49.5</ele>
        <time>2020-09-05T10:06:15Z</time>
      </trkpt>
      <trkpt lat="45.13076" lon="-0.56502">
        <ele>49.5</ele>
        <time>2020-09-05T10:06:17Z</time>
      </trkpt>
      <trkpt lat="45.13075" lon="-0.56498">
        <ele>49.5</ele>
        <time>2020-09-05T10:06:19Z</time>
      </trkpt>
      <trkpt lat="45.13075" lon="-0.56497">
        <ele>49.5</ele>
        <time>2020-09-05T10:06:20Z</time>
      </trkpt>
      <trkpt lat="45.13074" lon="-0.56495">
        <ele>49.5</ele>
        <time>2020-09-05T10:06:21Z</time>
      </trkpt>
      <trkpt lat="45.13074" lon="-0.56494">
        <ele>49.5</ele>
        <time>2020-09-05T10:06:22Z</time>
      </trkpt>
      <trkpt lat="45.13073" lon="-0.56491">
        <ele>49.5</ele>
        <time>2020-09-05T10:06:23Z</time>
      </trkpt>
      <trkpt lat="45.13073" lon="-0.5649">
        <ele>49.5</ele>
        <time>2020-09-05T10:06:24Z</time>
      </trkpt>
      <trkpt lat="45.13072" lon="-0.56488">
        <ele>49.5</ele>
        <time>2020-09-05T10:06:25Z</time>
      </trkpt>
      <trkpt lat="45.13072" lon="-0.56486">
        <ele>49.5</ele>
        <time>2020-09-05T10:06:26Z</time>
      </trkpt>
      <trkpt lat="45.13071" lon="-0.56484">
        <ele>49.5</ele>
        <time>2020-09-05T10:06:27Z</time>
      </trkpt>
      <trkpt lat="45.13071" lon="-0.56482">
        <ele>49.5</ele>
        <time>2020-09-05T10:06:29Z</time>
      </trkpt>
      <trkpt lat="45.1307" lon="-0.5648">
        <ele>49.5</ele>
        <time>2020-09-05T10:06:30Z</time>
      </trkpt>
      <trkpt lat="45.13069" lon="-0.56477">
        <ele>49.5</ele>
        <time>2020-09-05T10:06:32Z</time>
      </trkpt>
      <trkpt lat="45.13069" lon="-0.56476">
        <ele>49.5</ele>
        <time>2020-09-05T10:06:33Z</time>
      </trkpt>
      <trkpt lat="45.13068" lon="-0.56473">
        <ele>49.5</ele>
        <time>2020-09-05T10:06:34Z</time>
      </trkpt>
      <trkpt lat="45.13067" lon="-0.5647">
        <ele>49.5</ele>
        <time>2020-09-05T10:06:36Z</time>
      </trkpt>
      <trkpt lat="45.13068" lon="-0.56468">
        <ele>49.5</ele>
        <time>2020-09-05T10:06:37Z</time>
      </trkpt>
      <trkpt lat="45.13069" lon="-0.56466">
        <ele>49.5</ele>
        <time>2020-09-05T10:06:38Z</time>
      </trkpt>
      <trkpt lat="45.13072" lon="-0.56465">
        <ele>49.4</ele>
        <time>2020-09-05T10:06:40Z</time>
      </trkpt>
      <trkpt lat="45.13073" lon="-0.56464">
        <ele>49.4</ele>
        <time>2020-09-05T10:06:41Z</time>
      </trkpt>
      <trkpt lat="45.13075" lon="-0.56463">
        <ele>49.4</ele>
        <time>2020-09-05T10:06:42Z</time>
      </trkpt>
      <trkpt lat="45.13077" lon="-0.56463">
        <ele>49.3</ele>
        <time>2020-09-05T10:06:44Z</time>
      </trkpt>
      <trkpt lat="45.13079" lon="-0.56462">
        <ele>49.3</ele>
        <time>2020-09-05T10:06:45Z</time>
      </trkpt>
      <trkpt lat="45.1308" lon="-0.56462">
        <ele>49.2</ele>
        <time>2020-09-05T10:06:46Z</time>
      </trkpt>
      <trkpt lat="45.13082" lon="-0.56462">
        <ele>49.2</ele>
        <time>2020-09-05T10:06:47Z</time>
      </trkpt>
      <trkpt lat="45.13083" lon="-0.56462">
        <ele>49.2</ele>
        <time>2020-09-05T10:06:48Z</time>
      </trkpt>
      <trkpt lat="45.13084" lon="-0.56461">
        <ele>49.1</ele>
        <time>2020-09-05T10:06:50Z</time>
      </trkpt>
      <trkpt lat="45.13086" lon="-0.56461">
        <ele>49</ele>
        <time>2020-09-05T10:06:51Z</time>
      </trkpt>
      <trkpt lat="45.13088" lon="-0.56461">
        <ele>49</ele>
        <time>2020-09-05T10:06:53Z</time>
      </trkpt>
      <trkpt lat="45.13089" lon="-0.5646">
        <ele>49</ele>
        <time>2020-09-05T10:06:54Z</time>
      </trkpt>
      <trkpt lat="45.13089" lon="-0.5646">
        <ele>48.9</ele>
        <time>2020-09-05T10:06:55Z</time>
      </trkpt>
      <trkpt lat="45.13091" lon="-0.5646">
        <ele>48.9</ele>
        <time>2020-09-05T10:06:56Z</time>
      </trkpt>
      <trkpt lat="45.13092" lon="-0.56459">
        <ele>48.8</ele>
        <time>2020-09-05T10:06:57Z</time>
      </trkpt>
      <trkpt lat="45.13095" lon="-0.56459">
        <ele>48.8</ele>
        <time>2020-09-05T10:06:58Z</time>
      </trkpt>
      <trkpt lat="45.13095" lon="-0.56458">
        <ele>48.8</ele>
        <time>2020-09-05T10:06:59Z</time>
      </trkpt>
      <trkpt lat="45.13096" lon="-0.56458">
        <ele>48.7</ele>
        <time>2020-09-05T10:07:00Z</time>
      </trkpt>
      <trkpt lat="45.13098" lon="-0.56457">
        <ele>48.7</ele>
        <time>2020-09-05T10:07:01Z</time>
      </trkpt>
      <trkpt lat="45.13099" lon="-0.56457">
        <ele>48.6</ele>
        <time>2020-09-05T10:07:02Z</time>
      </trkpt>
      <trkpt lat="45.131" lon="-0.56456">
        <ele>48.6</ele>
        <time>2020-09-05T10:07:03Z</time>
      </trkpt>
      <trkpt lat="45.13101" lon="-0.56456">
        <ele>48.6</ele>
        <time>2020-09-05T10:07:04Z</time>
      </trkpt>
      <trkpt lat="45.13102" lon="-0.56456">
        <ele>48.5</ele>
        <time>2020-09-05T10:07:05Z</time>
      </trkpt>
      <trkpt lat="45.13105" lon="-0.56455">
        <ele>48.4</ele>
        <time>2020-09-05T10:07:06Z</time>
      </trkpt>
      <trkpt lat="45.13106" lon="-0.56455">
        <ele>48.4</ele>
        <time>2020-09-05T10:07:07Z</time>
      </trkpt>
      <trkpt lat="45.13107" lon="-0.56455">
        <ele>48.4</ele>
        <time>2020-09-05T10:07:08Z</time>
      </trkpt>
      <trkpt lat="45.13109" lon="-0.56454">
        <ele>48.3</ele>
        <time>2020-09-05T10:07:10Z</time>
      </trkpt>
      <trkpt lat="45.1311" lon="-0.56452">
        <ele>48.2</ele>
        <time>2020-09-05T10:07:12Z</time>
      </trkpt>
      <trkpt lat="45.13112" lon="-0.56451">
        <ele>48.2</ele>
        <time>2020-09-05T10:07:13Z</time>
      </trkpt>
      <trkpt lat="45.13113" lon="-0.5645">
        <ele>48.1</ele>
        <time>2020-09-05T10:07:14Z</time>
      </trkpt>
      <trkpt lat="45.13114" lon="-0.5645">
        <ele>48.1</ele>
        <time>2020-09-05T10:07:15Z</time>
      </trkpt>
      <trkpt lat="45.13116" lon="-0.56448">
        <ele>48</ele>
        <time>2020-09-05T10:07:17Z</time>
      </trkpt>
      <trkpt lat="45.13117" lon="-0.56448">
        <ele>48</ele>
        <time>2020-09-05T10:07:18Z</time>
      </trkpt>
      <trkpt lat="45.13118" lon="-0.56447">
        <ele>48</ele>
        <time>2020-09-05T10:07:19Z</time>
      </trkpt>
      <trkpt lat="45.1312" lon="-0.56448">
        <ele>47.9</ele>
        <time>2020-09-05T10:07:20Z</time>
      </trkpt>
      <trkpt lat="45.13121" lon="-0.56448">
        <ele>47.8</ele>
        <time>2020-09-05T10:07:22Z</time>
      </trkpt>
      <trkpt lat="45.13123" lon="-0.56448">
        <ele>47.8</ele>
        <time>2020-09-05T10:07:23Z</time>
      </trkpt>
      <trkpt lat="45.13125" lon="-0.56448">
        <ele>47.7</ele>
        <time>2020-09-05T10:07:25Z</time>
      </trkpt>
      <trkpt lat="45.13128" lon="-0.56447">
        <ele>47.6</ele>
        <time>2020-09-05T10:07:26Z</time>
      </trkpt>
      <trkpt lat="45.1313" lon="-0.56447">
        <ele>47.6</ele>
        <time>2020-09-05T10:07:27Z</time>
      </trkpt>
      <trkpt lat="45.13131" lon="-0.56447">
        <ele>47.5</ele>
        <time>2020-09-05T10:07:29Z</time>
      </trkpt>
      <trkpt lat="45.13132" lon="-0.56446">
        <ele>47.5</ele>
        <time>2020-09-05T10:07:30Z</time>
      </trkpt>
      <trkpt lat="45.13136" lon="-0.56446">
        <ele>47.4</ele>
        <time>2020-09-05T10:07:31Z</time>
      </trkpt>
      <trkpt lat="45.13137" lon="-0.56446">
        <ele>47.4</ele>
        <time>2020-09-05T10:07:33Z</time>
      </trkpt>
      <trkpt lat="45.13139" lon="-0.56445">
        <ele>47.3</ele>
        <time>2020-09-05T10:07:34Z</time>
      </trkpt>
      <trkpt lat="45.1314" lon="-0.56445">
        <ele>47.3</ele>
        <time>2020-09-05T10:07:36Z</time>
      </trkpt>
      <trkpt lat="45.13142" lon="-0.56445">
        <ele>47.3</ele>
        <time>2020-09-05T10:07:38Z</time>
      </trkpt>
      <trkpt lat="45.13143" lon="-0.56445">
        <ele>47.2</ele>
        <time>2020-09-05T10:07:39Z</time>
      </trkpt>
      <trkpt lat="45.13147" lon="-0.56445">
        <ele>47.2</ele>
        <time>2020-09-05T10:07:41Z</time>
      </trkpt>
      <trkpt lat="45.13148" lon="-0.56445">
        <ele>47.1</ele>
        <time>2020-09-05T10:07:42Z</time>
      </trkpt>
      <trkpt lat="45.13149" lon="-0.56445">
        <ele>47.1</ele>
        <time>2020-09-05T10:07:43Z</time>
      </trkpt>
      <trkpt lat="45.1315" lon="-0.56445">
        <ele>47.1</ele>
        <time>2020-09-05T10:07:44Z</time>
      </trkpt>
      <trkpt lat="45.13151" lon="-0.56445">
        <ele>47.1</ele>
        <time>2020-09-05T10:07:45Z</time>
      </trkpt>
      <trkpt lat="45.13153" lon="-0.56445">
        <ele>47</ele>
        <time>2020-09-05T10:07:46Z</time>
      </trkpt>
      <trkpt lat="45.13154" lon="-0.56445">
        <ele>47</ele>
        <time>2020-09-05T10:07:48Z</time>
      </trkpt>
      <trkpt lat="45.13155" lon="-0.56446">
        <ele>47</ele>
        <time>2020-09-05T10:07:50Z</time>
      </trkpt>
      <trkpt lat="45.13156" lon="-0.56446">
        <ele>47</ele>
        <time>2020-09-05T10:07:51Z</time>
      </trkpt>
      <trkpt lat="45.13157" lon="-0.56446">
        <ele>46.9</ele>
        <time>2020-09-05T10:07:52Z</time>
      </trkpt>
      <trkpt lat="45.13158" lon="-0.56446">
        <ele>46.9</ele>
        <time>2020-09-05T10:07:53Z</time>
      </trkpt>
      <trkpt lat="45.13159" lon="-0.56446">
        <ele>46.9</ele>
        <time>2020-09-05T10:07:54Z</time>
      </trkpt>
      <trkpt lat="45.13161" lon="-0.56446">
        <ele>46.8</ele>
        <time>2020-09-05T10:07:56Z</time>
      </trkpt>
      <trkpt lat="45.13162" lon="-0.56446">
        <ele>46.8</ele>
        <time>2020-09-05T10:07:57Z</time>
      </trkpt>
      <trkpt lat="45.13163" lon="-0.56445">
        <ele>46.8</ele>
        <time>2020-09-05T10:07:58Z</time>
      </trkpt>
      <trkpt lat="45.13164" lon="-0.56445">
        <ele>46.8</ele>
        <time>2020-09-05T10:07:59Z</time>
      </trkpt>
      <trkpt lat="45.13166" lon="-0.56446">
        <ele>46.7</ele>
        <time>2020-09-05T10:08:00Z</time>
      </trkpt>
      <trkpt lat="45.13167" lon="-0.56446">
        <ele>46.7</ele>
        <time>2020-09-05T10:08:01Z</time>
      </trkpt>
      <trkpt lat="45.13168" lon="-0.56446">
        <ele>46.7</ele>
        <time>2020-09-05T10:08:03Z</time>
      </trkpt>
      <trkpt lat="45.13169" lon="-0.56446">
        <ele>46.7</ele>
        <time>2020-09-05T10:08:04Z</time>
      </trkpt>
      <trkpt lat="45.1317" lon="-0.56446">
        <ele>46.7</ele>
        <time>2020-09-05T10:08:05Z</time>
      </trkpt>
      <trkpt lat="45.13171" lon="-0.56447">
        <ele>46.7</ele>
        <time>2020-09-05T10:08:06Z</time>
      </trkpt>
      <trkpt lat="45.13173" lon="-0.56447">
        <ele>46.6</ele>
        <time>2020-09-05T10:08:07Z</time>
      </trkpt>
      <trkpt lat="45.13176" lon="-0.56448">
        <ele>46.6</ele>
        <time>2020-09-05T10:08:09Z</time>
      </trkpt>
      <trkpt lat="45.13179" lon="-0.56449">
        <ele>46.5</ele>
        <time>2020-09-05T10:08:10Z</time>
      </trkpt>
      <trkpt lat="45.1318" lon="-0.56449">
        <ele>46.5</ele>
        <time>2020-09-05T10:08:11Z</time>
      </trkpt>
      <trkpt lat="45.13183" lon="-0.56451">
        <ele>46.5</ele>
        <time>2020-09-05T10:08:13Z</time>
      </trkpt>
      <trkpt lat="45.13184" lon="-0.56451">
        <ele>46.5</ele>
        <time>2020-09-05T10:08:14Z</time>
      </trkpt>
      <trkpt lat="45.13185" lon="-0.56452">
        <ele>46.5</ele>
        <time>2020-09-05T10:08:15Z</time>
      </trkpt>
      <trkpt lat="45.13187" lon="-0.56453">
        <ele>46.4</ele>
        <time>2020-09-05T10:08:17Z</time>
      </trkpt>
      <trkpt lat="45.13188" lon="-0.56453">
        <ele>46.4</ele>
        <time>2020-09-05T10:08:18Z</time>
      </trkpt>
      <trkpt lat="45.13189" lon="-0.56453">
        <ele>46.4</ele>
        <time>2020-09-05T10:08:19Z</time>
      </trkpt>
      <trkpt lat="45.13191" lon="-0.56454">
        <ele>46.3</ele>
        <time>2020-09-05T10:08:21Z</time>
      </trkpt>
      <trkpt lat="45.13193" lon="-0.56455">
        <ele>46.3</ele>
        <time>2020-09-05T10:08:22Z</time>
      </trkpt>
      <trkpt lat="45.13194" lon="-0.56456">
        <ele>46.2</ele>
        <time>2020-09-05T10:08:24Z</time>
      </trkpt>
      <trkpt lat="45.13198" lon="-0.56458">
        <ele>46.2</ele>
        <time>2020-09-05T10:08:25Z</time>
      </trkpt>
      <trkpt lat="45.13199" lon="-0.56458">
        <ele>46.1</ele>
        <time>2020-09-05T10:08:26Z</time>
      </trkpt>
      <trkpt lat="45.13202" lon="-0.5646">
        <ele>46</ele>
        <time>2020-09-05T10:08:27Z</time>
      </trkpt>
      <trkpt lat="45.13204" lon="-0.5646">
        <ele>46</ele>
        <time>2020-09-05T10:08:29Z</time>
      </trkpt>
      <trkpt lat="45.13205" lon="-0.56461">
        <ele>46</ele>
        <time>2020-09-05T10:08:30Z</time>
      </trkpt>
      <trkpt lat="45.13206" lon="-0.56461">
        <ele>45.9</ele>
        <time>2020-09-05T10:08:31Z</time>
      </trkpt>
      <trkpt lat="45.13208" lon="-0.56462">
        <ele>45.9</ele>
        <time>2020-09-05T10:08:32Z</time>
      </trkpt>
      <trkpt lat="45.13209" lon="-0.56463">
        <ele>45.9</ele>
        <time>2020-09-05T10:08:33Z</time>
      </trkpt>
      <trkpt lat="45.1321" lon="-0.56463">
        <ele>45.8</ele>
        <time>2020-09-05T10:08:34Z</time>
      </trkpt>
      <trkpt lat="45.13211" lon="-0.56464">
        <ele>45.8</ele>
        <time>2020-09-05T10:08:35Z</time>
      </trkpt>
      <trkpt lat="45.13214" lon="-0.56465">
        <ele>45.8</ele>
        <time>2020-09-05T10:08:37Z</time>
      </trkpt>
      <trkpt lat="45.13216" lon="-0.56465">
        <ele>45.7</ele>
        <time>2020-09-05T10:08:38Z</time>
      </trkpt>
      <trkpt lat="45.13217" lon="-0.56466">
        <ele>45.7</ele>
        <time>2020-09-05T10:08:39Z</time>
      </trkpt>
      <trkpt lat="45.13218" lon="-0.56466">
        <ele>45.7</ele>
        <time>2020-09-05T10:08:40Z</time>
      </trkpt>
      <trkpt lat="45.13219" lon="-0.56467">
        <ele>45.7</ele>
        <time>2020-09-05T10:08:41Z</time>
      </trkpt>
      <trkpt lat="45.1322" lon="-0.56467">
        <ele>45.7</ele>
        <time>2020-09-05T10:08:43Z</time>
      </trkpt>
      <trkpt lat="45.13221" lon="-0.56467">
        <ele>45.7</ele>
        <time>2020-09-05T10:08:44Z</time>
      </trkpt>
      <trkpt lat="45.13222" lon="-0.56467">
        <ele>45.7</ele>
        <time>2020-09-05T10:08:45Z</time>
      </trkpt>
      <trkpt lat="45.13224" lon="-0.56468">
        <ele>45.6</ele>
        <time>2020-09-05T10:08:46Z</time>
      </trkpt>
      <trkpt lat="45.13227" lon="-0.56469">
        <ele>45.6</ele>
        <time>2020-09-05T10:08:48Z</time>
      </trkpt>
      <trkpt lat="45.13228" lon="-0.56469">
        <ele>45.6</ele>
        <time>2020-09-05T10:08:50Z</time>
      </trkpt>
      <trkpt lat="45.1323" lon="-0.56469">
        <ele>45.6</ele>
        <time>2020-09-05T10:08:51Z</time>
      </trkpt>
      <trkpt lat="45.13232" lon="-0.5647">
        <ele>45.6</ele>
        <time>2020-09-05T10:08:53Z</time>
      </trkpt>
      <trkpt lat="45.13235" lon="-0.5647">
        <ele>45.5</ele>
        <time>2020-09-05T10:08:55Z</time>
      </trkpt>
      <trkpt lat="45.13236" lon="-0.56471">
        <ele>45.5</ele>
        <time>2020-09-05T10:08:56Z</time>
      </trkpt>
      <trkpt lat="45.13238" lon="-0.56471">
        <ele>45.5</ele>
        <time>2020-09-05T10:08:57Z</time>
      </trkpt>
      <trkpt lat="45.13239" lon="-0.56471">
        <ele>45.5</ele>
        <time>2020-09-05T10:08:58Z</time>
      </trkpt>
      <trkpt lat="45.1324" lon="-0.56472">
        <ele>45.5</ele>
        <time>2020-09-05T10:08:59Z</time>
      </trkpt>
      <trkpt lat="45.13242" lon="-0.56472">
        <ele>45.5</ele>
        <time>2020-09-05T10:09:00Z</time>
      </trkpt>
      <trkpt lat="45.13243" lon="-0.56471">
        <ele>45.5</ele>
        <time>2020-09-05T10:09:01Z</time>
      </trkpt>
      <trkpt lat="45.13245" lon="-0.56471">
        <ele>45.4</ele>
        <time>2020-09-05T10:09:02Z</time>
      </trkpt>
      <trkpt lat="45.13246" lon="-0.56471">
        <ele>45.4</ele>
        <time>2020-09-05T10:09:03Z</time>
      </trkpt>
      <trkpt lat="45.13247" lon="-0.56471">
        <ele>45.4</ele>
        <time>2020-09-05T10:09:04Z</time>
      </trkpt>
      <trkpt lat="45.13248" lon="-0.5647">
        <ele>45.4</ele>
        <time>2020-09-05T10:09:05Z</time>
      </trkpt>
      <trkpt lat="45.1325" lon="-0.5647">
        <ele>45.4</ele>
        <time>2020-09-05T10:09:06Z</time>
      </trkpt>
      <trkpt lat="45.13253" lon="-0.5647">
        <ele>45.4</ele>
        <time>2020-09-05T10:09:08Z</time>
      </trkpt>
      <trkpt lat="45.13254" lon="-0.5647">
        <ele>45.4</ele>
        <time>2020-09-05T10:09:09Z</time>
      </trkpt>
      <trkpt lat="45.13257" lon="-0.5647">
        <ele>45.3</ele>
        <time>2020-09-05T10:09:11Z</time>
      </trkpt>
      <trkpt lat="45.13258" lon="-0.56469">
        <ele>45.3</ele>
        <time>2020-09-05T10:09:13Z</time>
      </trkpt>
      <trkpt lat="45.13259" lon="-0.56469">
        <ele>45.3</ele>
        <time>2020-09-05T10:09:14Z</time>
      </trkpt>
      <trkpt lat="45.1326" lon="-0.56469">
        <ele>45.3</ele>
        <time>2020-09-05T10:09:15Z</time>
      </trkpt>
      <trkpt lat="45.13261" lon="-0.56469">
        <ele>45.3</ele>
        <time>2020-09-05T10:09:16Z</time>
      </trkpt>
      <trkpt lat="45.13263" lon="-0.56468">
        <ele>45.3</ele>
        <time>2020-09-05T10:09:18Z</time>
      </trkpt>
      <trkpt lat="45.13265" lon="-0.56468">
        <ele>45.2</ele>
        <time>2020-09-05T10:09:19Z</time>
      </trkpt>
      <trkpt lat="45.13266" lon="-0.56467">
        <ele>45.2</ele>
        <time>2020-09-05T10:09:20Z</time>
      </trkpt>
      <trkpt lat="45.13269" lon="-0.56466">
        <ele>45.2</ele>
        <time>2020-09-05T10:09:22Z</time>
      </trkpt>
      <trkpt lat="45.13271" lon="-0.56466">
        <ele>45.2</ele>
        <time>2020-09-05T10:09:24Z</time>
      </trkpt>
      <trkpt lat="45.13274" lon="-0.56464">
        <ele>45.2</ele>
        <time>2020-09-05T10:09:26Z</time>
      </trkpt>
      <trkpt lat="45.13275" lon="-0.56464">
        <ele>45.2</ele>
        <time>2020-09-05T10:09:27Z</time>
      </trkpt>
      <trkpt lat="45.13277" lon="-0.56463">
        <ele>45.2</ele>
        <time>2020-09-05T10:09:28Z</time>
      </trkpt>
      <trkpt lat="45.1328" lon="-0.56463">
        <ele>45.1</ele>
        <time>2020-09-05T10:09:30Z</time>
      </trkpt>
      <trkpt lat="45.13281" lon="-0.56463">
        <ele>45.1</ele>
        <time>2020-09-05T10:09:31Z</time>
      </trkpt>
      <trkpt lat="45.13283" lon="-0.56462">
        <ele>45.1</ele>
        <time>2020-09-05T10:09:33Z</time>
      </trkpt>
      <trkpt lat="45.13285" lon="-0.56461">
        <ele>45.1</ele>
        <time>2020-09-05T10:09:35Z</time>
      </trkpt>
      <trkpt lat="45.13288" lon="-0.5646">
        <ele>45.1</ele>
        <time>2020-09-05T10:09:37Z</time>
      </trkpt>
      <trkpt lat="45.1329" lon="-0.56459">
        <ele>45.1</ele>
        <time>2020-09-05T10:09:38Z</time>
      </trkpt>
      <trkpt lat="45.13292" lon="-0.56458">
        <ele>45.1</ele>
        <time>2020-09-05T10:09:40Z</time>
      </trkpt>
      <trkpt lat="45.13293" lon="-0.56458">
        <ele>45.1</ele>
        <time>2020-09-05T10:09:41Z</time>
      </trkpt>
      <trkpt lat="45.13295" lon="-0.56458">
        <ele>45.1</ele>
        <time>2020-09-05T10:09:43Z</time>
      </trkpt>
      <trkpt lat="45.13298" lon="-0.56457">
        <ele>45.1</ele>
        <time>2020-09-05T10:09:44Z</time>
      </trkpt>
      <trkpt lat="45.133" lon="-0.56457">
        <ele>45.1</ele>
        <time>2020-09-05T10:09:46Z</time>
      </trkpt>
      <trkpt lat="45.13301" lon="-0.56456">
        <ele>45.1</ele>
        <time>2020-09-05T10:09:47Z</time>
      </trkpt>
      <trkpt lat="45.13303" lon="-0.56454">
        <ele>45.1</ele>
        <time>2020-09-05T10:09:48Z</time>
      </trkpt>
      <trkpt lat="45.13304" lon="-0.56453">
        <ele>45.1</ele>
        <time>2020-09-05T10:09:50Z</time>
      </trkpt>
      <trkpt lat="45.13306" lon="-0.56453">
        <ele>45.1</ele>
        <time>2020-09-05T10:09:51Z</time>
      </trkpt>
      <trkpt lat="45.13307" lon="-0.56452">
        <ele>45.2</ele>
        <time>2020-09-05T10:09:52Z</time>
      </trkpt>
      <trkpt lat="45.13309" lon="-0.56452">
        <ele>45.2</ele>
        <time>2020-09-05T10:09:54Z</time>
      </trkpt>
      <trkpt lat="45.13311" lon="-0.56451">
        <ele>45.2</ele>
        <time>2020-09-05T10:09:55Z</time>
      </trkpt>
      <trkpt lat="45.13313" lon="-0.5645">
        <ele>45.2</ele>
        <time>2020-09-05T10:09:57Z</time>
      </trkpt>
      <trkpt lat="45.13315" lon="-0.5645">
        <ele>45.2</ele>
        <time>2020-09-05T10:09:58Z</time>
      </trkpt>
      <trkpt lat="45.13316" lon="-0.5645">
        <ele>45.2</ele>
        <time>2020-09-05T10:09:59Z</time>
      </trkpt>
      <trkpt lat="45.13317" lon="-0.56449">
        <ele>45.2</ele>
        <time>2020-09-05T10:10:00Z</time>
      </trkpt>
      <trkpt lat="45.13318" lon="-0.56449">
        <ele>45.2</ele>
        <time>2020-09-05T10:10:01Z</time>
      </trkpt>
      <trkpt lat="45.13319" lon="-0.56449">
        <ele>45.2</ele>
        <time>2020-09-05T10:10:02Z</time>
      </trkpt>
      <trkpt lat="45.13321" lon="-0.56448">
        <ele>45.2</ele>
        <time>2020-09-05T10:10:04Z</time>
      </trkpt>
      <trkpt lat="45.13324" lon="-0.56447">
        <ele>45.2</ele>
        <time>2020-09-05T10:10:06Z</time>
      </trkpt>
      <trkpt lat="45.13325" lon="-0.56447">
        <ele>45.2</ele>
        <time>2020-09-05T10:10:07Z</time>
      </trkpt>
      <trkpt lat="45.13326" lon="-0.56447">
        <ele>45.2</ele>
        <time>2020-09-05T10:10:09Z</time>
      </trkpt>
      <trkpt lat="45.13327" lon="-0.56446">
        <ele>45.2</ele>
        <time>2020-09-05T10:10:10Z</time>
      </trkpt>
      <trkpt lat="45.13328" lon="-0.56446">
        <ele>45.2</ele>
        <time>2020-09-05T10:10:11Z</time>
      </trkpt>
      <trkpt lat="45.13328" lon="-0.56445">
        <ele>45.2</ele>
        <time>2020-09-05T10:10:12Z</time>
      </trkpt>
      <trkpt lat="45.1333" lon="-0.56445">
        <ele>45.2</ele>
        <time>2020-09-05T10:10:13Z</time>
      </trkpt>
      <trkpt lat="45.13331" lon="-0.56445">
        <ele>45.2</ele>
        <time>2020-09-05T10:10:14Z</time>
      </trkpt>
      <trkpt lat="45.13332" lon="-0.56444">
        <ele>45.2</ele>
        <time>2020-09-05T10:10:15Z</time>
      </trkpt>
      <trkpt lat="45.13333" lon="-0.56444">
        <ele>45.2</ele>
        <time>2020-09-05T10:10:16Z</time>
      </trkpt>
      <trkpt lat="45.13334" lon="-0.56443">
        <ele>45.2</ele>
        <time>2020-09-05T10:10:17Z</time>
      </trkpt>
      <trkpt lat="45.13335" lon="-0.56443">
        <ele>45.2</ele>
        <time>2020-09-05T10:10:18Z</time>
      </trkpt>
      <trkpt lat="45.13336" lon="-0.56443">
        <ele>45.2</ele>
        <time>2020-09-05T10:10:19Z</time>
      </trkpt>
      <trkpt lat="45.13337" lon="-0.56442">
        <ele>45.2</ele>
        <time>2020-09-05T10:10:20Z</time>
      </trkpt>
      <trkpt lat="45.13338" lon="-0.56442">
        <ele>45.2</ele>
        <time>2020-09-05T10:10:22Z</time>
      </trkpt>
      <trkpt lat="45.13342" lon="-0.5644">
        <ele>45.2</ele>
        <time>2020-09-05T10:10:24Z</time>
      </trkpt>
      <trkpt lat="45.13344" lon="-0.56439">
        <ele>45.3</ele>
        <time>2020-09-05T10:10:25Z</time>
      </trkpt>
      <trkpt lat="45.13345" lon="-0.56439">
        <ele>45.3</ele>
        <time>2020-09-05T10:10:26Z</time>
      </trkpt>
      <trkpt lat="45.13348" lon="-0.56438">
        <ele>45.3</ele>
        <time>2020-09-05T10:10:27Z</time>
      </trkpt>
      <trkpt lat="45.13349" lon="-0.56437">
        <ele>45.3</ele>
        <time>2020-09-05T10:10:28Z</time>
      </trkpt>
      <trkpt lat="45.13352" lon="-0.56436">
        <ele>45.3</ele>
        <time>2020-09-05T10:10:30Z</time>
      </trkpt>
      <trkpt lat="45.13353" lon="-0.56436">
        <ele>45.3</ele>
        <time>2020-09-05T10:10:31Z</time>
      </trkpt>
      <trkpt lat="45.13354" lon="-0.56435">
        <ele>45.4</ele>
        <time>2020-09-05T10:10:33Z</time>
      </trkpt>
      <trkpt lat="45.13356" lon="-0.56434">
        <ele>45.4</ele>
        <time>2020-09-05T10:10:34Z</time>
      </trkpt>
      <trkpt lat="45.13357" lon="-0.56433">
        <ele>45.4</ele>
        <time>2020-09-05T10:10:35Z</time>
      </trkpt>
      <trkpt lat="45.13359" lon="-0.56433">
        <ele>45.4</ele>
        <time>2020-09-05T10:10:36Z</time>
      </trkpt>
      <trkpt lat="45.1336" lon="-0.56432">
        <ele>45.4</ele>
        <time>2020-09-05T10:10:37Z</time>
      </trkpt>
      <trkpt lat="45.13363" lon="-0.5643">
        <ele>45.5</ele>
        <time>2020-09-05T10:10:39Z</time>
      </trkpt>
      <trkpt lat="45.13365" lon="-0.56429">
        <ele>45.5</ele>
        <time>2020-09-05T10:10:40Z</time>
      </trkpt>
      <trkpt lat="45.13366" lon="-0.56429">
        <ele>45.5</ele>
        <time>2020-09-05T10:10:42Z</time>
      </trkpt>
      <trkpt lat="45.13367" lon="-0.56429">
        <ele>45.5</ele>
        <time>2020-09-05T10:10:43Z</time>
      </trkpt>
      <trkpt lat="45.13368" lon="-0.56428">
        <ele>45.5</ele>
        <time>2020-09-05T10:10:45Z</time>
      </trkpt>
      <trkpt lat="45.13368" lon="-0.56426">
        <ele>45.5</ele>
        <time>2020-09-05T10:10:46Z</time>
      </trkpt>
      <trkpt lat="45.13369" lon="-0.56425">
        <ele>45.5</ele>
        <time>2020-09-05T10:10:47Z</time>
      </trkpt>
      <trkpt lat="45.1337" lon="-0.56423">
        <ele>45.5</ele>
        <time>2020-09-05T10:10:48Z</time>
      </trkpt>
      <trkpt lat="45.13371" lon="-0.56422">
        <ele>45.5</ele>
        <time>2020-09-05T10:10:49Z</time>
      </trkpt>
      <trkpt lat="45.13372" lon="-0.56421">
        <ele>45.5</ele>
        <time>2020-09-05T10:10:50Z</time>
      </trkpt>
      <trkpt lat="45.13374" lon="-0.56419">
        <ele>45.5</ele>
        <time>2020-09-05T10:10:52Z</time>
      </trkpt>
      <trkpt lat="45.13375" lon="-0.56419">
        <ele>45.5</ele>
        <time>2020-09-05T10:10:53Z</time>
      </trkpt>
      <trkpt lat="45.13377" lon="-0.56419">
        <ele>45.5</ele>
        <time>2020-09-05T10:10:55Z</time>
      </trkpt>
      <trkpt lat="45.13378" lon="-0.56419">
        <ele>45.5</ele>
        <time>2020-09-05T10:10:56Z</time>
      </trkpt>
      <trkpt lat="45.1338" lon="-0.56418">
        <ele>45.5</ele>
        <time>2020-09-05T10:10:57Z</time>
      </trkpt>
      <trkpt lat="45.13381" lon="-0.56418">
        <ele>45.5</ele>
        <time>2020-09-05T10:10:58Z</time>
      </trkpt>
      <trkpt lat="45.13383" lon="-0.56417">
        <ele>45.5</ele>
        <time>2020-09-05T10:10:59Z</time>
      </trkpt>
      <trkpt lat="45.13384" lon="-0.56416">
        <ele>45.5</ele>
        <time>2020-09-05T10:11:00Z</time>
      </trkpt>
      <trkpt lat="45.13384" lon="-0.56416">
        <ele>45.5</ele>
        <time>2020-09-05T10:11:01Z</time>
      </trkpt>
      <trkpt lat="45.13386" lon="-0.56415">
        <ele>45.6</ele>
        <time>2020-09-05T10:11:02Z</time>
      </trkpt>
      <trkpt lat="45.13388" lon="-0.56415">
        <ele>45.6</ele>
        <time>2020-09-05T10:11:03Z</time>
      </trkpt>
      <trkpt lat="45.13388" lon="-0.56414">
        <ele>45.6</ele>
        <time>2020-09-05T10:11:04Z</time>
      </trkpt>
      <trkpt lat="45.1339" lon="-0.56414">
        <ele>45.6</ele>
        <time>2020-09-05T10:11:06Z</time>
      </trkpt>
      <trkpt lat="45.13391" lon="-0.56413">
        <ele>45.6</ele>
        <time>2020-09-05T10:11:07Z</time>
      </trkpt>
      <trkpt lat="45.13392" lon="-0.56413">
        <ele>45.6</ele>
        <time>2020-09-05T10:11:08Z</time>
      </trkpt>
      <trkpt lat="45.13393" lon="-0.56413">
        <ele>45.6</ele>
        <time>2020-09-05T10:11:09Z</time>
      </trkpt>
      <trkpt lat="45.13395" lon="-0.56412">
        <ele>45.6</ele>
        <time>2020-09-05T10:11:10Z</time>
      </trkpt>
      <trkpt lat="45.13396" lon="-0.56411">
        <ele>45.6</ele>
        <time>2020-09-05T10:11:11Z</time>
      </trkpt>
      <trkpt lat="45.13397" lon="-0.56411">
        <ele>45.6</ele>
        <time>2020-09-05T10:11:12Z</time>
      </trkpt>
      <trkpt lat="45.13398" lon="-0.5641">
        <ele>45.6</ele>
        <time>2020-09-05T10:11:13Z</time>
      </trkpt>
      <trkpt lat="45.13399" lon="-0.5641">
        <ele>45.6</ele>
        <time>2020-09-05T10:11:14Z</time>
      </trkpt>
      <trkpt lat="45.13401" lon="-0.56409">
        <ele>45.6</ele>
        <time>2020-09-05T10:11:16Z</time>
      </trkpt>
      <trkpt lat="45.13403" lon="-0.56409">
        <ele>45.6</ele>
        <time>2020-09-05T10:11:17Z</time>
      </trkpt>
      <trkpt lat="45.13404" lon="-0.56409">
        <ele>45.6</ele>
        <time>2020-09-05T10:11:19Z</time>
      </trkpt>
      <trkpt lat="45.13405" lon="-0.56408">
        <ele>45.6</ele>
        <time>2020-09-05T10:11:20Z</time>
      </trkpt>
      <trkpt lat="45.13408" lon="-0.56407">
        <ele>45.6</ele>
        <time>2020-09-05T10:11:22Z</time>
      </trkpt>
      <trkpt lat="45.13409" lon="-0.56406">
        <ele>45.6</ele>
        <time>2020-09-05T10:11:23Z</time>
      </trkpt>
      <trkpt lat="45.13412" lon="-0.56404">
        <ele>45.6</ele>
        <time>2020-09-05T10:11:24Z</time>
      </trkpt>
      <trkpt lat="45.13414" lon="-0.56403">
        <ele>45.6</ele>
        <time>2020-09-05T10:11:26Z</time>
      </trkpt>
      <trkpt lat="45.13415" lon="-0.56402">
        <ele>45.6</ele>
        <time>2020-09-05T10:11:27Z</time>
      </trkpt>
      <trkpt lat="45.13416" lon="-0.56402">
        <ele>45.6</ele>
        <time>2020-09-05T10:11:28Z</time>
      </trkpt>
      <trkpt lat="45.13418" lon="-0.564">
        <ele>45.7</ele>
        <time>2020-09-05T10:11:29Z</time>
      </trkpt>
      <trkpt lat="45.13419" lon="-0.56399">
        <ele>45.7</ele>
        <time>2020-09-05T10:11:31Z</time>
      </trkpt>
      <trkpt lat="45.1342" lon="-0.56398">
        <ele>45.7</ele>
        <time>2020-09-05T10:11:32Z</time>
      </trkpt>
      <trkpt lat="45.13421" lon="-0.56397">
        <ele>45.7</ele>
        <time>2020-09-05T10:11:34Z</time>
      </trkpt>
      <trkpt lat="45.13423" lon="-0.56396">
        <ele>45.7</ele>
        <time>2020-09-05T10:11:35Z</time>
      </trkpt>
      <trkpt lat="45.13424" lon="-0.56392">
        <ele>45.8</ele>
        <time>2020-09-05T10:11:37Z</time>
      </trkpt>
      <trkpt lat="45.13425" lon="-0.5639">
        <ele>45.8</ele>
        <time>2020-09-05T10:11:38Z</time>
      </trkpt>
      <trkpt lat="45.13425" lon="-0.56387">
        <ele>45.8</ele>
        <time>2020-09-05T10:11:40Z</time>
      </trkpt>
      <trkpt lat="45.13425" lon="-0.56385">
        <ele>45.8</ele>
        <time>2020-09-05T10:11:41Z</time>
      </trkpt>
      <trkpt lat="45.13425" lon="-0.56384">
        <ele>45.8</ele>
        <time>2020-09-05T10:11:42Z</time>
      </trkpt>
      <trkpt lat="45.13425" lon="-0.56382">
        <ele>45.8</ele>
        <time>2020-09-05T10:11:44Z</time>
      </trkpt>
      <trkpt lat="45.13425" lon="-0.5638">
        <ele>45.8</ele>
        <time>2020-09-05T10:11:45Z</time>
      </trkpt>
      <trkpt lat="45.13425" lon="-0.56377">
        <ele>45.8</ele>
        <time>2020-09-05T10:11:46Z</time>
      </trkpt>
      <trkpt lat="45.13425" lon="-0.56376">
        <ele>45.8</ele>
        <time>2020-09-05T10:11:47Z</time>
      </trkpt>
      <trkpt lat="45.13425" lon="-0.56375">
        <ele>45.8</ele>
        <time>2020-09-05T10:11:48Z</time>
      </trkpt>
      <trkpt lat="45.13425" lon="-0.56373">
        <ele>45.8</ele>
        <time>2020-09-05T10:11:49Z</time>
      </trkpt>
      <trkpt lat="45.13424" lon="-0.56372">
        <ele>45.8</ele>
        <time>2020-09-05T10:11:50Z</time>
      </trkpt>
      <trkpt lat="45.13424" lon="-0.5637">
        <ele>45.8</ele>
        <time>2020-09-05T10:11:51Z</time>
      </trkpt>
      <trkpt lat="45.13424" lon="-0.56369">
        <ele>45.8</ele>
        <time>2020-09-05T10:11:52Z</time>
      </trkpt>
      <trkpt lat="45.13423" lon="-0.56367">
        <ele>45.8</ele>
        <time>2020-09-05T10:11:53Z</time>
      </trkpt>
      <trkpt lat="45.13423" lon="-0.56366">
        <ele>45.8</ele>
        <time>2020-09-05T10:11:54Z</time>
      </trkpt>
      <trkpt lat="45.13422" lon="-0.56363">
        <ele>45.7</ele>
        <time>2020-09-05T10:11:56Z</time>
      </trkpt>
      <trkpt lat="45.13421" lon="-0.56361">
        <ele>45.7</ele>
        <time>2020-09-05T10:11:57Z</time>
      </trkpt>
      <trkpt lat="45.1342" lon="-0.56358">
        <ele>45.7</ele>
        <time>2020-09-05T10:11:58Z</time>
      </trkpt>
      <trkpt lat="45.1342" lon="-0.56355">
        <ele>45.7</ele>
        <time>2020-09-05T10:12:00Z</time>
      </trkpt>
      <trkpt lat="45.13419" lon="-0.56351">
        <ele>45.6</ele>
        <time>2020-09-05T10:12:01Z</time>
      </trkpt>
      <trkpt lat="45.13419" lon="-0.5635">
        <ele>45.6</ele>
        <time>2020-09-05T10:12:02Z</time>
      </trkpt>
      <trkpt lat="45.13418" lon="-0.56347">
        <ele>45.5</ele>
        <time>2020-09-05T10:12:04Z</time>
      </trkpt>
      <trkpt lat="45.13418" lon="-0.56346">
        <ele>45.5</ele>
        <time>2020-09-05T10:12:05Z</time>
      </trkpt>
      <trkpt lat="45.13417" lon="-0.56343">
        <ele>45.5</ele>
        <time>2020-09-05T10:12:06Z</time>
      </trkpt>
      <trkpt lat="45.13416" lon="-0.5634">
        <ele>45.4</ele>
        <time>2020-09-05T10:12:08Z</time>
      </trkpt>
      <trkpt lat="45.13415" lon="-0.56336">
        <ele>45.3</ele>
        <time>2020-09-05T10:12:09Z</time>
      </trkpt>
      <trkpt lat="45.13415" lon="-0.56334">
        <ele>45.3</ele>
        <time>2020-09-05T10:12:11Z</time>
      </trkpt>
      <trkpt lat="45.13414" lon="-0.56332">
        <ele>45.2</ele>
        <time>2020-09-05T10:12:12Z</time>
      </trkpt>
      <trkpt lat="45.13414" lon="-0.5633">
        <ele>45.2</ele>
        <time>2020-09-05T10:12:13Z</time>
      </trkpt>
      <trkpt lat="45.13413" lon="-0.56329">
        <ele>45.2</ele>
        <time>2020-09-05T10:12:14Z</time>
      </trkpt>
      <trkpt lat="45.13413" lon="-0.56328">
        <ele>45.1</ele>
        <time>2020-09-05T10:12:15Z</time>
      </trkpt>
      <trkpt lat="45.13413" lon="-0.56326">
        <ele>45.1</ele>
        <time>2020-09-05T10:12:16Z</time>
      </trkpt>
      <trkpt lat="45.13412" lon="-0.56325">
        <ele>45.1</ele>
        <time>2020-09-05T10:12:17Z</time>
      </trkpt>
      <trkpt lat="45.13412" lon="-0.56323">
        <ele>45</ele>
        <time>2020-09-05T10:12:18Z</time>
      </trkpt>
      <trkpt lat="45.13411" lon="-0.56322">
        <ele>45</ele>
        <time>2020-09-05T10:12:19Z</time>
      </trkpt>
      <trkpt lat="45.13411" lon="-0.56319">
        <ele>44.9</ele>
        <time>2020-09-05T10:12:21Z</time>
      </trkpt>
      <trkpt lat="45.1341" lon="-0.56317">
        <ele>44.9</ele>
        <time>2020-09-05T10:12:22Z</time>
      </trkpt>
      <trkpt lat="45.1341" lon="-0.56315">
        <ele>44.8</ele>
        <time>2020-09-05T10:12:24Z</time>
      </trkpt>
      <trkpt lat="45.13409" lon="-0.56313">
        <ele>44.8</ele>
        <time>2020-09-05T10:12:25Z</time>
      </trkpt>
      <trkpt lat="45.13409" lon="-0.56312">
        <ele>44.8</ele>
        <time>2020-09-05T10:12:26Z</time>
      </trkpt>
      <trkpt lat="45.13408" lon="-0.5631">
        <ele>44.8</ele>
        <time>2020-09-05T10:12:27Z</time>
      </trkpt>
      <trkpt lat="45.13408" lon="-0.56309">
        <ele>44.8</ele>
        <time>2020-09-05T10:12:28Z</time>
      </trkpt>
      <trkpt lat="45.13407" lon="-0.56306">
        <ele>44.7</ele>
        <time>2020-09-05T10:12:29Z</time>
      </trkpt>
      <trkpt lat="45.13407" lon="-0.56305">
        <ele>44.7</ele>
        <time>2020-09-05T10:12:30Z</time>
      </trkpt>
      <trkpt lat="45.13406" lon="-0.56304">
        <ele>44.7</ele>
        <time>2020-09-05T10:12:31Z</time>
      </trkpt>
      <trkpt lat="45.13406" lon="-0.56301">
        <ele>44.7</ele>
        <time>2020-09-05T10:12:32Z</time>
      </trkpt>
      <trkpt lat="45.13405" lon="-0.563">
        <ele>44.7</ele>
        <time>2020-09-05T10:12:33Z</time>
      </trkpt>
      <trkpt lat="45.13405" lon="-0.56298">
        <ele>44.7</ele>
        <time>2020-09-05T10:12:34Z</time>
      </trkpt>
      <trkpt lat="45.13405" lon="-0.56297">
        <ele>44.7</ele>
        <time>2020-09-05T10:12:35Z</time>
      </trkpt>
      <trkpt lat="45.13404" lon="-0.56295">
        <ele>44.7</ele>
        <time>2020-09-05T10:12:36Z</time>
      </trkpt>
      <trkpt lat="45.13404" lon="-0.56294">
        <ele>44.6</ele>
        <time>2020-09-05T10:12:37Z</time>
      </trkpt>
      <trkpt lat="45.13404" lon="-0.56292">
        <ele>44.6</ele>
        <time>2020-09-05T10:12:38Z</time>
      </trkpt>
      <trkpt lat="45.13403" lon="-0.5629">
        <ele>44.6</ele>
        <time>2020-09-05T10:12:39Z</time>
      </trkpt>
      <trkpt lat="45.13403" lon="-0.56289">
        <ele>44.6</ele>
        <time>2020-09-05T10:12:40Z</time>
      </trkpt>
      <trkpt lat="45.13402" lon="-0.56287">
        <ele>44.6</ele>
        <time>2020-09-05T10:12:41Z</time>
      </trkpt>
      <trkpt lat="45.13401" lon="-0.56285">
        <ele>44.5</ele>
        <time>2020-09-05T10:12:42Z</time>
      </trkpt>
      <trkpt lat="45.13401" lon="-0.56284">
        <ele>44.5</ele>
        <time>2020-09-05T10:12:44Z</time>
      </trkpt>
      <trkpt lat="45.134" lon="-0.56282">
        <ele>44.5</ele>
        <time>2020-09-05T10:12:45Z</time>
      </trkpt>
      <trkpt lat="45.13399" lon="-0.5628">
        <ele>44.5</ele>
        <time>2020-09-05T10:12:46Z</time>
      </trkpt>
      <trkpt lat="45.13398" lon="-0.56276">
        <ele>44.4</ele>
        <time>2020-09-05T10:12:48Z</time>
      </trkpt>
      <trkpt lat="45.13397" lon="-0.56274">
        <ele>44.4</ele>
        <time>2020-09-05T10:12:49Z</time>
      </trkpt>
      <trkpt lat="45.13397" lon="-0.56272">
        <ele>44.4</ele>
        <time>2020-09-05T10:12:51Z</time>
      </trkpt>
      <trkpt lat="45.13396" lon="-0.5627">
        <ele>44.3</ele>
        <time>2020-09-05T10:12:52Z</time>
      </trkpt>
      <trkpt lat="45.13396" lon="-0.56269">
        <ele>44.3</ele>
        <time>2020-09-05T10:12:53Z</time>
      </trkpt>
      <trkpt lat="45.13395" lon="-0.56266">
        <ele>44.3</ele>
        <time>2020-09-05T10:12:54Z</time>
      </trkpt>
      <trkpt lat="45.13393" lon="-0.56263">
        <ele>44.3</ele>
        <time>2020-09-05T10:12:56Z</time>
      </trkpt>
      <trkpt lat="45.13393" lon="-0.56262">
        <ele>44.3</ele>
        <time>2020-09-05T10:12:57Z</time>
      </trkpt>
      <trkpt lat="45.13392" lon="-0.56257">
        <ele>44.2</ele>
        <time>2020-09-05T10:12:59Z</time>
      </trkpt>
      <trkpt lat="45.13391" lon="-0.56257">
        <ele>44.2</ele>
        <time>2020-09-05T10:13:00Z</time>
      </trkpt>
      <trkpt lat="45.13391" lon="-0.56255">
        <ele>44.2</ele>
        <time>2020-09-05T10:13:01Z</time>
      </trkpt>
      <trkpt lat="45.1339" lon="-0.56253">
        <ele>44.2</ele>
        <time>2020-09-05T10:13:02Z</time>
      </trkpt>
      <trkpt lat="45.13389" lon="-0.5625">
        <ele>44.2</ele>
        <time>2020-09-05T10:13:03Z</time>
      </trkpt>
      <trkpt lat="45.13389" lon="-0.56249">
        <ele>44.2</ele>
        <time>2020-09-05T10:13:04Z</time>
      </trkpt>
      <trkpt lat="45.13389" lon="-0.56248">
        <ele>44.2</ele>
        <time>2020-09-05T10:13:05Z</time>
      </trkpt>
      <trkpt lat="45.13389" lon="-0.56247">
        <ele>44.2</ele>
        <time>2020-09-05T10:13:07Z</time>
      </trkpt>
      <trkpt lat="45.13388" lon="-0.56246">
        <ele>44.2</ele>
        <time>2020-09-05T10:13:08Z</time>
      </trkpt>
      <trkpt lat="45.13388" lon="-0.56244">
        <ele>44.2</ele>
        <time>2020-09-05T10:13:09Z</time>
      </trkpt>
      <trkpt lat="45.13387" lon="-0.56243">
        <ele>44.1</ele>
        <time>2020-09-05T10:13:10Z</time>
      </trkpt>
      <trkpt lat="45.13387" lon="-0.56241">
        <ele>44.1</ele>
        <time>2020-09-05T10:13:11Z</time>
      </trkpt>
      <trkpt lat="45.13386" lon="-0.56238">
        <ele>44.1</ele>
        <time>2020-09-05T10:13:12Z</time>
      </trkpt>
      <trkpt lat="45.13385" lon="-0.56237">
        <ele>44.1</ele>
        <time>2020-09-05T10:13:13Z</time>
      </trkpt>
      <trkpt lat="45.13385" lon="-0.56236">
        <ele>44.1</ele>
        <time>2020-09-05T10:13:14Z</time>
      </trkpt>
      <trkpt lat="45.13385" lon="-0.56235">
        <ele>44.1</ele>
        <time>2020-09-05T10:13:15Z</time>
      </trkpt>
      <trkpt lat="45.13384" lon="-0.56234">
        <ele>44</ele>
        <time>2020-09-05T10:13:16Z</time>
      </trkpt>
      <trkpt lat="45.13384" lon="-0.56232">
        <ele>44</ele>
        <time>2020-09-05T10:13:17Z</time>
      </trkpt>
      <trkpt lat="45.13383" lon="-0.56228">
        <ele>44</ele>
        <time>2020-09-05T10:13:19Z</time>
      </trkpt>
      <trkpt lat="45.13382" lon="-0.56225">
        <ele>44</ele>
        <time>2020-09-05T10:13:21Z</time>
      </trkpt>
      <trkpt lat="45.13382" lon="-0.56223">
        <ele>43.9</ele>
        <time>2020-09-05T10:13:22Z</time>
      </trkpt>
      <trkpt lat="45.13381" lon="-0.56219">
        <ele>43.9</ele>
        <time>2020-09-05T10:13:23Z</time>
      </trkpt>
      <trkpt lat="45.1338" lon="-0.56218">
        <ele>43.9</ele>
        <time>2020-09-05T10:13:24Z</time>
      </trkpt>
      <trkpt lat="45.1338" lon="-0.56216">
        <ele>43.9</ele>
        <time>2020-09-05T10:13:26Z</time>
      </trkpt>
      <trkpt lat="45.13379" lon="-0.56214">
        <ele>43.8</ele>
        <time>2020-09-05T10:13:27Z</time>
      </trkpt>
      <trkpt lat="45.13378" lon="-0.56211">
        <ele>43.8</ele>
        <time>2020-09-05T10:13:29Z</time>
      </trkpt>
      <trkpt lat="45.13377" lon="-0.56209">
        <ele>43.8</ele>
        <time>2020-09-05T10:13:31Z</time>
      </trkpt>
      <trkpt lat="45.13377" lon="-0.56206">
        <ele>43.8</ele>
        <time>2020-09-05T10:13:32Z</time>
      </trkpt>
      <trkpt lat="45.13377" lon="-0.56204">
        <ele>43.7</ele>
        <time>2020-09-05T10:13:33Z</time>
      </trkpt>
      <trkpt lat="45.13377" lon="-0.56202">
        <ele>43.7</ele>
        <time>2020-09-05T10:13:34Z</time>
      </trkpt>
      <trkpt lat="45.13376" lon="-0.56201">
        <ele>43.7</ele>
        <time>2020-09-05T10:13:35Z</time>
      </trkpt>
      <trkpt lat="45.13376" lon="-0.56199">
        <ele>43.7</ele>
        <time>2020-09-05T10:13:36Z</time>
      </trkpt>
      <trkpt lat="45.13376" lon="-0.56198">
        <ele>43.7</ele>
        <time>2020-09-05T10:13:37Z</time>
      </trkpt>
      <trkpt lat="45.13376" lon="-0.56195">
        <ele>43.7</ele>
        <time>2020-09-05T10:13:39Z</time>
      </trkpt>
      <trkpt lat="45.13376" lon="-0.56194">
        <ele>43.6</ele>
        <time>2020-09-05T10:13:40Z</time>
      </trkpt>
      <trkpt lat="45.13376" lon="-0.56192">
        <ele>43.6</ele>
        <time>2020-09-05T10:13:41Z</time>
      </trkpt>
      <trkpt lat="45.13376" lon="-0.56191">
        <ele>43.6</ele>
        <time>2020-09-05T10:13:42Z</time>
      </trkpt>
      <trkpt lat="45.13376" lon="-0.56189">
        <ele>43.6</ele>
        <time>2020-09-05T10:13:43Z</time>
      </trkpt>
      <trkpt lat="45.13376" lon="-0.56186">
        <ele>43.6</ele>
        <time>2020-09-05T10:13:44Z</time>
      </trkpt>
      <trkpt lat="45.13376" lon="-0.56185">
        <ele>43.6</ele>
        <time>2020-09-05T10:13:45Z</time>
      </trkpt>
      <trkpt lat="45.13375" lon="-0.56183">
        <ele>43.6</ele>
        <time>2020-09-05T10:13:46Z</time>
      </trkpt>
      <trkpt lat="45.13375" lon="-0.56181">
        <ele>43.6</ele>
        <time>2020-09-05T10:13:47Z</time>
      </trkpt>
      <trkpt lat="45.13374" lon="-0.56179">
        <ele>43.6</ele>
        <time>2020-09-05T10:13:48Z</time>
      </trkpt>
      <trkpt lat="45.13374" lon="-0.56177">
        <ele>43.6</ele>
        <time>2020-09-05T10:13:49Z</time>
      </trkpt>
      <trkpt lat="45.13373" lon="-0.56173">
        <ele>43.6</ele>
        <time>2020-09-05T10:13:51Z</time>
      </trkpt>
      <trkpt lat="45.13373" lon="-0.56172">
        <ele>43.6</ele>
        <time>2020-09-05T10:13:52Z</time>
      </trkpt>
      <trkpt lat="45.13372" lon="-0.5617">
        <ele>43.6</ele>
        <time>2020-09-05T10:13:53Z</time>
      </trkpt>
      <trkpt lat="45.13371" lon="-0.56166">
        <ele>43.6</ele>
        <time>2020-09-05T10:13:55Z</time>
      </trkpt>
      <trkpt lat="45.1337" lon="-0.56163">
        <ele>43.6</ele>
        <time>2020-09-05T10:13:56Z</time>
      </trkpt>
      <trkpt lat="45.1337" lon="-0.56161">
        <ele>43.6</ele>
        <time>2020-09-05T10:13:58Z</time>
      </trkpt>
      <trkpt lat="45.1337" lon="-0.5616">
        <ele>43.5</ele>
        <time>2020-09-05T10:13:59Z</time>
      </trkpt>
      <trkpt lat="45.13369" lon="-0.56157">
        <ele>43.5</ele>
        <time>2020-09-05T10:14:00Z</time>
      </trkpt>
      <trkpt lat="45.13369" lon="-0.56156">
        <ele>43.5</ele>
        <time>2020-09-05T10:14:01Z</time>
      </trkpt>
      <trkpt lat="45.13369" lon="-0.56154">
        <ele>43.5</ele>
        <time>2020-09-05T10:14:02Z</time>
      </trkpt>
      <trkpt lat="45.13368" lon="-0.56151">
        <ele>43.5</ele>
        <time>2020-09-05T10:14:04Z</time>
      </trkpt>
      <trkpt lat="45.13368" lon="-0.56149">
        <ele>43.5</ele>
        <time>2020-09-05T10:14:05Z</time>
      </trkpt>
      <trkpt lat="45.13368" lon="-0.56147">
        <ele>43.5</ele>
        <time>2020-09-05T10:14:06Z</time>
      </trkpt>
      <trkpt lat="45.13368" lon="-0.56145">
        <ele>43.5</ele>
        <time>2020-09-05T10:14:08Z</time>
      </trkpt>
      <trkpt lat="45.13368" lon="-0.56141">
        <ele>43.5</ele>
        <time>2020-09-05T10:14:09Z</time>
      </trkpt>
      <trkpt lat="45.13368" lon="-0.5614">
        <ele>43.5</ele>
        <time>2020-09-05T10:14:11Z</time>
      </trkpt>
      <trkpt lat="45.13367" lon="-0.56138">
        <ele>43.5</ele>
        <time>2020-09-05T10:14:12Z</time>
      </trkpt>
      <trkpt lat="45.13367" lon="-0.56136">
        <ele>43.5</ele>
        <time>2020-09-05T10:14:13Z</time>
      </trkpt>
      <trkpt lat="45.13367" lon="-0.56135">
        <ele>43.5</ele>
        <time>2020-09-05T10:14:14Z</time>
      </trkpt>
      <trkpt lat="45.13366" lon="-0.56133">
        <ele>43.6</ele>
        <time>2020-09-05T10:14:15Z</time>
      </trkpt>
      <trkpt lat="45.13366" lon="-0.56132">
        <ele>43.6</ele>
        <time>2020-09-05T10:14:16Z</time>
      </trkpt>
      <trkpt lat="45.13366" lon="-0.56131">
        <ele>43.6</ele>
        <time>2020-09-05T10:14:17Z</time>
      </trkpt>
      <trkpt lat="45.13365" lon="-0.56128">
        <ele>43.6</ele>
        <time>2020-09-05T10:14:19Z</time>
      </trkpt>
      <trkpt lat="45.13365" lon="-0.56127">
        <ele>43.6</ele>
        <time>2020-09-05T10:14:20Z</time>
      </trkpt>
      <trkpt lat="45.13364" lon="-0.56125">
        <ele>43.6</ele>
        <time>2020-09-05T10:14:22Z</time>
      </trkpt>
      <trkpt lat="45.13363" lon="-0.56123">
        <ele>43.6</ele>
        <time>2020-09-05T10:14:23Z</time>
      </trkpt>
      <trkpt lat="45.13362" lon="-0.5612">
        <ele>43.6</ele>
        <time>2020-09-05T10:14:24Z</time>
      </trkpt>
      <trkpt lat="45.13361" lon="-0.56119">
        <ele>43.6</ele>
        <time>2020-09-05T10:14:26Z</time>
      </trkpt>
      <trkpt lat="45.1336" lon="-0.56117">
        <ele>43.6</ele>
        <time>2020-09-05T10:14:27Z</time>
      </trkpt>
      <trkpt lat="45.13359" lon="-0.56115">
        <ele>43.7</ele>
        <time>2020-09-05T10:14:29Z</time>
      </trkpt>
      <trkpt lat="45.13358" lon="-0.56113">
        <ele>43.7</ele>
        <time>2020-09-05T10:14:30Z</time>
      </trkpt>
      <trkpt lat="45.13357" lon="-0.56111">
        <ele>43.7</ele>
        <time>2020-09-05T10:14:32Z</time>
      </trkpt>
      <trkpt lat="45.13357" lon="-0.56108">
        <ele>43.7</ele>
        <time>2020-09-05T10:14:34Z</time>
      </trkpt>
      <trkpt lat="45.13357" lon="-0.5611">
        <ele>43.7</ele>
        <time>2020-09-05T10:14:36Z</time>
      </trkpt>
      <trkpt lat="45.13357" lon="-0.5611">
        <ele>43.7</ele>
        <time>2020-09-05T10:14:37Z</time>
      </trkpt>
      <trkpt lat="45.13357" lon="-0.5611">
        <ele>43.7</ele>
        <time>2020-09-05T10:14:38Z</time>
      </trkpt>
      <trkpt lat="45.13357" lon="-0.5611">
        <ele>43.7</ele>
        <time>2020-09-05T10:14:39Z</time>
      </trkpt>
    </trkseg>
  </trk>
</gpx>